# Wetter Temperatur Luftdruck Luftfeuchtigkeit Sichtweite Windgeschwindigkeit Windrichtung Zeit
1 Clouds 9 1019 76 8000 2.6 110 21:42 28.01.2020
2 Clouds 9 1019 76 8000 2.6 110 21:42 28.01.2020
3 Clouds 9 1019 76 8000 2.6 110 21:23 28.01.2020
4 Clouds 9 1019 76 8000 2.6 110 21:23 28.01.2020
5 Clouds 11 1019 66 6000 2.6 100 20:58 28.01.2020
6 Clouds 11 1019 66 6000 2.6 100 20:40 28.01.2020
7 Clouds 11 1019 66 6000 2.6 100 20:21 28.01.2020
8 Clouds 10 1019 71 7000 2.6 110 19:39 28.01.2020
9 Clouds 10 1019 71 7000 2.6 110 19:21 28.01.2020
10 Clouds 12 1020 66 10000 2.6 70 18:59 28.01.2020
11 Clouds 12 1020 66 10000 2.6 70 18:40 28.01.2020
12 Clouds 12 1020 66 10000 2.6 70 18:22 28.01.2020
13 Clouds 12 1020 66 10000 2.6 70 18:22 28.01.2020
14 Clouds 13 1020 62 10000 1.5 120 17:59 28.01.2020
15 Clouds 13 1020 62 10000 1.5 120 17:38 28.01.2020
16 Clouds 13 1020 62 10000 1.5 120 17:19 28.01.2020
17 Clouds 14 1020 62 10000 1.5 90 16:55 28.01.2020
18 Clouds 14 1020 62 10000 1.5 90 16:37 28.01.2020
19 Clouds 14 1020 62 10000 1.5 90 16:19 28.01.2020
20 Clouds 15 1020 54 10000 2.1 160 15:44 28.01.2020
21 Clouds 15 1020 54 10000 2.1 160 15:19 28.01.2020
22 Clouds 16 1020 51 10000 0.5 0 14:55 28.01.2020
23 Clouds 16 1020 51 10000 0.5 0 14:36 28.01.2020
24 Clouds 16 1020 51 10000 0.5 0 14:18 28.01.2020
25 Clouds 16 1020 51 10000 1.5 290 13:39 28.01.2020
26 Clouds 16 1020 51 10000 1.5 290 13:21 28.01.2020
27 Clouds 16 1020 51 10000 1.5 290 13:21 28.01.2020
28 Clouds 16 1021 48 10000 2.1 230 12:42 28.01.2020
29 Clouds 16 1021 48 10000 2.1 230 12:24 28.01.2020
30 Clouds 15 1022 51 10000 1.5 0 11:55 28.01.2020
31 Clouds 15 1022 51 10000 1.5 0 11:55 28.01.2020
32 Clouds 15 1022 51 10000 1.5 0 11:37 28.01.2020
33 Clouds 15 1022 51 10000 1.5 0 11:18 28.01.2020
34 Clouds 14 1023 54 10000 1.5 240 10:40 28.01.2020
35 Clouds 14 1023 54 10000 1.5 240 10:22 28.01.2020
36 Haze 13 1024 54 4600 1 0 09:55 28.01.2020
37 Haze 13 1024 54 4600 1 0 09:37 28.01.2020
38 Haze 13 1024 54 4600 1 0 09:18 28.01.2020
39 Haze 11 1024 66 4500 1 290 08:40 28.01.2020
40 Haze 11 1024 66 4500 1 290 08:19 28.01.2020
41 Clouds 8 1024 81 10000 1.5 330 07:38 28.01.2020
42 Clouds 4 1024 100 10000 1.5 260 06:51 28.01.2020
43 Clouds 4 1024 100 10000 1.5 260 06:28 28.01.2020
44 Clouds 4 1023 93 10000 1.5 280 05:55 28.01.2020
45 Clouds 4 1023 93 10000 1.5 280 05:33 28.01.2020
46 Clouds 4 1023 100 10000 1 280 04:38 28.01.2020
47 Clouds 3 1023 100 10000 1 330 03:33 28.01.2020
48 Clouds 4 1023 93 10000 1.5 220 02:25 28.01.2020
49 Clouds 4 1023 93 10000 1.5 220 02:25 28.01.2020
50 Clouds 5 1023 93 10000 1 290 01:58 28.01.2020
51 Clouds 5 1023 93 10000 1 290 01:40 28.01.2020
52 Clouds 5 1024 86 10000 1.5 290 00:51 28.01.2020
53 Clouds 5 1024 86 10000 1.5 290 00:29 28.01.2020
54 Clouds 5 1024 93 10000 1.5 320 23:52 27.01.2020
55 Clouds 5 1024 93 10000 1.5 320 23:30 27.01.2020
56 Clouds 5 1024 100 10000 1 310 22:59 27.01.2020
57 Clouds 5 1024 100 10000 1 310 22:41 27.01.2020
58 Clouds 5 1024 100 10000 1 310 22:20 27.01.2020
59 Clouds 7 1024 75 10000 1 0 21:57 27.01.2020
60 Clouds 7 1024 75 10000 1 0 21:38 27.01.2020
61 Clouds 7 1024 75 10000 1 0 21:18 27.01.2020
62 Clouds 8 1024 70 10000 1 0 20:55 27.01.2020
63 Clouds 8 1024 70 10000 1 0 20:37 27.01.2020
64 Clouds 8 1024 70 10000 1 0 20:18 27.01.2020
65 Clouds 8 1024 75 10000 1.5 300 19:41 27.01.2020
66 Clouds 8 1024 75 10000 1.5 300 19:23 27.01.2020
67 Clouds 10 1024 66 10000 2.1 290 18:56 27.01.2020
68 Clouds 10 1024 66 10000 2.1 290 18:56 27.01.2020
69 Clouds 10 1024 66 10000 2.1 290 18:38 27.01.2020
70 Clouds 10 1024 66 10000 2.1 290 18:20 27.01.2020
71 Clouds 11 1023 45 0 2.79 317 17:39 27.01.2020
72 Clear 11 1024 66 10000 2.1 300 17:21 27.01.2020
73 Clear 11 1024 66 10000 2.1 300 16:59 27.01.2020
74 Clear 11 1024 66 10000 2.1 300 16:41 27.01.2020
75 Clear 11 1024 66 10000 2.1 300 16:23 27.01.2020
76 Clear 13 1024 58 10000 3.6 320 15:55 27.01.2020
77 Clear 13 1024 58 10000 3.6 320 15:37 27.01.2020
78 Clear 13 1024 58 10000 3.6 320 15:18 27.01.2020
79 Clear 13 1024 58 10000 3.6 320 15:18 27.01.2020
80 Clear 15 1024 51 10000 4.6 310 14:43 27.01.2020
81 Clear 15 1024 51 10000 4.6 310 14:23 27.01.2020
82 Clouds 15 1024 47 10000 5.1 290 13:58 27.01.2020
83 Clouds 15 1024 47 10000 5.1 290 13:40 27.01.2020
84 Clouds 15 1024 47 10000 5.1 290 13:20 27.01.2020
85 Clouds 15 1024 47 10000 3.6 290 12:55 27.01.2020
86 Clouds 15 1024 47 10000 3.6 290 12:37 27.01.2020
87 Clouds 15 1024 47 10000 3.6 290 12:18 27.01.2020
88 Clear 14 1025 58 10000 4.1 290 11:41 27.01.2020
89 Clear 14 1025 58 10000 4.1 290 11:21 27.01.2020
90 Clear 13 1025 58 10000 4.6 290 10:43 27.01.2020
91 Clear 13 1025 58 10000 4.6 290 10:24 27.01.2020
92 Clear 13 1026 62 10000 4.1 290 09:56 27.01.2020
93 Clear 11 1026 71 10000 3.6 290 09:38 27.01.2020
94 Clear 11 1026 71 10000 3.6 290 09:18 27.01.2020
95 Clear 8 1027 75 10000 3.1 300 08:42 27.01.2020
96 Clear 8 1027 75 10000 3.1 300 08:20 27.01.2020
97 Clear 6 1027 93 10000 3.1 290 07:54 27.01.2020
98 Clear 6 1027 93 10000 3.1 290 07:34 27.01.2020
99 Clear 6 1026 93 10000 2.6 270 06:53 27.01.2020
100 Clear 5 1026 100 10000 2.1 300 06:25 27.01.2020
101 Clear 4 1026 100 10000 2.6 280 05:24 27.01.2020
102 Clear 5 1024 100 10000 2.6 280 03:49 27.01.2020
103 Clear 5 1025 100 10000 2.1 260 02:38 27.01.2020
104 Clear 6 1025 81 10000 2.1 270 01:29 27.01.2020
105 Clear 7 1025 75 10000 3.1 280 00:57 27.01.2020
106 Clear 7 1025 75 10000 3.1 280 00:36 27.01.2020
107 Clear 7 1025 75 10000 3.1 280 00:18 27.01.2020
108 Clear 7 1025 75 10000 3.1 280 00:18 27.01.2020
109 Clear 7 1025 75 10000 3.1 270 23:41 26.01.2020
110 Clear 7 1025 75 10000 3.1 270 23:19 26.01.2020
111 Clear 8 1025 70 10000 2.1 260 22:55 26.01.2020
112 Clear 8 1025 70 10000 2.1 260 22:36 26.01.2020
113 Clear 8 1025 70 10000 2.1 260 22:18 26.01.2020
114 Clear 8 1025 75 10000 3.1 260 21:55 26.01.2020
115 Clear 8 1025 75 10000 3.1 260 21:37 26.01.2020
116 Clear 8 1025 75 10000 3.1 260 21:19 26.01.2020
117 Clear 7 1025 81 10000 2.6 250 20:55 26.01.2020
118 Clear 8 1026 70 10000 1.5 250 20:36 26.01.2020
119 Clear 8 1026 70 10000 1.5 250 20:18 26.01.2020
120 Clear 8 1026 75 10000 2.1 280 19:56 26.01.2020
121 Clear 8 1026 75 10000 2.1 280 19:36 26.01.2020
122 Clear 8 1026 75 10000 2.1 280 19:18 26.01.2020
123 Clear 8 1026 70 10000 2.1 260 18:41 26.01.2020
124 Clear 9 1026 70 10000 1.5 250 18:22 26.01.2020
125 Clear 10 1026 61 10000 1.5 290 17:58 26.01.2020
126 Clear 10 1026 61 10000 1.5 290 17:39 26.01.2020
127 Clear 10 1026 61 10000 1.5 290 17:19 26.01.2020
128 Clear 11 1025 57 10000 3.1 310 16:58 26.01.2020
129 Clear 11 1025 57 10000 3.1 310 16:39 26.01.2020
130 Clear 11 1025 57 10000 3.1 310 16:39 26.01.2020
131 Clear 11 1025 57 10000 3.1 310 16:39 26.01.2020
132 Clear 11 1025 57 10000 3.1 310 16:20 26.01.2020
133 Clear 11 1024 47 0 4.53 293 15:57 26.01.2020
134 Clear 11 1024 47 0 4.53 293 15:39 26.01.2020
135 Clear 11 1024 47 0 4.53 293 15:18 26.01.2020
136 Clear 11 1024 47 0 4.53 293 14:40 26.01.2020
137 Clear 11 1024 47 0 4.53 293 14:40 26.01.2020
138 Clear 14 1024 34 0 6.23 306 14:20 26.01.2020
139 Clear 14 1024 34 0 6.23 306 13:55 26.01.2020
140 Clear 14 1024 34 0 6.23 306 13:37 26.01.2020
141 Clear 14 1024 36 0 6.28 305 13:18 26.01.2020
142 Clear 14 1024 36 0 6.28 305 13:18 26.01.2020
143 Clear 14 1024 36 0 6.28 305 12:41 26.01.2020
144 Clear 14 1024 36 0 6.28 305 12:23 26.01.2020
145 Clear 14 1024 36 0 6.28 305 11:57 26.01.2020
146 Clear 14 1024 36 0 6.28 305 11:39 26.01.2020
147 Clear 13 1027 54 10000 7.2 310 11:19 26.01.2020
148 Clear 13 1027 54 10000 7.2 310 10:58 26.01.2020
149 Clear 13 1027 54 10000 7.2 310 10:38 26.01.2020
150 Clear 13 1027 54 10000 7.2 310 10:20 26.01.2020
151 Clear 11 1028 62 10000 6.7 300 09:57 26.01.2020
152 Clear 11 1028 62 10000 6.7 300 09:39 26.01.2020
153 Clear 11 1028 62 10000 6.7 300 09:20 26.01.2020
154 Clear 10 1027 66 10000 5.1 290 08:43 26.01.2020
155 Clear 10 1027 66 10000 5.1 290 08:22 26.01.2020
156 Clear 8 1027 75 10000 4.1 280 07:57 26.01.2020
157 Clear 8 1027 75 10000 4.1 280 07:39 26.01.2020
158 Clear 8 1027 75 10000 4.1 280 07:20 26.01.2020
159 Clear 6 1027 81 10000 1.5 260 06:30 26.01.2020
160 Clear 6 1026 75 10000 5.1 310 05:31 26.01.2020
161 Clear 6 1026 75 10000 5.1 310 04:45 26.01.2020
162 Clear 7 1026 75 10000 5.7 310 02:42 26.01.2020
163 Clear 7 1026 81 10000 4.1 300 01:48 26.01.2020
164 Clear 7 1026 81 10000 4.1 300 01:24 26.01.2020
165 Clear 7 1025 93 10000 3.6 310 00:48 26.01.2020
166 Clear 7 1025 93 10000 3.6 310 00:29 26.01.2020
167 Clear 9 1024 60 0 6.41 319 23:41 25.01.2020
168 Clear 9 1024 60 0 6.41 319 23:22 25.01.2020
169 Clear 10 1024 58 0 7.1 326 22:58 25.01.2020
170 Clear 10 1024 58 0 7.1 326 22:40 25.01.2020
171 Clear 10 1024 58 0 7.1 326 22:19 25.01.2020
172 Clear 10 1024 58 0 7.1 326 21:57 25.01.2020
173 Clear 10 1024 58 0 7.1 326 21:38 25.01.2020
174 Clear 10 1024 58 0 7.1 326 21:19 25.01.2020
175 Clear 10 1024 58 0 7.1 326 20:44 25.01.2020
176 Clear 10 1024 58 0 7.1 326 20:25 25.01.2020
177 Clouds 11 1024 57 0 4.71 306 19:55 25.01.2020
178 Clouds 11 1024 57 0 4.71 306 19:37 25.01.2020
179 Clouds 11 1024 57 0 4.71 306 19:18 25.01.2020
180 Clouds 11 1024 57 0 4.71 306 18:41 25.01.2020
181 Clouds 11 1024 57 0 4.71 306 18:21 25.01.2020
182 Clouds 11 1024 57 0 4.71 306 17:58 25.01.2020
183 Clouds 11 1024 57 0 4.71 306 17:38 25.01.2020
184 Clouds 11 1023 69 0 0.41 324 17:18 25.01.2020
185 Clouds 11 1023 67 0 1.13 299 16:42 25.01.2020
186 Clouds 11 1023 67 0 1.13 299 16:23 25.01.2020
187 Clouds 11 1023 67 0 1.13 299 15:58 25.01.2020
188 Clouds 11 1023 67 0 1.13 299 15:39 25.01.2020
189 Clouds 11 1023 67 0 1.13 299 15:21 25.01.2020
190 Clouds 11 1023 67 0 1.13 299 14:43 25.01.2020
191 Clouds 13 1021 59 0 4.97 65 14:19 25.01.2020
192 Clouds 13 1021 59 0 4.97 65 13:54 25.01.2020
193 Clouds 13 1021 59 0 4.97 65 13:36 25.01.2020
194 Clouds 12 1021 60 0 3.85 83 13:18 25.01.2020
195 Clouds 12 1021 60 0 3.85 83 12:39 25.01.2020
196 Clouds 12 1022 71 9000 4.1 40 12:20 25.01.2020
197 Clouds 12 1022 71 9000 4.1 40 11:40 25.01.2020
198 Clouds 12 1022 71 9000 4.1 40 11:20 25.01.2020
199 Clouds 11 1022 71 10000 3.1 80 10:56 25.01.2020
200 Clouds 11 1022 71 10000 3.1 80 10:38 25.01.2020
201 Clouds 11 1022 71 10000 3.1 80 10:38 25.01.2020
202 Clouds 11 1022 71 10000 3.1 80 10:18 25.01.2020
203 Clouds 10 1022 71 10000 4.6 50 09:40 25.01.2020
204 Clouds 10 1022 71 10000 4.6 50 09:20 25.01.2020
205 Clouds 8 1021 87 10000 3.1 40 08:43 25.01.2020
206 Clouds 8 1020 87 10000 2.6 80 07:59 25.01.2020
207 Clouds 8 1020 87 10000 2.6 80 07:36 25.01.2020
208 Clouds 7 1019 93 10000 1 0 06:41 25.01.2020
209 Clouds 7 1019 93 10000 1 0 06:22 25.01.2020
210 Clouds 6 1018 100 10000 3.6 100 05:43 25.01.2020
211 Rain 6 1017 93 10000 2.6 110 04:24 25.01.2020
212 Clouds 6 1016 93 10000 2.6 150 03:50 25.01.2020
213 Clouds 6 1015 100 10000 3.1 170 02:38 25.01.2020
214 Clouds 7 1015 93 10000 3.6 180 01:58 25.01.2020
215 Clouds 7 1015 93 10000 3.6 180 01:23 25.01.2020
216 Rain 7 1015 100 10000 2.6 160 00:41 25.01.2020
217 Rain 7 1015 100 10000 2.6 160 00:41 25.01.2020
218 Rain 7 1015 100 10000 2.6 160 00:22 25.01.2020
219 Rain 8 1015 93 6000 3.1 230 23:42 24.01.2020
220 Rain 8 1015 93 6000 3.1 230 23:24 24.01.2020
221 Rain 9 1015 93 5000 6.2 160 22:47 24.01.2020
222 Rain 9 1015 93 5000 6.2 160 22:29 24.01.2020
223 Rain 9 1015 93 5000 3.6 170 21:59 24.01.2020
224 Rain 9 1015 93 5000 3.6 170 21:41 24.01.2020
225 Rain 9 1015 93 5000 3.6 170 21:19 24.01.2020
226 Rain 9 1015 93 6000 4.1 130 20:44 24.01.2020
227 Rain 9 1015 93 6000 4.1 130 20:23 24.01.2020
228 Rain 10 1015 93 4500 6.2 180 19:59 24.01.2020
229 Rain 10 1015 93 4500 6.2 180 19:40 24.01.2020
230 Rain 10 1015 93 4500 6.2 180 19:22 24.01.2020
231 Rain 11 1014 76 7000 6.7 130 18:57 24.01.2020
232 Rain 11 1014 76 7000 6.7 130 18:39 24.01.2020
233 Rain 11 1014 76 7000 6.7 130 18:21 24.01.2020
234 Rain 11 1014 76 7000 6.7 130 18:21 24.01.2020
235 Rain 12 1013 66 10000 8.7 140 17:42 24.01.2020
236 Rain 12 1013 66 10000 8.7 140 17:21 24.01.2020
237 Rain 13 1012 58 10000 9.3 130 16:55 24.01.2020
238 Rain 13 1012 58 10000 9.3 130 16:36 24.01.2020
239 Rain 13 1012 58 10000 9.3 130 16:18 24.01.2020
240 Clouds 13 1012 62 10000 8.2 120 15:41 24.01.2020
241 Clouds 13 1012 62 10000 8.2 120 15:21 24.01.2020
242 Clouds 14 1012 58 10000 8.7 130 14:42 24.01.2020
243 Clouds 14 1012 58 10000 8.7 130 14:23 24.01.2020
244 Clouds 13 1013 62 10000 6.7 130 13:58 24.01.2020
245 Clouds 13 1013 62 10000 6.7 130 13:40 24.01.2020
246 Clouds 13 1013 62 10000 6.7 130 13:21 24.01.2020
247 Clouds 12 1014 62 10000 6.7 140 12:42 24.01.2020
248 Clouds 12 1014 62 10000 6.7 140 12:19 24.01.2020
249 Clouds 11 1015 66 10000 6.2 140 11:44 24.01.2020
250 Clouds 11 1015 66 10000 6.2 140 11:19 24.01.2020
251 Clouds 10 1017 76 10000 4.6 140 10:43 24.01.2020
252 Clouds 10 1017 76 10000 4.6 140 10:23 24.01.2020
253 Clouds 9 1017 81 9000 6.2 140 09:59 24.01.2020
254 Clouds 9 1017 81 9000 6.2 140 09:40 24.01.2020
255 Clouds 9 1017 81 9000 6.2 140 09:22 24.01.2020
256 Mist 9 1018 93 2500 5.7 170 08:41 24.01.2020
257 Mist 9 1018 93 2500 5.7 170 08:20 24.01.2020
258 Mist 8 1017 93 1700 7.2 110 07:53 24.01.2020
259 Mist 8 1017 93 1700 7.2 110 07:35 24.01.2020
260 Mist 8 1018 93 3100 6.7 140 06:52 24.01.2020
261 Mist 8 1018 93 3100 6.7 140 06:33 24.01.2020
262 Mist 8 1018 93 3000 6.7 140 05:59 24.01.2020
263 Mist 7 1017 93 2800 5.7 140 05:18 24.01.2020
264 Mist 7 1018 93 3600 4.1 140 02:54 24.01.2020
265 Mist 7 1018 93 3600 4.1 140 02:27 24.01.2020
266 Mist 7 1019 93 3200 3.6 140 01:49 24.01.2020
267 Mist 7 1019 93 3200 3.6 140 01:31 24.01.2020
268 Mist 7 1019 93 4000 4.1 150 00:31 24.01.2020
269 Mist 7 1019 100 4500 4.1 140 23:56 23.01.2020
270 Mist 7 1019 100 4500 4.1 140 23:37 23.01.2020
271 Mist 7 1019 100 4500 4.1 140 23:18 23.01.2020
272 Mist 7 1020 100 4500 3.6 140 22:39 23.01.2020
273 Mist 7 1020 100 4500 3.6 140 22:19 23.01.2020
274 Mist 7 1021 100 4700 3.6 150 21:58 23.01.2020
275 Mist 8 1021 93 4800 3.1 150 21:39 23.01.2020
276 Mist 8 1021 93 4800 3.1 150 21:21 23.01.2020
277 Mist 8 1021 100 6000 3.1 160 20:59 23.01.2020
278 Mist 8 1021 100 6000 3.1 160 20:39 23.01.2020
279 Mist 8 1021 100 6000 3.1 160 20:39 23.01.2020
280 Mist 8 1021 100 6000 3.1 160 20:20 23.01.2020
281 Clouds 9 1020 87 8000 3.6 150 19:56 23.01.2020
282 Clouds 9 1020 87 8000 3.6 150 19:38 23.01.2020
283 Clouds 9 1020 87 8000 3.6 150 19:19 23.01.2020
284 Clouds 10 1021 81 10000 2.6 170 18:56 23.01.2020
285 Clouds 10 1021 81 10000 2.6 170 18:37 23.01.2020
286 Clouds 10 1021 81 10000 2.6 170 18:19 23.01.2020
287 Clouds 11 1020 76 10000 1 160 17:43 23.01.2020
288 Clouds 11 1020 76 10000 1 160 17:20 23.01.2020
289 Clouds 13 1020 66 10000 1.5 200 16:58 23.01.2020
290 Clouds 13 1020 66 10000 1.5 200 16:37 23.01.2020
291 Clouds 13 1020 66 10000 1.5 200 16:18 23.01.2020
292 Clouds 14 1019 58 10000 2.6 230 15:57 23.01.2020
293 Clouds 14 1019 58 10000 2.6 230 15:37 23.01.2020
294 Clouds 14 1019 58 10000 2.6 230 15:18 23.01.2020
295 Clouds 14 1019 62 10000 2.1 230 14:55 23.01.2020
296 Clouds 14 1019 62 10000 2.1 230 14:55 23.01.2020
297 Clouds 14 1019 62 10000 0.5 0 14:37 23.01.2020
298 Clouds 14 1019 62 10000 0.5 0 14:19 23.01.2020
299 Clouds 13 1019 71 10000 2.6 210 13:43 23.01.2020
300 Clouds 13 1019 71 10000 2.6 210 13:20 23.01.2020
301 Clouds 13 1019 71 10000 1.5 140 12:54 23.01.2020
302 Clouds 13 1019 71 10000 1.5 140 12:36 23.01.2020
303 Clouds 13 1019 71 10000 1.5 140 12:18 23.01.2020
304 Clouds 12 1019 71 9000 2.1 150 11:42 23.01.2020
305 Clouds 12 1019 71 9000 2.1 150 11:23 23.01.2020
306 Clouds 12 1020 76 8000 1 0 10:56 23.01.2020
307 Clouds 12 1020 76 8000 1 0 10:38 23.01.2020
308 Clouds 12 1020 76 8000 1 0 10:18 23.01.2020
309 Clouds 11 1020 87 6000 2.1 120 09:40 23.01.2020
310 Clouds 11 1020 87 6000 2.1 120 09:21 23.01.2020
311 Mist 10 1020 93 5000 1 0 08:43 23.01.2020
312 Mist 10 1020 93 5000 1 0 08:25 23.01.2020
313 Mist 9 1019 100 4400 1.5 220 07:52 23.01.2020
314 Mist 9 1019 100 4400 1.5 220 07:27 23.01.2020
315 Mist 9 1019 93 2100 0.5 0 06:58 23.01.2020
316 Mist 9 1019 93 2100 0.5 0 06:25 23.01.2020
317 Mist 8 1018 100 4300 1.44 276 05:59 23.01.2020
318 Clouds 8 1018 100 5000 1.5 250 04:25 23.01.2020
319 Clouds 9 1017 93 6000 1 350 03:23 23.01.2020
320 Clouds 9 1017 93 10000 1.5 20 01:53 23.01.2020
321 Clouds 9 1017 93 9000 1.5 10 00:44 23.01.2020
322 Clouds 9 1017 93 9000 1.5 10 00:22 23.01.2020
323 Clouds 9 1017 93 10000 2.1 60 23:46 22.01.2020
324 Clouds 9 1017 93 10000 2.1 60 23:28 22.01.2020
325 Clouds 9 1016 93 9000 1.5 90 22:43 22.01.2020
326 Clouds 9 1016 93 9000 1.5 90 22:25 22.01.2020
327 Clouds 9 1016 93 8000 2.1 120 21:59 22.01.2020
328 Clouds 9 1016 93 8000 2.1 120 21:38 22.01.2020
329 Clouds 9 1016 93 8000 2.1 120 21:19 22.01.2020
330 Clouds 9 1015 93 10000 3.6 130 20:42 22.01.2020
331 Clouds 9 1015 93 10000 3.6 130 20:23 22.01.2020
332 Clouds 9 1015 93 6000 4.1 100 19:59 22.01.2020
333 Clouds 9 1015 93 6000 4.1 100 19:41 22.01.2020
334 Clouds 9 1015 93 6000 4.1 100 19:21 22.01.2020
335 Clouds 9 1015 93 7000 2.6 100 18:59 22.01.2020
336 Clouds 9 1015 93 7000 2.6 100 18:40 22.01.2020
337 Clouds 9 1015 93 7000 2.6 100 18:21 22.01.2020
338 Clouds 9 1014 93 10000 2.6 210 17:59 22.01.2020
339 Clouds 9 1014 93 10000 2.6 210 17:39 22.01.2020
340 Clouds 9 1014 93 10000 2.6 210 17:20 22.01.2020
341 Clouds 9 1014 93 10000 2.6 210 17:20 22.01.2020
342 Clouds 9 1013 93 10000 3.1 200 16:55 22.01.2020
343 Clouds 9 1013 93 10000 3.1 200 16:55 22.01.2020
344 Clouds 9 1013 93 10000 3.1 200 16:55 22.01.2020
345 Clouds 9 1013 93 10000 3.1 200 16:37 22.01.2020
346 Clouds 9 1013 93 10000 3.1 200 16:18 22.01.2020
347 Mist 9 1013 93 4500 2.6 210 15:42 22.01.2020
348 Mist 9 1013 93 4500 2.6 210 15:24 22.01.2020
349 Rain 9 1013 93 3600 1.5 200 14:59 22.01.2020
350 Rain 9 1013 93 3600 1.5 200 14:38 22.01.2020
351 Rain 9 1013 93 3600 1.5 200 14:20 22.01.2020
352 Clouds 9 1012 93 10000 3.1 260 13:56 22.01.2020
353 Clouds 9 1012 93 10000 3.1 260 13:37 22.01.2020
354 Clouds 9 1012 93 10000 3.1 260 13:19 22.01.2020
355 Clouds 9 1013 87 10000 2.1 260 12:57 22.01.2020
356 Clouds 9 1013 87 10000 2.1 260 12:38 22.01.2020
357 Clouds 9 1013 87 10000 2.1 260 12:19 22.01.2020
358 Rain 9 1013 81 10000 2.1 240 11:56 22.01.2020
359 Rain 9 1013 81 10000 2.1 240 11:38 22.01.2020
360 Rain 9 1013 81 10000 2.1 240 11:19 22.01.2020
361 Rain 9 1014 87 10000 1.5 210 10:45 22.01.2020
362 Rain 9 1014 87 10000 1.5 210 10:21 22.01.2020
363 Rain 9 1015 93 10000 4.6 140 09:58 22.01.2020
364 Rain 9 1015 93 10000 4.6 140 09:40 22.01.2020
365 Rain 9 1015 93 10000 4.6 140 09:21 22.01.2020
366 Rain 10 1015 93 7000 4.1 100 08:55 22.01.2020
367 Rain 10 1015 93 7000 4.1 100 08:36 22.01.2020
368 Rain 10 1015 93 7000 4.1 100 08:18 22.01.2020
369 Rain 10 1015 93 4800 3.6 90 07:42 22.01.2020
370 Rain 10 1015 93 4800 3.6 90 07:23 22.01.2020
371 Clouds 10 1015 93 10000 3.6 110 06:33 22.01.2020
372 Drizzle 10 1015 93 10000 2.1 110 05:45 22.01.2020
373 Rain 10 1014 100 10000 4.6 90 04:25 22.01.2020
374 Rain 10 1014 100 10000 4.6 90 03:26 22.01.2020
375 Rain 10 1014 93 10000 4.1 90 02:39 22.01.2020
376 Clouds 10 1015 87 10000 2.6 50 00:47 22.01.2020
377 Clouds 10 1015 87 10000 2.6 50 00:47 22.01.2020
378 Clouds 10 1015 87 10000 2.6 50 00:27 22.01.2020
379 Clouds 10 1015 87 10000 4.1 70 23:55 21.01.2020
380 Clouds 10 1015 87 10000 4.1 70 23:37 21.01.2020
381 Clouds 10 1015 87 10000 4.1 70 23:18 21.01.2020
382 Clouds 9 1016 100 10000 3.1 110 22:40 21.01.2020
383 Clouds 9 1016 100 10000 3.1 110 22:21 21.01.2020
384 Clouds 9 1016 100 10000 1 0 21:58 21.01.2020
385 Clouds 9 1016 100 10000 1 0 21:38 21.01.2020
386 Clouds 9 1016 100 10000 1 0 21:20 21.01.2020
387 Rain 9 1016 93 10000 4.6 320 20:57 21.01.2020
388 Rain 9 1016 93 10000 4.6 320 20:38 21.01.2020
389 Rain 9 1016 93 10000 4.6 320 20:20 21.01.2020
390 Clouds 10 1016 93 10000 3.6 330 19:57 21.01.2020
391 Clouds 10 1016 93 10000 3.6 330 19:38 21.01.2020
392 Clouds 10 1016 93 10000 3.6 330 19:20 21.01.2020
393 Thunderstorm 10 1017 81 8000 7.2 250 18:55 21.01.2020
394 Thunderstorm 10 1017 81 8000 7.2 250 18:37 21.01.2020
395 Thunderstorm 10 1017 81 8000 7.2 250 18:18 21.01.2020
396 Clouds 12 1015 76 10000 1.5 100 17:45 21.01.2020
397 Clouds 12 1015 76 10000 1.5 100 17:20 21.01.2020
398 Clouds 12 1015 76 10000 1.5 170 16:59 21.01.2020
399 Clouds 12 1015 76 10000 1.5 170 16:37 21.01.2020
400 Clouds 12 1015 76 10000 1.5 170 16:19 21.01.2020
401 Clouds 13 1014 62 10000 2.1 230 15:54 21.01.2020
402 Clouds 13 1014 62 10000 2.1 230 15:36 21.01.2020
403 Clouds 13 1014 62 10000 2.1 230 15:18 21.01.2020
404 Clouds 15 1015 62 10000 4.6 210 14:38 21.01.2020
405 Clouds 15 1015 62 10000 4.6 210 14:20 21.01.2020
406 Clouds 15 1015 58 10000 3.6 190 13:40 21.01.2020
407 Clouds 15 1015 58 10000 3.6 190 13:19 21.01.2020
408 Clouds 15 1015 62 10000 3.6 190 12:45 21.01.2020
409 Clouds 15 1015 62 10000 3.6 190 12:27 21.01.2020
410 Clouds 15 1016 62 10000 3.1 180 11:58 21.01.2020
411 Clouds 15 1016 62 10000 3.1 180 11:40 21.01.2020
412 Clouds 15 1016 62 10000 3.1 180 11:21 21.01.2020
413 Clouds 14 1017 67 9000 1.5 0 10:55 21.01.2020
414 Clouds 14 1017 67 9000 1.5 0 10:37 21.01.2020
415 Clouds 14 1017 67 9000 1.5 0 10:18 21.01.2020
416 Clouds 13 1018 71 9000 1.5 80 09:41 21.01.2020
417 Clouds 13 1018 71 9000 1.5 80 09:22 21.01.2020
418 Clouds 12 1018 76 7000 0.5 0 08:50 21.01.2020
419 Clouds 12 1018 76 7000 0.5 0 08:30 21.01.2020
420 Clouds 11 1018 87 8000 1.5 210 07:59 21.01.2020
421 Clouds 11 1018 87 8000 1.5 210 07:40 21.01.2020
422 Clouds 11 1018 87 8000 1.5 210 07:40 21.01.2020
423 Clouds 11 1018 87 8000 1.5 210 07:21 21.01.2020
424 Clouds 8 1018 100 10000 1 210 06:49 21.01.2020
425 Clouds 8 1018 100 10000 1 210 06:29 21.01.2020
426 Clouds 8 1018 100 10000 1 210 06:29 21.01.2020
427 Clouds 8 1018 100 10000 1 210 06:29 21.01.2020
428 Clouds 8 1018 93 10000 2.1 220 05:42 21.01.2020
429 Clouds 8 1017 100 10000 2.6 220 04:40 21.01.2020
430 Clouds 10 1017 80 0 0.41 207 02:57 21.01.2020
431 Clouds 10 1018 93 10000 3.1 320 01:55 21.01.2020
432 Clouds 10 1018 93 10000 3.1 320 01:18 21.01.2020
433 Rain 11 1020 93 10000 6.7 250 00:37 21.01.2020
434 Rain 11 1020 81 10000 6.2 230 23:59 20.01.2020
435 Rain 11 1020 81 10000 6.2 230 23:39 20.01.2020
436 Rain 11 1020 81 10000 6.2 230 23:39 20.01.2020
437 Rain 11 1020 81 10000 6.2 230 23:19 20.01.2020
438 Rain 12 1020 71 10000 7.2 280 22:56 20.01.2020
439 Rain 12 1020 71 10000 7.2 280 22:37 20.01.2020
440 Rain 12 1020 71 10000 7.2 280 22:19 20.01.2020
441 Rain 8 1020 70 10000 1 0 21:57 20.01.2020
442 Rain 8 1020 70 10000 1 0 21:37 20.01.2020
443 Rain 8 1020 70 10000 1 0 21:19 20.01.2020
444 Rain 11 1019 66 10000 2.99 294 20:55 20.01.2020
445 Rain 11 1019 66 10000 2.99 294 20:37 20.01.2020
446 Clear 11 1019 66 10000 1.57 171 20:18 20.01.2020
447 Clear 11 1020 62 10000 1 290 19:56 20.01.2020
448 Clear 11 1020 62 10000 1 290 19:37 20.01.2020
449 Clear 11 1020 62 10000 1 290 19:18 20.01.2020
450 Clear 14 1020 54 10000 1 180 18:43 20.01.2020
451 Clear 14 1020 54 10000 1 180 18:43 20.01.2020
452 Clear 14 1020 54 10000 1 180 18:22 20.01.2020
453 Clear 14 1020 58 10000 0.5 0 17:41 20.01.2020
454 Clear 14 1020 58 10000 0.5 0 17:20 20.01.2020
455 Clear 14 1020 58 10000 0.5 0 17:20 20.01.2020
456 Clouds 16 1020 51 10000 2.1 210 16:59 20.01.2020
457 Clouds 16 1020 51 10000 2.1 210 16:37 20.01.2020
458 Clouds 16 1020 51 10000 2.1 210 16:18 20.01.2020
459 Clouds 16 1020 51 10000 2.1 210 16:18 20.01.2020
460 Clouds 16 1020 51 10000 2.1 210 16:18 20.01.2020
461 Clouds 16 1020 51 10000 2.1 210 16:18 20.01.2020
462 Clouds 18 1020 42 10000 3.6 240 15:56 20.01.2020
463 Clouds 18 1020 42 10000 3.6 240 15:38 20.01.2020
464 Clouds 18 1020 42 10000 3.6 240 15:20 20.01.2020
465 Clouds 19 1020 42 10000 3.1 230 14:41 20.01.2020
466 Clouds 19 1020 42 10000 3.1 230 14:22 20.01.2020
467 Clouds 20 1020 40 10000 2.1 220 13:58 20.01.2020
468 Clouds 19 1020 45 10000 2.1 220 13:40 20.01.2020
469 Clouds 19 1020 45 10000 2.1 220 13:21 20.01.2020
470 Clear 19 1020 48 10000 3.1 190 12:46 20.01.2020
471 Clear 19 1020 48 10000 3.1 190 12:28 20.01.2020
472 Clear 19 1021 45 10000 2.6 180 11:58 20.01.2020
473 Clear 19 1021 45 10000 2.6 180 11:39 20.01.2020
474 Clear 19 1021 45 10000 2.6 180 11:21 20.01.2020
475 Clear 17 1022 51 10000 2.6 170 10:48 20.01.2020
476 Clear 17 1022 51 10000 2.6 170 10:48 20.01.2020
477 Clear 17 1022 51 10000 2.6 170 10:22 20.01.2020
478 Clear 17 1022 51 10000 2.6 170 10:22 20.01.2020
479 Clear 16 1023 55 9000 2.1 150 09:57 20.01.2020
480 Clear 16 1023 55 9000 2.1 150 09:39 20.01.2020
481 Clear 16 1023 55 9000 2.1 150 09:20 20.01.2020
482 Clear 13 1023 66 2500 2.6 170 08:44 20.01.2020
483 Clear 13 1023 66 2500 2.6 170 08:26 20.01.2020
484 Mist 10 1023 81 1100 2.1 190 07:45 20.01.2020
485 Mist 10 1023 81 1100 2.1 190 07:24 20.01.2020
486 Mist 6 1022 93 2500 1 0 06:48 20.01.2020
487 Mist 6 1022 93 2500 1 0 06:27 20.01.2020
488 Mist 6 1022 100 2900 0.87 61 05:42 20.01.2020
489 Mist 6 1022 100 2900 0.87 61 05:22 20.01.2020
490 Mist 6 1022 93 4300 1.21 78 04:42 20.01.2020
491 Clouds 7 1021 87 6000 1.21 78 02:57 20.01.2020
492 Clouds 7 1021 87 6000 1.21 78 02:57 20.01.2020
493 Clouds 7 1021 93 6000 0.5 50 01:54 20.01.2020
494 Clouds 7 1021 93 6000 0.5 50 01:35 20.01.2020
495 Clouds 8 1021 87 9000 1 30 00:44 20.01.2020
496 Clouds 8 1021 87 9000 1 30 00:23 20.01.2020
497 Clouds 9 1021 76 10000 2.16 76 23:39 19.01.2020
498 Clouds 9 1021 76 10000 2.71 72 23:20 19.01.2020
499 Clouds 9 1021 76 10000 2.71 72 23:20 19.01.2020
500 Clouds 10 1021 76 10000 1 40 22:56 19.01.2020
501 Clouds 10 1021 76 10000 1 40 22:38 19.01.2020
502 Clouds 10 1021 76 10000 1 40 22:20 19.01.2020
503 Clouds 12 1021 66 10000 1.5 40 21:56 19.01.2020
504 Clouds 12 1021 66 10000 1.5 40 21:38 19.01.2020
505 Clouds 12 1021 66 10000 1.5 40 21:20 19.01.2020
506 Clouds 12 1021 66 10000 2.6 40 20:57 19.01.2020
507 Clouds 12 1021 66 10000 2.6 40 20:39 19.01.2020
508 Clouds 12 1021 66 10000 2.6 40 20:20 19.01.2020
509 Clouds 12 1021 66 10000 2.6 40 19:57 19.01.2020
510 Clouds 13 1021 66 10000 3.1 60 19:39 19.01.2020
511 Clouds 13 1021 66 10000 3.1 60 19:39 19.01.2020
512 Clouds 13 1021 66 10000 3.1 60 19:20 19.01.2020
513 Clouds 13 1020 62 10000 2.1 30 18:56 19.01.2020
514 Clouds 13 1020 62 10000 2.1 30 18:38 19.01.2020
515 Clouds 13 1020 62 10000 2.1 30 18:38 19.01.2020
516 Clouds 13 1020 62 10000 2.1 30 18:20 19.01.2020
517 Clouds 14 1020 58 10000 2.6 30 17:58 19.01.2020
518 Clouds 14 1020 58 10000 2.6 30 17:40 19.01.2020
519 Clouds 14 1020 58 10000 2.6 30 17:21 19.01.2020
520 Clouds 15 1019 54 10000 0.5 0 16:59 19.01.2020
521 Clouds 15 1019 54 10000 0.5 0 16:38 19.01.2020
522 Clouds 15 1019 54 10000 0.5 0 16:20 19.01.2020
523 Clouds 16 1019 51 10000 1 150 15:58 19.01.2020
524 Clouds 16 1019 51 10000 1 150 15:58 19.01.2020
525 Clouds 16 1019 51 10000 1 150 15:38 19.01.2020
526 Clouds 16 1019 51 10000 1 150 15:20 19.01.2020
527 Clouds 17 1018 48 10000 0.5 0 14:58 19.01.2020
528 Clouds 17 1018 48 10000 0.5 0 14:39 19.01.2020
529 Clouds 17 1018 48 10000 0.5 0 14:18 19.01.2020
530 Clouds 17 1018 48 10000 1 0 13:57 19.01.2020
531 Clear 17 1018 40 0 1.25 281 13:38 19.01.2020
532 Clouds 16 1018 51 10000 1 0 13:19 19.01.2020
533 Clouds 16 1018 51 10000 1 0 12:55 19.01.2020
534 Clouds 16 1018 51 10000 1 0 12:37 19.01.2020
535 Clouds 16 1018 51 10000 1 0 12:19 19.01.2020
536 Clouds 16 1018 51 10000 1.5 100 11:42 19.01.2020
537 Clouds 16 1018 51 10000 1.5 100 11:20 19.01.2020
538 Clouds 16 1019 55 10000 0.5 0 10:56 19.01.2020
539 Clouds 16 1019 55 10000 0.5 0 10:56 19.01.2020
540 Clouds 16 1019 55 10000 0.5 0 10:56 19.01.2020
541 Clouds 16 1019 55 10000 0.5 0 10:38 19.01.2020
542 Clouds 16 1019 55 10000 0.5 0 10:19 19.01.2020
543 Clear 14 1020 62 10000 2.1 150 09:55 19.01.2020
544 Clear 14 1020 62 10000 2.1 150 09:55 19.01.2020
545 Clear 14 1020 62 10000 2.1 150 09:55 19.01.2020
546 Clear 14 1020 62 10000 2.1 150 09:37 19.01.2020
547 Clear 14 1020 62 10000 2.1 150 09:18 19.01.2020
548 Haze 13 1019 66 1600 1.5 120 08:48 19.01.2020
549 Haze 13 1019 66 1600 1.5 120 08:28 19.01.2020
550 Mist 9 1019 81 1600 1 0 07:42 19.01.2020
551 Mist 9 1019 81 1600 1 0 07:22 19.01.2020
552 Clear 6 1019 87 5000 0.79 1 06:54 19.01.2020
553 Clear 6 1019 87 5000 0.79 1 06:21 19.01.2020
554 Clear 6 1017 100 8000 0.5 0 03:28 19.01.2020
555 Clear 6 1017 100 7000 2.1 120 02:26 19.01.2020
556 Clear 7 1017 93 8000 1.5 170 01:29 19.01.2020
557 Clear 8 1016 87 8000 1.5 120 00:54 19.01.2020
558 Clear 7 1017 81 10000 0.5 300 00:31 19.01.2020
559 Clear 7 1017 81 10000 0.5 300 23:59 18.01.2020
560 Clear 7 1017 81 10000 0.5 300 23:41 18.01.2020
561 Clear 7 1017 81 10000 0.5 300 23:23 18.01.2020
562 Clear 7 1017 81 10000 0.5 300 23:23 18.01.2020
563 Clear 8 1016 87 10000 1.5 10 22:56 18.01.2020
564 Clear 8 1016 87 10000 1.5 10 22:38 18.01.2020
565 Clear 8 1016 87 10000 1.5 10 22:20 18.01.2020
566 Clear 8 1016 87 10000 1.5 80 21:57 18.01.2020
567 Clear 8 1016 87 10000 1.5 80 21:38 18.01.2020
568 Clear 8 1016 87 10000 1.5 80 21:20 18.01.2020
569 Clear 9 1016 76 10000 2.12 278 20:44 18.01.2020
570 Clear 9 1016 76 10000 3.24 271 20:22 18.01.2020
571 Clear 11 1016 66 10000 2.6 290 19:59 18.01.2020
572 Clear 11 1016 66 10000 2.6 290 19:41 18.01.2020
573 Clear 11 1016 66 10000 2.6 290 19:22 18.01.2020
574 Clear 12 1015 62 10000 1.5 220 18:43 18.01.2020
575 Clear 12 1015 62 10000 1.5 220 18:24 18.01.2020
576 Clear 13 1015 62 10000 1 220 17:57 18.01.2020
577 Clear 13 1015 62 10000 1 220 17:39 18.01.2020
578 Clear 13 1015 62 10000 1 220 17:19 18.01.2020
579 Clouds 14 1014 58 10000 2.6 260 16:56 18.01.2020
580 Clouds 14 1014 58 10000 2.6 260 16:37 18.01.2020
581 Clouds 14 1014 58 10000 2.6 260 16:19 18.01.2020
582 Clear 15 1014 54 10000 3.6 280 15:43 18.01.2020
583 Clear 15 1014 54 10000 3.6 280 15:24 18.01.2020
584 Clear 16 1013 51 10000 5.1 230 14:58 18.01.2020
585 Clear 16 1013 51 10000 5.1 230 14:39 18.01.2020
586 Clouds 16 1013 51 10000 5.1 230 14:18 18.01.2020
587 Clouds 16 1013 51 10000 4.6 230 13:45 18.01.2020
588 Clouds 16 1013 51 10000 4.6 230 13:27 18.01.2020
589 Clouds 16 1013 51 10000 5.1 230 12:59 18.01.2020
590 Clouds 16 1013 51 10000 5.1 230 12:40 18.01.2020
591 Clouds 16 1013 51 10000 5.1 230 12:21 18.01.2020
592 Clouds 14 1014 62 10000 4.1 210 11:44 18.01.2020
593 Clouds 14 1014 62 10000 4.1 210 11:24 18.01.2020
594 Clouds 14 1014 62 10000 3.1 220 10:57 18.01.2020
595 Clouds 14 1014 62 10000 3.1 220 10:38 18.01.2020
596 Clouds 14 1014 62 10000 3.1 220 10:20 18.01.2020
597 Clouds 14 1014 62 10000 3.1 220 10:20 18.01.2020
598 Clouds 14 1014 62 10000 3.1 220 10:20 18.01.2020
599 Clouds 11 1015 71 10000 1 0 09:49 18.01.2020
600 Clouds 11 1015 71 10000 1 0 09:31 18.01.2020
601 Clouds 9 1016 76 10000 1.5 250 08:57 18.01.2020
602 Clouds 9 1016 76 10000 1.5 250 08:39 18.01.2020
603 Clouds 9 1016 76 10000 1.5 250 08:19 18.01.2020
604 Clouds 8 1015 81 10000 3.1 260 07:52 18.01.2020
605 Clouds 8 1015 81 10000 3.1 260 07:32 18.01.2020
606 Mist 9 1014 93 5000 2.6 190 06:48 18.01.2020
607 Mist 8 1014 100 5000 3.1 180 05:59 18.01.2020
608 Mist 8 1014 100 5000 3.1 180 05:25 18.01.2020
609 Clear 10 1012 93 8000 4.1 140 03:25 18.01.2020
610 Clouds 11 1013 81 10000 2.6 180 01:56 18.01.2020
611 Clouds 11 1013 81 10000 2.6 180 01:35 18.01.2020
612 Clouds 12 1012 76 10000 4.1 130 00:37 18.01.2020
613 Clouds 12 1012 76 10000 4.1 130 00:18 18.01.2020
614 Clouds 12 1012 76 10000 4.1 130 00:18 18.01.2020
615 Clouds 12 1012 76 10000 4.1 130 00:18 18.01.2020
616 Clouds 13 1012 66 10000 6.2 130 23:44 17.01.2020
617 Rain 13 1012 66 10000 6.2 130 23:20 17.01.2020
618 Rain 13 1012 62 10000 6.2 130 22:59 17.01.2020
619 Rain 13 1012 62 10000 6.2 130 22:40 17.01.2020
620 Rain 13 1012 62 10000 6.2 130 22:18 17.01.2020
621 Rain 14 1012 58 10000 6.7 140 21:41 17.01.2020
622 Rain 14 1012 58 10000 6.7 140 21:22 17.01.2020
623 Rain 15 1012 54 10000 6.7 130 20:58 17.01.2020
624 Rain 15 1012 54 10000 6.7 130 20:40 17.01.2020
625 Rain 15 1012 54 10000 6.7 130 20:20 17.01.2020
626 Rain 15 1012 54 10000 7.7 120 19:57 17.01.2020
627 Rain 15 1012 54 10000 7.7 120 19:38 17.01.2020
628 Rain 15 1012 54 10000 7.7 120 19:19 17.01.2020
629 Rain 14 1012 67 7000 8.7 120 18:56 17.01.2020
630 Rain 14 1012 67 7000 8.7 120 18:36 17.01.2020
631 Rain 14 1012 67 7000 8.7 120 18:18 17.01.2020
632 Rain 17 1014 48 10000 6.2 120 17:39 17.01.2020
633 Rain 17 1014 48 10000 6.2 120 17:21 17.01.2020
634 Rain 18 1013 42 10000 4.1 110 16:44 17.01.2020
635 Rain 18 1013 42 10000 4.1 110 16:21 17.01.2020
636 Clouds 19 1012 39 10000 7.2 120 15:58 17.01.2020
637 Clouds 19 1012 39 10000 7.2 120 15:58 17.01.2020
638 Clouds 19 1012 39 10000 7.2 120 15:40 17.01.2020
639 Clouds 19 1012 39 10000 7.2 120 15:22 17.01.2020
640 Clouds 20 1011 37 10000 10.3 120 14:43 17.01.2020
641 Clouds 20 1011 37 10000 10.3 120 14:25 17.01.2020
642 Clouds 20 1011 34 10000 11.3 110 13:46 17.01.2020
643 Clouds 20 1011 34 10000 11.3 110 13:23 17.01.2020
644 Clouds 20 1011 34 10000 13.4 110 12:56 17.01.2020
645 Clouds 20 1012 34 10000 12.3 100 12:37 17.01.2020
646 Clouds 20 1012 34 10000 12.3 100 12:18 17.01.2020
647 Clouds 20 1013 34 10000 13.4 110 11:38 17.01.2020
648 Clouds 20 1013 34 10000 13.4 110 11:18 17.01.2020
649 Clouds 19 1015 32 10000 12.9 110 10:42 17.01.2020
650 Clouds 19 1015 32 10000 12.9 110 10:22 17.01.2020
651 Clouds 18 1017 34 10000 9.3 110 09:58 17.01.2020
652 Clouds 18 1017 34 10000 9.3 110 09:38 17.01.2020
653 Clouds 18 1017 34 10000 9.3 110 09:19 17.01.2020
654 Clouds 16 1018 38 10000 7.7 100 08:43 17.01.2020
655 Clouds 16 1018 38 10000 7.7 100 08:24 17.01.2020
656 Clouds 13 1019 47 10000 7.2 100 07:53 17.01.2020
657 Clouds 13 1019 47 10000 7.2 100 07:31 17.01.2020
658 Clouds 11 1020 50 10000 6.2 100 06:57 17.01.2020
659 Clouds 11 1020 50 10000 6.2 100 06:38 17.01.2020
660 Clouds 11 1020 50 10000 5.1 120 05:38 17.01.2020
661 Clouds 10 1019 48 0 3.8 102 03:39 17.01.2020
662 Clouds 10 1019 48 0 3.8 102 02:47 17.01.2020
663 Clouds 11 1021 56 0 3.5 91 01:47 17.01.2020
664 Clouds 11 1021 56 0 3.5 91 01:29 17.01.2020
665 Clouds 10 1021 62 0 3.29 76 00:49 17.01.2020
666 Clouds 10 1021 57 10000 2.1 20 00:23 17.01.2020
667 Clouds 10 1021 57 10000 2.1 20 23:44 16.01.2020
668 Clouds 10 1021 57 10000 2.1 20 23:25 16.01.2020
669 Clouds 10 1022 57 10000 2.1 360 22:57 16.01.2020
670 Clouds 10 1022 57 10000 2.1 360 22:39 16.01.2020
671 Clouds 10 1022 57 10000 2.1 360 22:20 16.01.2020
672 Clouds 11 1022 53 10000 2.1 40 21:55 16.01.2020
673 Clouds 11 1022 53 10000 2.1 40 21:36 16.01.2020
674 Clouds 11 1022 53 10000 2.1 40 21:18 16.01.2020
675 Clouds 12 1022 54 10000 2.1 50 20:41 16.01.2020
676 Clouds 12 1022 54 10000 2.1 50 20:21 16.01.2020
677 Clouds 12 1023 54 10000 2.1 60 19:59 16.01.2020
678 Clouds 12 1023 54 10000 2.1 60 19:41 16.01.2020
679 Clouds 12 1023 54 10000 2.1 60 19:22 16.01.2020
680 Clouds 12 1023 54 10000 2.1 60 19:22 16.01.2020
681 -273 0 0 0 0 0 19:22 16.01.2020
682 Clouds 12 1023 50 10000 3.1 50 18:57 16.01.2020
683 Clouds 12 1023 50 10000 3.1 50 18:38 16.01.2020
684 Clouds 12 1023 50 10000 3.1 50 18:20 16.01.2020
685 Clouds 12 1023 54 10000 3.1 40 17:59 16.01.2020
686 Clouds 12 1023 54 10000 3.1 40 17:59 16.01.2020
687 Clouds 12 1023 54 10000 3.1 40 17:40 16.01.2020
688 Clouds 12 1023 54 10000 3.1 40 17:20 16.01.2020
689 Clouds 12 1024 50 10000 3.6 30 16:42 16.01.2020
690 Clouds 12 1024 50 10000 3.6 30 16:24 16.01.2020
691 Clouds 11 1023 58 0 5.91 65 15:59 16.01.2020
692 Clouds 11 1023 58 0 5.91 65 15:40 16.01.2020
693 Clouds 13 1024 50 10000 5.7 350 15:21 16.01.2020
694 Clouds 13 1024 50 10000 5.7 350 14:45 16.01.2020
695 Clouds 13 1024 50 10000 5.7 350 14:24 16.01.2020
696 Clouds 14 1023 41 10000 5.7 360 13:57 16.01.2020
697 Clouds 14 1023 41 10000 5.7 360 13:39 16.01.2020
698 Clouds 14 1023 41 10000 5.7 360 13:21 16.01.2020
699 Rain 13 1024 54 10000 4.6 350 12:43 16.01.2020
700 Rain 13 1024 54 10000 4.6 350 12:25 16.01.2020
701 Clouds 17 1024 29 10000 3.6 0 11:54 16.01.2020
702 Clouds 17 1024 29 10000 3.6 0 11:36 16.01.2020
703 Clouds 17 1024 29 10000 3.6 0 11:18 16.01.2020
704 Rain 15 1025 44 10000 6.7 290 10:39 16.01.2020
705 Rain 15 1025 44 10000 6.7 290 10:20 16.01.2020
706 Clouds 14 1026 47 10000 5.7 0 09:57 16.01.2020
707 Clouds 14 1026 47 10000 5.7 0 09:38 16.01.2020
708 Clouds 14 1026 47 10000 5.7 0 09:19 16.01.2020
709 Clouds 13 1026 54 8000 3.6 200 08:51 16.01.2020
710 Clouds 13 1026 54 8000 3.6 200 08:30 16.01.2020
711 Clouds 10 1026 66 7000 3.1 200 07:59 16.01.2020
712 Clouds 10 1026 66 7000 3.1 200 07:39 16.01.2020
713 Clouds 10 1026 66 7000 3.1 200 07:20 16.01.2020
714 Clouds 6 1026 75 10000 2.6 290 06:43 16.01.2020
715 Clouds 6 1026 75 10000 2.6 290 06:21 16.01.2020
716 Clouds 6 1025 70 10000 0.5 0 05:45 16.01.2020
717 Clouds 7 1025 70 10000 1.5 320 04:38 16.01.2020
718 Clouds 6 1025 70 9000 2.1 310 03:28 16.01.2020
719 Clouds 7 1025 65 10000 1 140 02:43 16.01.2020
720 Clouds 8 1025 61 8000 2.17 339 01:24 16.01.2020
721 Clouds 8 1026 65 9000 1 330 00:24 16.01.2020
722 Clouds 8 1026 61 10000 2.17 339 23:56 15.01.2020
723 Clouds 8 1026 61 10000 2.17 339 23:37 15.01.2020
724 Clouds 8 1026 61 10000 1.72 339 23:18 15.01.2020
725 Clouds 9 1026 57 10000 1 280 22:42 15.01.2020
726 Clouds 9 1026 57 10000 1 280 22:20 15.01.2020
727 Clouds 9 1026 57 10000 1 270 21:59 15.01.2020
728 Clouds 9 1026 57 10000 1 270 21:40 15.01.2020
729 Clouds 9 1026 57 10000 1 0 21:22 15.01.2020
730 Clouds 10 1026 57 10000 1 270 20:58 15.01.2020
731 Clouds 10 1026 57 10000 1 270 20:40 15.01.2020
732 Clouds 10 1026 57 10000 1 270 20:22 15.01.2020
733 Clouds 10 1026 57 10000 1 220 19:57 15.01.2020
734 Clouds 10 1026 57 10000 1 220 19:38 15.01.2020
735 Clouds 10 1026 57 10000 1 220 19:20 15.01.2020
736 Clouds 10 1026 57 10000 1 220 19:20 15.01.2020
737 Clouds 10 1026 57 10000 1 0 18:57 15.01.2020
738 Clouds 10 1026 57 10000 1 0 18:57 15.01.2020
739 Clouds 10 1026 57 10000 1 0 18:38 15.01.2020
740 Clouds 10 1026 57 10000 1 0 18:20 15.01.2020
741 Clouds 11 1026 50 10000 1 260 17:58 15.01.2020
742 Clouds 11 1026 50 10000 1 260 17:40 15.01.2020
743 Clouds 11 1026 50 10000 1 260 17:21 15.01.2020
744 Clouds 13 1025 32 0 2.49 345 16:55 15.01.2020
745 Clouds 13 1025 32 0 2.49 345 16:55 15.01.2020
746 Clouds 13 1025 32 0 2.49 345 16:36 15.01.2020
747 Clouds 14 1025 44 10000 1.5 310 16:18 15.01.2020
748 Clouds 14 1025 44 10000 1.5 310 15:42 15.01.2020
749 Clouds 14 1025 44 10000 1.5 310 15:20 15.01.2020
750 Clouds 15 1025 41 10000 3.6 310 14:55 15.01.2020
751 Clouds 15 1025 41 10000 3.6 310 14:37 15.01.2020
752 Clouds 15 1025 41 10000 3.6 310 14:37 15.01.2020
753 Clouds 15 1025 41 10000 3.6 310 14:18 15.01.2020
754 Clouds 15 1024 51 10000 3.1 270 13:41 15.01.2020
755 Clouds 15 1024 51 10000 3.1 270 13:23 15.01.2020
756 Clouds 15 1024 51 10000 2.6 270 12:55 15.01.2020
757 Clouds 14 1024 47 10000 3.6 270 12:37 15.01.2020
758 Clouds 14 1024 47 10000 3.6 270 12:18 15.01.2020
759 Clouds 14 1024 47 10000 3.6 270 12:18 15.01.2020
760 Clouds 14 1024 44 10000 2.6 290 11:38 15.01.2020
761 Clouds 14 1024 44 10000 2.6 290 11:20 15.01.2020
762 Clouds 13 1025 50 10000 1.5 320 10:58 15.01.2020
763 Clouds 13 1025 50 10000 1.5 320 10:40 15.01.2020
764 Clouds 13 1025 50 10000 1.5 320 10:21 15.01.2020
765 Clouds 13 1026 47 10000 3.1 290 09:41 15.01.2020
766 Clouds 13 1026 47 10000 3.1 290 09:21 15.01.2020
767 Clouds 10 1026 57 10000 3.1 300 08:45 15.01.2020
768 Clouds 10 1026 57 10000 3.1 300 08:26 15.01.2020
769 Clouds 8 1026 61 10000 3.1 290 07:56 15.01.2020
770 Clouds 8 1026 61 10000 3.1 290 07:33 15.01.2020
771 Clouds 5 1026 75 10000 2.6 300 06:57 15.01.2020
772 Clouds 5 1026 75 10000 2.6 300 06:57 15.01.2020
773 Clouds 5 1026 75 10000 2.6 300 06:38 15.01.2020
774 Clouds 2 1025 80 10000 2.6 300 05:43 15.01.2020
775 Clear 4 1025 80 10000 2.1 290 03:35 15.01.2020
776 Clear 3 1026 54 10000 3.1 290 01:50 15.01.2020
777 Clear 3 1026 54 10000 3.1 290 01:22 15.01.2020
778 Clear 5 1026 54 10000 3.6 290 00:38 15.01.2020
779 Clear 5 1026 54 10000 3.6 290 00:20 15.01.2020
780 Clear 5 1025 54 10000 3.6 310 23:47 14.01.2020
781 Clear 5 1025 54 10000 3.6 310 23:28 14.01.2020
782 Clear 8 1026 61 10000 3.6 290 22:58 14.01.2020
783 Clear 8 1026 61 10000 3.6 290 22:40 14.01.2020
784 Clear 8 1026 61 10000 3.6 290 22:19 14.01.2020
785 Clear 7 1025 70 10000 3.1 280 21:58 14.01.2020
786 Clear 7 1025 70 10000 3.1 280 21:39 14.01.2020
787 Clear 7 1025 70 10000 3.1 280 21:19 14.01.2020
788 Clear 8 1025 70 10000 2.1 260 20:56 14.01.2020
789 Clear 10 1025 47 0 4.99 328 20:38 14.01.2020
790 Clear 9 1025 66 10000 3.1 280 20:18 14.01.2020
791 Clear 9 1025 66 10000 3.1 280 19:55 14.01.2020
792 Clear 9 1025 66 10000 3.1 280 19:37 14.01.2020
793 Clear 9 1025 66 10000 3.1 280 19:18 14.01.2020
794 Clear 10 1025 61 10000 3.6 290 18:41 14.01.2020
795 Clear 12 1025 58 10000 4.1 280 18:20 14.01.2020
796 Clear 12 1025 58 10000 4.1 280 17:58 14.01.2020
797 Clear 12 1025 58 10000 4.1 280 17:37 14.01.2020
798 Clear 12 1025 58 10000 4.1 280 17:18 14.01.2020
799 Clear 12 1024 58 10000 3.6 300 16:44 14.01.2020
800 Clear 12 1024 58 10000 3.6 300 16:23 14.01.2020
801 Clear 12 1024 58 10000 3.6 300 16:23 14.01.2020
802 Clear 15 1024 47 10000 4.1 330 15:58 14.01.2020
803 Clear 15 1024 47 10000 4.1 330 15:40 14.01.2020
804 Clear 15 1024 47 10000 4.1 330 15:19 14.01.2020
805 Clear 16 1024 41 10000 6.7 340 14:45 14.01.2020
806 Clear 16 1024 41 10000 6.7 340 14:21 14.01.2020
807 Clear 15 1024 44 10000 6.2 310 13:57 14.01.2020
808 Clear 15 1024 44 10000 6.2 310 13:39 14.01.2020
809 Clear 15 1024 44 10000 6.2 310 13:19 14.01.2020
810 Clouds 15 1024 47 10000 5.1 300 12:42 14.01.2020
811 Clouds 15 1024 47 10000 5.1 300 12:22 14.01.2020
812 Clouds 14 1024 54 10000 5.1 290 11:56 14.01.2020
813 Clouds 14 1024 54 10000 5.1 290 11:37 14.01.2020
814 Clouds 14 1024 54 10000 5.1 290 11:19 14.01.2020
815 Clear 13 1025 58 10000 4.1 340 10:41 14.01.2020
816 Clear 13 1025 58 10000 4.1 340 10:20 14.01.2020
817 Clear 11 1025 71 10000 5.1 340 09:59 14.01.2020
818 Clear 11 1025 71 10000 5.1 340 09:40 14.01.2020
819 Clear 11 1025 71 10000 5.1 340 09:21 14.01.2020
820 Clouds 8 1026 100 5000 4.1 340 08:56 14.01.2020
821 Clouds 8 1026 100 5000 4.1 340 08:38 14.01.2020
822 Clouds 8 1026 100 5000 4.1 340 08:19 14.01.2020
823 Fog 5 1025 100 400 3.1 330 07:37 14.01.2020
824 Fog 4 1024 100 100 4.1 310 06:59 14.01.2020
825 Fog 4 1024 100 100 4.1 310 06:40 14.01.2020
826 Fog 4 1023 100 300 3.1 320 05:33 14.01.2020
827 Fog 4 1022 100 100 2.1 300 04:22 14.01.2020
828 Fog 4 1022 100 100 2.6 320 03:35 14.01.2020
829 Mist 4 1021 100 4400 4.1 300 02:26 14.01.2020
830 Fog 3 1021 100 600 3.6 320 01:18 14.01.2020
831 Mist 4 1021 100 6000 1.5 280 00:39 14.01.2020
832 Mist 4 1021 100 6000 1.5 280 00:21 14.01.2020
833 Clear 6 1020 100 9000 2.1 250 23:38 13.01.2020
834 Clear 6 1020 100 9000 2.1 250 23:18 13.01.2020
835 Clear 5 1020 93 10000 2.1 310 22:54 13.01.2020
836 Clear 5 1020 93 10000 2.1 310 22:36 13.01.2020
837 Clear 5 1020 93 10000 2.1 310 22:18 13.01.2020
838 Clear 5 1020 100 10000 2.1 320 21:54 13.01.2020
839 Clear 5 1020 100 10000 2.1 320 21:54 13.01.2020
840 Clear 5 1020 100 10000 2.1 320 21:36 13.01.2020
841 Clear 5 1020 100 10000 2.1 320 21:18 13.01.2020
842 Clear 7 1020 81 10000 2.6 310 20:42 13.01.2020
843 Clear 7 1020 81 10000 2.6 310 20:22 13.01.2020
844 Rain 8 1019 81 10000 2.1 350 19:59 13.01.2020
845 Rain 8 1019 81 10000 2.1 350 19:40 13.01.2020
846 Rain 8 1019 81 10000 2.1 350 19:20 13.01.2020
847 Rain 8 1019 81 10000 2.1 350 19:20 13.01.2020
848 Rain 10 1019 76 10000 4.1 330 18:58 13.01.2020
849 Rain 10 1019 76 10000 4.1 330 18:37 13.01.2020
850 Rain 10 1019 76 10000 4.1 330 18:37 13.01.2020
851 Rain 10 1019 76 10000 4.1 330 18:19 13.01.2020
852 Rain 13 1018 66 10000 5.1 290 17:55 13.01.2020
853 Rain 13 1018 66 10000 5.1 290 17:36 13.01.2020
854 Rain 13 1018 66 10000 5.1 290 17:18 13.01.2020
855 Rain 12 1017 69 0 4.84 307 16:40 13.01.2020
856 Rain 12 1017 69 0 4.84 307 16:40 13.01.2020
857 Rain 12 1017 69 0 4.84 307 16:21 13.01.2020
858 Rain 12 1017 69 0 4.84 307 15:54 13.01.2020
859 Rain 12 1017 69 0 4.84 307 15:36 13.01.2020
860 Rain 12 1017 69 0 4.84 307 15:18 13.01.2020
861 Rain 12 1017 69 0 4.84 307 14:40 13.01.2020
862 Rain 12 1017 69 0 4.84 307 14:22 13.01.2020
863 Clouds 17 1016 44 0 4.7 246 13:56 13.01.2020
864 Clouds 17 1016 44 0 4.7 246 13:38 13.01.2020
865 Clouds 16 1016 44 0 4.21 221 13:20 13.01.2020
866 Clouds 16 1016 44 0 4.21 221 13:20 13.01.2020
867 Clouds 16 1016 44 0 4.21 221 12:43 13.01.2020
868 Clouds 16 1017 44 10000 3.6 310 12:23 13.01.2020
869 Clouds 16 1017 44 10000 3.6 310 11:59 13.01.2020
870 Clouds 16 1017 44 10000 3.6 310 11:39 13.01.2020
871 Clouds 16 1017 44 10000 3.6 310 11:19 13.01.2020
872 Clouds 16 1018 38 10000 1 0 10:56 13.01.2020
873 Clouds 16 1018 38 10000 1 0 10:38 13.01.2020
874 Clouds 16 1018 38 10000 1 0 10:20 13.01.2020
875 Clouds 15 1019 41 10000 2.6 150 09:44 13.01.2020
876 Clouds 15 1019 41 10000 2.6 150 09:26 13.01.2020
877 Clouds 11 1020 38 10000 1 210 08:59 13.01.2020
878 Clouds 11 1020 38 10000 1 210 08:38 13.01.2020
879 Clouds 11 1020 43 10000 1 210 08:19 13.01.2020
880 Clouds 9 1019 57 10000 1 0 07:45 13.01.2020
881 Clouds 9 1019 57 10000 1 0 07:27 13.01.2020
882 Clouds 6 1019 43 10000 1.5 110 06:39 13.01.2020
883 Clouds 6 1019 43 10000 2.1 120 05:57 13.01.2020
884 Clouds 6 1019 56 10000 2.1 120 05:19 13.01.2020
885 Clouds 6 1018 60 10000 2.6 120 03:46 13.01.2020
886 Clouds 7 1019 56 10000 3.6 130 02:51 13.01.2020
887 Clouds 7 1019 56 10000 3.6 130 02:31 13.01.2020
888 Clouds 6 1019 60 10000 2.1 130 01:47 13.01.2020
889 Clouds 7 1020 56 10000 2.1 150 00:59 13.01.2020
890 Clouds 7 1020 56 10000 2.1 150 00:37 13.01.2020
891 Clouds 7 1020 56 10000 2.1 150 00:19 13.01.2020
892 Clouds 8 1019 56 10000 1.5 120 23:41 12.01.2020
893 Clouds 8 1019 56 10000 1.5 120 23:22 12.01.2020
894 Clouds 9 1020 57 10000 1 0 22:57 12.01.2020
895 Clouds 9 1020 57 10000 1 0 22:39 12.01.2020
896 Clouds 9 1020 57 10000 1 0 22:20 12.01.2020
897 Clouds 9 1021 57 10000 0.5 0 21:55 12.01.2020
898 Clouds 9 1021 57 10000 0.5 0 21:37 12.01.2020
899 Clouds 9 1021 57 10000 0.5 0 21:19 12.01.2020
900 Clouds 10 1021 53 10000 2.1 170 20:55 12.01.2020
901 Clouds 10 1021 53 10000 2.1 170 20:37 12.01.2020
902 Clouds 10 1021 53 10000 2.1 170 20:19 12.01.2020
903 Clouds 11 1021 50 10000 1.5 160 19:55 12.01.2020
904 Clouds 11 1021 50 10000 1.5 160 19:36 12.01.2020
905 Clouds 11 1021 50 10000 1.5 160 19:18 12.01.2020
906 Clouds 11 1021 50 10000 1.5 200 18:56 12.01.2020
907 Clouds 11 1021 50 10000 1.5 200 18:38 12.01.2020
908 Clouds 11 1021 50 10000 1.5 200 18:19 12.01.2020
909 Clouds 11 1021 50 10000 0.5 0 17:42 12.01.2020
910 Clouds 11 1021 50 10000 0.5 0 17:21 12.01.2020
911 Clouds 13 1020 45 10000 1.5 200 16:58 12.01.2020
912 Clouds 13 1020 45 10000 1.5 200 16:39 12.01.2020
913 Clouds 13 1020 45 10000 1.5 200 16:20 12.01.2020
914 Clouds 14 1021 45 10000 2.6 290 15:55 12.01.2020
915 Clouds 14 1021 45 10000 2.6 290 15:37 12.01.2020
916 Clouds 14 1021 45 10000 2.6 290 15:37 12.01.2020
917 Clouds 14 1021 45 10000 2.6 290 15:19 12.01.2020
918 Clouds 15 1020 45 10000 3.6 290 14:42 12.01.2020
919 Clouds 15 1020 45 10000 3.6 290 14:23 12.01.2020
920 Clouds 16 1020 28 10000 3.6 290 13:57 12.01.2020
921 Clouds 16 1020 28 10000 3.6 290 13:39 12.01.2020
922 Clouds 16 1020 28 10000 3.6 290 13:20 12.01.2020
923 Clouds 15 1021 41 10000 3.6 280 12:56 12.01.2020
924 Clouds 15 1021 41 10000 3.6 280 12:37 12.01.2020
925 Clouds 15 1021 41 10000 3.6 280 12:19 12.01.2020
926 Clouds 15 1021 38 10000 4.1 270 11:42 12.01.2020
927 Clouds 15 1021 38 10000 4.1 270 11:22 12.01.2020
928 Clouds 14 1022 47 10000 4.6 270 10:56 12.01.2020
929 Clouds 14 1022 47 10000 4.6 270 10:37 12.01.2020
930 Clouds 14 1022 47 10000 4.6 270 10:19 12.01.2020
931 Clouds 13 1023 54 10000 4.1 270 09:42 12.01.2020
932 Clouds 13 1023 54 10000 4.1 270 09:23 12.01.2020
933 Clouds 10 1023 57 10000 4.1 270 08:48 12.01.2020
934 Clouds 10 1023 57 10000 4.1 270 08:24 12.01.2020
935 Clear 7 1022 70 10000 3.6 270 07:49 12.01.2020
936 Clear 7 1022 70 10000 3.6 270 07:30 12.01.2020
937 Clear 5 1022 75 10000 2.6 260 06:59 12.01.2020
938 Clear 5 1022 75 10000 2.6 260 06:38 12.01.2020
939 Clear 5 1021 75 10000 2.1 270 05:55 12.01.2020
940 Clear 6 1021 75 10000 3.6 290 04:56 12.01.2020
941 Clear 7 1021 75 10000 4.1 270 03:43 12.01.2020
942 Clear 7 1021 75 10000 4.6 280 02:48 12.01.2020
943 Clear 7 1021 75 10000 4.6 280 02:24 12.01.2020
944 Clear 8 1021 70 10000 5.1 300 01:34 12.01.2020
945 Clear 8 1021 70 10000 4.1 270 00:46 12.01.2020
946 Clear 8 1021 70 10000 4.1 270 00:22 12.01.2020
947 Clear 8 1021 70 10000 4.1 270 00:22 12.01.2020
948 Clear 9 1021 66 10000 4.6 280 23:59 11.01.2020
949 Clear 9 1021 66 10000 4.6 280 23:41 11.01.2020
950 Clear 9 1020 70 10000 5.1 290 23:18 11.01.2020
951 Clear 9 1020 70 10000 5.1 290 22:56 11.01.2020
952 Clear 9 1020 70 10000 5.1 290 22:38 11.01.2020
953 Clear 9 1020 70 10000 5.1 290 22:19 11.01.2020
954 Clear 10 1020 61 10000 5.7 300 21:44 11.01.2020
955 Clear 10 1020 61 10000 5.7 300 21:20 11.01.2020
956 Clear 10 1020 61 10000 5.7 300 20:59 11.01.2020
957 Clear 10 1019 57 10000 5.7 310 20:39 11.01.2020
958 Clear 10 1019 57 10000 5.7 310 20:19 11.01.2020
959 Clear 11 1019 50 10000 6.2 300 19:57 11.01.2020
960 Clear 11 1019 50 10000 6.2 300 19:38 11.01.2020
961 Clear 11 1019 50 10000 6.2 300 19:38 11.01.2020
962 Clear 11 1019 50 10000 6.2 300 19:38 11.01.2020
963 Clear 11 1019 50 10000 6.2 300 19:38 11.01.2020
964 Clear 11 1019 50 10000 6.2 300 19:20 11.01.2020
965 Clear 13 1018 47 10000 7.2 290 18:55 11.01.2020
966 Clear 13 1018 47 10000 7.2 290 18:37 11.01.2020
967 Clear 13 1018 47 10000 7.2 290 18:18 11.01.2020
968 Clear 12 1018 54 10000 6.7 290 17:57 11.01.2020
969 Clear 12 1018 54 10000 6.7 290 17:57 11.01.2020
970 Clear 13 1017 47 10000 5.7 300 17:39 11.01.2020
971 Clear 13 1017 47 10000 5.7 300 17:18 11.01.2020
972 Clear 13 1016 47 10000 4.6 310 16:44 11.01.2020
973 Clear 13 1016 47 10000 4.6 310 16:24 11.01.2020
974 Clear 15 1016 41 10000 6.7 310 15:56 11.01.2020
975 Clear 15 1016 41 10000 6.7 310 15:38 11.01.2020
976 Clear 15 1016 41 10000 6.7 310 15:20 11.01.2020
977 Clear 17 1015 39 10000 8.7 300 14:46 11.01.2020
978 Clear 17 1015 39 10000 8.7 300 14:25 11.01.2020
979 Clear 16 1015 44 10000 7.7 310 13:57 11.01.2020
980 Clear 16 1015 44 10000 7.7 310 13:38 11.01.2020
981 Clear 16 1015 44 10000 7.7 310 13:20 11.01.2020
982 Clear 17 1014 42 10000 7.7 310 12:56 11.01.2020
983 Clear 17 1014 42 10000 7.7 310 12:37 11.01.2020
984 Clear 17 1014 42 10000 7.7 310 12:19 11.01.2020
985 Clear 16 1015 48 10000 7.7 300 11:42 11.01.2020
986 Clear 16 1015 48 10000 7.7 300 11:24 11.01.2020
987 Clouds 16 1015 51 10000 7.7 300 10:50 11.01.2020
988 Clouds 16 1015 51 10000 7.7 300 10:29 11.01.2020
989 Clear 14 1016 58 10000 7.2 300 09:44 11.01.2020
990 Clear 14 1016 58 10000 7.2 300 09:21 11.01.2020
991 Clear 12 1016 66 10000 6.2 300 08:59 11.01.2020
992 Clear 12 1016 66 10000 6.2 300 08:40 11.01.2020
993 Clear 12 1016 66 10000 6.2 300 08:19 11.01.2020
994 Clear 10 1015 76 10000 4.6 310 07:43 11.01.2020
995 Clear 10 1015 76 10000 4.6 310 07:24 11.01.2020
996 Clear 8 1015 93 10000 3.6 300 06:43 11.01.2020
997 Clouds 8 1014 93 10000 4.1 290 05:30 11.01.2020
998 Clouds 8 1014 93 10000 4.6 290 04:42 11.01.2020
999 Clouds 8 1014 93 10000 4.6 290 04:24 11.01.2020
1000 Clouds 8 1014 93 10000 3.6 290 02:48 11.01.2020
1001 Clouds 7 1014 93 10000 2.1 260 01:47 11.01.2020
1002 Clouds 7 1014 93 10000 2.1 260 01:28 11.01.2020
1003 Clouds 8 1014 87 10000 2.6 270 00:54 11.01.2020
1004 Clouds 8 1014 87 10000 2.6 270 00:29 11.01.2020
1005 Clouds 8 1014 87 10000 2.6 270 23:59 10.01.2020
1006 Clouds 8 1014 87 10000 2.6 270 23:39 10.01.2020
1007 Clouds 8 1014 87 10000 2.6 270 23:20 10.01.2020
1008 Clouds 9 1014 81 10000 3.1 250 22:54 10.01.2020
1009 Clouds 9 1014 81 10000 3.1 250 22:36 10.01.2020
1010 Clouds 9 1014 81 10000 3.1 250 22:18 10.01.2020
1011 Clouds 9 1014 81 10000 2.6 250 21:41 10.01.2020
1012 Clouds 9 1014 81 10000 2.6 250 21:21 10.01.2020
1013 Clouds 9 1014 81 10000 2.1 260 20:59 10.01.2020
1014 Clouds 10 1014 76 10000 2.6 270 20:41 10.01.2020
1015 Clouds 10 1014 76 10000 2.6 270 20:23 10.01.2020
1016 Rain 10 1014 81 10000 2.6 270 19:41 10.01.2020
1017 Rain 10 1014 81 10000 2.6 270 19:21 10.01.2020
1018 Rain 11 1014 71 10000 3.1 280 18:58 10.01.2020
1019 Rain 11 1014 71 10000 3.1 280 18:40 10.01.2020
1020 Rain 11 1014 71 10000 3.1 280 18:18 10.01.2020
1021 Rain 11 1014 71 10000 3.1 300 17:56 10.01.2020
1022 Rain 11 1014 71 10000 3.1 300 17:38 10.01.2020
1023 Rain 11 1014 71 10000 3.1 300 17:20 10.01.2020
1024 Clouds 13 1013 66 10000 4.6 290 16:55 10.01.2020
1025 Clouds 13 1013 66 10000 4.6 290 16:36 10.01.2020
1026 Clouds 13 1013 66 10000 4.6 290 16:18 10.01.2020
1027 Clouds 15 1012 58 10000 4.1 290 15:55 10.01.2020
1028 Clouds 15 1012 58 10000 4.1 290 15:36 10.01.2020
1029 Clouds 15 1012 58 10000 4.1 290 15:18 10.01.2020
1030 Clouds 15 1012 58 10000 4.1 290 15:18 10.01.2020
1031 Clouds 16 1012 55 10000 3.1 260 14:42 10.01.2020
1032 Clouds 16 1012 55 10000 3.1 260 14:20 10.01.2020
1033 Clouds 16 1012 51 10000 2.6 270 13:59 10.01.2020
1034 Clouds 16 1012 51 10000 2.6 270 13:41 10.01.2020
1035 Clouds 16 1012 51 10000 2.6 270 13:23 10.01.2020
1036 Clouds 16 1012 55 10000 3.1 270 12:58 10.01.2020
1037 Clouds 16 1012 55 10000 3.1 270 12:38 10.01.2020
1038 Clouds 16 1012 55 10000 3.1 270 12:19 10.01.2020
1039 Clouds 16 1012 55 10000 2.6 270 11:55 10.01.2020
1040 Clouds 16 1012 55 10000 2.6 270 11:37 10.01.2020
1041 Clouds 16 1012 55 10000 2.6 270 11:18 10.01.2020
1042 Clouds 14 1013 67 10000 3.1 270 10:42 10.01.2020
1043 Clouds 14 1013 67 10000 3.1 270 10:24 10.01.2020
1044 Clouds 12 1014 66 10000 3.1 230 09:56 10.01.2020
1045 Clouds 12 1014 66 10000 3.1 230 09:38 10.01.2020
1046 Clouds 12 1014 66 10000 3.1 230 09:20 10.01.2020
1047 Clouds 12 1014 62 10000 1.5 200 08:42 10.01.2020
1048 Clouds 12 1014 62 10000 1.5 200 08:23 10.01.2020
1049 Clouds 12 1014 62 10000 1.5 200 08:23 10.01.2020
1050 Clouds 11 1014 62 10000 2.6 150 07:46 10.01.2020
1051 Clouds 11 1014 62 10000 2.6 150 07:26 10.01.2020
1052 Clouds 9 1013 76 10000 2.6 140 06:46 10.01.2020
1053 Clouds 9 1013 76 10000 2.6 140 06:26 10.01.2020
1054 Clouds 9 1012 76 10000 3.1 150 05:51 10.01.2020
1055 Clouds 11 1012 62 10000 3.1 120 03:45 10.01.2020
1056 Clouds 11 1012 62 10000 3.1 120 03:22 10.01.2020
1057 Clouds 12 1012 58 10000 2.6 100 02:49 10.01.2020
1058 Clouds 11 1013 62 10000 3.1 100 01:47 10.01.2020
1059 Clouds 11 1013 62 10000 3.1 100 01:28 10.01.2020
1060 Clouds 11 1013 71 10000 4.1 120 00:44 10.01.2020
1061 Clouds 12 1013 58 10000 3.6 150 23:58 09.01.2020
1062 Clouds 12 1013 58 10000 3.6 150 23:39 09.01.2020
1063 Clouds 12 1013 58 10000 3.6 150 23:20 09.01.2020
1064 Rain 12 1013 58 10000 4.6 130 22:57 09.01.2020
1065 Rain 12 1013 58 10000 4.6 130 22:39 09.01.2020
1066 Rain 12 1013 58 10000 4.6 130 22:39 09.01.2020
1067 Rain 12 1013 58 10000 4.6 130 22:19 09.01.2020
1068 Rain 12 1013 58 10000 4.6 130 22:19 09.01.2020
1069 Clouds 13 1013 54 10000 4.6 140 21:57 09.01.2020
1070 Clouds 13 1013 54 10000 4.6 140 21:38 09.01.2020
1071 Clouds 13 1013 54 10000 4.6 140 21:19 09.01.2020
1072 Clouds 12 1014 58 10000 3.6 140 20:58 09.01.2020
1073 Clouds 12 1014 58 10000 3.6 140 20:39 09.01.2020
1074 Clouds 12 1014 58 10000 3.6 140 20:39 09.01.2020
1075 Clouds 12 1014 58 10000 3.6 140 20:20 09.01.2020
1076 Clouds 12 1014 58 10000 3.6 140 19:58 09.01.2020
1077 Clouds 12 1014 58 10000 3.6 140 19:38 09.01.2020
1078 Clouds 12 1014 58 10000 3.6 140 19:19 09.01.2020
1079 Clouds 13 1014 54 10000 3.1 140 18:56 09.01.2020
1080 Clouds 13 1014 54 10000 3.1 140 18:37 09.01.2020
1081 Clouds 13 1014 54 10000 3.1 140 18:19 09.01.2020
1082 Clouds 13 1013 54 10000 3.6 130 17:41 09.01.2020
1083 Clouds 13 1013 54 10000 3.6 130 17:41 09.01.2020
1084 Clouds 13 1013 54 10000 3.6 130 17:19 09.01.2020
1085 Clouds 13 1013 50 10000 3.1 130 16:56 09.01.2020
1086 Clouds 13 1013 50 10000 3.1 130 16:36 09.01.2020
1087 Clouds 13 1013 50 10000 3.1 130 16:18 09.01.2020
1088 Clouds 15 1013 44 10000 4.1 160 15:41 09.01.2020
1089 Clouds 15 1013 44 10000 4.1 160 15:20 09.01.2020
1090 Clouds 17 1013 36 10000 6.7 160 14:55 09.01.2020
1091 Clouds 17 1013 36 10000 6.7 160 14:36 09.01.2020
1092 Clouds 17 1013 36 10000 6.7 160 14:36 09.01.2020
1093 Clouds 17 1013 36 10000 6.7 160 14:18 09.01.2020
1094 Clouds 18 1013 36 10000 6.2 150 13:54 09.01.2020
1095 Clouds 18 1013 36 10000 6.2 150 13:36 09.01.2020
1096 Clouds 18 1013 36 10000 6.2 150 13:18 09.01.2020
1097 Clouds 17 1013 39 10000 4.6 160 12:41 09.01.2020
1098 Clouds 17 1013 39 10000 4.6 160 12:22 09.01.2020
1099 Clouds 15 1014 44 10000 3.6 170 11:58 09.01.2020
1100 Clouds 15 1014 44 10000 3.6 170 11:40 09.01.2020
1101 Clouds 15 1014 44 10000 3.6 170 11:22 09.01.2020
1102 Clouds 14 1015 47 10000 3.1 150 10:44 09.01.2020
1103 Clouds 14 1015 47 10000 3.1 150 10:23 09.01.2020
1104 Clouds 12 1016 54 10000 2.6 200 09:59 09.01.2020
1105 Clouds 12 1016 54 10000 2.6 200 09:40 09.01.2020
1106 Clouds 12 1016 54 10000 2.6 200 09:21 09.01.2020
1107 Clouds 10 1016 57 10000 2.1 210 08:55 09.01.2020
1108 Clouds 10 1016 57 10000 2.1 210 08:37 09.01.2020
1109 Clouds 10 1016 57 10000 2.1 210 08:19 09.01.2020
1110 Clouds 10 1016 53 10000 1.5 190 07:42 09.01.2020
1111 Clear 9 1016 57 10000 3.6 210 07:24 09.01.2020
1112 Clear 5 1015 49 10000 3.1 200 06:39 09.01.2020
1113 Clear 5 1015 49 10000 3.1 200 06:20 09.01.2020
1114 Clear 3 1015 74 10000 2.6 160 05:50 09.01.2020
1115 Clear 3 1015 74 10000 2.6 160 05:50 09.01.2020
1116 Clear 3 1015 74 10000 2.1 170 04:44 09.01.2020
1117 Clear 4 1014 56 10000 2.1 170 03:54 09.01.2020
1118 Clear 4 1014 56 10000 2.1 140 02:55 09.01.2020
1119 Clear 4 1014 56 10000 2.1 140 02:28 09.01.2020
1120 Clear 4 1014 53 10000 2.1 190 01:40 09.01.2020
1121 Clear 7 1014 52 10000 1.5 220 00:44 09.01.2020
1122 Clear 7 1014 52 10000 1.5 220 00:21 09.01.2020
1123 Clear 6 1014 70 10000 2.6 200 23:55 08.01.2020
1124 Clear 6 1014 70 10000 2.6 200 23:37 08.01.2020
1125 Clear 6 1014 70 10000 2.6 200 23:18 08.01.2020
1126 Clear 9 1013 57 10000 2.6 230 22:39 08.01.2020
1127 Clear 9 1013 57 10000 2.6 230 22:21 08.01.2020
1128 Clear 9 1013 57 10000 2.6 230 21:58 08.01.2020
1129 Clear 9 1013 57 10000 2.6 230 21:39 08.01.2020
1130 Clear 9 1013 57 10000 2.6 230 21:20 08.01.2020
1131 Clear 10 1013 57 10000 3.1 240 20:58 08.01.2020
1132 Clear 10 1013 57 10000 3.1 240 20:40 08.01.2020
1133 Clouds 10 1013 57 10000 3.1 240 20:20 08.01.2020
1134 Clouds 11 1012 53 10000 3.6 230 19:57 08.01.2020
1135 Clouds 11 1012 53 10000 3.6 230 19:37 08.01.2020
1136 Clouds 11 1012 53 10000 3.6 230 19:37 08.01.2020
1137 Clouds 11 1012 53 10000 3.6 230 19:19 08.01.2020
1138 Clouds 11 1012 50 10000 3.6 220 18:56 08.01.2020
1139 Clouds 11 1012 50 10000 3.6 220 18:37 08.01.2020
1140 Clouds 11 1012 50 10000 3.6 220 18:18 08.01.2020
1141 Clouds 12 1011 46 10000 4.1 220 17:55 08.01.2020
1142 Clouds 12 1011 46 10000 4.1 220 17:36 08.01.2020
1143 Clouds 12 1011 46 10000 4.1 220 17:18 08.01.2020
1144 Clouds 12 1011 46 10000 4.1 220 17:18 08.01.2020
1145 Clouds 13 1011 43 10000 3.1 210 16:54 08.01.2020
1146 Clouds 13 1011 43 10000 3.1 210 16:36 08.01.2020
1147 Clouds 13 1011 43 10000 3.1 210 16:18 08.01.2020
1148 Clouds 15 1010 38 10000 3.1 230 15:40 08.01.2020
1149 Clouds 16 1010 38 10000 4.6 230 15:20 08.01.2020
1150 Clouds 16 1011 41 0 4.57 165 14:56 08.01.2020
1151 Clouds 16 1011 41 0 4.57 165 14:38 08.01.2020
1152 Rain 18 1010 34 0 11.96 148 14:19 08.01.2020
1153 Rain 18 1010 34 0 11.96 148 13:40 08.01.2020
1154 Rain 17 1010 39 0 10.47 145 13:19 08.01.2020
1155 Rain 17 1010 39 0 10.47 145 12:42 08.01.2020
1156 Clouds 17 1009 51 10000 9.3 130 12:19 08.01.2020
1157 Clouds 17 1009 51 10000 9.3 130 11:55 08.01.2020
1158 Clouds 17 1009 51 10000 9.3 130 11:55 08.01.2020
1159 Clouds 17 1009 51 10000 9.3 130 11:37 08.01.2020
1160 Clouds 17 1009 51 10000 9.3 130 11:19 08.01.2020
1161 Clouds 17 1011 48 10000 11.8 140 10:55 08.01.2020
1162 Clouds 17 1011 48 10000 11.8 140 10:37 08.01.2020
1163 Clouds 17 1011 48 10000 11.8 140 10:18 08.01.2020
1164 Clouds 16 1012 51 10000 9.8 130 09:41 08.01.2020
1165 Rain 16 1012 37 0 8.5 140 09:19 08.01.2020
1166 Rain 16 1012 37 0 8.5 140 08:56 08.01.2020
1167 Rain 16 1012 37 0 8.5 140 08:37 08.01.2020
1168 Rain 13 1013 58 10000 7.2 130 08:19 08.01.2020
1169 Rain 13 1013 58 10000 7.2 130 07:48 08.01.2020
1170 Rain 13 1013 58 10000 7.2 130 07:29 08.01.2020
1171 Clouds 12 1014 62 10000 6.7 120 06:45 08.01.2020
1172 Clouds 12 1014 62 10000 6.7 120 06:19 08.01.2020
1173 Clouds 12 1015 62 10000 6.2 130 05:41 08.01.2020
1174 Clouds 12 1015 62 10000 4.6 120 04:56 08.01.2020
1175 Clouds 12 1015 62 10000 4.6 120 04:24 08.01.2020
1176 Clouds 13 1016 58 10000 4.1 110 02:45 08.01.2020
1177 Clouds 13 1016 58 10000 4.1 110 02:21 08.01.2020
1178 Clouds 12 1016 62 10000 4.1 110 01:46 08.01.2020
1179 Clouds 12 1016 62 10000 4.1 110 01:19 08.01.2020
1180 Clear 13 1017 58 10000 4.6 110 00:27 08.01.2020
1181 Clear 12 1017 58 10000 2.6 120 23:55 07.01.2020
1182 Clear 12 1017 58 10000 2.6 120 23:37 07.01.2020
1183 Clear 12 1017 58 10000 2.6 120 23:19 07.01.2020
1184 Clear 12 1017 58 10000 2.6 120 22:40 07.01.2020
1185 Clear 12 1017 58 10000 2.6 110 22:20 07.01.2020
1186 Clear 13 1018 48 0 4.08 130 21:55 07.01.2020
1187 Clear 13 1018 48 0 4.08 130 21:37 07.01.2020
1188 Clear 15 1018 58 10000 3.1 100 21:19 07.01.2020
1189 Clear 14 1018 58 10000 3.1 100 20:55 07.01.2020
1190 Clear 14 1018 58 10000 3.1 100 20:36 07.01.2020
1191 Clear 14 1018 58 10000 3.1 100 20:36 07.01.2020
1192 Clear 14 1018 58 10000 3.1 100 20:18 07.01.2020
1193 Haze 14 1015 41 9000 3.6 320 19:38 07.01.2020
1194 Clear 14 1019 58 10000 2.6 130 19:19 07.01.2020
1195 Clear 13 1019 54 10000 3.1 120 18:58 07.01.2020
1196 Clear 13 1019 54 10000 3.1 120 18:58 07.01.2020
1197 Clear 13 1019 54 10000 3.1 120 18:40 07.01.2020
1198 Clear 13 1019 54 10000 3.1 120 18:18 07.01.2020
1199 Clear 14 1019 54 10000 2.1 100 17:58 07.01.2020
1200 Clear 14 1019 54 10000 2.1 100 17:39 07.01.2020
1201 Clear 14 1019 54 10000 2.1 100 17:20 07.01.2020
1202 Clear 15 1019 47 10000 2.6 120 16:56 07.01.2020
1203 Clear 15 1019 47 10000 2.6 120 16:37 07.01.2020
1204 Clear 15 1019 47 10000 2.6 120 16:18 07.01.2020
1205 Clear 18 1019 39 10000 2.6 120 15:55 07.01.2020
1206 Clear 18 1019 39 10000 2.6 120 15:36 07.01.2020
1207 Clear 18 1019 39 10000 2.6 120 15:18 07.01.2020
1208 Clear 19 1019 37 10000 2.1 180 14:42 07.01.2020
1209 Clear 19 1019 37 10000 2.1 180 14:23 07.01.2020
1210 Clear 19 1019 37 10000 2.1 180 14:23 07.01.2020
1211 Clear 20 1019 37 10000 2.1 200 13:56 07.01.2020
1212 Clear 20 1019 37 10000 2.1 200 13:38 07.01.2020
1213 Clear 20 1019 37 10000 2.1 200 13:18 07.01.2020
1214 Clear 20 1020 37 10000 2.6 170 12:41 07.01.2020
1215 Clear 20 1020 37 10000 2.6 170 12:19 07.01.2020
1216 Clear 20 1020 40 10000 2.6 170 11:44 07.01.2020
1217 Clear 20 1020 40 10000 2.6 170 11:23 07.01.2020
1218 Clear 19 1021 42 10000 3.1 140 10:59 07.01.2020
1219 Clear 19 1021 42 10000 3.1 140 10:40 07.01.2020
1220 Clear 19 1021 42 10000 3.1 140 10:22 07.01.2020
1221 Clear 18 1022 45 10000 3.1 130 09:56 07.01.2020
1222 Clear 18 1022 45 10000 3.1 130 09:38 07.01.2020
1223 Clear 18 1022 45 10000 3.1 130 09:19 07.01.2020
1224 Clear 16 1023 48 10000 2.6 130 08:42 07.01.2020
1225 Clear 16 1023 48 10000 2.6 130 08:22 07.01.2020
1226 Mist 13 1023 62 1300 0.5 0 07:54 07.01.2020
1227 Mist 13 1023 62 1300 0.5 0 07:27 07.01.2020
1228 Mist 6 1023 87 1300 1 30 06:53 07.01.2020
1229 Mist 6 1023 87 1300 1 30 06:32 07.01.2020
1230 Mist 6 1023 93 2500 2.46 62 05:49 07.01.2020
1231 Mist 6 1022 81 3200 2.35 65 04:31 07.01.2020
1232 Mist 7 1022 75 3700 1 30 03:26 07.01.2020
1233 Mist 8 1022 75 4600 1.5 50 02:21 07.01.2020
1234 Clear 7 1022 75 7000 0.5 110 01:51 07.01.2020
1235 Clear 7 1022 75 7000 0.5 110 01:26 07.01.2020
1236 Clear 9 1022 76 9000 1.5 90 00:23 07.01.2020
1237 Clear 8 1022 81 10000 2.1 60 23:59 06.01.2020
1238 Clear 8 1022 81 10000 2.1 60 23:39 06.01.2020
1239 Clear 8 1022 81 10000 2.1 60 23:21 06.01.2020
1240 Clear 9 1022 70 10000 1 70 22:58 06.01.2020
1241 Clear 9 1022 70 10000 1 70 22:37 06.01.2020
1242 Clear 9 1022 70 10000 1 70 22:19 06.01.2020
1243 Clear 11 1022 66 10000 1 80 21:55 06.01.2020
1244 Clear 11 1022 66 10000 1 80 21:37 06.01.2020
1245 Clear 11 1022 66 10000 1 80 21:18 06.01.2020
1246 Clear 11 1022 66 10000 1.5 70 20:55 06.01.2020
1247 Clear 11 1022 66 10000 1.5 70 20:37 06.01.2020
1248 Clear 11 1022 66 10000 1.5 70 20:19 06.01.2020
1249 Clear 11 1022 66 10000 1.5 70 20:19 06.01.2020
1250 Clear 12 1022 62 10000 1.5 70 19:55 06.01.2020
1251 Clear 12 1022 62 10000 1.5 70 19:36 06.01.2020
1252 Clear 12 1022 62 10000 1.5 70 19:36 06.01.2020
1253 Clear 12 1022 62 10000 1.5 70 19:18 06.01.2020
1254 Clear 13 1022 62 10000 2.6 80 18:44 06.01.2020
1255 Clear 13 1022 62 10000 2.6 80 18:20 06.01.2020
1256 Clear 14 1022 58 10000 1.5 80 17:40 06.01.2020
1257 Clear 14 1022 58 10000 1.5 80 17:20 06.01.2020
1258 Clear 15 1021 54 10000 2.1 80 16:57 06.01.2020
1259 Clear 15 1021 54 10000 2.1 80 16:39 06.01.2020
1260 Clear 15 1021 54 10000 2.1 80 16:21 06.01.2020
1261 Clouds 18 1021 42 10000 2.1 70 15:59 06.01.2020
1262 Clouds 18 1021 42 10000 2.1 70 15:36 06.01.2020
1263 Clouds 18 1021 42 10000 2.1 70 15:18 06.01.2020
1264 Clear 19 1021 39 10000 2.1 110 14:41 06.01.2020
1265 Clear 19 1021 39 10000 2.1 110 14:22 06.01.2020
1266 Clear 19 1021 39 10000 2.1 110 14:22 06.01.2020
1267 Clouds 19 1020 39 10000 2.1 100 13:59 06.01.2020
1268 Clouds 19 1020 39 10000 2.1 100 13:39 06.01.2020
1269 Clouds 19 1020 39 10000 2.1 100 13:21 06.01.2020
1270 Clear 19 1020 39 10000 2.6 110 12:56 06.01.2020
1271 Clear 19 1020 39 10000 2.6 110 12:37 06.01.2020
1272 Clear 19 1020 39 10000 2.6 110 12:19 06.01.2020
1273 Clear 19 1020 39 10000 2.6 110 12:19 06.01.2020
1274 Clear 19 1021 42 10000 2.6 140 11:43 06.01.2020
1275 Clear 19 1021 42 10000 2.6 140 11:43 06.01.2020
1276 Clear 19 1021 42 10000 2.6 140 11:24 06.01.2020
1277 Clear 18 1021 42 10000 2.6 140 10:59 06.01.2020
1278 Clear 18 1021 42 10000 2.6 140 10:41 06.01.2020
1279 Clear 18 1021 42 10000 2.6 140 10:21 06.01.2020
1280 Clear 17 1022 45 10000 2.6 120 09:42 06.01.2020
1281 Clear 17 1022 45 10000 2.6 120 09:23 06.01.2020
1282 Clear 14 1022 54 10000 1 0 08:55 06.01.2020
1283 Clear 14 1022 54 10000 1 0 08:37 06.01.2020
1284 Clear 12 1021 62 10000 0.5 0 07:58 06.01.2020
1285 Clear 12 1021 62 10000 0.5 0 07:39 06.01.2020
1286 Clouds 9 1021 70 10000 2.16 136 06:53 06.01.2020
1287 Clouds 9 1021 70 10000 2.16 136 06:35 06.01.2020
1288 Clouds 9 1020 70 10000 1 110 05:48 06.01.2020
1289 Clouds 9 1020 70 10000 1 110 05:23 06.01.2020
1290 Clear 9 1019 70 10000 1.5 110 04:23 06.01.2020
1291 Clear 9 1019 70 10000 1.5 100 03:30 06.01.2020
1292 Clouds 9 1019 76 10000 1 160 02:27 06.01.2020
1293 Clouds 9 1018 70 10000 2.1 150 01:53 06.01.2020
1294 Clouds 9 1018 70 10000 2.1 150 01:30 06.01.2020
1295 Clouds 10 1018 71 10000 2.1 130 00:46 06.01.2020
1296 Clouds 10 1018 71 10000 2.1 130 00:27 06.01.2020
1297 Clear 11 1018 56 0 2.27 168 23:57 05.01.2020
1298 Clear 11 1018 56 0 2.27 168 23:57 05.01.2020
1299 Clear 11 1018 56 0 2.27 168 23:38 05.01.2020
1300 Clear 8 1017 70 10000 1.5 130 23:20 05.01.2020
1301 Clear 8 1017 70 10000 1.5 130 22:40 05.01.2020
1302 Clear 8 1017 70 10000 1.5 130 22:21 05.01.2020
1303 Clear 9 1017 70 10000 1.5 140 21:57 05.01.2020
1304 Clear 9 1017 70 10000 1.5 140 21:39 05.01.2020
1305 Clear 9 1017 70 10000 1.5 140 21:20 05.01.2020
1306 Clear 9 1017 66 10000 3.1 130 20:56 05.01.2020
1307 Clear 9 1017 66 10000 3.1 130 20:38 05.01.2020
1308 Clouds 9 1017 66 10000 3.1 130 20:19 05.01.2020
1309 Clouds 13 1016 50 0 2.02 196 19:58 05.01.2020
1310 Clouds 13 1016 50 0 2.02 196 19:38 05.01.2020
1311 Clouds 11 1017 81 10000 1 70 19:20 05.01.2020
1312 Clouds 11 1017 81 10000 1 70 19:20 05.01.2020
1313 Clouds 11 1017 81 10000 1 70 18:55 05.01.2020
1314 Clouds 11 1017 81 10000 1 70 18:37 05.01.2020
1315 Clouds 11 1017 81 10000 1 70 18:19 05.01.2020
1316 Clouds 12 1016 58 10000 1.5 50 17:57 05.01.2020
1317 Clouds 12 1016 58 10000 1.5 50 17:38 05.01.2020
1318 Clouds 12 1016 58 10000 1.5 50 17:38 05.01.2020
1319 Clouds 12 1016 58 10000 1.5 50 17:38 05.01.2020
1320 Clear 12 1016 58 10000 1.5 50 17:19 05.01.2020
1321 Clear 14 1015 50 10000 1 10 16:56 05.01.2020
1322 Clear 14 1015 50 10000 1 10 16:38 05.01.2020
1323 Clear 14 1015 50 10000 1 10 16:19 05.01.2020
1324 Clouds 16 1015 44 10000 1.5 260 15:38 05.01.2020
1325 Clouds 16 1015 44 10000 1.5 260 15:38 05.01.2020
1326 Clouds 16 1015 44 10000 1.5 260 15:20 05.01.2020
1327 Clear 17 1014 45 10000 2.6 220 14:56 05.01.2020
1328 Clear 17 1014 45 10000 2.6 220 14:37 05.01.2020
1329 Clear 17 1014 45 10000 2.6 220 14:19 05.01.2020
1330 Clear 16 1014 48 10000 3.1 200 13:56 05.01.2020
1331 Clear 16 1014 48 10000 3.1 200 13:56 05.01.2020
1332 Clear 16 1014 48 10000 3.1 200 13:37 05.01.2020
1333 Clear 16 1014 48 10000 3.1 200 13:18 05.01.2020
1334 Clear 16 1014 48 10000 3.1 200 13:18 05.01.2020
1335 Clear 16 1014 48 10000 4.6 240 12:55 05.01.2020
1336 Clear 16 1014 48 10000 4.6 240 12:37 05.01.2020
1337 Clear 16 1014 48 10000 4.6 240 12:18 05.01.2020
1338 Clear 15 1014 51 10000 3.6 210 11:43 05.01.2020
1339 Clear 15 1014 51 10000 3.6 210 11:43 05.01.2020
1340 Clear 15 1014 51 10000 3.6 210 11:43 05.01.2020
1341 Clear 15 1014 51 10000 3.6 210 11:20 05.01.2020
1342 Clear 13 1015 58 10000 1.5 210 10:58 05.01.2020
1343 Clear 13 1015 58 10000 1.5 210 10:39 05.01.2020
1344 Clear 13 1015 58 10000 1.5 210 10:39 05.01.2020
1345 Clear 13 1015 58 10000 1.5 210 10:39 05.01.2020
1346 Clear 13 1015 58 10000 1.5 210 10:39 05.01.2020
1347 Clear 13 1015 58 10000 1.5 210 10:39 05.01.2020
1348 Clear 13 1015 58 10000 1.5 210 10:19 05.01.2020
1349 Clear 12 1016 58 10000 3.1 210 09:42 05.01.2020
1350 Clear 12 1016 58 10000 3.1 210 09:22 05.01.2020
1351 Clear 9 1016 76 10000 2.1 180 08:50 05.01.2020
1352 Clear 9 1016 76 10000 2.1 180 08:31 05.01.2020
1353 Clear 7 1016 81 10000 2.6 180 07:57 05.01.2020
1354 Clear 7 1016 81 10000 2.6 180 07:38 05.01.2020
1355 Clear 7 1016 81 10000 2.6 180 07:20 05.01.2020
1356 Mist 5 1015 100 4600 3.1 110 06:21 05.01.2020
1357 Mist 4 1015 100 4700 3.1 150 05:33 05.01.2020
1358 Mist 4 1014 93 4500 2.1 140 04:48 05.01.2020
1359 Mist 4 1014 93 4500 2.1 140 04:18 05.01.2020
1360 Mist 3 1014 100 2300 2.1 150 02:47 05.01.2020
1361 Mist 3 1014 100 2300 2.1 150 02:24 05.01.2020
1362 Clear 5 1015 100 5000 1.06 221 01:49 05.01.2020
1363 Clear 5 1015 100 5000 1.43 266 01:19 05.01.2020
1364 Fog 4 1015 100 2600 1.5 130 00:55 05.01.2020
1365 Fog 4 1015 100 2600 1.5 130 00:36 05.01.2020
1366 Fog 4 1015 100 2000 1.5 160 00:18 05.01.2020
1367 Clear 5 1015 100 4400 1 0 23:40 04.01.2020
1368 Clear 5 1015 100 4400 1 0 23:20 04.01.2020
1369 Clear 6 1015 100 5000 1.5 180 22:40 04.01.2020
1370 Clear 6 1015 100 5000 1.5 180 22:22 04.01.2020
1371 Mist 6 1015 100 1900 1 170 21:58 04.01.2020
1372 Mist 6 1015 100 1900 1 170 21:40 04.01.2020
1373 Mist 6 1015 100 1900 1 170 21:22 04.01.2020
1374 Mist 7 1016 100 2600 0.5 210 20:59 04.01.2020
1375 Mist 7 1016 100 2600 0.5 210 20:40 04.01.2020
1376 Mist 7 1016 100 2600 0.5 210 20:22 04.01.2020
1377 Mist 8 1016 93 4700 1 200 19:57 04.01.2020
1378 Mist 8 1016 93 4700 1 200 19:38 04.01.2020
1379 Mist 8 1016 93 4700 1 200 19:20 04.01.2020
1380 Clouds 9 1015 93 7000 1 260 18:56 04.01.2020
1381 Clouds 9 1015 93 7000 1 260 18:37 04.01.2020
1382 Clouds 9 1015 93 7000 1 260 18:19 04.01.2020
1383 Clouds 10 1015 87 10000 2.6 270 17:42 04.01.2020
1384 Clouds 10 1015 87 10000 2.6 270 17:24 04.01.2020
1385 Clouds 11 1014 81 10000 1.5 230 16:59 04.01.2020
1386 Clouds 11 1014 81 10000 1.5 230 16:40 04.01.2020
1387 Clouds 11 1014 81 10000 1.5 230 16:22 04.01.2020
1388 Clouds 12 1014 71 10000 0.5 0 15:56 04.01.2020
1389 Clouds 12 1014 71 10000 0.5 0 15:38 04.01.2020
1390 Clouds 12 1014 71 10000 0.5 0 15:18 04.01.2020
1391 Clouds 12 1014 76 10000 3.1 50 14:43 04.01.2020
1392 Clouds 12 1014 76 10000 3.1 50 14:20 04.01.2020
1393 Rain 14 1015 58 10000 8.2 290 13:59 04.01.2020
1394 Rain 14 1015 58 10000 8.2 290 13:39 04.01.2020
1395 Rain 14 1015 58 10000 8.2 290 13:20 04.01.2020
1396 Clouds 17 1014 45 10000 5.7 320 12:59 04.01.2020
1397 Clouds 17 1014 45 10000 5.7 320 12:40 04.01.2020
1398 Clouds 17 1014 45 10000 5.7 320 12:19 04.01.2020
1399 Clouds 16 1014 48 10000 3.6 320 11:57 04.01.2020
1400 Clouds 16 1014 48 10000 3.6 320 11:38 04.01.2020
1401 Clouds 16 1014 48 10000 3.6 320 11:18 04.01.2020
1402 Clear 16 1015 48 10000 4.6 340 10:41 04.01.2020
1403 Clear 16 1015 48 10000 4.6 340 10:22 04.01.2020
1404 Clear 14 1016 54 10000 4.1 330 09:50 04.01.2020
1405 Clear 14 1016 54 10000 4.1 330 09:26 04.01.2020
1406 Clear 13 1016 62 10000 4.1 330 08:57 04.01.2020
1407 Clear 13 1016 62 10000 4.1 330 08:37 04.01.2020
1408 Clear 13 1016 62 10000 4.1 330 08:19 04.01.2020
1409 Clouds 10 1016 76 10000 2.6 300 07:42 04.01.2020
1410 Clear 7 1015 81 5000 1.5 280 06:52 04.01.2020
1411 Clear 7 1015 81 5000 1.5 280 06:33 04.01.2020
1412 Clear 8 1014 87 6000 0.5 0 05:18 04.01.2020
1413 Clear 8 1014 75 6000 2.1 280 04:33 04.01.2020
1414 Clear 8 1014 87 6000 1.64 4 03:43 04.01.2020
1415 Clear 8 1014 87 6000 1.64 4 03:43 04.01.2020
1416 Clear 8 1014 87 6000 1.64 4 03:18 04.01.2020
1417 Clear 9 1015 81 6000 1 330 02:21 04.01.2020
1418 Clouds 11 1015 71 6000 1.5 260 01:55 04.01.2020
1419 Clouds 11 1015 71 6000 1.5 260 01:31 04.01.2020
1420 Clouds 10 1015 76 6000 1.5 330 00:43 04.01.2020
1421 Clouds 10 1015 76 6000 1.5 330 00:23 04.01.2020
1422 Clear 10 1015 61 6000 1.5 310 23:44 03.01.2020
1423 Clear 10 1015 61 6000 1.5 310 23:25 03.01.2020
1424 Clear 11 1016 66 6000 1 350 22:41 03.01.2020
1425 Clear 11 1016 66 6000 1 350 22:41 03.01.2020
1426 Clear 11 1016 66 6000 1 350 22:20 03.01.2020
1427 Mist 11 1016 66 6000 1 300 21:59 03.01.2020
1428 Mist 11 1016 66 6000 1 300 21:39 03.01.2020
1429 Mist 11 1016 66 6000 1 300 21:19 03.01.2020
1430 Mist 11 1016 66 6000 1 300 21:19 03.01.2020
1431 Clear 11 1017 66 6000 1.5 10 20:59 03.01.2020
1432 Clear 11 1017 66 6000 1.5 10 20:41 03.01.2020
1433 Clear 11 1017 66 6000 1.5 10 20:18 03.01.2020
1434 Clear 11 1017 66 8000 1 330 19:57 03.01.2020
1435 Clear 11 1017 66 8000 1 330 19:38 03.01.2020
1436 Clear 11 1017 66 8000 1 330 19:19 03.01.2020
1437 Clear 12 1017 62 10000 2.6 30 18:44 03.01.2020
1438 Clear 12 1017 62 10000 2.6 30 18:25 03.01.2020
1439 Clear 15 1017 47 10000 1 0 17:56 03.01.2020
1440 Clear 15 1017 47 10000 1 0 17:37 03.01.2020
1441 Clear 15 1017 47 10000 1 0 17:37 03.01.2020
1442 Clear 15 1017 47 10000 1 0 17:19 03.01.2020
1443 Clear 16 1017 48 10000 1.5 10 16:42 03.01.2020
1444 Clear 16 1017 48 10000 1.5 10 16:24 03.01.2020
1445 Clear 17 1016 45 10000 1.5 10 15:57 03.01.2020
1446 Clear 17 1016 45 10000 1.5 10 15:38 03.01.2020
1447 Clear 17 1016 45 10000 1.5 10 15:18 03.01.2020
1448 Clear 19 1016 37 10000 1.5 50 14:38 03.01.2020
1449 Clouds 19 1016 37 10000 1.5 50 14:19 03.01.2020
1450 Clouds 19 1017 37 10000 1.5 60 13:44 03.01.2020
1451 Clouds 19 1017 37 10000 1.5 60 13:24 03.01.2020
1452 Clouds 18 1017 45 10000 1 0 13:00 03.01.2020
1453 Clouds 18 1017 45 10000 1 0 12:39 03.01.2020
1454 Clouds 18 1017 45 10000 1 0 12:21 03.01.2020
1455 Clouds 18 1017 48 10000 2.1 60 11:47 03.01.2020
1456 Clouds 18 1017 48 10000 2.1 60 11:23 03.01.2020
1457 Clouds 17 1018 55 10000 2.1 80 10:47 03.01.2020
1458 Clouds 17 1018 55 10000 2.1 80 10:27 03.01.2020
1459 Clouds 16 1020 59 9000 2.1 80 09:59 03.01.2020
1460 Clouds 16 1020 59 9000 2.1 80 09:40 03.01.2020
1461 Clouds 16 1020 59 9000 2.1 80 09:22 03.01.2020
1462 Clouds 15 1020 51 3400 2.1 110 08:57 03.01.2020
1463 Clouds 15 1020 51 3400 2.1 110 08:38 03.01.2020
1464 Clouds 15 1020 51 3400 2.1 110 08:19 03.01.2020
1465 Haze 12 1020 66 3800 1 0 07:40 03.01.2020
1466 Haze 12 1020 66 3800 1 0 07:19 03.01.2020
1467 Clouds 7 1019 87 6000 1 60 06:51 03.01.2020
1468 Clouds 7 1019 87 6000 1 60 06:33 03.01.2020
1469 Clouds 6 1019 93 8000 1 40 05:47 03.01.2020
1470 Clouds 7 1019 81 10000 1.5 360 04:27 03.01.2020
1471 Clouds 9 1019 70 10000 1.5 10 03:18 03.01.2020
1472 Clouds 10 1019 61 10000 1 350 02:45 03.01.2020
1473 Clouds 10 1019 61 10000 1 330 01:45 03.01.2020
1474 Clouds 12 1019 58 10000 1 40 00:56 03.01.2020
1475 Clouds 12 1019 58 10000 1 40 00:32 03.01.2020
1476 Clouds 12 1019 62 8000 2.1 30 23:58 02.01.2020
1477 Clouds 12 1019 62 8000 2.1 30 23:39 02.01.2020
1478 Clouds 12 1019 62 8000 2.1 30 23:19 02.01.2020
1479 Clouds 11 1020 62 9000 2.1 30 22:57 02.01.2020
1480 Clouds 11 1020 62 9000 2.1 30 22:39 02.01.2020
1481 Clouds 11 1020 62 9000 2.1 30 22:18 02.01.2020
1482 Clouds 11 1020 62 10000 1.5 360 21:42 02.01.2020
1483 Clouds 11 1020 62 10000 1.5 360 21:23 02.01.2020
1484 Clouds 12 1020 54 9000 0.5 330 21:00 02.01.2020
1485 Clouds 12 1020 54 9000 0.5 330 21:00 02.01.2020
1486 Clouds 12 1020 54 9000 0.5 330 21:00 02.01.2020
1487 Clouds 12 1020 54 9000 0.5 330 21:00 02.01.2020
1488 Clouds 12 1020 54 9000 0.5 330 20:39 02.01.2020
1489 Clear 12 1020 54 9000 0.5 330 20:21 02.01.2020
1490 Clear 12 1020 54 9000 0.5 330 20:21 02.01.2020
1491 Clear 13 1020 50 9000 1 330 19:56 02.01.2020
1492 Clear 13 1020 50 9000 1 330 19:38 02.01.2020
1493 Clear 13 1020 50 9000 1 330 19:19 02.01.2020
1494 Clear 12 1019 50 10000 2.1 320 18:58 02.01.2020
1495 Clear 12 1019 50 10000 2.1 320 18:40 02.01.2020
1496 Clear 12 1019 50 10000 2.1 320 18:22 02.01.2020
1497 Clear 14 1019 44 10000 1.5 180 17:57 02.01.2020
1498 Clear 14 1019 44 10000 1.5 180 17:37 02.01.2020
1499 Clear 14 1019 44 10000 1.5 180 17:19 02.01.2020
1500 Clear 14 1018 47 10000 1.95 84 16:57 02.01.2020
1501 Clear 14 1018 47 10000 1.95 84 16:38 02.01.2020
1502 Clear 14 1018 47 10000 1.95 84 16:20 02.01.2020
1503 Clear 16 1018 41 10000 1.5 40 15:56 02.01.2020
1504 Clear 16 1018 41 10000 1.5 40 15:37 02.01.2020
1505 Clear 16 1018 41 10000 1.5 40 15:19 02.01.2020
1506 Clear 18 1018 34 10000 2.1 50 14:54 02.01.2020
1507 Clear 18 1018 34 10000 2.1 50 14:54 02.01.2020
1508 Clear 18 1018 34 10000 2.1 50 14:36 02.01.2020
1509 Clouds 18 1018 34 10000 2.1 50 14:18 02.01.2020
1510 Clouds 17 1018 33 10000 1.5 20 13:45 02.01.2020
1511 Clouds 17 1018 33 10000 1.5 20 13:26 02.01.2020
1512 Clouds 18 1018 34 10000 2.6 360 12:43 02.01.2020
1513 Clouds 17 1018 42 10000 3.1 360 12:24 02.01.2020
1514 Clouds 17 1018 42 10000 3.1 360 11:43 02.01.2020
1515 Clouds 17 1018 42 10000 3.1 360 11:24 02.01.2020
1516 Clouds 16 1019 44 10000 2.6 10 10:56 02.01.2020
1517 Clouds 16 1019 44 10000 2.6 10 10:37 02.01.2020
1518 Clouds 16 1019 44 10000 2.6 10 10:18 02.01.2020
1519 Clouds 15 1020 54 10000 1.5 10 09:41 02.01.2020
1520 Clouds 15 1020 54 10000 1.5 10 09:22 02.01.2020
1521 Haze 14 1020 62 3200 1 0 08:44 02.01.2020
1522 Haze 14 1020 62 3200 1 0 08:25 02.01.2020
1523 Clouds 10 1020 76 5000 1 320 07:48 02.01.2020
1524 Clouds 10 1020 76 5000 1 320 07:28 02.01.2020
1525 Clouds 6 1019 87 9000 1.5 320 06:43 02.01.2020
1526 Clouds 6 1019 87 10000 2.46 24 05:58 02.01.2020
1527 Clouds 5 1019 100 10000 0.5 0 04:40 02.01.2020
1528 Clouds 5 1019 100 10000 0.5 0 04:21 02.01.2020
1529 Clouds 6 1018 100 10000 2.52 38 02:25 02.01.2020
1530 Clouds 7 1018 81 10000 1 160 01:57 02.01.2020
1531 Clouds 7 1018 81 10000 1 160 01:32 02.01.2020
1532 Clouds 6 1018 81 10000 1 360 00:53 02.01.2020
1533 Clouds 6 1018 81 10000 1 360 00:32 02.01.2020
1534 Clouds 9 1018 76 10000 0.5 0 23:48 01.01.2020
1535 Clouds 9 1018 76 10000 0.5 0 23:25 01.01.2020
1536 Clouds 7 1018 81 10000 2.1 340 22:55 01.01.2020
1537 Clouds 7 1018 81 10000 2.1 340 22:37 01.01.2020
1538 Clouds 7 1018 81 10000 2.1 340 22:18 01.01.2020
1539 Clouds 9 1018 76 10000 0.5 340 21:42 01.01.2020
1540 Clouds 9 1018 76 10000 0.5 340 21:21 01.01.2020
1541 Clouds 10 1019 71 10000 1 310 20:59 01.01.2020
1542 Clouds 10 1019 71 10000 1 310 20:39 01.01.2020
1543 Clouds 10 1019 71 10000 1 310 20:21 01.01.2020
1544 Clouds 9 1018 76 10000 1.5 330 19:58 01.01.2020
1545 Clouds 9 1018 76 10000 1.5 330 19:58 01.01.2020
1546 Clouds 9 1018 76 10000 1.5 330 19:39 01.01.2020
1547 Clouds 9 1018 76 10000 1.5 330 19:20 01.01.2020
1548 Haze 11 1018 71 10000 1.5 340 18:57 01.01.2020
1549 Haze 11 1018 71 10000 1.5 340 18:39 01.01.2020
1550 Haze 11 1018 71 10000 1.5 340 18:20 01.01.2020
1551 Clouds 11 1018 66 10000 2.1 340 17:59 01.01.2020
1552 Clouds 11 1018 66 10000 2.1 340 17:40 01.01.2020
1553 Clouds 11 1018 66 10000 2.1 340 17:20 01.01.2020
1554 Clouds 13 1017 58 10000 2.6 320 16:59 01.01.2020
1555 Clouds 13 1017 58 10000 2.6 320 16:38 01.01.2020
1556 Clouds 13 1017 58 10000 2.6 320 16:20 01.01.2020
1557 Clouds 16 1016 48 10000 3.1 290 15:57 01.01.2020
1558 Clouds 16 1016 48 10000 3.1 290 15:38 01.01.2020
1559 Clouds 16 1016 48 10000 3.1 290 15:20 01.01.2020
1560 Clouds 17 1016 45 10000 4.1 290 14:56 01.01.2020
1561 Clouds 17 1016 45 10000 4.1 290 14:37 01.01.2020
1562 Clouds 17 1016 45 10000 4.1 290 14:19 01.01.2020
1563 Clouds 18 1016 45 10000 4.6 300 13:55 01.01.2020
1564 Clouds 18 1016 45 10000 4.6 300 13:36 01.01.2020
1565 Clouds 18 1016 45 10000 4.6 300 13:18 01.01.2020
1566 Clouds 18 1016 45 10000 4.1 290 12:40 01.01.2020
1567 Clouds 18 1016 45 10000 4.1 290 12:20 01.01.2020
1568 Clouds 17 1016 51 10000 3.6 270 11:58 01.01.2020
1569 Clouds 17 1016 51 10000 3.6 270 11:58 01.01.2020
1570 Clouds 17 1016 51 10000 3.6 270 11:39 01.01.2020
1571 Clear 17 1016 51 10000 3.6 270 11:20 01.01.2020
1572 Clear 16 1017 59 10000 3.1 280 10:55 01.01.2020
1573 Clear 16 1017 59 10000 3.1 280 10:37 01.01.2020
1574 Clear 16 1017 59 10000 3.1 280 10:18 01.01.2020
1575 Clear 14 1018 67 10000 3.1 290 09:40 01.01.2020
1576 Clear 14 1018 67 10000 3.1 290 09:22 01.01.2020
1577 Clear 12 1018 71 10000 3.1 300 08:57 01.01.2020
1578 Clear 12 1018 71 10000 3.1 300 08:57 01.01.2020
1579 Clear 12 1018 71 10000 3.1 300 08:57 01.01.2020
1580 Clear 12 1018 71 10000 3.1 300 08:38 01.01.2020
1581 Clear 12 1018 71 10000 3.1 300 08:38 01.01.2020
1582 Clouds 12 1018 71 10000 3.1 300 08:19 01.01.2020
1583 Clouds 9 1018 76 10000 2.6 280 07:57 01.01.2020
1584 Clouds 9 1018 76 10000 2.6 280 07:39 01.01.2020
1585 Clouds 7 1018 81 10000 2.1 250 06:55 01.01.2020
1586 Clouds 7 1018 81 10000 2.1 250 06:36 01.01.2020
1587 Clouds 7 1017 81 10000 2.1 270 05:48 01.01.2020
1588 Clouds 7 1017 75 10000 1 0 04:20 01.01.2020
1589 Clouds 7 1017 81 10000 1.5 280 03:39 01.01.2020
1590 Clouds 7 1017 81 10000 1.5 280 03:21 01.01.2020
1591 Clouds 7 1017 81 10000 2.1 290 02:41 01.01.2020
1592 Clouds 7 1017 81 10000 2.1 290 02:22 01.01.2020
1593 Clear 8 1017 81 10000 2.6 270 01:41 01.01.2020
1594 Clear 8 1017 81 10000 2.6 270 01:22 01.01.2020
1595 Clear 9 1017 76 10000 2.6 260 00:45 01.01.2020
1596 Clear 9 1017 76 10000 2.6 260 00:45 01.01.2020
1597 Clear 9 1017 76 10000 2.6 260 00:26 01.01.2020
1598 Clear 8 1017 75 10000 2.6 280 23:56 31.12.2019
1599 Clear 8 1017 75 10000 2.6 280 23:36 31.12.2019
1600 Clear 8 1017 75 10000 2.6 280 23:18 31.12.2019
1601 Clear 9 1018 70 10000 3.1 300 22:55 31.12.2019
1602 Clear 9 1018 70 10000 3.1 300 22:36 31.12.2019
1603 Clear 9 1018 70 10000 3.1 300 22:18 31.12.2019
1604 Clear 11 1018 66 10000 3.6 270 21:42 31.12.2019
1605 Clear 11 1018 66 10000 3.6 270 21:24 31.12.2019
1606 Clear 11 1018 71 10000 3.96 299 20:57 31.12.2019
1607 Clear 11 1018 71 10000 3.96 299 20:57 31.12.2019
1608 Clear 11 1018 71 10000 3.96 299 20:38 31.12.2019
1609 Clear 11 1018 71 10000 3.96 299 20:38 31.12.2019
1610 Clear 11 1018 71 10000 4.32 301 20:20 31.12.2019
1611 Clear 11 1018 66 10000 2.1 240 19:55 31.12.2019
1612 Clear 11 1018 66 10000 2.1 240 19:37 31.12.2019
1613 Clear 11 1018 66 10000 2.1 240 19:18 31.12.2019
1614 Clear 12 1018 66 10000 1 290 18:55 31.12.2019
1615 Clear 12 1018 66 10000 1 290 18:37 31.12.2019
1616 Clear 12 1018 66 10000 1 290 18:19 31.12.2019
1617 Clear 14 1018 58 10000 3.6 290 17:55 31.12.2019
1618 Clear 14 1018 58 10000 3.6 290 17:36 31.12.2019
1619 Clear 14 1018 58 10000 3.6 290 17:18 31.12.2019
1620 Clear 15 1018 54 10000 3.6 280 16:55 31.12.2019
1621 Clear 15 1018 54 10000 3.6 280 16:36 31.12.2019
1622 Clear 15 1018 54 10000 3.6 280 16:18 31.12.2019
1623 Clear 17 1017 51 10000 4.6 280 15:55 31.12.2019
1624 Clear 17 1017 51 10000 4.6 280 15:37 31.12.2019
1625 Clear 17 1017 51 10000 4.6 280 15:19 31.12.2019
1626 Clear 18 1017 48 10000 4.1 290 14:55 31.12.2019
1627 Clear 18 1017 48 10000 4.1 290 14:37 31.12.2019
1628 Clear 18 1017 48 10000 4.1 290 14:37 31.12.2019
1629 Clear 18 1017 48 10000 4.1 290 14:18 31.12.2019
1630 Clear 18 1017 48 10000 5.7 300 13:55 31.12.2019
1631 Clear 18 1017 48 10000 5.7 300 13:37 31.12.2019
1632 Clear 18 1017 48 10000 5.7 300 13:19 31.12.2019
1633 Clear 19 1017 45 10000 5.1 280 12:55 31.12.2019
1634 Clear 19 1017 45 10000 5.1 280 12:37 31.12.2019
1635 Clear 19 1017 45 10000 5.1 280 12:18 31.12.2019
1636 Clear 19 1017 45 10000 4.6 280 11:54 31.12.2019
1637 Clear 19 1017 45 10000 4.6 280 11:36 31.12.2019
1638 Clear 19 1017 45 10000 4.6 280 11:18 31.12.2019
1639 Clear 18 1018 48 10000 4.6 290 10:54 31.12.2019
1640 Clear 18 1018 48 10000 4.6 290 10:36 31.12.2019
1641 Clear 18 1018 48 10000 4.6 290 10:18 31.12.2019
1642 Clear 16 1019 55 10000 4.1 300 09:55 31.12.2019
1643 Clear 16 1019 55 10000 4.1 300 09:37 31.12.2019
1644 Clear 16 1019 55 10000 4.1 300 09:37 31.12.2019
1645 Clear 16 1019 55 10000 4.1 300 09:18 31.12.2019
1646 Clear 15 1019 58 10000 5.7 290 08:42 31.12.2019
1647 Clear 15 1019 58 10000 5.7 290 08:42 31.12.2019
1648 Clear 15 1019 58 10000 5.7 290 08:22 31.12.2019
1649 Clear 12 1019 76 10000 3.1 270 07:45 31.12.2019
1650 Clear 12 1019 76 10000 3.1 270 07:22 31.12.2019
1651 Clear 10 1019 87 6000 2.6 280 06:51 31.12.2019
1652 Clear 10 1019 87 6000 2.6 280 06:51 31.12.2019
1653 Mist 9 1018 93 3800 2.1 290 06:27 31.12.2019
1654 Clear 9 1017 70 10000 3.6 290 04:55 31.12.2019
1655 Clear 9 1017 70 10000 3.6 290 04:25 31.12.2019
1656 Smoke 9 1017 76 5000 1.5 310 02:57 31.12.2019
1657 Smoke 9 1017 76 5000 1.5 310 02:21 31.12.2019
1658 Smoke 8 1017 75 4700 2.6 310 01:50 31.12.2019
1659 Smoke 8 1017 75 4700 2.6 310 01:31 31.12.2019
1660 Smoke 9 1017 76 4300 1 340 00:49 31.12.2019
1661 Smoke 9 1017 76 4300 1 340 00:26 31.12.2019
1662 Smoke 9 1017 70 5000 1 10 23:59 30.12.2019
1663 Smoke 9 1017 70 5000 1 10 23:41 30.12.2019
1664 Smoke 9 1017 70 5000 1 10 23:23 30.12.2019
1665 Clear 10 1017 71 7000 1 360 22:59 30.12.2019
1666 Clear 10 1017 71 7000 1 360 22:41 30.12.2019
1667 Clear 10 1017 71 7000 1 360 22:21 30.12.2019
1668 Clear 11 1017 57 7000 0.5 20 21:57 30.12.2019
1669 Clear 11 1017 57 7000 0.5 20 21:39 30.12.2019
1670 Clear 11 1017 57 7000 0.5 20 21:20 30.12.2019
1671 Clear 12 1017 62 9000 1 330 20:59 30.12.2019
1672 Clear 12 1017 62 9000 1 330 20:41 30.12.2019
1673 Clear 12 1017 62 9000 1 330 20:20 30.12.2019
1674 Clear 12 1017 58 10000 1 0 19:59 30.12.2019
1675 Clear 12 1017 58 10000 1 0 19:39 30.12.2019
1676 Clear 12 1017 58 10000 1 0 19:19 30.12.2019
1677 Clear 13 1017 58 10000 0.5 20 18:59 30.12.2019
1678 Clear 13 1017 58 10000 0.5 20 18:59 30.12.2019
1679 Clear 13 1017 58 10000 0.5 20 18:41 30.12.2019
1680 Clear 13 1017 58 10000 0.5 20 18:20 30.12.2019
1681 Clear 15 1016 51 10000 2.87 115 17:58 30.12.2019
1682 Clear 15 1016 51 10000 2.87 115 17:39 30.12.2019
1683 Clear 15 1016 51 10000 3.31 102 17:19 30.12.2019
1684 Clear 17 1015 48 10000 2.6 130 16:58 30.12.2019
1685 Clear 17 1015 48 10000 2.6 130 16:38 30.12.2019
1686 Clear 17 1015 48 10000 2.6 130 16:20 30.12.2019
1687 Clear 19 1016 42 10000 2.6 110 15:56 30.12.2019
1688 Clear 19 1016 42 10000 2.6 110 15:37 30.12.2019
1689 Clear 19 1016 42 10000 2.6 110 15:19 30.12.2019
1690 Clear 21 1016 37 10000 3.1 120 14:43 30.12.2019
1691 Clear 21 1016 37 10000 3.1 120 14:20 30.12.2019
1692 Clear 21 1016 37 10000 3.6 80 13:58 30.12.2019
1693 Clear 21 1016 37 10000 3.6 80 13:40 30.12.2019
1694 Clear 21 1016 37 10000 3.6 80 13:40 30.12.2019
1695 Clear 21 1016 37 10000 3.6 80 13:22 30.12.2019
1696 Clear 21 1016 35 10000 4.1 80 12:56 30.12.2019
1697 Clear 21 1016 35 10000 4.1 80 12:37 30.12.2019
1698 Clear 21 1016 35 10000 4.1 80 12:18 30.12.2019
1699 Clear 21 1017 32 10000 4.6 100 11:45 30.12.2019
1700 Clouds 21 1017 32 10000 4.6 100 11:20 30.12.2019
1701 Clouds 20 1017 34 10000 6.2 90 10:58 30.12.2019
1702 Clouds 20 1017 34 10000 6.2 90 10:40 30.12.2019
1703 Clouds 20 1017 34 10000 6.2 90 10:19 30.12.2019
1704 Clouds 18 1019 42 10000 4.6 90 09:42 30.12.2019
1705 Clouds 18 1019 42 10000 4.6 90 09:20 30.12.2019
1706 Clouds 16 1019 48 10000 4.6 90 08:56 30.12.2019
1707 Clouds 16 1019 48 10000 4.6 90 08:38 30.12.2019
1708 Clouds 16 1019 48 10000 4.6 90 08:19 30.12.2019
1709 Clouds 15 1019 51 10000 3.6 90 07:44 30.12.2019
1710 Clouds 15 1019 51 10000 3.6 90 07:18 30.12.2019
1711 Clouds 12 1019 62 10000 3.1 80 06:30 30.12.2019
1712 Clouds 11 1019 66 10000 3.1 90 04:29 30.12.2019
1713 Clouds 11 1019 66 9000 3.1 80 03:43 30.12.2019
1714 Clouds 11 1019 66 6000 3.1 80 02:45 30.12.2019
1715 Clouds 11 1019 66 6000 3.1 80 02:25 30.12.2019
1716 Clouds 11 1019 66 4400 2.6 80 01:27 30.12.2019
1717 Clouds 10 1019 71 5000 1.5 70 00:56 30.12.2019
1718 Clouds 10 1019 71 5000 1.5 70 00:36 30.12.2019
1719 Clouds 10 1019 76 5000 1.5 80 23:42 29.12.2019
1720 Clouds 10 1019 76 5000 1.5 80 23:24 29.12.2019
1721 Clear 10 1019 66 4500 2.6 70 22:58 29.12.2019
1722 Clear 10 1019 66 4500 2.6 70 22:38 29.12.2019
1723 Clear 10 1019 66 4500 2.6 70 22:20 29.12.2019
1724 Clear 11 1020 66 5000 1.5 70 21:55 29.12.2019
1725 Clear 11 1020 66 5000 1.5 70 21:55 29.12.2019
1726 Clear 11 1020 66 5000 1.5 70 21:37 29.12.2019
1727 Clear 11 1020 66 5000 1.5 70 21:18 29.12.2019
1728 Clear 11 1020 71 10000 1.5 70 20:55 29.12.2019
1729 Clear 11 1020 71 10000 1.5 70 20:37 29.12.2019
1730 Clear 11 1020 71 10000 1.5 70 20:37 29.12.2019
1731 Clear 11 1020 71 10000 1.5 70 20:18 29.12.2019
1732 Clear 12 1020 62 10000 2.1 90 19:55 29.12.2019
1733 Clear 12 1020 62 10000 2.1 90 19:37 29.12.2019
1734 Clear 12 1020 62 10000 2.1 90 19:18 29.12.2019
1735 Clear 11 1020 62 10000 2.6 100 18:54 29.12.2019
1736 Clear 11 1020 62 10000 2.6 100 18:54 29.12.2019
1737 Clear 11 1020 62 10000 2.6 100 18:36 29.12.2019
1738 Clear 11 1020 62 10000 2.6 100 18:18 29.12.2019
1739 Clear 14 1019 58 10000 2.1 90 17:54 29.12.2019
1740 Clear 14 1019 58 10000 2.1 90 17:36 29.12.2019
1741 Clear 14 1019 58 10000 2.1 90 17:18 29.12.2019
1742 Clear 15 1019 54 10000 2.1 90 16:54 29.12.2019
1743 Clear 15 1019 54 10000 2.1 90 16:54 29.12.2019
1744 Clear 15 1019 54 10000 2.1 90 16:36 29.12.2019
1745 Clear 15 1019 54 10000 2.1 90 16:18 29.12.2019
1746 Clear 17 1019 48 10000 3.6 90 15:54 29.12.2019
1747 Clear 17 1019 48 10000 3.6 90 15:36 29.12.2019
1748 Clear 17 1019 48 10000 3.6 90 15:18 29.12.2019
1749 Clear 18 1018 45 10000 3.1 110 14:46 29.12.2019
1750 Clouds 18 1018 45 10000 3.1 110 14:19 29.12.2019
1751 Clouds 19 1019 39 10000 3.6 110 13:59 29.12.2019
1752 Clouds 19 1019 39 10000 3.6 110 13:40 29.12.2019
1753 Clouds 19 1019 39 10000 3.6 110 13:22 29.12.2019
1754 Clouds 19 1019 39 10000 3.1 150 12:58 29.12.2019
1755 Clouds 19 1019 39 10000 3.1 150 12:39 29.12.2019
1756 Clouds 19 1019 39 10000 3.1 150 12:21 29.12.2019
1757 Clouds 18 1020 45 10000 3.1 120 11:43 29.12.2019
1758 Clouds 18 1020 45 10000 3.1 120 11:23 29.12.2019
1759 Clouds 17 1021 45 10000 3.6 150 10:59 29.12.2019
1760 Clouds 17 1021 45 10000 3.6 150 10:40 29.12.2019
1761 Clouds 17 1021 45 10000 3.6 150 10:19 29.12.2019
1762 Clouds 17 1022 48 10000 3.6 150 09:47 29.12.2019
1763 Clouds 17 1022 48 10000 3.6 150 09:28 29.12.2019
1764 Clouds 16 1022 51 10000 3.6 130 08:59 29.12.2019
1765 Clouds 16 1022 51 10000 3.6 130 08:41 29.12.2019
1766 Clouds 16 1022 51 10000 3.6 130 08:23 29.12.2019
1767 Clouds 13 1022 58 10000 1.5 180 07:49 29.12.2019
1768 Clouds 13 1022 58 10000 1.5 180 07:27 29.12.2019
1769 Clear 7 1021 87 10000 1 60 06:52 29.12.2019
1770 Clear 7 1021 87 10000 1 60 06:22 29.12.2019
1771 Clear 5 1021 80 10000 1 120 05:45 29.12.2019
1772 Clear 7 1021 87 10000 1.5 80 04:33 29.12.2019
1773 Clear 6 1020 87 10000 1.5 140 03:39 29.12.2019
1774 Clear 7 1020 75 10000 1 150 02:49 29.12.2019
1775 Clear 7 1020 75 10000 1 150 02:19 29.12.2019
1776 Clear 7 1020 81 10000 1.5 130 01:31 29.12.2019
1777 Clear 7 1020 81 10000 1.5 130 01:31 29.12.2019
1778 Clear 7 1020 75 10000 2.6 140 00:51 29.12.2019
1779 Clear 7 1020 75 10000 2.6 140 00:25 29.12.2019
1780 Clear 8 1020 75 10000 2.1 150 23:56 28.12.2019
1781 Clear 8 1020 75 10000 2.1 150 23:37 28.12.2019
1782 Clear 8 1020 75 10000 2.1 150 23:18 28.12.2019
1783 Clear 10 1020 66 10000 1 110 22:38 28.12.2019
1784 Clear 10 1020 66 10000 1 110 22:38 28.12.2019
1785 Clear 10 1020 66 10000 1 110 22:19 28.12.2019
1786 Clear 9 1020 70 10000 1.5 150 21:57 28.12.2019
1787 Clear 9 1020 70 10000 1.5 150 21:38 28.12.2019
1788 Clear 9 1020 70 10000 1.5 150 21:38 28.12.2019
1789 Clear 9 1020 70 10000 1.5 150 21:20 28.12.2019
1790 Clear 10 1020 66 10000 1.5 130 20:55 28.12.2019
1791 Clear 10 1020 66 10000 1.5 130 20:36 28.12.2019
1792 Clear 10 1020 66 10000 1.5 130 20:18 28.12.2019
1793 Clear 10 1020 66 10000 1.5 160 19:54 28.12.2019
1794 Clear 10 1020 66 10000 1.5 160 19:36 28.12.2019
1795 Clear 10 1020 66 10000 1.5 160 19:18 28.12.2019
1796 Clear 11 1019 62 10000 1 150 18:43 28.12.2019
1797 Clear 11 1019 62 10000 1 150 18:20 28.12.2019
1798 Clear 12 1019 58 10000 2.1 190 17:59 28.12.2019
1799 Clear 12 1019 58 10000 2.1 190 17:41 28.12.2019
1800 Clear 12 1019 58 10000 2.1 190 17:21 28.12.2019
1801 Clear 14 1018 50 10000 2.1 160 16:55 28.12.2019
1802 Clear 14 1018 50 10000 2.1 160 16:37 28.12.2019
1803 Clear 14 1018 50 10000 2.1 160 16:19 28.12.2019
1804 Clouds 17 1018 45 10000 3.6 210 15:43 28.12.2019
1805 Clouds 17 1018 45 10000 3.6 210 15:22 28.12.2019
1806 Clouds 18 1017 42 10000 3.6 210 14:55 28.12.2019
1807 Clouds 18 1017 42 10000 3.6 210 14:36 28.12.2019
1808 Clouds 18 1017 42 10000 3.6 210 14:18 28.12.2019
1809 Clouds 18 1017 45 10000 3.6 210 13:42 28.12.2019
1810 Clouds 18 1017 45 10000 3.6 210 13:21 28.12.2019
1811 Clouds 18 1017 45 10000 3.6 170 12:58 28.12.2019
1812 Clouds 18 1017 45 10000 3.6 170 12:40 28.12.2019
1813 Clouds 18 1017 45 10000 3.6 170 12:21 28.12.2019
1814 Clouds 18 1017 45 10000 3.1 210 11:40 28.12.2019
1815 Clouds 18 1017 45 10000 3.1 210 11:21 28.12.2019
1816 Clouds 17 1017 51 10000 2.1 170 10:57 28.12.2019
1817 Clouds 17 1017 51 10000 2.1 170 10:38 28.12.2019
1818 Clouds 17 1017 51 10000 2.1 170 10:19 28.12.2019
1819 Clouds 16 1018 59 10000 1.5 0 09:54 28.12.2019
1820 Clouds 16 1018 59 10000 1.5 0 09:36 28.12.2019
1821 Clouds 16 1018 59 10000 1.5 0 09:18 28.12.2019
1822 Clouds 13 1018 66 10000 2.1 290 08:42 28.12.2019
1823 Clouds 13 1018 66 10000 2.1 290 08:23 28.12.2019
1824 Clear 11 1018 66 10000 1.5 250 07:47 28.12.2019
1825 Clear 11 1018 66 10000 1.5 250 07:23 28.12.2019
1826 Clear 6 1016 81 10000 1.5 280 05:51 28.12.2019
1827 Clear 8 1015 75 10000 1.5 250 03:48 28.12.2019
1828 Clear 7 1015 75 10000 1.5 250 02:51 28.12.2019
1829 Clouds 7 1015 75 10000 1.5 250 02:20 28.12.2019
1830 Clouds 6 1015 75 10000 1 220 01:56 28.12.2019
1831 Clouds 6 1015 75 10000 1 220 01:23 28.12.2019
1832 Clouds 9 1014 66 10000 1 230 00:50 28.12.2019
1833 Clouds 9 1014 66 10000 1 230 00:30 28.12.2019
1834 Clouds 9 1014 66 10000 2.1 220 23:58 27.12.2019
1835 Clouds 9 1014 66 10000 2.1 220 23:58 27.12.2019
1836 Clouds 9 1014 66 10000 2.1 220 23:39 27.12.2019
1837 Clouds 9 1014 66 10000 2.1 220 23:19 27.12.2019
1838 Clouds 11 1014 57 10000 2.1 250 22:57 27.12.2019
1839 Clouds 11 1014 57 10000 2.1 250 22:38 27.12.2019
1840 Clouds 11 1014 57 10000 2.1 250 22:19 27.12.2019
1841 Clouds 13 1014 50 10000 2.6 260 21:43 27.12.2019
1842 Clouds 13 1014 50 10000 2.6 260 21:43 27.12.2019
1843 Clouds 13 1014 50 10000 2.6 260 21:25 27.12.2019
1844 Clouds 12 1014 58 10000 2.1 220 20:58 27.12.2019
1845 Clouds 12 1014 58 10000 2.1 220 20:40 27.12.2019
1846 Clouds 12 1014 58 10000 2.1 220 20:21 27.12.2019
1847 Clouds 10 1013 71 10000 2.1 160 19:41 27.12.2019
1848 Clouds 10 1013 71 10000 2.1 160 19:20 27.12.2019
1849 Clouds 13 1013 58 10000 2.1 160 18:57 27.12.2019
1850 Clouds 13 1013 58 10000 2.1 160 18:37 27.12.2019
1851 Clouds 13 1013 58 10000 2.1 160 18:19 27.12.2019
1852 Clouds 14 1013 54 10000 3.1 140 17:56 27.12.2019
1853 Clouds 14 1013 54 10000 3.1 140 17:38 27.12.2019
1854 Clouds 14 1013 54 10000 3.1 140 17:18 27.12.2019
1855 Clouds 13 1012 58 10000 3.6 150 16:44 27.12.2019
1856 Clouds 13 1012 58 10000 3.6 150 16:26 27.12.2019
1857 Clouds 16 1011 48 10000 4.1 170 15:59 27.12.2019
1858 Clouds 16 1011 48 10000 4.1 170 15:40 27.12.2019
1859 Clouds 16 1011 48 10000 4.1 170 15:20 27.12.2019
1860 Clouds 18 1012 48 10000 3.1 130 14:56 27.12.2019
1861 Clouds 18 1012 48 10000 3.1 130 14:38 27.12.2019
1862 Clouds 18 1012 48 10000 3.1 130 14:20 27.12.2019
1863 Clouds 18 1012 48 10000 3.1 130 14:20 27.12.2019
1864 Clouds 18 1011 48 10000 1.5 40 13:48 27.12.2019
1865 Clouds 18 1011 48 10000 1.5 40 13:25 27.12.2019
1866 Rain 18 1011 45 10000 1.5 220 12:58 27.12.2019
1867 Rain 18 1011 45 10000 1.5 220 12:39 27.12.2019
1868 Rain 18 1011 45 10000 1.5 220 12:21 27.12.2019
1869 Clouds 18 1011 42 10000 3.1 170 11:43 27.12.2019
1870 Clouds 18 1011 42 10000 3.1 170 11:24 27.12.2019
1871 Clouds 17 1012 45 10000 4.1 180 10:55 27.12.2019
1872 Clouds 17 1012 45 10000 4.1 180 10:37 27.12.2019
1873 Clouds 17 1012 45 10000 4.1 180 10:19 27.12.2019
1874 Clouds 15 1013 54 10000 5.1 170 09:42 27.12.2019
1875 Clouds 15 1013 54 10000 5.1 170 09:21 27.12.2019
1876 Clouds 13 1014 62 9000 3.6 160 08:58 27.12.2019
1877 Clouds 13 1014 62 9000 3.6 160 08:36 27.12.2019
1878 Clouds 11 1014 71 6000 5.1 140 07:51 27.12.2019
1879 Clouds 11 1014 71 6000 5.1 140 07:32 27.12.2019
1880 Mist 9 1014 81 2400 4.6 130 06:37 27.12.2019
1881 Mist 8 1013 81 6000 3.6 140 05:37 27.12.2019
1882 Clear 9 1012 81 6000 3.6 150 03:44 27.12.2019
1883 Clear 10 1013 76 6000 3.6 140 02:21 27.12.2019
1884 Mist 10 1013 81 5000 3.6 150 01:38 27.12.2019
1885 Mist 10 1013 81 5000 3.6 150 01:19 27.12.2019
1886 Clear 11 1013 76 7000 4.1 150 00:43 27.12.2019
1887 Clear 11 1013 76 7000 4.1 150 00:24 27.12.2019
1888 Clear 11 1013 76 7000 4.1 150 00:24 27.12.2019
1889 Clear 11 1013 76 7000 4.1 150 23:42 26.12.2019
1890 Clear 11 1013 76 7000 4.1 150 23:22 26.12.2019
1891 Clear 11 1013 76 7000 4.1 140 22:48 26.12.2019
1892 Clear 11 1014 76 7000 3.6 140 22:23 26.12.2019
1893 Clear 12 1014 76 8000 3.6 140 21:59 26.12.2019
1894 Clear 12 1014 76 8000 3.6 140 21:39 26.12.2019
1895 Clear 12 1014 76 8000 3.6 140 21:20 26.12.2019
1896 Clear 12 1014 76 8000 3.6 130 20:47 26.12.2019
1897 Clear 12 1014 76 8000 3.6 130 20:23 26.12.2019
1898 Clear 13 1014 71 8000 3.6 140 19:59 26.12.2019
1899 Clear 13 1014 71 8000 3.6 140 19:40 26.12.2019
1900 Clear 13 1014 71 8000 3.6 140 19:22 26.12.2019
1901 Clear 13 1014 71 8000 4.1 140 18:58 26.12.2019
1902 Clear 13 1014 71 8000 4.1 140 18:40 26.12.2019
1903 Clear 13 1014 71 8000 4.1 140 18:20 26.12.2019
1904 Clear 14 1014 67 8000 3.1 120 17:57 26.12.2019
1905 Clear 14 1014 67 8000 3.1 120 17:38 26.12.2019
1906 Clear 14 1014 67 8000 3.1 120 17:38 26.12.2019
1907 Clear 14 1014 67 8000 3.1 120 17:19 26.12.2019
1908 Clear 15 1013 62 10000 3.1 130 16:45 26.12.2019
1909 Clear 15 1013 62 10000 3.1 130 16:24 26.12.2019
1910 Clouds 18 1013 48 10000 3.1 140 15:56 26.12.2019
1911 Clouds 18 1013 48 10000 3.1 140 15:38 26.12.2019
1912 Clouds 18 1013 48 10000 3.1 140 15:18 26.12.2019
1913 Clear 19 1012 48 10000 3.1 170 14:41 26.12.2019
1914 Clear 19 1012 48 10000 3.1 170 14:22 26.12.2019
1915 Clear 19 1012 48 10000 3.6 200 13:44 26.12.2019
1916 Clear 19 1012 48 10000 3.6 200 13:23 26.12.2019
1917 Clear 19 1012 52 10000 3.6 200 12:58 26.12.2019
1918 Clear 19 1012 52 10000 3.6 200 12:39 26.12.2019
1919 Clear 19 1012 52 10000 3.6 200 12:21 26.12.2019
1920 Clear 19 1012 52 10000 3.6 170 11:58 26.12.2019
1921 Clear 19 1012 52 10000 3.6 170 11:39 26.12.2019
1922 Clear 19 1012 52 10000 3.6 170 11:20 26.12.2019
1923 Clear 18 1014 55 10000 5.1 180 10:49 26.12.2019
1924 Clear 18 1014 55 10000 5.1 180 10:20 26.12.2019
1925 Clear 18 1015 59 10000 7.2 140 09:53 26.12.2019
1926 Clear 18 1015 59 10000 7.2 140 09:32 26.12.2019
1927 Clear 17 1015 67 7000 5.7 140 08:55 26.12.2019
1928 Clear 17 1015 67 7000 5.7 140 08:37 26.12.2019
1929 Clear 17 1015 67 7000 5.7 140 08:18 26.12.2019
1930 Clear 14 1015 76 4400 3.1 130 07:31 26.12.2019
1931 Mist 12 1015 81 3000 3.6 120 06:56 26.12.2019
1932 Mist 12 1015 81 3000 3.6 120 06:33 26.12.2019
1933 Clouds 11 1015 87 6000 1.5 110 05:57 26.12.2019
1934 Clouds 11 1015 87 6000 1.5 110 05:38 26.12.2019
1935 Clear 11 1014 81 7000 2.6 120 04:32 26.12.2019
1936 Clear 12 1014 76 9000 3.1 160 03:20 26.12.2019
1937 Clear 14 1013 71 9000 6.2 140 02:40 26.12.2019
1938 Clouds 14 1013 71 9000 6.2 140 02:20 26.12.2019
1939 Clouds 14 1014 67 10000 5.7 140 01:42 26.12.2019
1940 Clouds 14 1014 67 10000 5.7 140 01:24 26.12.2019
1941 Clouds 14 1014 71 10000 5.1 130 00:42 26.12.2019
1942 Clouds 14 1014 71 10000 5.1 130 00:22 26.12.2019
1943 Clouds 14 1014 71 8000 4.6 130 23:56 25.12.2019
1944 Clouds 14 1014 71 8000 4.6 130 23:36 25.12.2019
1945 Clouds 14 1014 71 8000 4.6 130 23:18 25.12.2019
1946 Clouds 15 1014 72 7000 4.6 130 22:55 25.12.2019
1947 Clouds 15 1014 72 7000 4.6 130 22:36 25.12.2019
1948 Clouds 15 1014 72 7000 4.6 130 22:18 25.12.2019
1949 Clouds 15 1014 77 8000 3.1 140 21:40 25.12.2019
1950 Clouds 15 1014 77 8000 3.1 140 21:22 25.12.2019
1951 Clouds 16 1014 72 8000 4.1 150 20:57 25.12.2019
1952 Clouds 16 1014 72 8000 4.1 150 20:39 25.12.2019
1953 Clouds 16 1014 72 8000 4.1 150 20:18 25.12.2019
1954 Clouds 16 1014 67 8000 7.2 140 19:44 25.12.2019
1955 Clouds 16 1014 67 8000 7.2 140 19:25 25.12.2019
1956 Clouds 17 1014 59 9000 8.7 140 18:59 25.12.2019
1957 Clouds 17 1014 59 9000 8.7 140 18:39 25.12.2019
1958 Clouds 17 1014 59 9000 8.7 140 18:20 25.12.2019
1959 Clouds 17 1014 55 10000 7.7 140 17:43 25.12.2019
1960 Clouds 17 1014 55 10000 7.7 140 17:21 25.12.2019
1961 Clouds 17 1014 51 10000 7.7 140 16:59 25.12.2019
1962 Clouds 17 1014 51 10000 7.7 140 16:39 25.12.2019
1963 Clouds 17 1014 51 10000 7.7 140 16:19 25.12.2019
1964 Clouds 18 1013 42 10000 7.7 150 15:57 25.12.2019
1965 Clouds 18 1013 42 10000 7.7 150 15:57 25.12.2019
1966 Clouds 18 1013 42 10000 7.7 150 15:39 25.12.2019
1967 Clouds 18 1013 42 10000 7.7 150 15:21 25.12.2019
1968 Clouds 19 1012 37 10000 9.8 140 14:58 25.12.2019
1969 Clouds 19 1012 37 10000 9.8 140 14:40 25.12.2019
1970 Clouds 19 1012 37 10000 9.8 140 14:21 25.12.2019
1971 Clouds 19 1012 37 10000 9.8 140 14:21 25.12.2019
1972 Clouds 19 1012 37 10000 9.8 140 14:21 25.12.2019
1973 Clouds 20 1012 32 10000 10.8 140 13:57 25.12.2019
1974 Clouds 20 1012 32 10000 10.8 140 13:38 25.12.2019
1975 Clouds 20 1012 32 10000 10.8 140 13:19 25.12.2019
1976 Clouds 21 1012 30 10000 11.3 130 12:39 25.12.2019
1977 Clouds 21 1012 30 10000 11.3 130 12:20 25.12.2019
1978 Dust 20 1012 32 4600 12.3 130 11:55 25.12.2019
1979 Dust 20 1012 32 4600 12.3 130 11:55 25.12.2019
1980 Dust 20 1012 32 4600 12.3 130 11:37 25.12.2019
1981 Dust 20 1012 32 4600 12.3 130 11:18 25.12.2019
1982 Dust 20 1012 32 6000 12.3 130 10:38 25.12.2019
1983 Clouds 19 1014 37 7000 11.3 130 10:19 25.12.2019
1984 Clouds 19 1014 37 7000 11.3 130 10:19 25.12.2019
1985 Clouds 17 1015 42 10000 9.8 130 09:50 25.12.2019
1986 Clouds 17 1015 42 10000 9.8 130 09:32 25.12.2019
1987 Clouds 17 1015 39 10000 9.8 130 08:51 25.12.2019
1988 Clouds 17 1015 39 10000 9.8 130 08:30 25.12.2019
1989 Clouds 14 1016 47 10000 9.8 130 07:50 25.12.2019
1990 Clouds 14 1016 47 10000 9.8 130 07:31 25.12.2019
1991 Clouds 13 1016 54 10000 9.3 120 06:50 25.12.2019
1992 -273 0 0 0 0 0 06:22 25.12.2019
1993 Clear 11 1016 62 8000 6.7 130 05:18 25.12.2019
1994 Clear 11 1015 62 10000 7.7 130 04:39 25.12.2019
1995 Clear 11 1015 62 10000 7.7 130 04:20 25.12.2019
1996 Clear 11 1015 62 10000 7.2 120 03:41 25.12.2019
1997 Clear 11 1016 66 10000 6.2 130 02:51 25.12.2019
1998 Clear 11 1016 66 10000 6.2 130 02:20 25.12.2019
1999 Clear 12 1016 58 10000 5.1 140 01:25 25.12.2019
2000 Clear 13 1016 50 10000 5.1 140 00:53 25.12.2019
2001 Clear 13 1016 50 10000 5.1 140 00:30 25.12.2019
2002 Clear 14 1015 36 0 7.82 139 23:56 24.12.2019
2003 Clear 14 1015 36 0 7.82 139 23:38 24.12.2019
2004 Clear 13 1016 54 10000 5.7 130 23:20 24.12.2019
2005 Clear 13 1016 54 10000 5.7 130 22:40 24.12.2019
2006 Clear 13 1016 54 10000 5.7 130 22:21 24.12.2019
2007 Clear 13 1017 58 10000 6.2 130 21:43 24.12.2019
2008 Clear 14 1017 54 10000 6.2 130 21:23 24.12.2019
2009 Clear 14 1017 54 10000 6.2 130 20:57 24.12.2019
2010 Clear 14 1017 54 10000 6.2 130 20:39 24.12.2019
2011 Clear 14 1017 54 10000 6.2 130 20:18 24.12.2019
2012 Clear 14 1017 54 10000 5.7 130 19:44 24.12.2019
2013 Clear 14 1017 54 10000 5.7 130 19:20 24.12.2019
2014 Clear 15 1017 51 10000 6.2 120 18:44 24.12.2019
2015 Clear 15 1017 51 10000 6.2 120 18:24 24.12.2019
2016 Clear 16 1017 48 10000 7.2 120 17:59 24.12.2019
2017 Clear 16 1017 48 10000 7.2 120 17:38 24.12.2019
2018 Clear 16 1017 48 10000 7.2 120 17:20 24.12.2019
2019 Clear 17 1017 42 10000 7.2 120 16:55 24.12.2019
2020 Clear 17 1017 42 10000 7.2 120 16:37 24.12.2019
2021 Clear 17 1017 42 10000 7.2 120 16:19 24.12.2019
2022 Clear 18 1017 39 10000 7.2 120 15:55 24.12.2019
2023 Clear 18 1017 39 10000 7.2 120 15:36 24.12.2019
2024 Clear 18 1017 39 10000 7.2 120 15:18 24.12.2019
2025 Clear 20 1017 34 10000 6.7 120 14:55 24.12.2019
2026 Clear 20 1017 34 10000 6.7 120 14:37 24.12.2019
2027 Clear 20 1017 34 10000 6.7 120 14:19 24.12.2019
2028 Clear 20 1017 32 10000 7.7 130 13:55 24.12.2019
2029 Clear 20 1017 32 10000 7.7 130 13:37 24.12.2019
2030 Clear 20 1017 32 10000 7.7 130 13:37 24.12.2019
2031 Clear 20 1017 32 10000 7.7 130 13:19 24.12.2019
2032 Clear 20 1017 30 10000 8.2 130 12:55 24.12.2019
2033 Clear 20 1017 30 10000 8.2 130 12:36 24.12.2019
2034 Clear 20 1017 30 10000 8.2 130 12:18 24.12.2019
2035 Clear 20 1018 32 10000 7.7 140 11:55 24.12.2019
2036 Clear 20 1018 32 10000 7.7 140 11:36 24.12.2019
2037 Clear 20 1018 32 10000 7.7 140 11:18 24.12.2019
2038 Clear 19 1019 34 10000 6.2 130 10:55 24.12.2019
2039 Clear 19 1019 34 10000 6.2 130 10:36 24.12.2019
2040 Clear 19 1019 34 10000 6.2 130 10:18 24.12.2019
2041 Clear 17 1020 42 10000 7.2 130 09:54 24.12.2019
2042 Clear 17 1020 42 10000 7.2 130 09:36 24.12.2019
2043 Clear 17 1020 42 10000 7.2 130 09:18 24.12.2019
2044 Clear 14 1020 50 10000 5.7 130 08:43 24.12.2019
2045 Clear 14 1020 50 10000 5.7 130 08:20 24.12.2019
2046 Haze 10 1020 66 5000 5.1 130 07:45 24.12.2019
2047 Haze 10 1020 66 5000 5.1 130 07:25 24.12.2019
2048 Mist 8 1020 75 3900 3.1 140 06:58 24.12.2019
2049 Mist 8 1020 75 3900 3.1 140 06:38 24.12.2019
2050 Mist 8 1020 75 3900 3.1 140 06:18 24.12.2019
2051 Mist 7 1019 87 3400 3.6 120 05:20 24.12.2019
2052 Mist 6 1019 87 4800 3.1 140 04:44 24.12.2019
2053 Clear 7 1018 81 7000 3.1 130 03:50 24.12.2019
2054 Clear 7 1018 81 7000 3.1 130 03:18 24.12.2019
2055 Clear 8 1018 75 8000 3.6 130 02:21 24.12.2019
2056 Clear 7 1018 75 7000 3.6 120 01:50 24.12.2019
2057 Clear 7 1018 75 7000 3.6 120 01:21 24.12.2019
2058 Clear 7 1019 75 8000 2.6 130 00:45 24.12.2019
2059 Clear 7 1019 75 8000 2.6 130 00:23 24.12.2019
2060 Clear 8 1019 75 7000 2.6 120 23:56 23.12.2019
2061 Clear 8 1019 75 7000 2.6 120 23:37 23.12.2019
2062 Clear 8 1019 75 7000 2.6 120 23:19 23.12.2019
2063 Clear 8 1019 70 8000 2.6 110 22:56 23.12.2019
2064 Clear 8 1019 70 8000 2.6 110 22:56 23.12.2019
2065 Clear 8 1019 70 8000 2.6 110 22:36 23.12.2019
2066 Clear 8 1019 70 8000 2.6 110 22:18 23.12.2019
2067 Clear 9 1019 70 8000 2.6 120 21:55 23.12.2019
2068 Clear 9 1019 70 8000 2.6 120 21:36 23.12.2019
2069 Clear 9 1019 70 8000 2.6 120 21:18 23.12.2019
2070 Clear 9 1019 70 9000 3.1 100 20:56 23.12.2019
2071 Clear 9 1019 70 9000 3.1 100 20:38 23.12.2019
2072 Clear 9 1019 70 9000 3.1 100 20:18 23.12.2019
2073 Clear 9 1020 66 10000 3.1 110 19:55 23.12.2019
2074 Clear 9 1020 66 10000 3.1 110 19:37 23.12.2019
2075 Clear 9 1020 66 10000 3.1 110 19:19 23.12.2019
2076 Clear 12 1020 58 9000 2.1 130 18:55 23.12.2019
2077 Clear 12 1020 58 9000 2.1 130 18:37 23.12.2019
2078 Clear 12 1020 58 9000 2.1 130 18:19 23.12.2019
2079 Clear 12 1019 54 10000 2.6 110 17:55 23.12.2019
2080 Clear 12 1019 54 10000 2.6 110 17:37 23.12.2019
2081 Clear 12 1019 54 10000 2.6 110 17:18 23.12.2019
2082 Clear 14 1019 47 10000 2.1 100 16:42 23.12.2019
2083 Clear 14 1019 47 10000 2.1 100 16:19 23.12.2019
2084 Clear 16 1019 41 10000 2.6 130 15:59 23.12.2019
2085 Clear 16 1019 41 10000 2.6 130 15:38 23.12.2019
2086 Clear 16 1019 41 10000 2.6 130 15:20 23.12.2019
2087 Clear 19 1019 34 10000 3.6 120 14:59 23.12.2019
2088 Clear 19 1019 34 10000 3.6 120 14:41 23.12.2019
2089 Clear 19 1019 34 10000 3.6 120 14:23 23.12.2019
2090 Clear 19 1019 32 10000 3.1 170 13:58 23.12.2019
2091 Clear 19 1019 32 10000 3.1 170 13:40 23.12.2019
2092 Clear 19 1019 32 10000 3.1 170 13:22 23.12.2019
2093 Clear 19 1019 32 10000 3.1 170 13:22 23.12.2019
2094 Clear 19 1020 34 10000 2.6 150 12:57 23.12.2019
2095 Clear 19 1020 34 10000 2.6 150 12:39 23.12.2019
2096 Clear 19 1020 34 10000 2.6 150 12:20 23.12.2019
2097 Clear 19 1021 34 10000 2.6 130 11:44 23.12.2019
2098 Clear 19 1021 34 10000 2.6 130 11:44 23.12.2019
2099 Clear 19 1021 34 10000 2.6 130 11:26 23.12.2019
2100 Clear 18 1021 34 10000 2.1 150 10:59 23.12.2019
2101 Clear 18 1021 34 10000 2.1 150 10:41 23.12.2019
2102 Clear 18 1021 34 10000 2.1 150 10:21 23.12.2019
2103 Clear 17 1023 39 10000 1 0 09:59 23.12.2019
2104 Clear 17 1023 39 10000 1 0 09:40 23.12.2019
2105 Clear 17 1023 39 10000 1 0 09:21 23.12.2019
2106 Clear 14 1023 50 10000 1 0 08:58 23.12.2019
2107 Clear 14 1023 50 10000 1 0 08:40 23.12.2019
2108 Clear 14 1023 50 10000 1 0 08:22 23.12.2019
2109 Haze 10 1023 66 5000 0.5 0 07:47 23.12.2019
2110 Haze 10 1023 66 5000 0.5 0 07:20 23.12.2019
2111 Mist 6 1023 93 1700 1 120 06:57 23.12.2019
2112 Mist 6 1023 93 1700 1 120 06:26 23.12.2019
2113 Mist 6 1023 93 1800 0.5 120 05:56 23.12.2019
2114 Mist 5 1022 93 2000 0.5 0 05:29 23.12.2019
2115 Mist 4 1022 100 2500 1 140 04:34 23.12.2019
2116 Mist 6 1022 87 3500 1.5 110 03:26 23.12.2019
2117 Mist 6 1022 87 5000 1 130 02:42 23.12.2019
2118 Mist 6 1022 87 5000 1 130 02:19 23.12.2019
2119 Clear 7 1022 93 5000 0.5 140 01:43 23.12.2019
2120 Clear 7 1022 93 5000 0.5 140 01:25 23.12.2019
2121 Clear 7 1022 81 6000 1 120 00:43 23.12.2019
2122 Clear 7 1022 81 6000 1 120 00:23 23.12.2019
2123 Clear 7 1022 93 5000 0.5 0 23:40 22.12.2019
2124 Clear 8 1022 87 7000 0.5 0 23:22 22.12.2019
2125 Clear 8 1022 75 6000 1.5 100 22:58 22.12.2019
2126 Clear 8 1022 75 6000 1.5 100 22:40 22.12.2019
2127 Clear 8 1022 75 6000 1.5 100 22:21 22.12.2019
2128 Clear 9 1023 76 8000 1 40 21:58 22.12.2019
2129 Clear 9 1023 76 8000 1 40 21:40 22.12.2019
2130 Clear 9 1023 76 8000 1 40 21:21 22.12.2019
2131 Clear 10 1023 66 9000 1.52 141 20:58 22.12.2019
2132 Clear 10 1023 66 9000 1.52 141 20:39 22.12.2019
2133 Clear 10 1023 66 9000 2.31 136 20:19 22.12.2019
2134 Clear 10 1022 66 9000 1.5 90 19:57 22.12.2019
2135 Clear 10 1022 66 9000 1.5 90 19:38 22.12.2019
2136 Clear 10 1022 66 9000 1.5 90 19:19 22.12.2019
2137 Clear 11 1022 57 10000 2.1 130 18:42 22.12.2019
2138 Clear 11 1022 57 10000 2.1 130 18:23 22.12.2019
2139 Clear 14 1022 58 10000 1.5 100 17:56 22.12.2019
2140 Clear 14 1022 58 10000 1.5 100 17:38 22.12.2019
2141 Clear 14 1022 58 10000 1.5 100 17:19 22.12.2019
2142 Clear 15 1022 44 10000 1.52 118 16:57 22.12.2019
2143 Clear 15 1022 44 10000 1.52 118 16:38 22.12.2019
2144 Clear 15 1022 44 10000 1.52 118 16:20 22.12.2019
2145 Clear 18 1021 39 10000 2.1 170 15:56 22.12.2019
2146 Clear 18 1021 39 10000 2.1 170 15:56 22.12.2019
2147 Clear 18 1021 39 10000 2.1 170 15:38 22.12.2019
2148 Clear 18 1021 39 10000 2.1 170 15:19 22.12.2019
2149 Clear 20 1021 32 10000 1.52 118 14:55 22.12.2019
2150 Clear 20 1021 32 10000 1.52 118 14:37 22.12.2019
2151 Clear 20 1021 32 10000 1 181 14:18 22.12.2019
2152 Clear 20 1021 34 10000 1 0 13:55 22.12.2019
2153 Clear 20 1021 34 10000 1 0 13:36 22.12.2019
2154 Clear 20 1021 34 10000 1 0 13:36 22.12.2019
2155 Clear 20 1021 34 10000 1 0 13:18 22.12.2019
2156 Clear 20 1021 34 10000 1.5 0 12:55 22.12.2019
2157 Clear 20 1021 34 10000 1.5 0 12:55 22.12.2019
2158 Clear 20 1021 34 10000 1.5 0 12:37 22.12.2019
2159 Clear 20 1021 34 10000 1.5 0 12:18 22.12.2019
2160 Clear 19 1022 39 10000 1.5 50 11:56 22.12.2019
2161 Clear 19 1022 39 10000 1.5 50 11:37 22.12.2019
2162 Clear 19 1022 39 10000 1.5 50 11:18 22.12.2019
2163 Clear 19 1023 42 9000 1.5 140 10:54 22.12.2019
2164 Clear 19 1023 42 9000 1.5 140 10:36 22.12.2019
2165 Clear 19 1023 42 9000 1.5 140 10:18 22.12.2019
2166 Clear 17 1024 51 6000 2.1 100 09:56 22.12.2019
2167 Clear 17 1024 51 6000 2.1 100 09:37 22.12.2019
2168 Clear 17 1024 51 6000 2.1 100 09:19 22.12.2019
2169 Haze 14 1024 62 3900 1.5 110 08:39 22.12.2019
2170 Haze 14 1024 62 3900 1.5 110 08:21 22.12.2019
2171 Mist 12 1024 76 3100 1.5 130 07:40 22.12.2019
2172 Mist 12 1024 76 3100 1.5 130 07:21 22.12.2019
2173 Mist 6 1024 93 2500 1.03 195 06:41 22.12.2019
2174 Mist 6 1024 93 2500 1.03 195 06:21 22.12.2019
2175 Mist 5 1023 93 3300 1.03 195 05:29 22.12.2019
2176 Mist 7 1023 93 3100 2.1 120 04:31 22.12.2019
2177 Mist 5 1022 93 4800 1 150 03:58 22.12.2019
2178 Clouds 7 1022 93 5000 1.5 100 02:43 22.12.2019
2179 Clouds 7 1022 93 5000 1.5 100 02:43 22.12.2019
2180 Clouds 8 1022 87 6000 1.5 120 01:54 22.12.2019
2181 Clouds 8 1022 87 6000 1.5 120 01:31 22.12.2019
2182 Clouds 7 1022 93 8000 1.5 110 00:48 22.12.2019
2183 Clouds 7 1022 93 8000 1.5 110 00:28 22.12.2019
2184 Clouds 8 1023 87 8000 0.51 197 23:57 21.12.2019
2185 Clouds 8 1023 87 8000 0.51 197 23:39 21.12.2019
2186 Clouds 8 1023 87 8000 1.75 178 23:20 21.12.2019
2187 Clouds 7 1023 93 9000 0.5 50 22:46 21.12.2019
2188 Clouds 7 1023 93 9000 0.5 50 22:20 21.12.2019
2189 Clouds 8 1023 93 10000 1.75 178 21:58 21.12.2019
2190 Clouds 8 1023 93 10000 1.75 178 21:38 21.12.2019
2191 Clouds 8 1023 93 10000 1.75 178 21:20 21.12.2019
2192 Clouds 10 1023 76 10000 0.5 0 20:59 21.12.2019
2193 Clouds 10 1023 76 10000 0.5 0 20:41 21.12.2019
2194 Clear 10 1023 76 10000 0.5 0 20:22 21.12.2019
2195 Clear 11 1023 71 10000 1.5 150 19:58 21.12.2019
2196 Clear 11 1023 71 10000 1.5 150 19:40 21.12.2019
2197 Clear 11 1023 71 10000 1.5 150 19:19 21.12.2019
2198 Clear 12 1023 66 10000 1.54 186 18:55 21.12.2019
2199 Clear 12 1023 66 10000 1.54 186 18:37 21.12.2019
2200 Clear 12 1023 66 10000 1.54 186 18:19 21.12.2019
2201 Clear 13 1023 66 10000 1.54 186 17:55 21.12.2019
2202 Clear 13 1023 66 10000 1.54 186 17:36 21.12.2019
2203 Clear 13 1023 66 10000 0.53 135 17:18 21.12.2019
2204 Clear 13 1023 66 10000 0.53 135 17:18 21.12.2019
2205 Clear 14 1022 62 10000 1.5 320 16:41 21.12.2019
2206 Clear 14 1022 62 10000 1.5 320 16:19 21.12.2019
2207 Clear 18 1022 45 10000 1 330 15:57 21.12.2019
2208 Clear 18 1022 45 10000 1 330 15:39 21.12.2019
2209 Clear 18 1022 45 10000 1 330 15:20 21.12.2019
2210 Clear 19 1022 42 10000 1 0 14:57 21.12.2019
2211 Clear 19 1022 42 10000 1 0 14:39 21.12.2019
2212 Clear 19 1022 42 10000 1 0 14:20 21.12.2019
2213 Clear 19 1022 42 10000 2.1 290 13:56 21.12.2019
2214 Clear 19 1022 42 10000 2.1 290 13:38 21.12.2019
2215 Clear 19 1022 42 10000 2.1 290 13:18 21.12.2019
2216 Clear 19 1022 48 10000 2.1 290 12:55 21.12.2019
2217 Clear 19 1022 48 10000 2.1 290 12:37 21.12.2019
2218 Clear 19 1022 48 10000 2.1 290 12:18 21.12.2019
2219 Clear 18 1023 52 10000 2.6 250 11:44 21.12.2019
2220 Clear 18 1023 52 10000 2.6 250 11:26 21.12.2019
2221 Clear 17 1024 51 10000 3.1 280 10:57 21.12.2019
2222 Clear 17 1024 51 10000 3.1 280 10:57 21.12.2019
2223 Clear 17 1024 51 10000 3.1 280 10:38 21.12.2019
2224 Clear 17 1024 51 10000 3.1 280 10:20 21.12.2019
2225 Clear 15 1024 62 10000 2.1 280 09:56 21.12.2019
2226 Clear 15 1024 62 10000 2.1 280 09:37 21.12.2019
2227 Clear 15 1024 62 10000 2.1 280 09:18 21.12.2019
2228 Clear 12 1024 81 7000 2.1 260 08:44 21.12.2019
2229 Clear 12 1024 81 7000 2.1 260 08:25 21.12.2019
2230 Mist 7 1024 93 1100 1 290 07:46 21.12.2019
2231 Mist 7 1024 93 1100 1 290 07:22 21.12.2019
2232 Fog 4 1024 100 300 2.1 310 06:46 21.12.2019
2233 Fog 4 1024 100 300 2.1 310 06:26 21.12.2019
2234 Fog 5 1023 93 550 1.5 260 05:55 21.12.2019
2235 Clear 5 1023 93 6000 2.1 260 04:58 21.12.2019
2236 Clear 5 1023 93 6000 2.1 260 04:58 21.12.2019
2237 Clear 7 1023 93 8000 2.1 260 03:59 21.12.2019
2238 Clear 7 1023 93 8000 2.1 260 03:37 21.12.2019
2239 Clear 6 1023 93 9000 2.1 270 02:18 21.12.2019
2240 Clear 6 1023 93 7000 1 280 01:38 21.12.2019
2241 Clear 6 1023 93 7000 1 280 01:20 21.12.2019
2242 Clear 7 1023 75 10000 1 260 00:37 21.12.2019
2243 Clear 7 1023 75 10000 1 260 00:18 21.12.2019
2244 Clear 7 1023 93 10000 2.18 329 23:38 20.12.2019
2245 Clear 7 1023 93 10000 2.24 327 23:19 20.12.2019
2246 Clear 7 1024 87 10000 2.24 327 22:43 20.12.2019
2247 Clear 7 1024 87 10000 2.24 327 22:22 20.12.2019
2248 Clear 8 1024 81 10000 1 0 21:59 20.12.2019
2249 Clear 8 1024 81 10000 1 0 21:40 20.12.2019
2250 Clear 8 1024 81 10000 1 0 21:20 20.12.2019
2251 Clear 13 1023 43 0 2.24 327 20:56 20.12.2019
2252 Clear 13 1023 43 0 2.24 327 20:36 20.12.2019
2253 Clear 10 1024 71 10000 1 270 20:18 20.12.2019
2254 Clear 10 1024 71 10000 1 270 19:42 20.12.2019
2255 Clear 10 1024 71 10000 1 270 19:21 20.12.2019
2256 Clear 12 1024 66 10000 2.1 270 18:58 20.12.2019
2257 Clear 12 1024 66 10000 2.1 270 18:39 20.12.2019
2258 Clear 12 1024 66 10000 2.1 270 18:39 20.12.2019
2259 Clear 12 1024 66 10000 2.1 270 18:21 20.12.2019
2260 Clear 13 1024 62 10000 1 270 17:55 20.12.2019
2261 Clear 13 1024 62 10000 1 270 17:37 20.12.2019
2262 Clear 13 1024 62 10000 1 270 17:18 20.12.2019
2263 Clear 15 1023 54 10000 1 0 16:41 20.12.2019
2264 Clear 15 1023 54 10000 1 0 16:21 20.12.2019
2265 Clear 17 1023 48 10000 2.1 250 15:57 20.12.2019
2266 Clear 17 1023 48 10000 2.1 250 15:39 20.12.2019
2267 Clear 17 1023 48 10000 2.1 250 15:20 20.12.2019
2268 Clear 19 1023 42 10000 2.6 290 14:59 20.12.2019
2269 Clear 19 1023 42 10000 2.6 290 14:41 20.12.2019
2270 Clear 19 1023 42 10000 2.6 290 14:23 20.12.2019
2271 Clear 19 1023 45 10000 3.1 280 13:56 20.12.2019
2272 Clear 19 1023 45 10000 3.1 280 13:37 20.12.2019
2273 Clear 19 1023 45 10000 3.1 280 13:18 20.12.2019
2274 Clear 19 1023 48 10000 3.6 290 12:55 20.12.2019
2275 Clear 19 1023 48 10000 3.6 290 12:36 20.12.2019
2276 Clear 19 1023 48 10000 3.6 290 12:18 20.12.2019
2277 Clear 19 1024 48 10000 3.6 270 11:56 20.12.2019
2278 Clear 19 1024 48 10000 3.6 270 11:37 20.12.2019
2279 Clear 19 1024 48 10000 3.6 270 11:18 20.12.2019
2280 Clear 17 1025 55 10000 3.6 260 10:54 20.12.2019
2281 Clear 17 1025 55 10000 3.6 260 10:36 20.12.2019
2282 Clear 17 1025 55 10000 3.6 260 10:18 20.12.2019
2283 Clear 15 1025 62 10000 3.6 290 09:41 20.12.2019
2284 Clear 15 1025 62 10000 3.6 290 09:21 20.12.2019
2285 Clear 15 1025 62 10000 3.6 290 09:21 20.12.2019
2286 Clear 13 1026 66 10000 4.6 290 08:54 20.12.2019
2287 Clear 13 1026 66 10000 4.6 290 08:36 20.12.2019
2288 Clear 13 1026 66 10000 4.6 290 08:18 20.12.2019
2289 Clear 11 1026 71 10000 3.6 260 07:41 20.12.2019
2290 Clear 11 1026 71 10000 3.6 260 07:20 20.12.2019
2291 Clear 8 1025 81 10000 3.6 270 06:52 20.12.2019
2292 Clear 8 1025 81 10000 3.6 270 06:33 20.12.2019
2293 Clear 7 1025 87 10000 3.1 260 05:56 20.12.2019
2294 Clear 7 1025 87 10000 3.1 260 05:38 20.12.2019
2295 Clear 6 1024 87 10000 2.6 290 04:34 20.12.2019
2296 Clear 7 1024 87 10000 2.6 290 03:31 20.12.2019
2297 Clear 11 1024 49 0 4.28 303 02:45 20.12.2019
2298 Clear 8 1024 81 10000 2.6 300 01:54 20.12.2019
2299 Clear 8 1024 81 10000 2.6 300 01:34 20.12.2019
2300 Clear 9 1025 76 10000 3.6 290 00:53 20.12.2019
2301 Clear 9 1025 76 10000 3.6 290 00:34 20.12.2019
2302 Clear 10 1025 71 10000 3.1 290 23:57 19.12.2019
2303 Clear 10 1025 71 10000 3.1 290 23:38 19.12.2019
2304 Clear 10 1025 71 10000 3.1 290 23:38 19.12.2019
2305 Clear 10 1025 71 10000 3.1 290 23:19 19.12.2019
2306 Clear 10 1025 71 10000 3.1 290 23:19 19.12.2019
2307 Clear 10 1025 71 10000 4.1 300 22:38 19.12.2019
2308 Clear 10 1025 71 10000 4.1 300 22:20 19.12.2019
2309 Clear 10 1025 71 10000 3.6 300 21:56 19.12.2019
2310 Clear 12 1026 66 10000 4.1 290 21:38 19.12.2019
2311 Clear 12 1026 66 10000 4.1 290 21:19 19.12.2019
2312 Clear 12 1026 71 10000 3.6 280 20:56 19.12.2019
2313 Clear 12 1026 71 10000 3.6 280 20:37 19.12.2019
2314 Clear 12 1026 71 10000 3.6 280 20:19 19.12.2019
2315 Clear 13 1026 62 10000 3.6 280 19:57 19.12.2019
2316 Clear 13 1026 62 10000 3.6 280 19:57 19.12.2019
2317 Clear 13 1026 62 10000 3.6 280 19:39 19.12.2019
2318 Clear 13 1026 62 10000 3.6 280 19:19 19.12.2019
2319 Clear 13 1026 62 10000 3.6 280 19:19 19.12.2019
2320 Clear 13 1026 62 10000 3.1 280 18:56 19.12.2019
2321 Clear 13 1026 62 10000 3.1 280 18:38 19.12.2019
2322 Clear 13 1026 62 10000 3.1 280 18:18 19.12.2019
2323 Clear 13 1026 62 10000 4.1 300 17:55 19.12.2019
2324 Clear 13 1026 62 10000 4.1 300 17:37 19.12.2019
2325 Clear 13 1026 62 10000 4.1 300 17:18 19.12.2019
2326 Clear 16 1026 48 10000 4.1 280 16:55 19.12.2019
2327 Clear 16 1026 48 10000 4.1 280 16:36 19.12.2019
2328 Clear 16 1026 48 10000 4.1 280 16:18 19.12.2019
2329 Clear 17 1026 55 10000 4.6 290 15:55 19.12.2019
2330 Clear 17 1026 55 10000 4.6 290 15:36 19.12.2019
2331 Clear 17 1026 55 10000 4.6 290 15:18 19.12.2019
2332 Clear 19 1026 42 10000 6.2 310 14:42 19.12.2019
2333 Clear 19 1026 42 10000 6.2 310 14:20 19.12.2019
2334 Clear 19 1026 39 10000 6.2 300 13:58 19.12.2019
2335 Clear 20 1026 40 10000 5.7 300 13:38 19.12.2019
2336 Clear 20 1026 40 10000 5.7 300 13:19 19.12.2019
2337 Clear 19 1026 39 10000 5.7 300 12:57 19.12.2019
2338 Clear 19 1026 39 10000 5.7 300 12:39 19.12.2019
2339 Clear 19 1026 39 10000 5.7 300 12:39 19.12.2019
2340 Clear 19 1026 39 10000 5.7 300 12:19 19.12.2019
2341 Clear 19 1026 39 10000 5.7 300 12:19 19.12.2019
2342 Clear 19 1026 39 10000 5.7 300 11:58 19.12.2019
2343 Clear 19 1026 39 10000 5.7 300 11:40 19.12.2019
2344 Clear 19 1026 39 10000 5.7 300 11:18 19.12.2019
2345 Clear 18 1027 42 10000 5.7 300 10:56 19.12.2019
2346 Clear 18 1027 42 10000 5.7 300 10:38 19.12.2019
2347 Clear 18 1027 42 10000 5.7 300 10:19 19.12.2019
2348 Clear 16 1028 51 10000 5.7 290 09:54 19.12.2019
2349 Clear 16 1028 51 10000 5.7 290 09:36 19.12.2019
2350 Clear 16 1028 51 10000 5.7 290 09:18 19.12.2019
2351 Clear 14 1028 58 10000 6.2 290 08:41 19.12.2019
2352 Clear 14 1028 58 10000 6.2 290 08:19 19.12.2019
2353 Clear 11 1028 71 10000 6.2 300 07:58 19.12.2019
2354 Clear 11 1028 71 10000 6.2 300 07:38 19.12.2019
2355 Clear 11 1028 71 10000 6.2 300 07:20 19.12.2019
2356 Clear 9 1027 76 10000 3.1 300 06:50 19.12.2019
2357 Clear 9 1027 76 10000 3.1 300 06:30 19.12.2019
2358 Clear 8 1027 81 10000 4.1 300 05:55 19.12.2019
2359 Clear 8 1027 75 10000 4.1 290 05:36 19.12.2019
2360 Clear 7 1026 75 10000 3.1 300 04:52 19.12.2019
2361 Clear 8 1026 75 10000 4.1 310 03:23 19.12.2019
2362 Clear 9 1026 76 10000 4.6 310 02:23 19.12.2019
2363 Clear 9 1026 76 10000 5.1 310 01:23 19.12.2019
2364 Clear 10 1025 71 10000 4.6 310 00:44 19.12.2019
2365 Clear 10 1025 71 10000 4.6 310 00:24 19.12.2019
2366 Clear 10 1025 71 10000 4.6 310 23:57 18.12.2019
2367 Clear 10 1025 71 10000 4.6 310 23:38 18.12.2019
2368 Clear 10 1025 71 10000 4.6 310 23:18 18.12.2019
2369 Clear 10 1025 71 10000 3.6 320 22:55 18.12.2019
2370 Clear 10 1025 71 10000 3.6 320 22:37 18.12.2019
2371 Clear 10 1025 71 10000 3.6 320 22:19 18.12.2019
2372 Clear 9 1025 76 10000 4.1 310 21:56 18.12.2019
2373 Clear 10 1026 71 10000 3.6 310 21:38 18.12.2019
2374 Clear 10 1026 71 10000 3.6 310 21:19 18.12.2019
2375 Clear 10 1026 71 10000 3.6 320 20:55 18.12.2019
2376 Clear 10 1026 71 10000 3.6 320 20:37 18.12.2019
2377 Clear 10 1026 71 10000 3.6 320 20:19 18.12.2019
2378 Clear 12 1026 66 10000 4.1 310 19:55 18.12.2019
2379 Clear 12 1026 66 10000 4.1 310 19:37 18.12.2019
2380 Clear 12 1026 66 10000 4.1 310 19:18 18.12.2019
2381 Clear 13 1025 62 10000 3.6 300 18:44 18.12.2019
2382 Clear 13 1025 62 10000 3.6 300 18:25 18.12.2019
2383 Clear 14 1025 58 10000 3.6 300 17:57 18.12.2019
2384 Clear 14 1025 58 10000 3.6 300 17:39 18.12.2019
2385 Clear 14 1025 58 10000 3.6 300 17:19 18.12.2019
2386 Clear 14 1025 58 10000 3.1 300 16:57 18.12.2019
2387 Clear 14 1025 58 10000 3.1 300 16:57 18.12.2019
2388 Clear 14 1025 58 10000 3.1 300 16:38 18.12.2019
2389 Clear 14 1025 58 10000 3.1 300 16:20 18.12.2019
2390 Clear 17 1025 48 10000 4.1 310 15:55 18.12.2019
2391 Clear 17 1025 48 10000 4.1 310 15:37 18.12.2019
2392 Clear 17 1025 48 10000 4.1 310 15:37 18.12.2019
2393 Clear 17 1025 48 10000 4.1 310 15:19 18.12.2019
2394 Clear 19 1024 45 10000 6.2 300 14:42 18.12.2019
2395 Clear 19 1024 45 10000 6.2 300 14:22 18.12.2019
2396 Clear 20 1024 42 10000 4.6 300 13:57 18.12.2019
2397 Clear 20 1024 42 10000 4.6 300 13:39 18.12.2019
2398 Clear 20 1024 42 10000 4.6 300 13:39 18.12.2019
2399 Clear 20 1024 42 10000 4.6 300 13:20 18.12.2019
2400 Clear 19 1024 48 10000 4.1 290 12:59 18.12.2019
2401 Clear 19 1024 48 10000 4.1 290 12:38 18.12.2019
2402 Clear 19 1024 48 10000 4.1 290 12:20 18.12.2019
2403 Clear 18 1024 48 10000 4.1 280 11:56 18.12.2019
2404 Clear 18 1024 48 10000 4.1 280 11:38 18.12.2019
2405 Clear 18 1024 48 10000 4.1 280 11:19 18.12.2019
2406 Clear 16 1025 59 7000 3.6 280 10:56 18.12.2019
2407 Clear 16 1025 59 7000 3.6 280 10:38 18.12.2019
2408 Clear 16 1025 59 7000 3.6 280 10:20 18.12.2019
2409 Mist 13 1025 87 2800 2.1 250 09:52 18.12.2019
2410 Mist 13 1025 87 2800 2.1 250 09:19 18.12.2019
2411 Mist 10 1026 93 2000 2.1 260 08:42 18.12.2019
2412 Fog 9 1026 93 400 2.6 270 08:24 18.12.2019
2413 Fog 8 1026 93 200 2.1 280 07:55 18.12.2019
2414 Fog 8 1026 93 200 2.1 280 07:37 18.12.2019
2415 Fog 8 1026 93 200 2.1 280 07:19 18.12.2019
2416 Fog 7 1025 93 150 2.6 270 06:50 18.12.2019
2417 Fog 7 1025 93 150 2.6 270 06:22 18.12.2019
2418 Fog 7 1025 93 200 2.1 300 05:30 18.12.2019
2419 Fog 7 1023 100 150 1.5 300 03:45 18.12.2019
2420 Fog 7 1023 100 150 2.6 260 02:43 18.12.2019
2421 Fog 7 1023 100 150 2.6 260 02:25 18.12.2019
2422 Fog 6 1023 100 100 1.5 310 01:43 18.12.2019
2423 Fog 6 1023 100 100 1.5 310 01:24 18.12.2019
2424 Fog 7 1022 93 100 0.5 0 00:42 18.12.2019
2425 Fog 7 1022 93 100 0.5 0 00:24 18.12.2019
2426 Fog 7 1022 93 100 0.5 0 00:24 18.12.2019
2427 Fog 8 1022 93 100 2.6 344 23:58 17.12.2019
2428 Fog 8 1022 93 100 2.6 344 23:39 17.12.2019
2429 Fog 8 1022 93 100 0.97 332 23:20 17.12.2019
2430 Mist 9 1022 93 1200 0.5 0 22:57 17.12.2019
2431 Mist 9 1022 93 1200 0.5 0 22:38 17.12.2019
2432 Mist 9 1022 93 1200 0.5 0 22:19 17.12.2019
2433 Mist 8 1022 100 1400 1.5 40 21:57 17.12.2019
2434 Mist 8 1022 100 1400 1.5 40 21:38 17.12.2019
2435 Mist 8 1022 100 1400 1.5 40 21:38 17.12.2019
2436 Mist 8 1022 100 1400 1.5 40 21:20 17.12.2019
2437 Mist 10 1022 93 2400 0.97 332 20:58 17.12.2019
2438 Mist 10 1022 93 2400 0.97 332 20:39 17.12.2019
2439 Mist 10 1022 93 2400 1.65 30 20:19 17.12.2019
2440 Mist 10 1022 93 2400 0.5 320 19:57 17.12.2019
2441 Mist 10 1022 93 2400 0.5 320 19:39 17.12.2019
2442 Mist 11 1022 93 3400 1 0 19:19 17.12.2019
2443 Mist 11 1021 100 3400 1 30 18:57 17.12.2019
2444 Mist 11 1021 100 3400 1 30 18:57 17.12.2019
2445 Mist 11 1021 100 3400 1 30 18:37 17.12.2019
2446 Mist 11 1021 100 3400 1 30 18:19 17.12.2019
2447 Mist 12 1021 93 4000 1.5 50 17:54 17.12.2019
2448 Mist 12 1021 93 4000 1.5 50 17:36 17.12.2019
2449 Mist 12 1021 93 4000 1.5 50 17:18 17.12.2019
2450 Mist 13 1020 82 4400 1.5 110 16:54 17.12.2019
2451 Mist 13 1020 82 4400 1.5 110 16:36 17.12.2019
2452 Mist 13 1020 82 4400 1.5 110 16:18 17.12.2019
2453 Mist 15 1019 72 2700 2.1 110 15:38 17.12.2019
2454 Mist 15 1019 72 2700 2.1 110 15:19 17.12.2019
2455 Clear 17 1018 67 10000 3.1 90 14:56 17.12.2019
2456 Clear 17 1018 67 10000 3.1 90 14:38 17.12.2019
2457 Clear 17 1018 67 10000 3.1 90 14:19 17.12.2019
2458 Clear 17 1018 67 10000 3.1 90 14:19 17.12.2019
2459 Clear 18 1018 55 10000 3.1 340 13:56 17.12.2019
2460 Clear 18 1018 55 10000 3.1 340 13:38 17.12.2019
2461 Clear 18 1018 55 10000 3.1 340 13:19 17.12.2019
2462 Clear 18 1018 55 10000 3.1 340 13:19 17.12.2019
2463 Clouds 18 1018 55 10000 3.6 320 12:58 17.12.2019
2464 Clouds 18 1018 55 10000 3.6 320 12:38 17.12.2019
2465 Clouds 18 1018 55 10000 3.6 320 12:18 17.12.2019
2466 Clouds 17 1017 63 6000 3.6 350 11:56 17.12.2019
2467 Clouds 17 1017 63 6000 3.6 350 11:37 17.12.2019
2468 Clouds 17 1017 63 6000 3.6 350 11:18 17.12.2019
2469 Mist 12 1018 100 2700 3.1 330 10:57 17.12.2019
2470 Mist 12 1018 100 2700 3.1 330 10:38 17.12.2019
2471 Mist 12 1018 100 2700 3.1 330 10:19 17.12.2019
2472 Mist 11 1019 93 2500 2.6 320 09:55 17.12.2019
2473 Mist 11 1019 93 2500 2.6 320 09:37 17.12.2019
2474 Mist 11 1019 93 2500 2.6 320 09:18 17.12.2019
2475 Fog 10 1018 87 900 3.6 310 08:40 17.12.2019
2476 Fog 10 1018 87 900 3.6 310 08:22 17.12.2019
2477 Clouds 10 1018 87 9000 3.1 300 07:59 17.12.2019
2478 Clouds 10 1018 87 9000 3.1 300 07:41 17.12.2019
2479 Clouds 10 1018 87 9000 3.1 300 07:22 17.12.2019
2480 Clouds 9 1017 87 9000 3.6 300 06:50 17.12.2019
2481 Clouds 9 1017 87 9000 3.6 300 06:32 17.12.2019
2482 Clouds 9 1016 81 10000 2.1 300 05:42 17.12.2019
2483 Clouds 9 1016 81 10000 2.1 300 05:42 17.12.2019
2484 Rain 10 1016 81 10000 4.1 280 04:58 17.12.2019
2485 Rain 11 1016 76 10000 4.1 300 04:00 17.12.2019
2486 Rain 12 1015 87 10000 3.6 290 02:26 17.12.2019
2487 Rain 12 1015 87 10000 2.6 250 01:22 17.12.2019
2488 Rain 15 1016 65 0 6.96 271 00:48 17.12.2019
2489 Rain 13 1016 82 10000 1.5 230 00:22 17.12.2019
2490 Rain 13 1016 82 10000 1.5 230 23:58 16.12.2019
2491 Rain 13 1016 82 10000 1.5 230 23:40 16.12.2019
2492 Rain 13 1016 82 10000 1.5 230 23:18 16.12.2019
2493 Rain 13 1016 76 10000 4.45 244 22:55 16.12.2019
2494 Rain 13 1016 76 10000 4.45 244 22:36 16.12.2019
2495 Rain 13 1016 76 10000 4.45 244 22:18 16.12.2019
2496 Rain 14 1016 71 10000 2.1 280 21:54 16.12.2019
2497 Rain 14 1016 71 10000 2.1 280 21:36 16.12.2019
2498 Rain 14 1016 71 10000 2.1 280 21:18 16.12.2019
2499 Rain 14 1016 71 10000 3.6 280 20:56 16.12.2019
2500 Rain 14 1016 71 10000 3.6 280 20:37 16.12.2019
2501 Rain 14 1016 71 10000 3.6 280 20:37 16.12.2019
2502 Clouds 14 1016 71 10000 3.6 280 20:18 16.12.2019
2503 Clouds 14 1016 71 10000 3.6 290 19:55 16.12.2019
2504 Clouds 14 1016 71 10000 3.6 290 19:36 16.12.2019
2505 Clouds 14 1016 71 10000 3.6 290 19:18 16.12.2019
2506 Clouds 15 1016 72 10000 5.1 290 18:54 16.12.2019
2507 Clouds 15 1016 72 10000 5.1 290 18:36 16.12.2019
2508 Clouds 15 1016 72 10000 5.1 290 18:18 16.12.2019
2509 Haze 14 1015 82 10000 2.6 300 17:55 16.12.2019
2510 Haze 14 1015 82 10000 2.6 300 17:37 16.12.2019
2511 Haze 14 1015 82 10000 2.6 300 17:18 16.12.2019
2512 Clouds 15 1015 77 10000 4.1 300 16:54 16.12.2019
2513 Clouds 15 1015 77 10000 4.1 300 16:36 16.12.2019
2514 Clouds 15 1015 77 10000 4.1 300 16:18 16.12.2019
2515 Clouds 16 1015 72 9000 3.6 290 15:54 16.12.2019
2516 Clouds 16 1015 72 9000 3.6 290 15:36 16.12.2019
2517 Clouds 16 1015 72 9000 3.6 290 15:18 16.12.2019
2518 Clouds 17 1015 67 8000 4.6 310 14:54 16.12.2019
2519 Clouds 17 1015 67 8000 4.6 310 14:36 16.12.2019
2520 Clouds 17 1015 67 8000 4.6 310 14:18 16.12.2019
2521 Clouds 17 1015 67 8000 6.2 310 13:38 16.12.2019
2522 Clouds 17 1015 67 8000 6.2 310 13:20 16.12.2019
2523 Haze 16 1015 77 3000 5.7 300 12:58 16.12.2019
2524 Haze 16 1015 77 3000 5.7 300 12:58 16.12.2019
2525 Haze 16 1015 77 3000 5.7 300 12:40 16.12.2019
2526 Haze 16 1015 77 3000 5.7 300 12:20 16.12.2019
2527 Mist 15 1016 77 3000 3.6 290 11:59 16.12.2019
2528 Mist 15 1016 77 3000 3.6 290 11:41 16.12.2019
2529 Mist 15 1016 77 3000 3.6 290 11:22 16.12.2019
2530 Mist 14 1018 82 2600 3.1 290 10:59 16.12.2019
2531 Mist 14 1018 82 2600 3.1 290 10:40 16.12.2019
2532 Mist 14 1018 82 2600 3.1 290 10:40 16.12.2019
2533 Mist 14 1018 82 2600 3.1 290 10:20 16.12.2019
2534 Mist 13 1019 87 2300 2.6 280 09:46 16.12.2019
2535 Mist 13 1019 87 2300 2.6 280 09:28 16.12.2019
2536 Mist 12 1019 93 1900 3.6 290 08:58 16.12.2019
2537 Mist 12 1019 93 1900 3.6 290 08:38 16.12.2019
2538 Mist 12 1019 93 1900 3.6 290 08:19 16.12.2019
2539 Mist 11 1019 93 1200 2.6 300 07:51 16.12.2019
2540 Mist 11 1019 93 1200 2.6 300 07:31 16.12.2019
2541 Mist 11 1019 93 1200 2.6 300 07:31 16.12.2019
2542 Fog 11 1018 93 700 3.6 300 06:48 16.12.2019
2543 Fog 11 1018 93 700 3.6 300 06:27 16.12.2019
2544 Rain 11 1019 93 750 2.6 230 05:58 16.12.2019
2545 Rain 11 1019 93 750 2.6 230 05:39 16.12.2019
2546 Rain 11 1019 93 750 2.6 230 05:21 16.12.2019
2547 Fog 11 1018 93 700 3.6 330 02:50 16.12.2019
2548 Fog 10 1018 100 1000 3.6 330 01:45 16.12.2019
2549 Fog 10 1019 100 1500 3.1 310 00:56 16.12.2019
2550 Fog 10 1019 100 1500 3.1 310 00:37 16.12.2019
2551 Fog 10 1019 100 1500 3.1 310 00:18 16.12.2019
2552 Fog 10 1019 93 1400 3.6 320 23:41 15.12.2019
2553 Fog 10 1019 93 1400 3.6 320 23:22 15.12.2019
2554 Mist 10 1019 100 2300 2.1 350 22:57 15.12.2019
2555 Mist 10 1019 100 2300 2.1 350 22:57 15.12.2019
2556 Mist 10 1019 100 2300 2.1 350 22:38 15.12.2019
2557 Mist 10 1019 100 2300 2.1 350 22:19 15.12.2019
2558 Mist 11 1019 93 2600 3.1 350 21:57 15.12.2019
2559 Mist 11 1019 93 2600 3.1 350 21:38 15.12.2019
2560 Mist 11 1019 93 2600 3.1 350 21:19 15.12.2019
2561 Mist 11 1019 93 2600 3.1 350 21:19 15.12.2019
2562 Mist 11 1020 93 2800 2.6 330 20:57 15.12.2019
2563 Mist 11 1020 93 2800 2.6 330 20:39 15.12.2019
2564 Mist 11 1020 93 2800 2.6 330 20:39 15.12.2019
2565 Mist 11 1020 93 2800 2.6 330 20:20 15.12.2019
2566 Mist 12 1020 93 2900 2.6 330 19:58 15.12.2019
2567 Mist 12 1020 93 2900 2.6 330 19:39 15.12.2019
2568 Mist 12 1020 93 2900 2.6 330 19:19 15.12.2019
2569 Mist 12 1020 93 3200 1.5 360 18:57 15.12.2019
2570 Mist 12 1020 93 3200 1.5 360 18:57 15.12.2019
2571 Mist 12 1020 93 3200 1.5 360 18:39 15.12.2019
2572 Mist 12 1020 93 3200 1.5 360 18:19 15.12.2019
2573 Mist 12 1020 93 3000 3.1 350 17:56 15.12.2019
2574 Mist 12 1020 93 3000 3.1 350 17:37 15.12.2019
2575 Mist 12 1020 93 3000 3.1 350 17:37 15.12.2019
2576 Mist 12 1020 93 3000 3.1 350 17:19 15.12.2019
2577 Mist 12 1020 93 3200 2.6 20 16:57 15.12.2019
2578 Mist 12 1020 93 3200 2.6 20 16:39 15.12.2019
2579 Mist 12 1020 93 3200 2.6 20 16:20 15.12.2019
2580 Mist 12 1019 93 2000 3.1 340 15:55 15.12.2019
2581 Mist 12 1019 93 2000 3.1 340 15:55 15.12.2019
2582 Mist 12 1019 93 2000 3.1 340 15:55 15.12.2019
2583 Mist 12 1019 93 2000 3.1 340 15:55 15.12.2019
2584 Mist 12 1019 93 2000 3.1 340 15:37 15.12.2019
2585 Mist 12 1019 93 2000 3.1 340 15:18 15.12.2019
2586 Mist 12 1019 93 1200 3.6 340 14:55 15.12.2019
2587 Mist 12 1019 93 1200 3.6 340 14:36 15.12.2019
2588 Mist 12 1019 93 1200 3.6 340 14:18 15.12.2019
2589 Mist 12 1019 100 1200 4.1 330 13:56 15.12.2019
2590 Mist 12 1019 100 1200 4.1 330 13:37 15.12.2019
2591 Mist 12 1019 100 1200 4.1 330 13:19 15.12.2019
2592 Mist 12 1019 100 1200 4.1 330 13:19 15.12.2019
2593 Fog 12 1019 93 1000 3.1 330 12:56 15.12.2019
2594 Fog 12 1019 93 1000 3.1 330 12:38 15.12.2019
2595 Fog 12 1019 93 1000 3.1 330 12:20 15.12.2019
2596 Fog 11 1020 100 1000 3.1 310 11:39 15.12.2019
2597 Fog 11 1020 100 1000 3.1 310 11:20 15.12.2019
2598 Fog 11 1020 100 1000 3.1 310 11:20 15.12.2019
2599 Fog 11 1020 93 700 1.5 320 10:58 15.12.2019
2600 Fog 11 1020 93 700 1.5 320 10:40 15.12.2019
2601 Fog 11 1020 93 700 1.5 320 10:20 15.12.2019
2602 Fog 10 1021 93 400 1.5 330 09:59 15.12.2019
2603 Fog 10 1021 93 400 1.5 330 09:38 15.12.2019
2604 Fog 10 1021 93 400 1.5 330 09:20 15.12.2019
2605 Fog 10 1021 93 400 1.5 330 09:20 15.12.2019
2606 Fog 10 1021 93 250 1.5 320 08:56 15.12.2019
2607 Fog 10 1021 93 250 1.5 320 08:38 15.12.2019
2608 Fog 10 1021 93 200 1 0 08:20 15.12.2019
2609 Fog 9 1021 100 150 1 0 07:55 15.12.2019
2610 Fog 9 1021 100 150 1 0 07:33 15.12.2019
2611 Fog 9 1020 100 100 2.1 330 06:31 15.12.2019
2612 Fog 9 1020 93 150 1.5 360 05:51 15.12.2019
2613 Fog 9 1020 93 150 1.5 360 05:25 15.12.2019
2614 Fog 9 1020 93 200 2.1 340 04:24 15.12.2019
2615 Fog 8 1020 100 200 1.5 360 03:22 15.12.2019
2616 Fog 9 1020 93 150 1.5 320 02:33 15.12.2019
2617 Fog 9 1019 93 150 2.1 300 01:44 15.12.2019
2618 Fog 9 1019 93 150 2.1 300 01:25 15.12.2019
2619 Fog 9 1020 93 150 1 0 00:54 15.12.2019
2620 Fog 9 1020 93 150 1 0 00:35 15.12.2019
2621 Fog 9 1019 100 150 0.5 0 23:58 14.12.2019
2622 Fog 8 1019 93 100 1 220 23:38 14.12.2019
2623 Fog 8 1019 93 100 1 220 23:18 14.12.2019
2624 Fog 8 1019 100 150 1 0 22:57 14.12.2019
2625 Fog 8 1019 100 150 1 0 22:39 14.12.2019
2626 Fog 8 1019 100 150 1 0 22:39 14.12.2019
2627 Fog 8 1020 93 150 1 0 22:20 14.12.2019
2628 Mist 10 1020 93 2200 1.5 110 21:55 14.12.2019
2629 Mist 10 1020 93 2200 1.5 110 21:55 14.12.2019
2630 Mist 10 1020 93 2200 1.5 110 21:37 14.12.2019
2631 Mist 10 1020 93 2200 1.5 110 21:18 14.12.2019
2632 Mist 11 1020 93 2600 0.5 0 20:55 14.12.2019
2633 Mist 11 1020 93 2600 0.5 0 20:37 14.12.2019
2634 Mist 11 1020 93 2600 0.5 0 20:19 14.12.2019
2635 Mist 11 1020 93 2600 0.5 0 19:40 14.12.2019
2636 Mist 11 1020 93 2600 0.5 0 19:21 14.12.2019
2637 Mist 12 1020 100 2900 1.5 330 18:58 14.12.2019
2638 Mist 12 1020 100 2900 1.5 330 18:39 14.12.2019
2639 Mist 12 1020 100 2900 1.5 330 18:21 14.12.2019
2640 Mist 12 1019 93 3800 2.1 350 17:59 14.12.2019
2641 Mist 12 1019 93 3800 2.1 350 17:41 14.12.2019
2642 Mist 12 1019 93 3800 2.1 350 17:22 14.12.2019
2643 Clear 13 1019 82 7000 1.5 320 16:42 14.12.2019
2644 Clear 13 1019 82 7000 1.5 320 16:19 14.12.2019
2645 Clear 15 1018 72 5000 1.5 330 15:57 14.12.2019
2646 Clear 15 1018 72 5000 1.5 330 15:38 14.12.2019
2647 Clear 15 1018 72 5000 1.5 330 15:38 14.12.2019
2648 Clear 15 1018 72 5000 1.5 330 15:19 14.12.2019
2649 Clouds 16 1019 67 6000 2.1 250 14:57 14.12.2019
2650 Clouds 16 1019 67 6000 2.1 250 14:38 14.12.2019
2651 Clouds 16 1019 67 6000 2.1 250 14:18 14.12.2019
2652 Clouds 16 1018 67 6000 2.6 230 13:44 14.12.2019
2653 Clouds 16 1018 67 6000 2.6 230 13:20 14.12.2019
2654 Haze 17 1018 63 5000 0.5 0 12:58 14.12.2019
2655 Haze 17 1018 63 5000 0.5 0 12:40 14.12.2019
2656 Haze 17 1018 63 5000 0.5 0 12:40 14.12.2019
2657 Haze 17 1018 63 5000 0.5 0 12:20 14.12.2019
2658 Mist 15 1019 82 3400 1.5 200 11:58 14.12.2019
2659 Mist 15 1019 82 3400 1.5 200 11:39 14.12.2019
2660 Mist 15 1019 82 3400 1.5 200 11:19 14.12.2019
2661 Mist 13 1019 93 2300 2.1 210 10:57 14.12.2019
2662 Mist 13 1019 93 2300 2.1 210 10:39 14.12.2019
2663 Mist 13 1019 93 2300 2.1 210 10:20 14.12.2019
2664 Mist 12 1020 93 1400 1.5 240 09:55 14.12.2019
2665 Mist 12 1020 93 1400 1.5 240 09:37 14.12.2019
2666 Mist 12 1020 93 1400 1.5 240 09:18 14.12.2019
2667 Fog 11 1020 93 500 3.6 230 08:42 14.12.2019
2668 Fog 11 1020 93 500 3.6 230 08:42 14.12.2019
2669 Fog 11 1020 93 500 3.6 230 08:19 14.12.2019
2670 Fog 11 1020 100 350 2.1 150 07:44 14.12.2019
2671 Fog 11 1020 100 350 2.1 150 07:23 14.12.2019
2672 Fog 11 1019 100 400 2.1 140 06:56 14.12.2019
2673 Fog 11 1019 100 400 2.1 140 06:37 14.12.2019
2674 Fog 11 1018 93 350 2.1 120 05:57 14.12.2019
2675 Fog 11 1018 93 300 2.1 130 04:42 14.12.2019
2676 Fog 11 1018 100 350 1 0 02:31 14.12.2019
2677 Fog 11 1017 100 350 1.5 230 01:49 14.12.2019
2678 Fog 11 1017 100 350 1.5 210 01:31 14.12.2019
2679 Fog 11 1017 100 400 1.5 200 00:45 14.12.2019
2680 Fog 12 1017 93 450 1.5 190 00:27 14.12.2019
2681 Fog 12 1017 93 400 1 160 23:54 13.12.2019
2682 Fog 12 1017 93 300 1 0 23:36 13.12.2019
2683 Fog 12 1017 93 300 1 0 23:18 13.12.2019
2684 Fog 12 1017 93 350 1.5 140 22:40 13.12.2019
2685 Fog 12 1017 93 350 1.5 140 22:19 13.12.2019
2686 Fog 12 1017 93 350 1.5 140 22:19 13.12.2019
2687 Fog 12 1017 93 800 2.1 140 21:56 13.12.2019
2688 Fog 12 1017 93 800 2.1 140 21:37 13.12.2019
2689 Mist 12 1017 93 3100 2.6 140 21:19 13.12.2019
2690 Mist 12 1017 100 4700 2.6 120 20:41 13.12.2019
2691 Mist 11 1016 100 4500 2.1 90 20:22 13.12.2019
2692 Mist 11 1016 100 4500 2.1 90 19:59 13.12.2019
2693 Mist 11 1016 100 4500 2.1 90 19:40 13.12.2019
2694 Mist 11 1016 100 4500 2.1 90 19:22 13.12.2019
2695 Clouds 12 1016 93 7000 1.5 130 18:58 13.12.2019
2696 Clouds 12 1016 93 7000 1.5 130 18:40 13.12.2019
2697 Clouds 12 1016 93 7000 1.5 130 18:19 13.12.2019
2698 Clouds 13 1015 87 8000 2.6 130 17:43 13.12.2019
2699 Clouds 13 1015 87 8000 2.6 130 17:20 13.12.2019
2700 Clouds 14 1015 82 10000 2.6 130 16:59 13.12.2019
2701 Clouds 14 1015 82 10000 2.6 130 16:39 13.12.2019
2702 Clouds 14 1015 82 10000 2.6 130 16:20 13.12.2019
2703 Clouds 15 1014 77 10000 3.6 130 15:58 13.12.2019
2704 Clouds 15 1014 77 10000 3.6 130 15:37 13.12.2019
2705 Clouds 15 1014 77 10000 3.6 130 15:18 13.12.2019
2706 Clouds 16 1013 72 10000 4.6 130 14:41 13.12.2019
2707 Clouds 16 1013 72 10000 4.6 130 14:21 13.12.2019
2708 Clouds 17 1013 67 5000 3.6 150 13:58 13.12.2019
2709 Clouds 17 1013 67 5000 3.6 150 13:39 13.12.2019
2710 Clouds 17 1013 67 5000 3.6 150 13:21 13.12.2019
2711 Clouds 16 1013 72 5000 3.6 160 12:42 13.12.2019
2712 Clouds 16 1013 72 5000 3.6 160 12:20 13.12.2019
2713 Clouds 16 1013 72 5000 3.6 170 11:57 13.12.2019
2714 Clouds 16 1013 72 5000 3.6 170 11:39 13.12.2019
2715 Clouds 16 1013 72 5000 3.6 170 11:21 13.12.2019
2716 Clouds 16 1013 72 6000 6.2 150 10:43 13.12.2019
2717 Clouds 16 1013 72 6000 6.2 150 10:23 13.12.2019
2718 Clouds 17 1013 67 8000 6.2 150 09:59 13.12.2019
2719 Clouds 17 1013 67 8000 6.2 150 09:39 13.12.2019
2720 Clouds 17 1013 67 8000 6.2 150 09:19 13.12.2019
2721 Clouds 16 1012 72 7000 7.2 140 08:41 13.12.2019
2722 Clouds 16 1012 72 7000 7.2 140 08:23 13.12.2019
2723 Clouds 14 1012 76 8000 4.1 140 07:46 13.12.2019
2724 Clouds 14 1012 76 8000 4.1 140 07:23 13.12.2019
2725 Clouds 12 1010 76 9000 3.6 150 06:55 13.12.2019
2726 Clouds 12 1010 76 9000 3.6 150 06:29 13.12.2019
2727 Clouds 13 1009 71 10000 3.6 120 05:47 13.12.2019
2728 Clouds 13 1009 71 10000 3.6 120 05:28 13.12.2019
2729 Rain 13 1009 71 10000 4.6 120 04:46 13.12.2019
2730 Clouds 13 1008 76 10000 5.1 130 03:48 13.12.2019
2731 Clouds 14 1008 71 10000 5.1 110 02:34 13.12.2019
2732 Clouds 14 1009 71 10000 5.1 110 01:48 13.12.2019
2733 Clouds 14 1009 71 10000 5.1 110 01:19 13.12.2019
2734 Clouds 14 1009 71 10000 4.6 110 00:45 13.12.2019
2735 Clouds 14 1009 71 10000 4.6 110 00:22 13.12.2019
2736 Clouds 15 1010 72 10000 4.1 120 23:41 12.12.2019
2737 Clouds 15 1010 72 10000 4.1 120 23:22 12.12.2019
2738 Clouds 15 1010 67 10000 4.1 100 22:56 12.12.2019
2739 Clouds 15 1010 67 10000 4.1 100 22:37 12.12.2019
2740 Clouds 15 1010 67 10000 4.1 100 22:19 12.12.2019
2741 Clouds 16 1010 63 10000 6.2 110 21:55 12.12.2019
2742 Clouds 16 1010 63 10000 6.2 110 21:55 12.12.2019
2743 Clouds 16 1010 63 10000 6.2 110 21:37 12.12.2019
2744 Clouds 16 1010 63 10000 6.2 110 21:19 12.12.2019
2745 Clouds 16 1011 63 10000 4.6 100 20:56 12.12.2019
2746 Clouds 16 1011 63 10000 4.6 100 20:38 12.12.2019
2747 Clouds 16 1011 63 10000 4.6 100 20:20 12.12.2019
2748 Clouds 15 1011 62 10000 4.6 110 19:43 12.12.2019
2749 Clouds 15 1011 62 10000 4.6 110 19:43 12.12.2019
2750 Clouds 15 1011 62 10000 4.6 110 19:23 12.12.2019
2751 Clouds 16 1011 59 10000 4.6 90 18:58 12.12.2019
2752 Clouds 16 1011 59 10000 4.6 90 18:40 12.12.2019
2753 Clouds 16 1011 59 10000 4.6 90 18:21 12.12.2019
2754 Clouds 16 1011 59 10000 4.6 90 18:21 12.12.2019
2755 Clouds 15 1011 62 10000 4.1 100 17:59 12.12.2019
2756 Clouds 15 1011 62 10000 4.1 100 17:40 12.12.2019
2757 Clouds 15 1011 62 10000 4.1 100 17:21 12.12.2019
2758 Clouds 16 1012 55 10000 3.1 90 16:59 12.12.2019
2759 Clouds 16 1012 55 10000 3.1 90 16:41 12.12.2019
2760 Clouds 16 1012 55 10000 3.1 90 16:21 12.12.2019
2761 Clouds 17 1012 55 10000 4.1 90 15:58 12.12.2019
2762 Clouds 17 1012 55 10000 4.1 90 15:40 12.12.2019
2763 Clouds 17 1012 55 10000 4.1 90 15:19 12.12.2019
2764 Clouds 18 1013 52 10000 4.6 90 14:56 12.12.2019
2765 Clouds 18 1013 52 10000 4.6 90 14:56 12.12.2019
2766 Clouds 18 1013 52 10000 4.6 90 14:36 12.12.2019
2767 Clouds 18 1013 52 10000 4.6 90 14:18 12.12.2019
2768 Clouds 19 1013 42 10000 4.1 90 13:54 12.12.2019
2769 Clouds 19 1013 42 10000 4.1 90 13:36 12.12.2019
2770 Clouds 19 1013 42 10000 4.1 90 13:18 12.12.2019
2771 Clouds 19 1014 42 9000 4.1 100 12:41 12.12.2019
2772 Clouds 19 1014 42 9000 4.1 100 12:22 12.12.2019
2773 Haze 18 1015 48 10000 3.1 70 11:59 12.12.2019
2774 Haze 18 1015 48 10000 3.1 70 11:40 12.12.2019
2775 Haze 18 1015 48 10000 3.1 70 11:21 12.12.2019
2776 Clouds 17 1016 55 6000 2.1 60 10:58 12.12.2019
2777 Clouds 17 1016 55 6000 2.1 60 10:40 12.12.2019
2778 Clouds 17 1016 55 6000 2.1 60 10:22 12.12.2019
2779 Haze 16 1017 63 4100 1.5 0 09:56 12.12.2019
2780 Haze 15 1017 72 3700 1 0 09:38 12.12.2019
2781 Haze 15 1017 72 3700 1 0 09:19 12.12.2019
2782 Mist 13 1018 82 3200 1 0 08:47 12.12.2019
2783 Mist 13 1018 82 3200 1 0 08:28 12.12.2019
2784 Mist 11 1018 93 2000 1.5 330 07:55 12.12.2019
2785 Mist 11 1018 93 2000 1.5 330 07:36 12.12.2019
2786 Mist 11 1018 93 2000 1.5 330 07:18 12.12.2019
2787 Mist 9 1018 93 1400 1.5 320 06:41 12.12.2019
2788 Mist 9 1018 93 1400 1.5 320 06:21 12.12.2019
2789 Fog 8 1017 93 2400 2.1 320 05:28 12.12.2019
2790 Mist 8 1017 93 3000 1.5 300 04:47 12.12.2019
2791 Fog 8 1018 93 2200 3.1 320 02:43 12.12.2019
2792 Fog 8 1018 93 2200 3.1 320 02:24 12.12.2019
2793 Mist 9 1018 100 3400 1.5 300 01:59 12.12.2019
2794 Mist 9 1018 100 3400 1.5 300 01:36 12.12.2019
2795 Mist 9 1019 100 3900 0.5 350 00:50 12.12.2019
2796 Mist 9 1019 100 3900 0.5 350 00:22 12.12.2019
2797 Mist 9 1019 93 4500 1.5 300 23:58 11.12.2019
2798 Mist 9 1019 93 4500 1.5 300 23:38 11.12.2019
2799 Mist 9 1019 93 4500 1.5 300 23:18 11.12.2019
2800 Mist 10 1019 93 4500 1.5 290 22:56 11.12.2019
2801 Mist 10 1019 93 4500 1.5 290 22:38 11.12.2019
2802 Mist 10 1019 93 4500 1.5 290 22:19 11.12.2019
2803 Mist 10 1019 93 5000 2.6 320 21:55 11.12.2019
2804 Mist 10 1019 93 5000 2.6 320 21:36 11.12.2019
2805 Mist 10 1019 93 5000 2.6 320 21:18 11.12.2019
2806 Mist 11 1019 93 5000 1 320 20:55 11.12.2019
2807 Mist 11 1019 93 5000 1 320 20:36 11.12.2019
2808 Mist 11 1019 93 5000 1 320 20:18 11.12.2019
2809 Mist 11 1019 81 5000 3.1 330 19:42 11.12.2019
2810 Mist 11 1019 81 5000 3.1 330 19:23 11.12.2019
2811 Clouds 12 1019 81 6000 2.6 330 18:59 11.12.2019
2812 Clouds 12 1019 81 6000 2.6 330 18:40 11.12.2019
2813 Clouds 12 1019 81 6000 2.6 330 18:20 11.12.2019
2814 Clouds 13 1018 82 7000 2.6 340 17:57 11.12.2019
2815 Clouds 13 1018 82 7000 2.6 340 17:38 11.12.2019
2816 Clear 13 1018 82 7000 2.6 340 17:18 11.12.2019
2817 Clear 15 1018 72 9000 2.6 330 16:56 11.12.2019
2818 Clear 15 1018 72 9000 2.6 330 16:37 11.12.2019
2819 Clear 15 1018 72 9000 2.6 330 16:19 11.12.2019
2820 Clear 16 1018 67 8000 3.6 310 15:57 11.12.2019
2821 Clear 16 1018 67 8000 3.6 310 15:37 11.12.2019
2822 Clear 16 1018 67 8000 3.6 310 15:19 11.12.2019
2823 Clear 18 1018 59 9000 3.1 320 14:55 11.12.2019
2824 Clear 18 1018 59 9000 3.1 320 14:37 11.12.2019
2825 Clear 18 1018 59 9000 3.1 320 14:18 11.12.2019
2826 Clear 18 1018 59 9000 3.1 330 13:44 11.12.2019
2827 Clear 18 1018 59 9000 3.1 330 13:23 11.12.2019
2828 Clear 18 1018 55 9000 3.1 330 12:59 11.12.2019
2829 Clear 18 1018 55 9000 3.1 330 12:40 11.12.2019
2830 Clear 18 1018 55 9000 3.1 330 12:22 11.12.2019
2831 Clear 18 1018 55 8000 3.1 290 11:58 11.12.2019
2832 Clear 18 1018 55 8000 3.1 290 11:39 11.12.2019
2833 Clear 18 1018 55 8000 3.1 290 11:19 11.12.2019
2834 Clear 17 1019 63 7000 2.6 310 10:59 11.12.2019
2835 Clear 17 1019 63 7000 2.6 310 10:40 11.12.2019
2836 Clear 17 1019 63 7000 2.6 310 10:22 11.12.2019
2837 Clear 16 1020 67 9000 1.5 260 09:58 11.12.2019
2838 Clear 16 1020 67 9000 1.5 260 09:38 11.12.2019
2839 Clear 16 1020 67 9000 1.5 260 09:19 11.12.2019
2840 Clear 15 1020 72 7000 2.6 0 08:56 11.12.2019
2841 Clear 15 1020 72 7000 2.6 0 08:37 11.12.2019
2842 Clouds 15 1020 72 7000 2.6 0 08:18 11.12.2019
2843 Clouds 13 1020 76 6000 2.38 70 07:43 11.12.2019
2844 Clouds 13 1020 76 6000 2.38 70 07:24 11.12.2019
2845 Mist 12 1019 93 4000 1.5 70 06:46 11.12.2019
2846 Mist 12 1019 93 4000 1.5 70 06:25 11.12.2019
2847 Mist 12 1019 93 5000 2.6 90 05:56 11.12.2019
2848 Mist 12 1019 93 5000 2.6 90 05:36 11.12.2019
2849 Clouds 12 1018 87 8000 3.1 130 04:53 11.12.2019
2850 Rain 12 1018 87 4600 2.6 60 03:37 11.12.2019
2851 Mist 13 1018 82 6000 3.1 70 02:38 11.12.2019
2852 Mist 13 1018 87 3600 2.6 80 01:22 11.12.2019
2853 Mist 13 1018 82 5000 2.1 60 00:45 11.12.2019
2854 Mist 13 1018 82 5000 2.1 60 00:19 11.12.2019
2855 Mist 13 1018 82 5000 2.1 70 23:46 10.12.2019
2856 Mist 13 1018 82 5000 2.1 70 23:26 10.12.2019
2857 Rain 13 1018 82 4900 2.1 20 22:57 10.12.2019
2858 Thunderstorm 14 1018 71 10000 2.1 340 22:39 10.12.2019
2859 Thunderstorm 14 1018 71 10000 2.1 340 22:21 10.12.2019
2860 Clouds 14 1018 67 10000 2.6 110 21:54 10.12.2019
2861 Clouds 14 1018 67 10000 2.6 110 21:36 10.12.2019
2862 Clouds 14 1018 67 10000 2.6 110 21:18 10.12.2019
2863 Clouds 14 1018 67 10000 3.1 130 20:56 10.12.2019
2864 Clouds 14 1018 67 10000 3.1 130 20:37 10.12.2019
2865 Clouds 14 1018 67 10000 3.1 130 20:18 10.12.2019
2866 Clouds 14 1017 71 9000 3.1 130 19:44 10.12.2019
2867 Clouds 14 1017 71 9000 3.1 130 19:26 10.12.2019
2868 Clouds 15 1017 67 8000 3.1 120 18:59 10.12.2019
2869 Clouds 15 1017 67 8000 3.1 120 18:39 10.12.2019
2870 Clouds 15 1017 67 8000 3.1 120 18:20 10.12.2019
2871 Clouds 15 1017 67 9000 2.6 110 17:55 10.12.2019
2872 Clouds 15 1017 67 9000 2.6 110 17:37 10.12.2019
2873 Clouds 15 1017 67 9000 2.6 110 17:19 10.12.2019
2874 Clouds 15 1017 62 10000 3.1 130 16:43 10.12.2019
2875 Clouds 15 1017 62 10000 3.1 130 16:20 10.12.2019
2876 Clouds 15 1017 62 10000 3.1 130 16:20 10.12.2019
2877 Clouds 16 1017 59 10000 3.6 130 15:58 10.12.2019
2878 Clouds 16 1017 59 10000 3.6 130 15:37 10.12.2019
2879 Clouds 16 1017 59 10000 3.6 130 15:18 10.12.2019
2880 Clouds 16 1017 59 10000 3.6 130 15:18 10.12.2019
2881 Clouds 17 1017 55 10000 5.7 130 14:55 10.12.2019
2882 Clouds 17 1017 55 10000 5.7 130 14:37 10.12.2019
2883 Clouds 17 1017 55 10000 5.7 130 14:19 10.12.2019
2884 Clouds 18 1017 55 9000 4.6 120 13:56 10.12.2019
2885 Clouds 18 1017 55 9000 4.6 120 13:37 10.12.2019
2886 Clouds 18 1017 55 9000 4.6 120 13:18 10.12.2019
2887 Clouds 18 1017 52 10000 5.1 140 12:40 10.12.2019
2888 Clouds 18 1017 52 10000 5.1 140 12:22 10.12.2019
2889 Clouds 18 1017 52 9000 5.1 160 11:42 10.12.2019
2890 Clouds 18 1017 52 9000 5.1 160 11:24 10.12.2019
2891 Clouds 17 1018 55 8000 5.1 160 10:57 10.12.2019
2892 Clouds 17 1018 55 8000 5.1 160 10:38 10.12.2019
2893 Clouds 17 1018 55 8000 5.1 160 10:20 10.12.2019
2894 Clouds 16 1019 63 7000 6.2 150 09:56 10.12.2019
2895 Clouds 16 1019 63 7000 6.2 150 09:38 10.12.2019
2896 Clouds 16 1019 63 7000 6.2 150 09:38 10.12.2019
2897 Clouds 16 1019 63 7000 6.2 150 09:19 10.12.2019
2898 Clouds 14 1019 71 6000 6.2 140 08:55 10.12.2019
2899 Clouds 14 1019 71 6000 6.2 140 08:37 10.12.2019
2900 Clouds 14 1019 71 6000 6.2 140 08:18 10.12.2019
2901 Mist 12 1020 76 4500 4.6 150 07:44 10.12.2019
2902 Mist 12 1020 76 4500 4.6 150 07:25 10.12.2019
2903 Mist 11 1019 76 5000 4.6 150 06:48 10.12.2019
2904 Mist 11 1019 76 5000 4.6 150 06:22 10.12.2019
2905 Clouds 11 1019 76 5000 5.1 130 05:55 10.12.2019
2906 Clouds 10 1018 81 7000 4.1 130 04:56 10.12.2019
2907 Clouds 10 1018 81 7000 4.1 130 03:40 10.12.2019
2908 Clouds 10 1018 81 7000 4.6 130 02:47 10.12.2019
2909 Clouds 11 1019 76 8000 4.6 140 01:50 10.12.2019
2910 Clouds 11 1019 76 8000 4.6 140 01:25 10.12.2019
2911 Clouds 12 1019 76 8000 4.6 140 00:43 10.12.2019
2912 Clouds 12 1019 76 8000 4.6 140 00:24 10.12.2019
2913 Clouds 12 1019 76 9000 4.6 140 23:43 09.12.2019
2914 Clouds 12 1019 76 9000 4.6 140 23:24 09.12.2019
2915 Clouds 13 1019 71 10000 4.6 120 22:58 09.12.2019
2916 Clouds 13 1019 71 10000 4.6 120 22:40 09.12.2019
2917 Clouds 13 1019 71 10000 4.6 120 22:21 09.12.2019
2918 Clouds 13 1019 71 10000 5.1 120 21:58 09.12.2019
2919 Clouds 13 1019 71 10000 5.1 120 21:39 09.12.2019
2920 Clouds 13 1019 71 10000 5.1 120 21:19 09.12.2019
2921 Clouds 14 1019 71 10000 4.1 110 20:57 09.12.2019
2922 Clouds 14 1019 71 10000 4.1 110 20:39 09.12.2019
2923 Clouds 14 1019 71 10000 4.1 110 20:20 09.12.2019
2924 Clouds 14 1019 67 10000 4.6 110 19:56 09.12.2019
2925 Clouds 14 1019 67 10000 4.6 110 19:38 09.12.2019
2926 Clouds 14 1019 67 10000 4.6 110 19:20 09.12.2019
2927 Clouds 15 1019 62 10000 3.6 110 18:59 09.12.2019
2928 Clouds 15 1019 62 10000 3.6 110 18:39 09.12.2019
2929 Clouds 15 1019 62 10000 3.6 110 18:20 09.12.2019
2930 Clouds 15 1019 62 10000 3.6 120 17:59 09.12.2019
2931 Clouds 15 1019 62 10000 3.6 120 17:40 09.12.2019
2932 Clouds 15 1019 62 10000 3.6 120 17:21 09.12.2019
2933 Clouds 15 1019 62 10000 3.6 120 16:56 09.12.2019
2934 Clouds 15 1019 62 10000 3.6 120 16:38 09.12.2019
2935 Clouds 15 1019 62 10000 3.6 120 16:20 09.12.2019
2936 Clouds 16 1019 59 10000 3.6 120 15:56 09.12.2019
2937 Clouds 16 1019 59 10000 3.6 120 15:56 09.12.2019
2938 Clouds 16 1019 59 10000 3.6 120 15:37 09.12.2019
2939 Clouds 16 1019 59 10000 3.6 120 15:19 09.12.2019
2940 Clouds 17 1018 55 10000 4.6 130 14:58 09.12.2019
2941 Clouds 17 1018 55 10000 4.6 130 14:39 09.12.2019
2942 Clouds 17 1018 55 10000 4.6 130 14:18 09.12.2019
2943 Clouds 17 1018 55 10000 5.1 130 13:55 09.12.2019
2944 Clouds 17 1018 55 10000 5.1 130 13:36 09.12.2019
2945 Clear 17 1018 55 10000 5.1 130 13:18 09.12.2019
2946 Clear 17 1019 55 10000 5.7 150 12:54 09.12.2019
2947 Clear 17 1019 55 10000 5.7 150 12:36 09.12.2019
2948 Clear 17 1019 55 10000 5.7 150 12:18 09.12.2019
2949 Clear 17 1019 51 10000 5.1 130 11:40 09.12.2019
2950 Clear 17 1019 51 10000 5.1 130 11:21 09.12.2019
2951 Clear 16 1020 59 10000 5.7 140 10:57 09.12.2019
2952 Clear 16 1020 59 10000 5.7 140 10:38 09.12.2019
2953 Clear 16 1020 59 10000 5.7 140 10:19 09.12.2019
2954 Clear 16 1020 59 10000 5.7 140 10:19 09.12.2019
2955 Clear 16 1020 59 10000 5.7 140 09:44 09.12.2019
2956 Clear 16 1020 59 10000 5.7 140 09:24 09.12.2019
2957 Clear 14 1021 67 7000 5.7 160 08:57 09.12.2019
2958 Clear 14 1021 67 7000 5.7 160 08:39 09.12.2019
2959 Clear 14 1021 67 7000 5.7 160 08:20 09.12.2019
2960 Mist 11 1021 76 3200 4.6 150 07:49 09.12.2019
2961 Mist 11 1021 76 3200 4.6 150 07:30 09.12.2019
2962 Mist 9 1020 87 2800 3.6 140 06:55 09.12.2019
2963 Mist 9 1020 87 2800 3.6 140 06:30 09.12.2019
2964 Clear 8 1019 93 3600 3.6 100 05:42 09.12.2019
2965 Clear 8 1019 93 3600 3.6 100 05:20 09.12.2019
2966 Mist 8 1019 87 6000 2.6 120 04:27 09.12.2019
2967 Mist 8 1019 87 6000 2.6 120 04:27 09.12.2019
2968 Clear 9 1018 81 9000 3.1 130 02:28 09.12.2019
2969 Clouds 11 1018 76 10000 3.6 100 01:46 09.12.2019
2970 Clouds 10 1018 81 8000 2.6 90 00:57 09.12.2019
2971 Clouds 10 1018 81 8000 2.6 90 00:33 09.12.2019
2972 Clouds 11 1018 76 9000 3.1 120 23:55 08.12.2019
2973 Clouds 11 1018 76 9000 3.1 120 23:37 08.12.2019
2974 Clouds 11 1018 76 9000 3.1 120 23:19 08.12.2019
2975 Clouds 10 1018 81 9000 2.6 130 22:56 08.12.2019
2976 Clouds 10 1018 81 9000 2.6 130 22:38 08.12.2019
2977 Clouds 10 1018 81 9000 2.6 130 22:18 08.12.2019
2978 Clouds 10 1018 76 10000 3.1 120 21:56 08.12.2019
2979 Clouds 10 1018 76 10000 3.1 120 21:37 08.12.2019
2980 Clouds 10 1018 76 10000 3.1 120 21:19 08.12.2019
2981 Clouds 10 1018 76 10000 3.1 120 21:19 08.12.2019
2982 Clouds 10 1018 81 10000 2.6 140 20:55 08.12.2019
2983 Clouds 10 1018 81 10000 2.6 140 20:37 08.12.2019
2984 Clouds 10 1018 81 10000 2.6 140 20:19 08.12.2019
2985 Clouds 11 1018 76 10000 2.6 130 19:55 08.12.2019
2986 Clouds 11 1018 76 10000 2.6 130 19:36 08.12.2019
2987 Clouds 11 1018 76 10000 2.6 130 19:18 08.12.2019
2988 Clouds 11 1018 76 10000 2.6 130 19:18 08.12.2019
2989 Clouds 12 1018 71 10000 2.6 150 18:54 08.12.2019
2990 Clouds 12 1018 71 10000 2.6 150 18:36 08.12.2019
2991 Clouds 12 1018 71 10000 2.6 150 18:18 08.12.2019
2992 Clouds 12 1017 71 10000 1 0 17:54 08.12.2019
2993 Clouds 12 1017 71 10000 1 0 17:36 08.12.2019
2994 Clouds 12 1017 71 10000 1 0 17:18 08.12.2019
2995 Clouds 14 1016 62 10000 2.1 210 16:55 08.12.2019
2996 Clouds 14 1016 62 10000 2.1 210 16:37 08.12.2019
2997 Clouds 14 1016 62 10000 2.1 210 16:18 08.12.2019
2998 Clouds 15 1016 58 10000 3.1 230 15:37 08.12.2019
2999 Clouds 15 1016 58 10000 3.1 230 15:18 08.12.2019
3000 Clouds 16 1016 55 10000 3.6 230 14:57 08.12.2019
3001 Clouds 16 1016 55 10000 3.6 230 14:38 08.12.2019
3002 Clouds 16 1016 55 10000 3.6 230 14:20 08.12.2019
3003 Clouds 16 1016 55 10000 3.6 230 13:42 08.12.2019
3004 Clouds 16 1016 55 10000 3.6 230 13:23 08.12.2019
3005 Clouds 16 1016 55 10000 1.5 240 12:59 08.12.2019
3006 Clouds 16 1016 55 10000 1.5 240 12:41 08.12.2019
3007 Clouds 16 1016 55 10000 1.5 240 12:41 08.12.2019
3008 Clouds 16 1016 55 10000 1.5 240 12:41 08.12.2019
3009 Clouds 16 1016 55 10000 1.5 240 12:22 08.12.2019
3010 Clouds 15 1016 58 10000 3.1 240 11:59 08.12.2019
3011 Clouds 15 1016 58 10000 3.1 240 11:38 08.12.2019
3012 Clouds 15 1016 58 10000 3.1 240 11:19 08.12.2019
3013 Clouds 14 1017 67 10000 3.6 240 10:57 08.12.2019
3014 Clouds 14 1017 67 10000 3.6 240 10:38 08.12.2019
3015 Clouds 14 1017 67 10000 3.6 240 10:38 08.12.2019
3016 Clouds 14 1017 67 10000 3.6 240 10:19 08.12.2019
3017 Mist 13 1017 76 9000 2.1 190 09:55 08.12.2019
3018 Mist 13 1017 76 9000 2.1 190 09:37 08.12.2019
3019 Mist 13 1017 76 9000 2.1 190 09:19 08.12.2019
3020 Mist 13 1017 76 9000 2.1 190 09:19 08.12.2019
3021 Mist 11 1018 93 6000 2.1 190 08:57 08.12.2019
3022 Mist 11 1018 93 6000 2.1 190 08:36 08.12.2019
3023 Mist 11 1018 93 6000 2.1 190 08:18 08.12.2019
3024 Mist 11 1017 87 3000 1.77 278 07:41 08.12.2019
3025 Mist 11 1017 87 3000 1.77 278 07:19 08.12.2019
3026 Mist 8 1017 100 3300 1.5 260 06:43 08.12.2019
3027 Mist 8 1017 100 3300 1.5 260 06:21 08.12.2019
3028 Mist 8 1016 93 2700 0.5 0 05:30 08.12.2019
3029 Mist 8 1016 100 3600 1 0 04:57 08.12.2019
3030 Mist 9 1016 93 4500 2.1 270 03:41 08.12.2019
3031 Clear 9 1016 93 6000 2.6 230 02:52 08.12.2019
3032 Clear 9 1016 93 6000 2.6 230 02:28 08.12.2019
3033 Mist 10 1016 93 5000 5.7 250 01:48 08.12.2019
3034 Mist 9 1016 93 5000 1.5 100 00:59 08.12.2019
3035 Mist 9 1016 93 5000 1.5 100 00:38 08.12.2019
3036 Mist 9 1016 93 5000 1.5 100 00:19 08.12.2019
3037 Clouds 10 1016 93 6000 2.1 240 23:40 07.12.2019
3038 Clouds 10 1016 93 6000 2.1 240 23:40 07.12.2019
3039 Clouds 10 1016 93 6000 2.1 240 23:20 07.12.2019
3040 Clouds 11 1016 93 6000 2.1 290 22:56 07.12.2019
3041 Clouds 11 1016 93 6000 2.1 290 22:38 07.12.2019
3042 Clouds 11 1016 93 6000 2.1 290 22:20 07.12.2019
3043 Clouds 12 1017 93 7000 1.5 270 21:56 07.12.2019
3044 Clouds 12 1017 93 7000 1.5 270 21:38 07.12.2019
3045 Clouds 15 1017 93 7000 1.5 270 21:19 07.12.2019
3046 Clouds 14 1017 100 7000 3.1 260 20:55 07.12.2019
3047 Clouds 14 1017 100 7000 3.1 260 20:36 07.12.2019
3048 Clouds 14 1017 100 7000 3.1 260 20:18 07.12.2019
3049 Haze 14 1015 41 9000 3.6 320 19:55 07.12.2019
3050 Clouds 14 1016 93 9000 3.1 330 19:36 07.12.2019
3051 Clouds 14 1016 93 9000 3.1 330 19:18 07.12.2019
3052 Rain 13 1016 82 10000 3.1 300 18:44 07.12.2019
3053 Clouds 13 1016 76 10000 2.6 330 18:19 07.12.2019
3054 Clouds 13 1016 76 10000 4.1 300 17:57 07.12.2019
3055 Clouds 13 1016 76 10000 4.1 300 17:39 07.12.2019
3056 Clouds 13 1016 76 10000 4.1 300 17:20 07.12.2019
3057 Clear 13 1015 76 10000 4.1 300 16:56 07.12.2019
3058 Clear 13 1015 76 10000 4.1 300 16:37 07.12.2019
3059 Clear 13 1015 76 10000 4.1 300 16:19 07.12.2019
3060 Clouds 14 1015 76 10000 1 0 15:42 07.12.2019
3061 Clouds 14 1015 76 10000 1 0 15:23 07.12.2019
3062 Clouds 15 1015 67 10000 2.6 290 14:57 07.12.2019
3063 Clouds 15 1015 67 10000 2.6 290 14:39 07.12.2019
3064 Clouds 15 1015 67 10000 2.6 290 14:18 07.12.2019
3065 Clouds 15 1015 72 10000 5.7 310 13:41 07.12.2019
3066 Clouds 15 1015 72 10000 5.7 310 13:41 07.12.2019
3067 Clouds 15 1015 72 10000 5.7 310 13:21 07.12.2019
3068 Clouds 15 1015 72 8000 5.1 290 12:58 07.12.2019
3069 Clouds 15 1015 72 8000 5.1 290 12:40 07.12.2019
3070 Clouds 15 1015 72 8000 5.1 290 12:22 07.12.2019
3071 Mist 15 1015 72 5000 4.1 290 11:57 07.12.2019
3072 Mist 15 1015 72 5000 4.1 290 11:39 07.12.2019
3073 Mist 15 1015 72 5000 4.1 290 11:20 07.12.2019
3074 Mist 14 1016 87 3700 3.6 280 10:38 07.12.2019
3075 Mist 14 1016 87 3700 3.6 280 10:19 07.12.2019
3076 Mist 13 1017 93 1500 4.1 260 09:42 07.12.2019
3077 Mist 13 1017 93 1500 4.1 260 09:22 07.12.2019
3078 Mist 13 1017 93 1200 4.6 270 08:59 07.12.2019
3079 Mist 13 1017 93 1200 4.6 270 08:39 07.12.2019
3080 Mist 13 1017 93 1200 4.6 270 08:21 07.12.2019
3081 Mist 13 1017 93 2300 1.5 310 07:45 07.12.2019
3082 Mist 13 1017 93 2300 1.5 310 07:25 07.12.2019
3083 Mist 12 1016 93 1500 2.6 320 06:48 07.12.2019
3084 Mist 12 1016 93 1500 2.6 320 06:24 07.12.2019
3085 Mist 11 1015 93 3300 1 0 05:25 07.12.2019
3086 Mist 13 1015 93 5000 1.5 340 03:56 07.12.2019
3087 Mist 13 1015 93 5000 1.5 340 03:18 07.12.2019
3088 Mist 13 1015 93 5000 1.5 350 02:21 07.12.2019
3089 Clouds 13 1015 93 6000 3.1 10 01:34 07.12.2019
3090 Mist 13 1015 93 7000 3.6 350 00:52 07.12.2019
3091 Mist 13 1015 93 7000 3.6 350 00:19 07.12.2019
3092 Mist 13 1016 100 4300 3.6 330 23:55 06.12.2019
3093 Mist 13 1016 100 4300 3.6 330 23:36 06.12.2019
3094 Mist 13 1016 100 4300 3.6 330 23:18 06.12.2019
3095 Mist 14 1016 93 4800 4.1 340 22:37 06.12.2019
3096 Mist 14 1016 93 4800 4.1 340 22:19 06.12.2019
3097 Mist 14 1016 87 4700 3.1 340 21:57 06.12.2019
3098 Mist 14 1016 87 4700 3.1 340 21:38 06.12.2019
3099 Mist 14 1016 87 4700 3.1 340 21:19 06.12.2019
3100 Mist 15 1017 77 6000 4.1 300 20:42 06.12.2019
3101 Mist 15 1017 77 6000 4.1 300 20:42 06.12.2019
3102 Mist 15 1017 77 6000 4.1 300 20:42 06.12.2019
3103 Clouds 15 1017 72 9000 1 0 20:23 06.12.2019
3104 Clouds 16 1016 63 9000 1.5 90 19:59 06.12.2019
3105 Clouds 16 1016 63 9000 1.5 90 19:40 06.12.2019
3106 Clouds 16 1016 63 9000 1.5 90 19:21 06.12.2019
3107 Clouds 15 1016 72 10000 2.1 90 18:55 06.12.2019
3108 Clouds 15 1016 72 10000 2.1 90 18:37 06.12.2019
3109 Clouds 15 1016 72 10000 2.1 90 18:19 06.12.2019
3110 Clouds 15 1016 62 10000 0.5 30 17:55 06.12.2019
3111 Clouds 15 1016 62 10000 0.5 30 17:37 06.12.2019
3112 Clouds 15 1016 62 10000 0.5 30 17:19 06.12.2019
3113 Clouds 16 1016 63 10000 2.1 110 16:42 06.12.2019
3114 Clouds 16 1016 63 10000 2.1 110 16:24 06.12.2019
3115 Clouds 16 1016 63 10000 2.6 110 15:59 06.12.2019
3116 Clouds 16 1016 63 10000 2.6 110 15:40 06.12.2019
3117 Clouds 16 1016 63 10000 2.6 110 15:18 06.12.2019
3118 Clouds 18 1016 52 10000 3.1 130 14:56 06.12.2019
3119 Clouds 18 1016 52 10000 3.1 130 14:37 06.12.2019
3120 Clouds 18 1016 52 10000 3.1 130 14:18 06.12.2019
3121 Clouds 18 1016 52 10000 4.6 130 13:42 06.12.2019
3122 Clouds 18 1016 52 10000 4.6 130 13:24 06.12.2019
3123 Clouds 18 1016 52 10000 3.6 140 12:42 06.12.2019
3124 Clouds 18 1016 55 10000 3.6 130 12:22 06.12.2019
3125 Clouds 17 1017 55 10000 4.6 150 11:57 06.12.2019
3126 Clouds 17 1017 55 10000 4.6 150 11:39 06.12.2019
3127 Clouds 17 1017 55 10000 4.6 150 11:19 06.12.2019
3128 Clouds 16 1018 63 8000 4.1 140 10:43 06.12.2019
3129 Clouds 16 1018 63 8000 4.1 140 10:21 06.12.2019
3130 Clouds 16 1019 63 10000 4.1 130 09:57 06.12.2019
3131 Clouds 16 1019 63 10000 4.1 130 09:37 06.12.2019
3132 Clouds 16 1019 63 10000 4.1 130 09:19 06.12.2019
3133 Clouds 14 1020 71 6000 6.2 130 08:45 06.12.2019
3134 Clouds 14 1020 71 6000 6.2 130 08:26 06.12.2019
3135 Mist 12 1020 87 4900 4.6 130 07:44 06.12.2019
3136 Mist 12 1020 87 4900 4.6 130 07:24 06.12.2019
3137 Mist 12 1019 87 4400 4.6 120 06:59 06.12.2019
3138 Mist 12 1019 87 4400 4.6 120 06:28 06.12.2019
3139 Mist 12 1019 93 2800 4.6 120 05:53 06.12.2019
3140 Mist 12 1019 93 2800 4.6 120 05:21 06.12.2019
3141 Clear 11 1019 93 5000 4.6 130 02:19 06.12.2019
3142 Clear 12 1019 87 6000 3.6 120 01:29 06.12.2019
3143 Clear 12 1019 87 6000 3.6 110 00:40 06.12.2019
3144 Clear 12 1019 87 6000 3.6 110 00:20 06.12.2019
3145 Clear 11 1020 100 6000 3.6 120 23:41 05.12.2019
3146 Clear 11 1020 100 6000 3.6 120 23:18 05.12.2019
3147 Clear 12 1020 87 5000 4.1 130 22:56 05.12.2019
3148 Clear 12 1020 87 5000 4.1 130 22:37 05.12.2019
3149 Clear 12 1020 87 5000 4.1 130 22:18 05.12.2019
3150 Mist 13 1021 87 4800 4.1 120 21:44 05.12.2019
3151 Mist 13 1021 87 4800 4.1 120 21:25 05.12.2019
3152 Clear 13 1021 87 5000 4.1 120 20:59 05.12.2019
3153 Clear 13 1021 87 5000 4.1 120 20:40 05.12.2019
3154 Clear 13 1021 87 5000 4.1 120 20:20 05.12.2019
3155 Clear 13 1021 87 5000 4.1 120 20:20 05.12.2019
3156 Mist 14 1021 76 5000 3.1 130 19:57 05.12.2019
3157 Mist 14 1021 76 5000 3.1 130 19:57 05.12.2019
3158 Mist 14 1021 76 5000 3.1 130 19:39 05.12.2019
3159 Mist 14 1021 76 5000 3.1 130 19:20 05.12.2019
3160 Clear 15 1021 77 5000 3.1 100 18:57 05.12.2019
3161 Clear 15 1021 77 5000 3.1 100 18:37 05.12.2019
3162 Clear 15 1021 77 5000 3.1 100 18:19 05.12.2019
3163 Clear 15 1020 62 9000 3.1 110 17:39 05.12.2019
3164 Clear 15 1020 62 9000 3.1 110 17:19 05.12.2019
3165 Clear 15 1020 62 10000 3.1 130 16:57 05.12.2019
3166 Clear 15 1020 62 10000 3.1 130 16:38 05.12.2019
3167 Clear 15 1020 62 10000 3.1 130 16:38 05.12.2019
3168 Clear 15 1020 62 10000 3.1 130 16:20 05.12.2019
3169 Clear 16 1020 59 10000 3.1 130 15:56 05.12.2019
3170 Clear 16 1020 59 10000 3.1 130 15:37 05.12.2019
3171 Clear 16 1020 59 10000 3.1 130 15:19 05.12.2019
3172 Clear 18 1019 48 10000 4.1 120 14:55 05.12.2019
3173 Clear 18 1019 48 10000 4.1 120 14:36 05.12.2019
3174 Clear 18 1019 48 10000 4.1 120 14:18 05.12.2019
3175 Clear 19 1020 45 10000 2.6 160 13:56 05.12.2019
3176 Clear 19 1020 45 10000 2.6 160 13:38 05.12.2019
3177 Clear 19 1020 45 10000 2.6 160 13:18 05.12.2019
3178 Clear 19 1020 45 10000 2.6 160 12:43 05.12.2019
3179 Clear 19 1020 45 10000 2.6 160 12:24 05.12.2019
3180 Clear 18 1021 52 10000 1.5 180 11:59 05.12.2019
3181 Clear 18 1021 52 10000 1.5 180 11:39 05.12.2019
3182 Clear 18 1021 52 10000 1.5 180 11:20 05.12.2019
3183 Clear 17 1022 51 10000 3.1 190 10:57 05.12.2019
3184 Clear 17 1022 51 10000 3.1 190 10:39 05.12.2019
3185 Clear 17 1022 51 10000 3.1 190 10:18 05.12.2019
3186 Clear 16 1023 63 8000 3.6 190 09:54 05.12.2019
3187 Clear 16 1023 63 8000 3.6 190 09:36 05.12.2019
3188 Clear 16 1023 63 8000 3.6 190 09:18 05.12.2019
3189 Clear 15 1023 58 10000 1.5 140 08:39 05.12.2019
3190 Clear 15 1023 58 10000 1.5 140 08:20 05.12.2019
3191 Clear 12 1023 76 9000 1 0 07:56 05.12.2019
3192 Clear 12 1023 76 9000 1 0 07:36 05.12.2019
3193 Clear 12 1023 76 9000 1 0 07:18 05.12.2019
3194 Mist 8 1023 93 2000 1.5 110 06:42 05.12.2019
3195 Mist 8 1023 93 2000 1.5 110 06:21 05.12.2019
3196 Mist 7 1022 93 6000 2.6 168 05:48 05.12.2019
3197 Mist 7 1022 93 6000 2.6 168 05:23 05.12.2019
3198 Fog 6 1022 100 2800 0.5 160 04:25 05.12.2019
3199 Fog 6 1022 100 2800 0.5 160 04:25 05.12.2019
3200 Fog 7 1021 93 450 0.5 190 02:54 05.12.2019
3201 Fog 7 1021 93 700 1 160 02:25 05.12.2019
3202 Fog 7 1021 100 100 1.5 160 01:55 05.12.2019
3203 Fog 7 1021 100 100 1.5 160 01:27 05.12.2019
3204 Fog 7 1021 100 100 1.5 160 01:27 05.12.2019
3205 Fog 7 1021 93 200 2.1 120 00:54 05.12.2019
3206 Fog 7 1021 93 200 2.1 120 00:36 05.12.2019
3207 Mist 7 1021 100 5000 1.5 120 00:18 05.12.2019
3208 Clear 8 1021 100 9000 0.5 0 23:40 04.12.2019
3209 Clear 8 1021 100 9000 0.5 0 23:22 04.12.2019
3210 Clear 9 1021 93 10000 1 60 22:57 04.12.2019
3211 Clear 9 1021 93 10000 1 60 22:36 04.12.2019
3212 Clear 9 1021 93 10000 1 60 22:18 04.12.2019
3213 Clear 9 1021 81 10000 0.5 0 21:55 04.12.2019
3214 Clear 9 1021 81 10000 0.5 0 21:37 04.12.2019
3215 Clear 9 1021 81 10000 0.5 0 21:18 04.12.2019
3216 Clear 11 1021 71 10000 0.5 0 20:56 04.12.2019
3217 Clear 11 1021 71 10000 0.5 0 20:37 04.12.2019
3218 Clear 11 1021 71 10000 0.5 0 20:19 04.12.2019
3219 Clear 11 1020 76 10000 0.5 0 19:40 04.12.2019
3220 Clear 11 1020 76 10000 0.5 0 19:22 04.12.2019
3221 Clear 13 1021 62 10000 1 270 18:58 04.12.2019
3222 Clear 13 1021 62 10000 1 270 18:40 04.12.2019
3223 Clear 13 1021 62 10000 1 270 18:22 04.12.2019
3224 Clear 13 1021 66 10000 1.5 280 17:57 04.12.2019
3225 Clear 13 1021 66 10000 1.5 280 17:38 04.12.2019
3226 Clear 13 1021 66 10000 1.5 280 17:18 04.12.2019
3227 Clear 14 1020 58 10000 1 300 16:40 04.12.2019
3228 Clear 14 1020 58 10000 1 300 16:40 04.12.2019
3229 Clear 14 1020 58 10000 1 300 16:20 04.12.2019
3230 Clouds 16 1019 51 10000 2.6 300 15:58 04.12.2019
3231 Clouds 16 1019 51 10000 2.6 300 15:40 04.12.2019
3232 Clouds 16 1019 51 10000 2.6 300 15:20 04.12.2019
3233 Clouds 18 1019 45 10000 3.1 290 14:59 04.12.2019
3234 Clouds 18 1019 45 10000 3.1 290 14:40 04.12.2019
3235 Clouds 18 1019 45 10000 3.1 290 14:21 04.12.2019
3236 Clouds 18 1019 48 10000 2.6 270 13:55 04.12.2019
3237 Clouds 18 1019 48 10000 2.6 270 13:36 04.12.2019
3238 Clouds 18 1019 48 10000 2.6 270 13:18 04.12.2019
3239 Clouds 18 1019 52 10000 2.1 250 12:41 04.12.2019
3240 Clouds 18 1019 52 10000 2.1 250 12:41 04.12.2019
3241 Clouds 18 1019 52 10000 2.1 250 12:23 04.12.2019
3242 Clouds 17 1020 63 10000 2.6 240 11:44 04.12.2019
3243 Clouds 17 1020 63 10000 2.6 240 11:25 04.12.2019
3244 Clouds 17 1020 72 10000 2.6 230 10:58 04.12.2019
3245 Clouds 17 1020 72 10000 2.6 230 10:40 04.12.2019
3246 Clouds 17 1020 72 10000 2.6 230 10:21 04.12.2019
3247 Clear 15 1021 77 10000 2.1 230 09:44 04.12.2019
3248 Clear 15 1021 77 10000 2.1 230 09:24 04.12.2019
3249 Mist 14 1021 82 9000 1.5 210 08:44 04.12.2019
3250 Mist 14 1021 82 9000 1.5 210 08:26 04.12.2019
3251 Mist 11 1021 93 7000 1.5 250 07:59 04.12.2019
3252 Mist 11 1021 93 7000 1.5 250 07:40 04.12.2019
3253 Mist 11 1021 93 7000 1.5 250 07:22 04.12.2019
3254 Mist 9 1020 93 3900 0.5 0 06:32 04.12.2019
3255 Clouds 8 1020 100 200 2.1 240 05:47 04.12.2019
3256 Mist 8 1019 93 2500 1.5 160 04:39 04.12.2019
3257 Fog 8 1019 93 1100 1 0 03:53 04.12.2019
3258 Fog 9 1018 100 1500 1 0 02:19 04.12.2019
3259 Fog 10 1018 93 250 1 260 00:49 04.12.2019
3260 Fog 9 1018 100 100 0.5 0 00:22 04.12.2019
3261 Mist 10 1018 100 2600 1 260 23:55 03.12.2019
3262 Mist 10 1018 100 2600 1 260 23:37 03.12.2019
3263 Mist 11 1018 93 2000 1.5 260 23:18 03.12.2019
3264 Mist 10 1018 93 4200 1 0 22:39 03.12.2019
3265 Mist 10 1018 93 4200 1 0 22:18 03.12.2019
3266 Mist 12 1018 93 5000 1.5 250 21:57 03.12.2019
3267 Mist 12 1018 93 5000 1.5 250 21:37 03.12.2019
3268 Mist 12 1018 93 5000 1.5 250 21:19 03.12.2019
3269 Mist 12 1018 93 4600 2.1 260 20:56 03.12.2019
3270 Mist 12 1018 93 4600 2.1 260 20:38 03.12.2019
3271 Mist 12 1018 93 4600 2.1 260 20:18 03.12.2019
3272 Mist 13 1018 93 5000 2.6 270 19:54 03.12.2019
3273 Mist 13 1018 93 5000 2.6 270 19:36 03.12.2019
3274 Mist 13 1018 93 5000 2.6 270 19:18 03.12.2019
3275 Mist 13 1017 93 6000 1 240 18:55 03.12.2019
3276 Mist 13 1017 93 6000 1 240 18:37 03.12.2019
3277 Mist 13 1017 93 6000 1 240 18:18 03.12.2019
3278 Clouds 13 1017 93 8000 1.5 320 17:40 03.12.2019
3279 Clouds 13 1017 93 8000 1.5 320 17:19 03.12.2019
3280 -273 0 0 0 0 0 16:59 03.12.2019
3281 Clouds 14 1017 87 10000 1.5 340 16:59 03.12.2019
3282 Clouds 14 1017 87 10000 1.5 340 16:40 03.12.2019
3283 Clouds 14 1017 87 10000 1.5 340 16:40 03.12.2019
3284 Clouds 14 1017 87 10000 1.5 340 16:21 03.12.2019
3285 Clouds 15 1016 77 10000 3.1 290 15:59 03.12.2019
3286 Clouds 15 1016 77 10000 3.1 290 15:39 03.12.2019
3287 Clouds 15 1016 77 10000 3.1 290 15:39 03.12.2019
3288 Clouds 15 1016 77 10000 3.1 290 15:19 03.12.2019
3289 Clouds 16 1016 72 10000 5.1 280 14:54 03.12.2019
3290 Clouds 16 1016 72 10000 5.1 280 14:36 03.12.2019
3291 Clouds 16 1016 72 10000 5.1 280 14:18 03.12.2019
3292 Clouds 16 1016 77 10000 4.6 280 13:38 03.12.2019
3293 Clouds 16 1016 77 10000 4.6 280 13:20 03.12.2019
3294 Clouds 16 1016 82 9000 6.2 280 12:57 03.12.2019
3295 Clouds 16 1016 82 9000 6.2 280 12:37 03.12.2019
3296 Clouds 16 1016 82 9000 6.2 280 12:18 03.12.2019
3297 Clouds 17 1016 77 10000 4.6 290 11:56 03.12.2019
3298 Clouds 17 1016 77 10000 4.6 290 11:56 03.12.2019
3299 Clouds 17 1016 77 10000 4.6 290 11:37 03.12.2019
3300 Clouds 17 1016 77 10000 4.6 290 11:18 03.12.2019
3301 Clouds 16 1016 82 10000 4.6 300 10:54 03.12.2019
3302 Clouds 16 1016 82 10000 4.6 300 10:36 03.12.2019
3303 Clouds 16 1016 82 10000 4.6 300 10:18 03.12.2019
3304 Clouds 16 1017 87 8000 4.6 310 09:40 03.12.2019
3305 Clouds 16 1017 87 8000 4.6 310 09:22 03.12.2019
3306 Clouds 15 1017 93 9000 4.6 290 08:56 03.12.2019
3307 Clouds 15 1017 93 9000 4.6 290 08:38 03.12.2019
3308 Clouds 15 1017 93 9000 4.6 290 08:19 03.12.2019
3309 Clouds 15 1017 93 10000 3.1 300 07:50 03.12.2019
3310 Clouds 15 1017 93 10000 3.1 300 07:24 03.12.2019
3311 Clouds 14 1016 93 10000 3.6 270 06:24 03.12.2019
3312 Clouds 14 1016 93 10000 3.6 270 06:24 03.12.2019
3313 Clouds 14 1016 93 10000 2.6 310 05:59 03.12.2019
3314 Clouds 14 1015 93 10000 3.1 300 04:55 03.12.2019
3315 Clouds 13 1014 100 10000 3.6 290 03:41 03.12.2019
3316 Clouds 13 1014 100 10000 3.6 290 03:20 03.12.2019
3317 Clouds 13 1014 100 10000 3.6 290 02:50 03.12.2019
3318 Clouds 13 1014 100 10000 3.6 290 02:31 03.12.2019
3319 Clouds 14 1013 100 10000 3.1 290 01:53 03.12.2019
3320 Clouds 14 1013 100 10000 3.1 290 01:34 03.12.2019
3321 Clouds 15 1013 93 10000 1 0 00:57 03.12.2019
3322 Clouds 15 1013 93 10000 1 0 00:39 03.12.2019
3323 Clouds 15 1013 93 10000 1 0 00:20 03.12.2019
3324 Clouds 15 1013 93 10000 4.1 360 23:43 02.12.2019
3325 Clouds 15 1013 93 10000 4.1 360 23:20 02.12.2019
3326 Clouds 15 1013 93 10000 3.6 330 22:43 02.12.2019
3327 Clouds 15 1013 93 10000 3.6 330 22:23 02.12.2019
3328 Rain 15 1012 93 3800 4.1 30 21:59 02.12.2019
3329 Rain 15 1012 93 3800 4.1 30 21:39 02.12.2019
3330 Rain 15 1012 93 3800 4.1 30 21:39 02.12.2019
3331 Rain 15 1012 93 3800 4.1 30 21:39 02.12.2019
3332 Rain 15 1012 93 3800 4.1 30 21:20 02.12.2019
3333 Rain 16 1013 93 8000 5.1 330 20:57 02.12.2019
3334 Rain 16 1013 93 8000 5.1 330 20:38 02.12.2019
3335 Clouds 16 1012 93 9000 4.1 50 20:20 02.12.2019
3336 Clouds 16 1012 93 7000 2.6 350 19:56 02.12.2019
3337 Clouds 16 1012 93 7000 2.6 350 19:38 02.12.2019
3338 Clouds 16 1012 93 7000 2.6 350 19:19 02.12.2019
3339 Clouds 17 1012 82 9000 2.1 40 18:46 02.12.2019
3340 Clouds 17 1012 82 9000 2.1 40 18:21 02.12.2019
3341 Clouds 16 1012 93 9000 2.1 100 17:59 02.12.2019
3342 Clouds 16 1012 93 9000 2.1 100 17:40 02.12.2019
3343 Clouds 16 1012 93 9000 2.1 100 17:20 02.12.2019
3344 Clouds 17 1012 77 10000 4.1 140 16:57 02.12.2019
3345 Clouds 17 1012 77 10000 4.1 140 16:38 02.12.2019
3346 Clouds 17 1012 77 10000 4.1 140 16:18 02.12.2019
3347 -273 0 0 0 0 0 16:18 02.12.2019
3348 Clouds 17 1012 77 9000 5.1 120 15:55 02.12.2019
3349 Clouds 17 1012 77 9000 5.1 120 15:37 02.12.2019
3350 Clouds 17 1012 77 9000 5.1 120 15:19 02.12.2019
3351 Clouds 17 1011 82 9000 6.2 120 14:40 02.12.2019
3352 Clouds 17 1011 82 9000 6.2 120 14:20 02.12.2019
3353 Clouds 17 1011 82 9000 6.7 120 13:59 02.12.2019
3354 Clouds 17 1011 82 9000 6.7 120 13:41 02.12.2019
3355 Clouds 17 1011 82 9000 6.7 120 13:20 02.12.2019
3356 Clouds 17 1011 82 9000 6.7 120 13:20 02.12.2019
3357 Clouds 18 1012 72 10000 6.7 120 12:59 02.12.2019
3358 Clouds 18 1012 72 10000 6.7 120 12:40 02.12.2019
3359 Clouds 18 1012 72 10000 6.7 120 12:20 02.12.2019
3360 Clouds 17 1012 88 10000 7.2 110 11:56 02.12.2019
3361 Clouds 17 1012 88 10000 7.2 110 11:37 02.12.2019
3362 Clouds 17 1012 88 10000 7.2 110 11:18 02.12.2019
3363 Clouds 17 1014 93 6000 5.7 80 10:56 02.12.2019
3364 Clouds 17 1014 93 6000 5.7 80 10:37 02.12.2019
3365 Clouds 17 1014 93 6000 5.7 80 10:19 02.12.2019
3366 Clouds 17 1014 88 9000 5.1 90 09:41 02.12.2019
3367 Clouds 17 1014 88 9000 5.1 90 09:19 02.12.2019
3368 Thunderstorm 16 1016 93 8000 5.1 300 08:58 02.12.2019
3369 Thunderstorm 16 1016 93 8000 5.1 300 08:40 02.12.2019
3370 Thunderstorm 16 1016 93 8000 5.1 300 08:21 02.12.2019
3371 Thunderstorm 15 1015 93 3100 6.2 120 07:44 02.12.2019
3372 Thunderstorm 15 1015 93 3100 6.2 120 07:21 02.12.2019
3373 Thunderstorm 15 1015 93 3100 6.2 120 07:21 02.12.2019
3374 Rain 15 1015 93 2100 3.6 140 06:57 02.12.2019
3375 Rain 15 1015 93 2100 3.6 140 06:57 02.12.2019
3376 Rain 15 1015 93 2100 3.6 140 06:38 02.12.2019
3377 Rain 15 1015 93 2800 4.1 140 05:36 02.12.2019
3378 Rain 15 1014 93 6000 5.7 120 04:40 02.12.2019
3379 Rain 16 1015 82 8000 3.6 120 02:55 02.12.2019
3380 Rain 16 1015 82 8000 3.6 120 02:36 02.12.2019
3381 Clouds 16 1016 82 7000 3.6 150 01:28 02.12.2019
3382 Clouds 17 1015 77 8000 4.6 110 00:59 02.12.2019
3383 Clouds 17 1015 77 8000 4.6 110 00:28 02.12.2019
3384 Clouds 16 1016 82 6000 2.6 120 23:56 01.12.2019
3385 Clouds 16 1016 82 6000 2.6 120 23:38 01.12.2019
3386 Clouds 16 1016 82 6000 2.6 120 23:19 01.12.2019
3387 Clouds 16 1016 82 5000 2.1 90 22:56 01.12.2019
3388 Clouds 16 1016 82 5000 2.1 90 22:37 01.12.2019
3389 Clouds 16 1016 82 5000 2.1 90 22:18 01.12.2019
3390 Clouds 16 1017 82 5000 2.6 180 21:55 01.12.2019
3391 Clouds 16 1017 82 5000 2.6 180 21:37 01.12.2019
3392 Clouds 16 1017 82 5000 2.6 180 21:18 01.12.2019
3393 Rain 17 1016 77 6000 5.1 160 20:56 01.12.2019
3394 Rain 17 1016 77 6000 5.1 160 20:37 01.12.2019
3395 Rain 17 1016 77 6000 5.1 160 20:19 01.12.2019
3396 Clouds 17 1016 77 6000 3.6 120 19:55 01.12.2019
3397 Clouds 17 1016 77 6000 3.6 120 19:36 01.12.2019
3398 Clouds 17 1016 77 6000 3.6 120 19:18 01.12.2019
3399 Clouds 17 1017 77 6000 3.6 130 18:54 01.12.2019
3400 Clouds 17 1017 77 6000 3.6 130 18:36 01.12.2019
3401 Clouds 17 1017 77 6000 3.6 130 18:18 01.12.2019
3402 Rain 19 1017 63 9000 5.1 160 17:55 01.12.2019
3403 Rain 19 1017 63 9000 5.1 160 17:37 01.12.2019
3404 Rain 19 1017 63 9000 5.1 160 17:37 01.12.2019
3405 Rain 19 1017 63 9000 5.1 160 17:19 01.12.2019
3406 Clouds 19 1017 55 10000 2.6 130 16:42 01.12.2019
3407 Clouds 19 1017 55 10000 2.6 130 16:23 01.12.2019
3408 Clouds 21 1017 49 10000 2.6 140 15:51 01.12.2019
3409 Clouds 21 1017 49 10000 2.6 140 15:33 01.12.2019
3410 Clouds 21 1017 49 10000 2.6 140 15:33 01.12.2019
3411 Clouds 21 1017 49 10000 2.6 140 15:33 01.12.2019
3412 Clouds 22 1017 43 10000 3.1 140 14:57 01.12.2019
3413 Clouds 22 1017 43 10000 3.1 140 14:56 01.12.2019
3414 Clouds 22 1017 43 10000 3.1 140 14:56 01.12.2019
3415 Clouds 22 1017 43 10000 3.1 140 14:37 01.12.2019
3416 Clouds 22 1017 43 10000 3.1 140 14:18 01.12.2019
3417 Clouds 22 1017 43 10000 4.1 180 13:40 01.12.2019
3418 Clouds 22 1017 43 10000 4.1 180 13:20 01.12.2019
3419 Clear 23 1017 43 10000 2.6 130 12:46 01.12.2019
3420 Clear 22 1017 46 10000 1.5 0 12:18 01.12.2019
3421 Clear 22 1017 46 10000 1.5 0 12:18 01.12.2019
3422 Clear 22 1017 46 10000 1.5 0 12:18 01.12.2019
3423 Clear 22 1017 46 10000 1.5 0 12:18 01.12.2019
3424 Clear 22 1017 46 10000 1.5 0 12:18 01.12.2019
3425 Clear 22 1017 46 10000 1.5 0 11:43 01.12.2019
3426 Clear 22 1017 46 10000 1.5 0 11:43 01.12.2019
3427 Clear 22 1017 46 10000 1.5 0 11:43 01.12.2019
3428 Clear 22 1017 46 10000 1.5 0 11:43 01.12.2019
3429 Clear 22 1017 46 10000 1.5 0 11:24 01.12.2019
3430 Clear 22 1017 46 10000 1.5 0 11:24 01.12.2019
3431 Clouds 21 1019 46 10000 2.1 40 10:45 01.12.2019
3432 Clouds 21 1019 46 10000 2.1 40 10:22 01.12.2019
3433 Clouds 20 1019 52 10000 1.5 90 09:59 01.12.2019
3434 Clouds 20 1019 52 10000 1.5 90 09:40 01.12.2019
3435 Clouds 20 1019 52 10000 1.5 90 09:21 01.12.2019
3436 Clouds 19 1020 55 8000 1 0 08:48 01.12.2019
3437 Clouds 19 1020 55 8000 1 0 08:21 01.12.2019
3438 Clouds 17 1020 59 5000 0.91 42 07:52 01.12.2019
3439 Clouds 17 1020 59 5000 0.91 42 07:31 01.12.2019
3440 Mist 12 1020 71 5000 0.91 42 06:57 01.12.2019
3441 Mist 12 1020 71 5000 0.91 42 06:36 01.12.2019
3442 Mist 10 1019 93 5000 1 240 05:50 01.12.2019
3443 Mist 9 1019 93 7000 0.5 330 04:53 01.12.2019
3444 Mist 10 1019 93 7000 1 340 03:39 01.12.2019
3445 Clouds 11 1019 93 8000 0.5 330 02:38 01.12.2019
3446 Clouds 11 1019 93 8000 0.5 330 02:19 01.12.2019
3447 Clouds 11 1019 76 8000 1.5 310 01:52 01.12.2019
3448 Clouds 11 1019 76 8000 1.5 310 01:26 01.12.2019
3449 Clouds 11 1019 76 10000 2.1 310 00:43 01.12.2019
3450 Clouds 11 1019 76 10000 2.1 310 00:24 01.12.2019
3451 Clouds 12 1019 71 9000 1.5 310 23:44 30.11.2019
3452 Clouds 12 1019 71 9000 1.5 310 23:24 30.11.2019
3453 Clouds 13 1020 71 8000 2.1 330 22:57 30.11.2019
3454 Clouds 13 1020 71 8000 2.1 330 22:38 30.11.2019
3455 Clouds 13 1020 71 8000 2.1 330 22:20 30.11.2019
3456 Clouds 13 1020 71 8000 1 310 21:44 30.11.2019
3457 Clouds 13 1020 71 8000 1 310 21:25 30.11.2019
3458 Clouds 14 1020 71 8000 1.5 310 20:57 30.11.2019
3459 Clouds 14 1020 71 8000 1.5 310 20:38 30.11.2019
3460 Clouds 14 1020 71 8000 1.5 310 20:19 30.11.2019
3461 Clouds 15 1020 67 9000 0.5 0 19:56 30.11.2019
3462 Clouds 15 1020 67 9000 0.5 0 19:38 30.11.2019
3463 Clouds 15 1020 67 9000 0.5 0 19:20 30.11.2019
3464 Clouds 15 1020 67 10000 2.1 310 18:58 30.11.2019
3465 Clouds 15 1020 67 10000 2.1 310 18:38 30.11.2019
3466 Clouds 15 1020 67 10000 2.1 310 18:19 30.11.2019
3467 Clouds 17 1020 59 10000 1.5 300 17:58 30.11.2019
3468 Clouds 17 1020 59 10000 1.5 300 17:39 30.11.2019
3469 Clouds 17 1020 59 10000 1.5 300 17:20 30.11.2019
3470 Clouds 18 1020 59 10000 2.1 310 16:56 30.11.2019
3471 Clouds 18 1020 59 10000 2.1 310 16:38 30.11.2019
3472 Clouds 18 1020 59 10000 2.1 310 16:20 30.11.2019
3473 Clouds 20 1020 52 10000 2.6 330 15:42 30.11.2019
3474 Clouds 20 1020 52 10000 2.6 330 15:19 30.11.2019
3475 Clouds 22 1020 43 10000 2.6 330 14:57 30.11.2019
3476 Clouds 22 1020 43 10000 2.6 330 14:38 30.11.2019
3477 Clouds 22 1020 43 10000 2.6 330 14:38 30.11.2019
3478 Clear 22 1020 43 10000 2.6 330 14:19 30.11.2019
3479 Clear 23 1020 40 10000 3.1 340 13:58 30.11.2019
3480 Clear 23 1020 40 10000 3.1 340 13:38 30.11.2019
3481 Clear 23 1020 40 10000 3.1 340 13:19 30.11.2019
3482 Clear 23 1020 40 10000 2.6 340 12:47 30.11.2019
3483 Clear 23 1020 40 10000 2.6 340 12:29 30.11.2019
3484 Clear 23 1021 43 10000 3.1 360 11:58 30.11.2019
3485 Clear 23 1021 43 10000 3.1 360 11:39 30.11.2019
3486 Clear 23 1021 43 10000 3.1 360 11:18 30.11.2019
3487 Clear 22 1021 46 10000 2.1 360 10:45 30.11.2019
3488 Clear 22 1021 46 10000 2.1 360 10:21 30.11.2019
3489 Clear 21 1022 46 10000 2.1 340 09:50 30.11.2019
3490 Clear 21 1022 46 10000 2.1 340 09:30 30.11.2019
3491 Haze 20 1022 52 10000 1.5 330 08:57 30.11.2019
3492 Haze 20 1022 52 10000 1.5 330 08:38 30.11.2019
3493 Haze 20 1022 52 10000 1.5 330 08:18 30.11.2019
3494 Haze 16 1022 67 5000 1.5 320 07:42 30.11.2019
3495 Haze 16 1022 67 5000 1.5 320 07:23 30.11.2019
3496 Haze 16 1022 67 5000 1.5 320 07:23 30.11.2019
3497 Clear 12 1022 87 6000 2.6 300 06:46 30.11.2019
3498 Clear 12 1022 87 6000 2.6 300 06:27 30.11.2019
3499 Mist 9 1022 100 5000 2.1 300 05:23 30.11.2019
3500 Clear 11 1021 93 8000 1 290 03:38 30.11.2019
3501 Clear 12 1021 81 10000 2.1 280 02:26 30.11.2019
3502 Clouds 12 1021 81 9000 2.1 310 01:51 30.11.2019
3503 Clear 12 1021 81 9000 2.1 310 01:24 30.11.2019
3504 Clear 12 1021 81 9000 2.6 310 00:45 30.11.2019
3505 Clear 12 1021 81 9000 2.6 310 00:27 30.11.2019
3506 Clear 14 1021 82 7000 2.1 310 23:44 29.11.2019
3507 Clear 14 1021 82 7000 2.1 310 23:25 29.11.2019
3508 Clear 14 1021 82 7000 2.1 310 23:25 29.11.2019
3509 Clear 14 1021 87 7000 1.5 320 22:49 29.11.2019
3510 Clear 14 1021 87 7000 1.5 320 22:27 29.11.2019
3511 Clear 15 1021 82 7000 1 330 21:58 29.11.2019
3512 Clear 15 1021 82 7000 1 330 21:40 29.11.2019
3513 Clear 15 1021 82 7000 1 330 21:22 29.11.2019
3514 Mist 15 1021 82 7000 1.5 330 20:56 29.11.2019
3515 Mist 15 1021 82 7000 1.5 330 20:36 29.11.2019
3516 Mist 15 1021 82 7000 1.5 330 20:18 29.11.2019
3517 Clouds 17 1021 72 8000 1 330 19:54 29.11.2019
3518 Clouds 17 1021 72 8000 1 330 19:36 29.11.2019
3519 Clouds 17 1021 72 8000 1 330 19:18 29.11.2019
3520 Clouds 17 1021 72 9000 2.1 310 18:41 29.11.2019
3521 Clouds 17 1021 72 9000 2.1 310 18:41 29.11.2019
3522 Clouds 17 1021 72 9000 2.1 310 18:23 29.11.2019
3523 Clouds 18 1021 68 8000 1.5 320 17:57 29.11.2019
3524 Clouds 18 1021 68 8000 1.5 320 17:39 29.11.2019
3525 Clouds 18 1021 68 8000 1.5 320 17:20 29.11.2019
3526 Clouds 19 1020 63 10000 3.1 290 16:43 29.11.2019
3527 Clouds 19 1020 63 10000 3.1 290 16:21 29.11.2019
3528 Clouds 21 1020 56 10000 3.6 310 15:56 29.11.2019
3529 Clouds 21 1020 56 10000 3.6 310 15:37 29.11.2019
3530 Clouds 21 1020 56 10000 3.6 310 15:19 29.11.2019
3531 Clouds 22 1019 56 9000 3.6 300 14:40 29.11.2019
3532 Clear 22 1019 56 9000 3.6 300 14:21 29.11.2019
3533 Clear 23 1019 53 8000 2.6 290 13:57 29.11.2019
3534 Clear 23 1019 53 8000 2.6 290 13:37 29.11.2019
3535 Clear 23 1019 53 8000 2.6 290 13:19 29.11.2019
3536 Clear 22 1019 56 8000 3.1 320 12:42 29.11.2019
3537 Clear 22 1019 56 8000 3.1 320 12:24 29.11.2019
3538 Haze 23 1020 53 5000 2.6 280 11:56 29.11.2019
3539 Haze 23 1020 53 5000 2.6 280 11:38 29.11.2019
3540 Haze 23 1020 53 5000 2.6 280 11:19 29.11.2019
3541 Rain 22 1020 50 0 3.21 104 10:57 29.11.2019
3542 Rain 22 1020 50 0 3.21 104 10:38 29.11.2019
3543 Haze 21 1021 60 4200 2.1 290 10:20 29.11.2019
3544 Haze 21 1021 60 4200 2.1 290 09:57 29.11.2019
3545 Haze 21 1021 60 4200 2.1 290 09:57 29.11.2019
3546 Haze 21 1021 60 4200 2.1 290 09:38 29.11.2019
3547 Haze 21 1021 60 4200 2.1 290 09:20 29.11.2019
3548 Haze 18 1021 68 4000 2.1 340 08:54 29.11.2019
3549 Haze 18 1021 68 4000 2.1 340 08:36 29.11.2019
3550 Haze 18 1021 68 4000 2.1 340 08:18 29.11.2019
3551 Clouds 19 1019 59 0 3.4 63 07:41 29.11.2019
3552 Mist 13 1021 82 2100 1.5 310 07:23 29.11.2019
3553 Mist 13 1021 82 2100 1.5 310 06:46 29.11.2019
3554 Mist 13 1021 82 2100 1.5 310 06:27 29.11.2019
3555 Mist 13 1020 82 1900 1.5 270 05:32 29.11.2019
3556 Mist 13 1020 82 4300 2.6 320 04:49 29.11.2019
3557 Mist 12 1019 87 3900 2.54 53 03:23 29.11.2019
3558 Rain 16 1019 73 0 2.54 53 02:53 29.11.2019
3559 Mist 12 1019 87 4000 1 170 02:21 29.11.2019
3560 Mist 12 1019 87 4000 1 170 01:27 29.11.2019
3561 Mist 13 1019 71 4500 1 0 00:51 29.11.2019
3562 Mist 13 1019 71 4500 1 0 00:23 29.11.2019
3563 Mist 13 1018 87 4600 1.5 320 23:59 28.11.2019
3564 Mist 13 1018 87 4600 1.5 320 23:39 28.11.2019
3565 Mist 13 1018 87 4600 1.5 320 23:21 28.11.2019
3566 Mist 13 1018 87 4600 1.5 320 23:21 28.11.2019
3567 Mist 15 1018 77 5000 1 320 22:56 28.11.2019
3568 Mist 15 1018 77 5000 1 320 22:37 28.11.2019
3569 Mist 15 1018 77 5000 1 320 22:18 28.11.2019
3570 Mist 14 1018 82 4600 1.5 360 21:42 28.11.2019
3571 Mist 14 1018 82 4600 1.5 360 21:21 28.11.2019
3572 Rain 17 1018 54 0 3.83 68 20:59 28.11.2019
3573 Rain 17 1018 54 0 3.83 68 20:41 28.11.2019
3574 Mist 15 1018 77 5000 2.1 320 20:21 28.11.2019
3575 Mist 15 1018 77 5000 2.1 320 19:57 28.11.2019
3576 Mist 15 1018 77 5000 2.1 320 19:38 28.11.2019
3577 Mist 15 1018 77 5000 2.1 320 19:19 28.11.2019
3578 Dust 17 1018 77 5000 2.6 310 18:57 28.11.2019
3579 Dust 17 1018 77 5000 2.6 310 18:39 28.11.2019
3580 Dust 17 1018 77 5000 2.6 310 18:18 28.11.2019
3581 Rain 17 1017 67 8000 2.6 290 17:58 28.11.2019
3582 Rain 17 1017 67 8000 2.6 290 17:40 28.11.2019
3583 Clouds 17 1017 67 8000 2.6 290 17:20 28.11.2019
3584 Clouds 19 1017 68 8000 2.1 160 16:40 28.11.2019
3585 Clouds 19 1017 68 8000 2.1 160 16:19 28.11.2019
3586 Clouds 19 1017 68 8000 2.1 160 16:19 28.11.2019
3587 Clouds 21 1016 64 9000 3.6 140 15:58 28.11.2019
3588 Clouds 21 1016 64 9000 3.6 140 15:39 28.11.2019
3589 Clouds 21 1016 64 9000 3.6 140 15:20 28.11.2019
3590 Clouds 23 1016 56 10000 6.2 130 14:58 28.11.2019
3591 Clouds 23 1016 56 10000 6.2 130 14:39 28.11.2019
3592 Clouds 23 1016 56 10000 6.2 130 14:19 28.11.2019
3593 Clouds 23 1016 56 9000 6.7 90 13:43 28.11.2019
3594 Clouds 23 1016 56 9000 6.7 90 13:24 28.11.2019
3595 Clouds 23 1016 56 7000 6.2 90 12:57 28.11.2019
3596 Clouds 23 1016 56 7000 6.2 90 12:38 28.11.2019
3597 Clouds 23 1016 56 7000 6.2 90 12:20 28.11.2019
3598 Clouds 21 1017 60 7000 4.1 80 11:56 28.11.2019
3599 Clouds 21 1017 60 7000 4.1 80 11:37 28.11.2019
3600 Clouds 21 1017 60 7000 4.1 80 11:19 28.11.2019
3601 Clouds 21 1017 60 7000 4.1 80 11:19 28.11.2019
3602 Clouds 21 1018 60 8000 3.6 80 10:42 28.11.2019
3603 Clouds 21 1018 60 8000 3.6 80 10:22 28.11.2019
3604 Clouds 21 1018 60 7000 4.6 90 09:58 28.11.2019
3605 Clouds 21 1018 60 7000 4.6 90 09:40 28.11.2019
3606 Clouds 20 1018 60 6000 6.2 70 09:20 28.11.2019
3607 Clouds 20 1018 60 6000 6.2 70 08:44 28.11.2019
3608 Clouds 20 1018 60 6000 6.2 70 08:22 28.11.2019
3609 Mist 19 1019 68 4300 3.6 60 07:58 28.11.2019
3610 Mist 19 1019 68 4300 3.6 60 07:58 28.11.2019
3611 Mist 19 1019 68 4300 3.6 60 07:40 28.11.2019
3612 Mist 19 1019 68 4300 3.6 60 07:22 28.11.2019
3613 Mist 19 1019 72 4400 2.6 90 06:43 28.11.2019
3614 Clouds 18 1019 72 6000 1.5 300 05:58 28.11.2019
3615 Clouds 18 1019 72 6000 1.5 300 05:40 28.11.2019
3616 Clouds 19 1016 68 7000 5.7 50 04:51 28.11.2019
3617 Rain 17 1017 82 8000 3.1 70 02:32 28.11.2019
3618 Rain 19 1018 68 9000 3.6 200 01:28 28.11.2019
3619 Clouds 20 1016 60 10000 5.1 150 00:42 28.11.2019
3620 Clouds 20 1016 60 10000 5.1 150 00:20 28.11.2019
3621 Clouds 21 1016 56 10000 7.7 170 23:40 27.11.2019
3622 Clouds 21 1016 56 10000 7.7 170 23:21 27.11.2019
3623 Clouds 21 1015 52 10000 6.7 150 22:58 27.11.2019
3624 Clouds 21 1015 52 10000 6.7 150 22:38 27.11.2019
3625 Clouds 21 1015 52 10000 6.7 150 22:19 27.11.2019
3626 Clouds 21 1016 49 10000 8.2 190 21:56 27.11.2019
3627 Clouds 21 1016 49 10000 8.2 190 21:37 27.11.2019
3628 Clouds 21 1016 49 10000 8.2 190 21:19 27.11.2019
3629 Clouds 21 1015 52 10000 8.7 130 20:57 27.11.2019
3630 Clouds 21 1015 52 10000 8.7 130 20:57 27.11.2019
3631 Clouds 21 1015 52 10000 8.7 130 20:38 27.11.2019
3632 Clouds 21 1015 52 10000 8.7 130 20:19 27.11.2019
3633 Clouds 21 1015 56 10000 7.7 140 19:56 27.11.2019
3634 Clouds 21 1015 56 10000 7.7 140 19:38 27.11.2019
3635 Clouds 21 1015 56 10000 7.7 140 19:19 27.11.2019
3636 Rain 21 1015 56 10000 11.8 150 18:58 27.11.2019
3637 Rain 21 1015 56 10000 11.8 150 18:36 27.11.2019
3638 Rain 21 1015 56 10000 11.8 150 18:18 27.11.2019
3639 Rain 22 1016 49 10000 8.7 130 17:55 27.11.2019
3640 Rain 22 1016 49 10000 8.7 130 17:37 27.11.2019
3641 Rain 22 1016 49 10000 8.7 130 17:18 27.11.2019
3642 Clouds 21 1017 56 10000 3.6 80 16:56 27.11.2019
3643 Clouds 21 1017 56 10000 3.6 80 16:36 27.11.2019
3644 Clouds 21 1017 56 10000 3.6 80 16:18 27.11.2019
3645 -273 0 0 0 0 0 15:56 27.11.2019
3646 Clouds 22 1017 53 10000 3.6 70 15:55 27.11.2019
3647 Clouds 22 1017 53 10000 3.6 70 15:37 27.11.2019
3648 Clouds 22 1017 53 10000 3.6 70 15:19 27.11.2019
3649 Clouds 23 1017 49 10000 4.1 120 14:55 27.11.2019
3650 Clouds 23 1017 49 10000 4.1 120 14:36 27.11.2019
3651 Clouds 23 1017 49 10000 4.1 120 14:18 27.11.2019
3652 Clouds 23 1017 49 10000 4.6 150 13:55 27.11.2019
3653 Clouds 23 1017 49 10000 4.6 150 13:36 27.11.2019
3654 Clouds 23 1017 49 10000 4.6 150 13:18 27.11.2019
3655 Clouds 23 1018 53 10000 3.6 120 12:41 27.11.2019
3656 Clouds 23 1018 53 10000 3.6 120 12:21 27.11.2019
3657 Clouds 23 1018 49 10000 5.1 180 11:55 27.11.2019
3658 Clouds 23 1018 49 10000 5.1 180 11:36 27.11.2019
3659 Clouds 23 1018 49 10000 5.1 180 11:18 27.11.2019
3660 Clouds 22 1018 49 9000 5.1 140 10:43 27.11.2019
3661 Clouds 22 1018 49 9000 5.1 140 10:24 27.11.2019
3662 Clouds 22 1019 46 9000 4.1 130 09:50 27.11.2019
3663 Clouds 22 1019 46 9000 4.1 130 09:27 27.11.2019
3664 Clouds 20 1020 40 9000 5.1 140 08:59 27.11.2019
3665 Clouds 20 1020 40 9000 5.1 140 08:41 27.11.2019
3666 Clouds 20 1020 40 9000 5.1 140 08:22 27.11.2019
3667 Clouds 17 1020 39 6000 3.1 100 07:47 27.11.2019
3668 Clouds 17 1020 39 6000 3.1 100 07:29 27.11.2019
3669 Haze 12 1020 54 2600 1 350 06:54 27.11.2019
3670 Haze 12 1020 54 2600 1 350 06:36 27.11.2019
3671 Haze 11 1019 53 2700 1.5 90 05:47 27.11.2019
3672 Haze 11 1019 53 2700 1.5 90 05:21 27.11.2019
3673 Haze 10 1018 39 3700 2.1 110 04:49 27.11.2019
3674 Haze 10 1018 39 3700 2.1 110 04:30 27.11.2019
3675 Dust 11 1018 50 3200 0.5 0 03:41 27.11.2019
3676 Dust 11 1018 50 3200 0.5 0 03:20 27.11.2019
3677 Dust 12 1019 46 3300 1.5 100 02:32 27.11.2019
3678 Clear 11 1019 50 4100 1 100 00:50 27.11.2019
3679 Clear 11 1019 50 4100 1 100 00:31 27.11.2019
3680 Clear 12 1019 50 4400 2.1 120 23:56 26.11.2019
3681 Clear 11 1019 53 5000 1 130 23:38 26.11.2019
3682 Clear 11 1019 53 5000 1 130 23:19 26.11.2019
3683 Clear 12 1020 54 4600 1 120 22:40 26.11.2019
3684 Clear 12 1020 54 4600 1 120 22:40 26.11.2019
3685 Clear 12 1020 54 4600 1 120 22:20 26.11.2019
3686 Clear 12 1020 54 5000 1 120 21:59 26.11.2019
3687 Clear 12 1020 54 5000 1 120 21:39 26.11.2019
3688 Clear 12 1020 54 5000 1 120 21:39 26.11.2019
3689 Clear 12 1020 54 5000 1 120 21:21 26.11.2019
3690 Clear 12 1020 54 5000 1 120 21:21 26.11.2019
3691 Clear 13 1020 27 6000 2.69 70 20:57 26.11.2019
3692 Clear 13 1020 27 6000 2.69 70 20:37 26.11.2019
3693 Clear 13 1020 27 6000 2.69 70 20:37 26.11.2019
3694 Clear 13 1020 26 6000 2.47 47 20:19 26.11.2019
3695 Clear 14 1020 41 6000 2.47 47 19:56 26.11.2019
3696 Clear 14 1020 41 6000 2.47 47 19:38 26.11.2019
3697 Clear 14 1020 41 6000 2.47 47 19:19 26.11.2019
3698 Clear 14 1020 47 7000 2.1 20 18:57 26.11.2019
3699 Clear 14 1020 47 7000 2.1 20 18:39 26.11.2019
3700 Clear 14 1020 47 7000 2.1 20 18:21 26.11.2019
3701 Clear 15 1020 41 9000 1 360 17:58 26.11.2019
3702 Clear 15 1020 41 9000 1 360 17:40 26.11.2019
3703 Clear 15 1020 41 9000 1 360 17:21 26.11.2019
3704 Clear 18 1019 36 10000 2.1 350 16:57 26.11.2019
3705 Clear 18 1019 36 10000 2.1 350 16:37 26.11.2019
3706 Clear 18 1019 36 10000 2.1 350 16:19 26.11.2019
3707 Clear 20 1019 28 10000 2.6 330 15:59 26.11.2019
3708 Clear 20 1019 28 10000 2.6 330 15:37 26.11.2019
3709 Clear 20 1019 28 10000 2.6 330 15:19 26.11.2019
3710 Clear 23 1019 23 10000 1.5 340 14:50 26.11.2019
3711 Clear 23 1019 23 10000 1.5 340 14:26 26.11.2019
3712 Clear 23 1019 23 10000 1.5 340 14:26 26.11.2019
3713 Clear 23 1019 23 10000 2.1 340 13:57 26.11.2019
3714 Clear 23 1019 23 10000 2.1 340 13:38 26.11.2019
3715 Clear 23 1019 23 10000 2.1 340 13:19 26.11.2019
3716 Clear 23 1019 23 10000 1.5 0 12:39 26.11.2019
3717 Clear 23 1019 23 10000 1.5 0 12:20 26.11.2019
3718 Clear 23 1020 20 9000 1.5 80 11:58 26.11.2019
3719 Clear 23 1020 20 9000 1.5 80 11:39 26.11.2019
3720 Clear 23 1020 20 9000 1.5 80 11:20 26.11.2019
3721 Clear 23 1020 20 9000 1.5 0 10:58 26.11.2019
3722 Clear 23 1020 20 9000 1.5 0 10:40 26.11.2019
3723 Clear 22 1020 24 7000 1.5 340 10:20 26.11.2019
3724 Clear 22 1020 24 7000 1.5 340 10:20 26.11.2019
3725 Haze 21 1021 28 4600 2.1 330 09:57 26.11.2019
3726 Haze 21 1021 28 4600 2.1 330 09:37 26.11.2019
3727 Haze 21 1021 28 4600 2.1 330 09:18 26.11.2019
3728 Haze 18 1022 36 3900 2.1 340 08:43 26.11.2019
3729 Haze 18 1022 36 3900 2.1 340 08:24 26.11.2019
3730 Clear 14 1022 47 4200 1.5 320 07:46 26.11.2019
3731 Clear 14 1022 47 4200 1.5 320 07:27 26.11.2019
3732 Haze 14 1022 47 4000 1.5 310 06:55 26.11.2019
3733 Haze 10 1021 61 4400 3.6 310 06:35 26.11.2019
3734 Haze 10 1021 61 4400 3.6 310 06:35 26.11.2019
3735 Haze 8 1021 61 4400 3.1 310 05:52 26.11.2019
3736 Haze 8 1021 61 4400 3.1 310 05:52 26.11.2019
3737 Clouds 8 1020 65 7000 2.1 320 04:46 26.11.2019
3738 Clouds 9 1020 61 10000 3.1 320 02:52 26.11.2019
3739 Clouds 11 1020 57 10000 2.1 320 01:33 26.11.2019
3740 Clouds 11 1020 62 10000 2.6 320 00:52 26.11.2019
3741 Clouds 11 1020 62 10000 2.6 320 00:29 26.11.2019
3742 Clouds 11 1020 57 10000 2.1 320 23:41 25.11.2019
3743 Clouds 11 1020 57 10000 2.1 320 23:21 25.11.2019
3744 Clouds 12 1020 58 10000 2.1 330 22:59 25.11.2019
3745 Clouds 12 1020 58 10000 2.1 330 22:39 25.11.2019
3746 Clouds 12 1020 58 10000 2.1 330 22:19 25.11.2019
3747 Clouds 12 1020 54 10000 2.1 310 21:59 25.11.2019
3748 Clouds 12 1020 54 10000 2.1 310 21:40 25.11.2019
3749 Clouds 12 1020 54 10000 2.1 310 21:21 25.11.2019
3750 Clouds 14 1020 47 10000 2.6 290 20:57 25.11.2019
3751 Clouds 14 1020 47 10000 2.6 290 20:39 25.11.2019
3752 Clouds 14 1020 47 10000 2.6 290 20:19 25.11.2019
3753 Clouds 14 1020 47 9000 2.1 300 19:56 25.11.2019
3754 Clouds 14 1020 47 9000 2.1 300 19:37 25.11.2019
3755 Clouds 14 1020 47 9000 2.1 300 19:37 25.11.2019
3756 Clouds 14 1020 47 9000 2.1 300 19:18 25.11.2019
3757 Clouds 15 1019 41 5000 2.6 300 18:57 25.11.2019
3758 Clouds 15 1019 41 5000 2.6 300 18:39 25.11.2019
3759 Clouds 15 1019 41 5000 2.6 300 18:21 25.11.2019
3760 Clouds 16 1019 41 7000 2.1 300 17:57 25.11.2019
3761 Clouds 16 1019 41 7000 2.1 300 17:38 25.11.2019
3762 Clouds 16 1019 41 7000 2.1 300 17:20 25.11.2019
3763 Clouds 17 1019 39 8000 2.1 300 16:57 25.11.2019
3764 Clouds 17 1019 39 8000 2.1 300 16:39 25.11.2019
3765 Clouds 17 1019 39 8000 2.1 300 16:20 25.11.2019
3766 Clouds 18 1018 36 9000 1.5 330 15:54 25.11.2019
3767 Clouds 18 1018 36 9000 1.5 330 15:36 25.11.2019
3768 Clouds 18 1018 36 9000 1.5 330 15:18 25.11.2019
3769 Clouds 20 1018 30 10000 2.6 320 14:41 25.11.2019
3770 Clouds 20 1018 30 10000 2.6 320 14:22 25.11.2019
3771 Clouds 21 1018 30 10000 3.1 310 13:55 25.11.2019
3772 Clouds 21 1018 30 10000 3.1 310 13:55 25.11.2019
3773 Clouds 21 1018 30 10000 3.1 310 13:36 25.11.2019
3774 Clouds 21 1018 30 10000 3.1 310 13:18 25.11.2019
3775 Clouds 21 1018 30 9000 2.6 310 12:41 25.11.2019
3776 Clouds 21 1018 30 9000 2.6 310 12:22 25.11.2019
3777 Clouds 21 1018 28 7000 3.6 330 11:59 25.11.2019
3778 Clouds 21 1018 28 7000 3.6 330 11:40 25.11.2019
3779 Clouds 21 1018 28 7000 3.6 330 11:20 25.11.2019
3780 Clouds 20 1019 32 9000 3.6 340 10:54 25.11.2019
3781 Clouds 20 1019 32 9000 3.6 340 10:36 25.11.2019
3782 Clouds 20 1019 32 9000 3.6 340 10:18 25.11.2019
3783 Clouds 19 1020 37 8000 3.1 340 09:41 25.11.2019
3784 Clouds 19 1020 37 8000 3.1 340 09:23 25.11.2019
3785 Haze 16 1021 38 5000 1.5 330 08:42 25.11.2019
3786 Haze 16 1021 38 5000 1.5 330 08:23 25.11.2019
3787 Haze 14 1020 47 5000 2.1 310 07:47 25.11.2019
3788 Haze 14 1020 47 5000 2.1 310 07:29 25.11.2019
3789 Haze 12 1020 54 4900 2.1 310 06:59 25.11.2019
3790 Haze 12 1020 54 4900 2.1 310 06:24 25.11.2019
3791 Dust 8 1020 61 4400 2.6 310 05:51 25.11.2019
3792 Dust 8 1020 61 4400 2.6 310 05:31 25.11.2019
3793 Clouds 10 1019 53 7000 2.1 300 04:48 25.11.2019
3794 Clouds 9 1019 61 7000 2.1 320 02:36 25.11.2019
3795 Clouds 10 1019 61 8000 0.5 350 01:43 25.11.2019
3796 Clouds 10 1019 61 8000 0.5 350 01:24 25.11.2019
3797 Clouds 11 1019 57 8000 1.5 340 00:45 25.11.2019
3798 Clouds 11 1019 57 8000 1.5 340 00:20 25.11.2019
3799 Clouds 10 1019 61 9000 1.5 340 23:45 24.11.2019
3800 Clouds 10 1019 61 9000 1.5 340 23:21 24.11.2019
3801 Clouds 10 1019 61 7000 2.1 320 22:58 24.11.2019
3802 Clouds 10 1019 61 7000 2.1 320 22:39 24.11.2019
3803 Clouds 10 1019 61 7000 2.1 320 22:19 24.11.2019
3804 Dust 10 1020 57 5000 3.1 310 21:57 24.11.2019
3805 Dust 10 1020 57 5000 3.1 310 21:38 24.11.2019
3806 Dust 10 1020 57 5000 3.1 310 21:20 24.11.2019
3807 Dust 12 1020 54 5000 1.5 310 20:57 24.11.2019
3808 Dust 12 1020 54 5000 1.5 310 20:37 24.11.2019
3809 Dust 12 1020 54 5000 1.5 310 20:18 24.11.2019
3810 Clear 12 1020 50 6000 1.5 300 19:56 24.11.2019
3811 Clear 12 1020 50 6000 1.5 300 19:38 24.11.2019
3812 Clear 12 1020 50 6000 1.5 300 19:19 24.11.2019
3813 Dust 13 1019 47 5000 1 320 18:57 24.11.2019
3814 Dust 13 1019 47 5000 1 320 18:37 24.11.2019
3815 Dust 13 1019 47 5000 1 320 18:19 24.11.2019
3816 Dust 14 1019 50 5000 2.6 360 17:55 24.11.2019
3817 Dust 14 1019 50 5000 2.6 360 17:37 24.11.2019
3818 Dust 14 1019 50 5000 2.6 360 17:19 24.11.2019
3819 Clouds 17 1019 36 10000 1.5 330 16:56 24.11.2019
3820 Clouds 17 1019 36 10000 1.5 330 16:38 24.11.2019
3821 Clouds 17 1019 36 10000 1.5 330 16:19 24.11.2019
3822 Clouds 17 1019 36 10000 1.5 330 16:19 24.11.2019
3823 Clouds 18 1018 36 9000 1.5 20 15:43 24.11.2019
3824 Clouds 18 1018 36 9000 1.5 20 15:25 24.11.2019
3825 Clouds 21 1018 30 9000 1.5 40 14:57 24.11.2019
3826 Clouds 21 1018 30 9000 1.5 40 14:38 24.11.2019
3827 Clouds 21 1018 30 9000 1.5 40 14:18 24.11.2019
3828 Clouds 22 1019 28 8000 2.1 30 13:41 24.11.2019
3829 Clouds 22 1019 28 8000 2.1 30 13:22 24.11.2019
3830 Clouds 21 1019 30 8000 2.1 90 12:59 24.11.2019
3831 Clouds 21 1019 30 8000 2.1 90 12:41 24.11.2019
3832 Clouds 21 1019 30 8000 2.1 90 12:19 24.11.2019
3833 Clouds 21 1019 32 9000 2.1 60 11:57 24.11.2019
3834 Clouds 21 1019 32 9000 2.1 60 11:37 24.11.2019
3835 Clouds 21 1019 32 9000 2.1 60 11:18 24.11.2019
3836 Clouds 20 1020 34 9000 2.1 60 10:47 24.11.2019
3837 Clouds 20 1020 34 9000 2.1 60 10:29 24.11.2019
3838 Clouds 19 1021 34 7000 2.1 70 09:58 24.11.2019
3839 Clouds 19 1021 34 7000 2.1 70 09:37 24.11.2019
3840 Clouds 19 1021 34 7000 2.1 70 09:19 24.11.2019
3841 Dust 17 1021 39 4800 2.1 100 08:45 24.11.2019
3842 Dust 17 1021 39 4800 2.1 100 08:22 24.11.2019
3843 Haze 15 1021 41 4700 1 0 07:58 24.11.2019
3844 Haze 15 1021 41 4700 1 0 07:38 24.11.2019
3845 Haze 15 1021 41 4700 1 0 07:19 24.11.2019
3846 Haze 10 1021 53 2100 0.5 0 06:20 24.11.2019
3847 Haze 10 1021 53 2100 0.5 0 06:20 24.11.2019
3848 Haze 10 1021 53 2100 0.5 0 06:20 24.11.2019
3849 Mist 8 1020 61 6000 1 10 04:49 24.11.2019
3850 Smoke 9 1020 32 4900 1 80 03:37 24.11.2019
3851 Smoke 9 1020 61 4100 0.5 0 02:26 24.11.2019
3852 Smoke 10 1020 57 3800 1 60 01:40 24.11.2019
3853 Smoke 10 1020 57 3800 1 60 01:21 24.11.2019
3854 Smoke 9 1020 57 3500 0.5 100 00:47 24.11.2019
3855 Smoke 9 1020 57 3500 0.5 100 00:24 24.11.2019
3856 Smoke 9 1020 66 4000 1.5 50 23:46 23.11.2019
3857 Smoke 9 1020 66 4000 1.5 50 23:23 23.11.2019
3858 Smoke 10 1020 61 4600 1 340 22:59 23.11.2019
3859 Smoke 10 1020 61 4600 1 340 22:40 23.11.2019
3860 Smoke 10 1020 61 4600 1 340 22:22 23.11.2019
3861 Clouds 11 1021 26 6000 2.52 93 21:59 23.11.2019
3862 Clouds 11 1021 26 6000 2.52 93 21:41 23.11.2019
3863 Clouds 11 1021 26 6000 2.52 93 21:22 23.11.2019
3864 Clouds 11 1021 26 6000 2.52 93 21:22 23.11.2019
3865 Mist 11 1020 57 6000 1.5 20 20:58 23.11.2019
3866 Mist 11 1020 57 6000 1.5 20 20:37 23.11.2019
3867 Mist 11 1020 57 6000 1.5 20 20:18 23.11.2019
3868 Clouds 12 1020 22 8000 2.66 108 19:55 23.11.2019
3869 Clouds 12 1020 22 8000 2.66 108 19:37 23.11.2019
3870 Clouds 12 1020 22 8000 2.66 108 19:37 23.11.2019
3871 Clouds 12 1020 22 8000 2.66 108 19:37 23.11.2019
3872 Clouds 12 1020 22 8000 2.66 108 19:18 23.11.2019
3873 Clouds 12 1020 22 8000 2.66 108 19:18 23.11.2019
3874 Clouds 13 1020 22 9000 2.66 108 18:40 23.11.2019
3875 Clouds 13 1020 22 9000 2.66 108 18:40 23.11.2019
3876 Clouds 13 1020 22 9000 2.66 108 18:21 23.11.2019
3877 Clouds 13 1020 22 9000 2.66 108 18:21 23.11.2019
3878 Clouds 14 1020 22 10000 0.5 0 17:58 23.11.2019
3879 Clouds 14 1020 22 10000 0.5 0 17:40 23.11.2019
3880 Clear 14 1020 20 10000 0.5 0 17:20 23.11.2019
3881 Clear 14 1019 41 10000 0.5 0 16:56 23.11.2019
3882 Clear 14 1019 41 10000 0.5 0 16:56 23.11.2019
3883 Clear 14 1019 41 10000 0.5 0 16:38 23.11.2019
3884 Clear 14 1019 41 10000 0.5 0 16:20 23.11.2019
3885 Clear 19 1019 25 10000 2.1 120 15:57 23.11.2019
3886 Clear 19 1019 25 10000 2.1 120 15:38 23.11.2019
3887 Clear 19 1019 25 10000 2.1 120 15:18 23.11.2019
3888 Clear 19 1019 25 10000 2.1 120 15:18 23.11.2019
3889 Clear 22 1019 21 10000 0.5 0 14:55 23.11.2019
3890 Clear 22 1019 21 10000 0.5 0 14:37 23.11.2019
3891 Clouds 22 1019 21 10000 0.5 0 14:18 23.11.2019
3892 Clouds 22 1019 14 10000 2.1 100 13:42 23.11.2019
3893 Clouds 22 1019 14 10000 2.1 100 13:19 23.11.2019
3894 Clouds 23 1019 20 10000 1.5 0 12:55 23.11.2019
3895 Clouds 23 1019 20 10000 1.5 0 12:37 23.11.2019
3896 Clouds 23 1019 20 10000 1.5 0 12:19 23.11.2019
3897 Clouds 22 1020 14 10000 3.1 130 11:42 23.11.2019
3898 Clouds 22 1020 14 10000 3.1 130 11:19 23.11.2019
3899 Clouds 21 1021 28 10000 3.6 110 10:45 23.11.2019
3900 Clouds 21 1021 28 10000 3.6 110 10:21 23.11.2019
3901 Clouds 20 1021 32 9000 2.1 120 09:42 23.11.2019
3902 Clouds 20 1021 32 9000 2.1 120 09:20 23.11.2019
3903 Clouds 18 1022 34 6000 2.6 110 08:43 23.11.2019
3904 Clouds 18 1022 34 6000 2.6 110 08:20 23.11.2019
3905 Clouds 18 1021 17 0 2.15 120 07:54 23.11.2019
3906 Clouds 18 1021 17 0 2.15 120 07:35 23.11.2019
3907 Clouds 12 1022 46 6000 1 0 06:46 23.11.2019
3908 Clouds 12 1022 46 6000 1 0 06:21 23.11.2019
3909 Clouds 10 1021 46 6000 1 70 05:50 23.11.2019
3910 Clouds 10 1021 46 6000 1 70 05:29 23.11.2019
3911 Clouds 10 1021 53 9000 1.5 60 04:48 23.11.2019
3912 Clouds 10 1021 53 9000 1.5 60 04:27 23.11.2019
3913 Clouds 13 1020 24 7000 2.1 90 02:45 23.11.2019
3914 Clouds 12 1020 50 6000 1.5 80 01:51 23.11.2019
3915 Clouds 12 1020 50 6000 1.5 80 01:32 23.11.2019
3916 Clouds 12 1020 46 5000 1 30 00:40 23.11.2019
3917 Clouds 12 1020 46 5000 1 30 00:18 23.11.2019
3918 Clouds 12 1020 46 6000 1.5 20 23:42 22.11.2019
3919 Clouds 12 1020 46 6000 1.5 20 23:20 22.11.2019
3920 Clouds 14 1021 41 6000 2.98 124 22:57 22.11.2019
3921 Clouds 14 1021 41 6000 2.98 124 22:38 22.11.2019
3922 Clouds 14 1021 41 6000 2.98 124 22:20 22.11.2019
3923 Clouds 14 1021 41 6000 2.1 60 21:58 22.11.2019
3924 Clouds 14 1021 41 6000 2.1 60 21:39 22.11.2019
3925 Clouds 14 1021 41 6000 2.1 60 21:19 22.11.2019
3926 Clouds 14 1020 41 8000 1.5 30 20:43 22.11.2019
3927 Clouds 14 1020 41 8000 1.5 30 20:43 22.11.2019
3928 Clouds 14 1020 41 8000 1.5 30 20:22 22.11.2019
3929 Clouds 14 1020 35 8000 0.5 90 19:56 22.11.2019
3930 Clouds 14 1020 35 8000 0.5 90 19:37 22.11.2019
3931 Clouds 14 1020 35 8000 0.5 90 19:19 22.11.2019
3932 Clouds 15 1020 33 8000 1.5 100 18:39 22.11.2019
3933 Clouds 15 1020 33 8000 1.5 100 18:21 22.11.2019
3934 Clouds 16 1020 31 10000 1.5 90 17:57 22.11.2019
3935 Clouds 16 1020 31 10000 1.5 90 17:39 22.11.2019
3936 Clouds 16 1020 31 10000 1.5 90 17:20 22.11.2019
3937 Clouds 18 1020 31 10000 1.5 110 16:42 22.11.2019
3938 Clouds 18 1020 31 10000 1.5 110 16:23 22.11.2019
3939 Clouds 17 1020 21 0 0.82 109 15:44 22.11.2019
3940 Clouds 22 1020 19 10000 2.6 150 15:24 22.11.2019
3941 Clouds 22 1020 19 10000 2.6 150 14:56 22.11.2019
3942 Clouds 22 1020 19 10000 2.6 150 14:38 22.11.2019
3943 Clear 22 1020 19 10000 2.6 150 14:19 22.11.2019
3944 Clear 22 1020 19 10000 2.6 170 13:57 22.11.2019
3945 Clear 22 1020 19 10000 2.6 170 13:37 22.11.2019
3946 Clear 22 1020 19 10000 2.6 170 13:18 22.11.2019
3947 Clear 22 1020 21 10000 2.6 220 12:55 22.11.2019
3948 Clear 22 1020 21 10000 2.6 220 12:55 22.11.2019
3949 Clear 22 1020 21 10000 2.6 220 12:36 22.11.2019
3950 Clear 22 1020 21 10000 2.6 220 12:18 22.11.2019
3951 Clear 21 1020 26 10000 2.1 260 11:55 22.11.2019
3952 Clear 21 1020 26 10000 2.1 260 11:36 22.11.2019
3953 Clear 21 1020 26 10000 2.1 260 11:18 22.11.2019
3954 Clear 21 1020 26 10000 2.1 260 11:18 22.11.2019
3955 Clear 20 1021 28 10000 1.5 240 10:40 22.11.2019
3956 Clear 20 1021 28 10000 1.5 240 10:22 22.11.2019
3957 Clear 20 1021 28 10000 1.5 240 10:22 22.11.2019
3958 Clear 19 1022 17 10000 3.1 250 09:57 22.11.2019
3959 Clear 19 1022 17 10000 3.1 250 09:39 22.11.2019
3960 Clear 19 1022 17 10000 3.1 250 09:21 22.11.2019
3961 Clear 17 1022 27 10000 1.5 240 08:47 22.11.2019
3962 Clear 17 1022 27 10000 1.5 240 08:27 22.11.2019
3963 Clouds 15 1022 33 10000 1.5 200 07:55 22.11.2019
3964 Clouds 15 1022 33 10000 1.5 200 07:37 22.11.2019
3965 Clouds 15 1022 33 10000 1.5 200 07:18 22.11.2019
3966 Clouds 9 1022 45 10000 1 0 06:40 22.11.2019
3967 Clouds 6 1021 60 10000 2.1 200 05:54 22.11.2019
3968 Clouds 7 1021 31 10000 1.5 180 04:51 22.11.2019
3969 Clouds 6 1020 56 10000 1 160 02:56 22.11.2019
3970 Clouds 6 1020 56 10000 1 160 02:32 22.11.2019
3971 Clear 8 1020 52 10000 1.35 154 01:45 22.11.2019
3972 Clear 8 1020 52 10000 1.25 163 01:20 22.11.2019
3973 Clear 9 1020 32 10000 1 0 00:54 22.11.2019
3974 Clear 9 1020 32 10000 1 0 00:25 22.11.2019
3975 Clear 7 1020 52 8000 2.1 220 23:56 21.11.2019
3976 Clear 7 1020 52 8000 2.1 220 23:56 21.11.2019
3977 Clear 7 1020 52 8000 2.1 220 23:37 21.11.2019
3978 Clear 7 1020 52 8000 2.1 220 23:18 21.11.2019
3979 Clear 9 1020 31 9000 1.5 160 22:41 21.11.2019
3980 Clear 9 1020 31 9000 1.5 160 22:22 21.11.2019
3981 Clear 10 1020 53 9000 0.5 0 21:57 21.11.2019
3982 Clear 10 1020 53 9000 0.5 0 21:38 21.11.2019
3983 Clear 10 1020 53 9000 0.5 0 21:20 21.11.2019
3984 Clear 11 1020 50 8000 0.5 210 20:59 21.11.2019
3985 Clear 11 1020 50 8000 0.5 210 20:39 21.11.2019
3986 Clear 11 1020 50 8000 0.5 210 20:19 21.11.2019
3987 Clear 11 1020 50 8000 0.5 210 20:19 21.11.2019
3988 Clear 12 1020 50 9000 1.76 326 19:59 21.11.2019
3989 Clear 12 1020 50 9000 1.76 326 19:41 21.11.2019
3990 Clear 12 1020 50 9000 1.76 326 19:23 21.11.2019
3991 Clear 12 1020 50 10000 1 260 18:58 21.11.2019
3992 Clear 12 1020 50 10000 1 260 18:40 21.11.2019
3993 Clear 12 1020 50 10000 1 260 18:19 21.11.2019
3994 Clear 14 1019 29 9000 0.5 0 17:57 21.11.2019
3995 Clear 14 1019 29 9000 0.5 0 17:57 21.11.2019
3996 Clear 14 1019 29 9000 0.5 0 17:38 21.11.2019
3997 Clear 14 1019 21 9000 0.5 0 17:19 21.11.2019
3998 Clear 16 1019 21 10000 1 0 16:42 21.11.2019
3999 Clear 16 1019 21 10000 1 0 16:22 21.11.2019
4000 Clear 20 1019 21 10000 2.1 270 15:58 21.11.2019
4001 Clear 20 1019 21 10000 2.1 270 15:40 21.11.2019
4002 Clear 20 1019 21 10000 2.1 270 15:20 21.11.2019
4003 Clear 22 1019 24 10000 4.1 270 14:57 21.11.2019
4004 Clear 22 1019 24 10000 4.1 270 14:37 21.11.2019
4005 Clear 22 1019 24 10000 4.1 270 14:19 21.11.2019
4006 Clear 22 1018 13 10000 3.6 290 13:40 21.11.2019
4007 Clear 22 1018 13 10000 3.6 290 13:21 21.11.2019
4008 Clear 22 1019 13 10000 4.1 300 12:59 21.11.2019
4009 Clear 22 1019 13 10000 4.1 300 12:39 21.11.2019
4010 Clear 22 1019 13 10000 4.1 300 12:21 21.11.2019
4011 Clear 21 1019 26 10000 2.6 270 11:54 21.11.2019
4012 Clear 21 1019 26 10000 2.6 270 11:36 21.11.2019
4013 Clear 21 1019 26 10000 2.6 270 11:18 21.11.2019
4014 Clear 20 1020 15 10000 3.1 290 10:42 21.11.2019
4015 Clear 20 1020 15 10000 3.1 290 10:23 21.11.2019
4016 Clear 19 1020 25 10000 2.6 280 09:57 21.11.2019
4017 Clear 19 1020 25 10000 2.6 280 09:39 21.11.2019
4018 Clear 19 1020 25 10000 2.6 280 09:20 21.11.2019
4019 Clear 16 1020 31 10000 3.1 310 08:43 21.11.2019
4020 Clear 16 1020 31 10000 3.1 310 08:22 21.11.2019
4021 Clear 13 1020 35 10000 4.1 300 07:44 21.11.2019
4022 Clear 13 1020 35 10000 4.1 300 07:19 21.11.2019
4023 Clear 10 1020 39 10000 3.6 290 06:58 21.11.2019
4024 Clear 10 1020 39 10000 3.6 290 06:34 21.11.2019
4025 Clear 7 1019 42 10000 3.1 290 05:42 21.11.2019
4026 Clear 7 1019 45 10000 1.5 260 03:35 21.11.2019
4027 Clear 7 1018 45 10000 3.1 300 02:42 21.11.2019
4028 Clear 7 1018 45 10000 3.1 300 02:23 21.11.2019
4029 Clear 8 1018 42 10000 3.1 290 01:45 21.11.2019
4030 Clear 8 1018 42 10000 3.1 290 01:20 21.11.2019
4031 Clear 8 1019 39 10000 3.1 290 00:38 21.11.2019
4032 Clear 8 1019 39 10000 3.1 290 00:19 21.11.2019
4033 Clear 8 1019 42 10000 4.1 310 23:42 20.11.2019
4034 Clear 8 1019 42 10000 4.1 310 23:21 20.11.2019
4035 Clear 11 1019 34 10000 3.6 290 22:58 20.11.2019
4036 Clear 11 1019 34 10000 3.6 290 22:37 20.11.2019
4037 Clear 11 1019 34 10000 3.6 290 22:19 20.11.2019
4038 Clear 11 1019 34 10000 3.6 290 22:19 20.11.2019
4039 Clear 11 1019 37 10000 2.6 310 21:58 20.11.2019
4040 Clear 11 1019 37 10000 2.6 310 21:38 20.11.2019
4041 Clear 11 1019 37 10000 2.6 310 21:19 20.11.2019
4042 Clear 11 1019 40 10000 2.6 300 20:56 20.11.2019
4043 Clear 11 1019 40 10000 2.6 300 20:38 20.11.2019
4044 Clear 11 1019 40 10000 2.6 300 20:20 20.11.2019
4045 Clear 13 1018 32 10000 1.5 280 19:56 20.11.2019
4046 Clear 13 1018 32 10000 1.5 280 19:37 20.11.2019
4047 Clear 13 1018 32 10000 1.5 280 19:18 20.11.2019
4048 Clear 14 1018 35 10000 2.6 280 18:58 20.11.2019
4049 Clear 14 1018 35 10000 2.6 280 18:38 20.11.2019
4050 Clear 14 1018 35 10000 2.6 280 18:20 20.11.2019
4051 Clear 15 1018 33 10000 2.1 280 17:56 20.11.2019
4052 Clear 15 1018 33 10000 2.1 280 17:38 20.11.2019
4053 Clear 15 1018 33 10000 2.1 280 17:19 20.11.2019
4054 Clear 17 1018 29 10000 2.6 290 16:43 20.11.2019
4055 Clear 17 1018 29 10000 2.6 290 16:21 20.11.2019
4056 Clear 17 1018 29 10000 2.6 290 16:21 20.11.2019
4057 Clear 19 1017 25 10000 3.6 310 15:59 20.11.2019
4058 Clear 19 1017 25 10000 3.6 310 15:41 20.11.2019
4059 Clear 19 1017 25 10000 3.6 310 15:21 20.11.2019
4060 Clear 21 1017 22 10000 6.7 350 14:59 20.11.2019
4061 Clear 21 1017 22 10000 6.7 350 14:40 20.11.2019
4062 Clear 21 1017 22 10000 6.7 350 14:21 20.11.2019
4063 Clear 22 1017 21 10000 7.7 330 13:57 20.11.2019
4064 Clear 22 1017 21 10000 7.7 330 13:39 20.11.2019
4065 Clear 22 1017 21 10000 7.7 330 13:20 20.11.2019
4066 Clear 22 1017 21 10000 7.7 330 12:43 20.11.2019
4067 Clear 22 1017 21 10000 7.7 330 12:25 20.11.2019
4068 Clear 21 1017 16 10000 6.7 340 11:58 20.11.2019
4069 Clear 21 1017 16 10000 6.7 340 11:40 20.11.2019
4070 Clear 21 1017 20 10000 6.7 340 11:21 20.11.2019
4071 Clear 20 1018 28 10000 6.2 330 10:55 20.11.2019
4072 Clear 20 1018 28 10000 6.2 330 10:37 20.11.2019
4073 Clear 20 1018 28 10000 6.2 330 10:37 20.11.2019
4074 Clear 20 1018 28 10000 6.2 330 10:19 20.11.2019
4075 Clear 18 1019 31 10000 6.7 330 09:43 20.11.2019
4076 Clear 18 1019 31 10000 6.7 330 09:21 20.11.2019
4077 Clear 18 1019 31 10000 6.7 330 09:21 20.11.2019
4078 Clear 16 1019 20 10000 5.7 320 08:56 20.11.2019
4079 Clear 16 1019 20 10000 5.7 320 08:38 20.11.2019
4080 Clear 16 1019 27 10000 5.7 320 08:20 20.11.2019
4081 Clear 13 1020 37 10000 5.1 320 07:45 20.11.2019
4082 Clear 13 1020 37 10000 5.1 320 07:25 20.11.2019
4083 Clear 12 1019 40 10000 4.6 320 06:49 20.11.2019
4084 Clear 7 1019 52 10000 3.1 310 06:22 20.11.2019
4085 Clear 7 1019 52 10000 3.1 310 05:26 20.11.2019
4086 Clear 7 1018 48 10000 3.1 320 03:36 20.11.2019
4087 Clear 9 1018 45 10000 3.6 320 02:21 20.11.2019
4088 Clear 7 1018 48 10000 4.1 310 01:33 20.11.2019
4089 Clear 7 1018 52 10000 4.1 320 00:41 20.11.2019
4090 Clear 8 1018 45 10000 3.1 320 23:55 19.11.2019
4091 Clear 8 1018 45 10000 3.1 320 23:26 19.11.2019
4092 Clear 8 1018 45 10000 2.6 300 22:58 19.11.2019
4093 Clear 8 1018 45 10000 2.6 300 22:40 19.11.2019
4094 Clear 8 1018 45 10000 2.6 300 22:19 19.11.2019
4095 Clear 9 1019 45 10000 3.6 320 21:56 19.11.2019
4096 Clear 9 1019 45 10000 3.6 320 21:37 19.11.2019
4097 Clear 9 1019 45 10000 3.6 320 21:19 19.11.2019
4098 Clear 10 1019 39 10000 3.1 320 20:56 19.11.2019
4099 Clear 10 1019 39 10000 3.1 320 20:38 19.11.2019
4100 Clear 10 1019 39 10000 3.1 320 20:19 19.11.2019
4101 Clear 10 1019 39 10000 3.6 300 19:56 19.11.2019
4102 Clear 10 1019 39 10000 3.6 300 19:38 19.11.2019
4103 Clear 10 1019 39 10000 3.6 300 19:19 19.11.2019
4104 Clear 11 1019 34 10000 3.6 300 18:55 19.11.2019
4105 Clear 11 1019 34 10000 3.6 300 18:36 19.11.2019
4106 Clear 11 1019 34 10000 3.6 300 18:18 19.11.2019
4107 Clear 13 1019 30 10000 3.1 300 17:55 19.11.2019
4108 Clear 13 1019 30 10000 3.1 300 17:37 19.11.2019
4109 Clear 13 1019 30 10000 3.1 300 17:18 19.11.2019
4110 Clear 16 1019 26 10000 4.1 290 16:42 19.11.2019
4111 Clear 16 1019 26 10000 4.1 290 16:23 19.11.2019
4112 Clear 18 1019 27 10000 5.1 290 15:57 19.11.2019
4113 Clear 18 1019 27 10000 5.1 290 15:39 19.11.2019
4114 Clear 18 1019 27 10000 5.1 290 15:20 19.11.2019
4115 Clear 20 1019 22 10000 5.7 320 14:55 19.11.2019
4116 Clear 20 1019 22 10000 5.7 320 14:37 19.11.2019
4117 Clear 20 1019 22 10000 5.7 320 14:37 19.11.2019
4118 Clear 20 1019 22 10000 5.7 320 14:19 19.11.2019
4119 Clear 20 1019 20 10000 7.2 320 13:40 19.11.2019
4120 Clear 20 1019 20 10000 7.2 320 13:19 19.11.2019
4121 Clear 20 1019 20 10000 8.2 320 12:41 19.11.2019
4122 Clear 20 1019 20 10000 8.2 320 12:22 19.11.2019
4123 Clear 20 1020 22 10000 7.2 320 11:58 19.11.2019
4124 Clear 20 1020 22 10000 7.2 320 11:38 19.11.2019
4125 Clear 20 1020 22 10000 7.2 320 11:19 19.11.2019
4126 Clear 19 1020 19 10000 5.7 330 10:48 19.11.2019
4127 Clear 19 1020 19 10000 5.7 330 10:23 19.11.2019
4128 Clear 19 1020 19 10000 5.7 330 10:23 19.11.2019
4129 Clear 18 1021 27 10000 5.7 320 09:58 19.11.2019
4130 Clear 18 1021 27 10000 5.7 320 09:40 19.11.2019
4131 Clear 18 1021 27 10000 5.7 320 09:19 19.11.2019
4132 Clear 16 1021 19 10000 5.1 310 08:41 19.11.2019
4133 Clear 16 1021 19 10000 5.1 310 08:41 19.11.2019
4134 Clear 16 1021 32 10000 5.1 310 08:23 19.11.2019
4135 Clear 13 1022 31 10000 4.1 310 07:58 19.11.2019
4136 Clear 13 1022 31 10000 4.1 310 07:39 19.11.2019
4137 Clear 13 1022 31 10000 4.1 310 07:20 19.11.2019
4138 Clear 9 1021 45 10000 3.6 310 06:50 19.11.2019
4139 Clear 9 1021 45 10000 3.6 310 06:50 19.11.2019
4140 Clear 9 1021 45 10000 3.6 310 06:30 19.11.2019
4141 Clear 6 1021 52 10000 4.1 310 05:40 19.11.2019
4142 Clear 5 1021 56 10000 3.6 310 04:24 19.11.2019
4143 Clear 5 1020 56 10000 4.1 310 03:34 19.11.2019
4144 Clear 6 1020 56 10000 4.1 320 02:57 19.11.2019
4145 Clear 6 1020 56 10000 4.1 320 02:31 19.11.2019
4146 Clear 6 1020 52 10000 3.6 310 01:41 19.11.2019
4147 Clear 7 1020 48 10000 2.6 300 00:22 19.11.2019
4148 Clear 7 1020 52 10000 3.1 320 23:57 18.11.2019
4149 Clear 7 1020 52 10000 3.1 320 23:37 18.11.2019
4150 Clear 7 1020 52 10000 3.1 320 23:18 18.11.2019
4151 Clear 8 1020 45 10000 3.1 310 22:44 18.11.2019
4152 Clear 8 1020 45 10000 3.1 310 22:23 18.11.2019
4153 Clear 8 1020 45 10000 3.6 310 21:56 18.11.2019
4154 Clear 8 1020 45 10000 3.6 310 21:38 18.11.2019
4155 Clear 8 1020 45 10000 3.6 310 21:20 18.11.2019
4156 Clear 12 1020 34 10000 3.6 290 20:57 18.11.2019
4157 Clear 12 1020 34 10000 3.6 290 20:38 18.11.2019
4158 Clear 12 1020 34 10000 3.6 290 20:38 18.11.2019
4159 Clear 12 1020 34 10000 3.6 290 20:18 18.11.2019
4160 Clear 12 1020 32 10000 3.6 290 19:56 18.11.2019
4161 Clear 12 1020 32 10000 3.6 290 19:37 18.11.2019
4162 Clear 12 1020 32 10000 3.6 290 19:18 18.11.2019
4163 Clear 12 1020 34 10000 2.6 290 18:55 18.11.2019
4164 Clear 12 1020 34 10000 2.6 290 18:37 18.11.2019
4165 Clear 12 1020 34 10000 2.6 290 18:19 18.11.2019
4166 Clear 13 1020 32 10000 2.1 290 17:39 18.11.2019
4167 Clear 13 1020 32 10000 2.1 290 17:39 18.11.2019
4168 Clear 13 1020 32 10000 2.1 290 17:20 18.11.2019
4169 Clear 15 1020 26 10000 2.6 300 16:57 18.11.2019
4170 Clear 15 1020 26 10000 2.6 300 16:39 18.11.2019
4171 Clear 15 1020 26 10000 2.6 300 16:21 18.11.2019
4172 Clear 18 1019 23 10000 2.6 330 15:56 18.11.2019
4173 Clear 18 1019 23 10000 2.6 330 15:56 18.11.2019
4174 Clear 18 1019 23 10000 2.6 330 15:37 18.11.2019
4175 Clear 18 1019 23 10000 2.6 330 15:18 18.11.2019
4176 Clear 20 1019 19 10000 5.1 340 14:42 18.11.2019
4177 Clear 20 1019 19 10000 5.1 340 14:24 18.11.2019
4178 Clear 20 1019 20 10000 4.6 320 13:56 18.11.2019
4179 Clear 20 1019 20 10000 4.6 320 13:37 18.11.2019
4180 Clear 20 1019 20 10000 4.6 320 13:37 18.11.2019
4181 Clear 20 1019 20 10000 4.6 320 13:19 18.11.2019
4182 Clear 20 1019 20 10000 4.6 320 13:19 18.11.2019
4183 Clear 20 1019 22 10000 4.6 340 12:39 18.11.2019
4184 Clear 20 1019 24 10000 4.6 310 12:19 18.11.2019
4185 Clear 20 1019 24 10000 4.6 310 11:46 18.11.2019
4186 Clear 20 1019 24 10000 4.6 310 11:27 18.11.2019
4187 Clear 18 1020 42 10000 4.6 280 10:59 18.11.2019
4188 Clear 18 1020 42 10000 4.6 280 10:40 18.11.2019
4189 Clear 18 1020 42 10000 4.6 280 10:22 18.11.2019
4190 Haze 17 1020 63 5000 3.6 260 09:56 18.11.2019
4191 Haze 17 1020 63 5000 3.6 260 09:38 18.11.2019
4192 Haze 17 1020 63 5000 3.6 260 09:18 18.11.2019
4193 Haze 16 1020 72 4400 3.6 270 08:45 18.11.2019
4194 Mist 15 1021 82 3600 3.1 280 08:22 18.11.2019
4195 Mist 14 1020 76 3500 2.6 310 07:49 18.11.2019
4196 Mist 14 1020 76 3500 2.6 310 07:30 18.11.2019
4197 Mist 13 1020 82 3200 1 280 06:56 18.11.2019
4198 Mist 13 1020 82 3200 1 280 06:37 18.11.2019
4199 Mist 13 1020 82 3200 1 280 06:19 18.11.2019
4200 Mist 12 1020 81 5000 1 310 05:25 18.11.2019
4201 Clouds 14 1019 82 8000 2.6 80 02:59 18.11.2019
4202 Clouds 12 1019 93 7000 2.6 30 01:31 18.11.2019
4203 Clear 14 1019 93 7000 1.5 110 00:39 18.11.2019
4204 Clear 13 1019 82 9000 2.6 110 23:56 17.11.2019
4205 Clear 13 1019 82 9000 2.6 110 23:38 17.11.2019
4206 Clear 13 1019 82 9000 2.6 110 23:18 17.11.2019
4207 Clear 14 1019 82 10000 3.1 90 22:41 17.11.2019
4208 Clear 14 1019 82 10000 3.1 90 22:23 17.11.2019
4209 Clear 13 1019 76 10000 2.6 110 21:59 17.11.2019
4210 Clear 13 1019 76 10000 2.6 110 21:41 17.11.2019
4211 Clear 13 1019 76 10000 2.6 110 21:19 17.11.2019
4212 Clear 14 1018 67 10000 3.6 120 20:57 17.11.2019
4213 Clear 14 1018 67 10000 3.6 120 20:39 17.11.2019
4214 Clear 14 1018 67 10000 3.6 120 20:20 17.11.2019
4215 Clear 14 1018 67 10000 3.6 120 20:20 17.11.2019
4216 Clear 14 1018 47 10000 4.1 110 19:56 17.11.2019
4217 Clear 14 1018 47 10000 4.1 110 19:38 17.11.2019
4218 Clear 14 1018 47 10000 4.1 110 19:38 17.11.2019
4219 Clear 14 1018 47 10000 4.1 110 19:20 17.11.2019
4220 Clear 15 1018 38 10000 2.1 110 18:56 17.11.2019
4221 Clear 15 1018 38 10000 2.1 110 18:38 17.11.2019
4222 Clear 15 1018 38 10000 2.1 110 18:19 17.11.2019
4223 Clear 16 1017 36 10000 2.1 150 17:57 17.11.2019
4224 Clear 16 1017 36 10000 2.1 150 17:39 17.11.2019
4225 Clear 16 1017 36 10000 2.1 150 17:20 17.11.2019
4226 Clear 18 1017 16 10000 3.6 140 16:58 17.11.2019
4227 Clear 18 1017 16 10000 3.6 140 16:40 17.11.2019
4228 Clear 18 1017 16 10000 3.6 140 16:21 17.11.2019
4229 Clear 21 1016 22 10000 1.5 290 15:55 17.11.2019
4230 Clear 21 1016 22 10000 1.5 290 15:37 17.11.2019
4231 Clear 21 1016 22 10000 1.5 290 15:18 17.11.2019
4232 Clear 23 1016 20 10000 1 0 14:56 17.11.2019
4233 Clear 23 1016 20 10000 1 0 14:37 17.11.2019
4234 Clear 23 1016 20 10000 1 0 14:19 17.11.2019
4235 Clear 23 1016 18 10000 1 0 13:56 17.11.2019
4236 Clear 23 1016 18 10000 1 0 13:38 17.11.2019
4237 Clear 23 1016 18 10000 1 0 13:18 17.11.2019
4238 Clear 23 1016 18 10000 1 0 13:18 17.11.2019
4239 Clear 23 1016 18 10000 2.1 0 12:44 17.11.2019
4240 Clear 23 1016 18 10000 2.1 0 12:22 17.11.2019
4241 Clear 22 1016 19 10000 1.5 350 11:57 17.11.2019
4242 Clear 22 1016 19 10000 1.5 350 11:39 17.11.2019
4243 Clear 22 1016 19 10000 1.5 350 11:20 17.11.2019
4244 Clear 21 1017 21 10000 2.1 360 10:44 17.11.2019
4245 Clear 21 1017 21 10000 2.1 360 10:23 17.11.2019
4246 Clear 19 1018 25 10000 2.6 20 09:57 17.11.2019
4247 Clear 19 1018 25 10000 2.6 20 09:39 17.11.2019
4248 Clear 19 1018 25 10000 2.6 20 09:21 17.11.2019
4249 Clear 18 1018 25 10000 3.1 360 08:40 17.11.2019
4250 Clear 18 1018 25 10000 3.1 360 08:21 17.11.2019
4251 Clear 16 1018 26 10000 3.1 360 07:55 17.11.2019
4252 Clear 16 1018 26 10000 3.1 360 07:37 17.11.2019
4253 Clear 16 1018 26 10000 3.1 360 07:18 17.11.2019
4254 Clear 14 1018 30 10000 2.6 360 06:44 17.11.2019
4255 Clear 14 1018 30 10000 2.6 360 06:25 17.11.2019
4256 Clear 11 1017 34 10000 4.1 350 04:38 17.11.2019
4257 Clear 12 1017 32 10000 4.1 350 03:51 17.11.2019
4258 Clear 12 1017 32 10000 4.1 350 03:32 17.11.2019
4259 Clear 13 1016 30 10000 4.1 350 02:31 17.11.2019
4260 Clear 14 1016 28 10000 4.6 350 01:42 17.11.2019
4261 Clear 14 1016 26 10000 4.1 350 00:55 17.11.2019
4262 Clear 14 1016 26 10000 4.1 350 00:22 17.11.2019
4263 Clear 14 1016 28 10000 4.1 350 23:48 16.11.2019
4264 Clear 14 1016 28 10000 4.1 350 23:20 16.11.2019
4265 Clear 15 1016 26 10000 4.6 350 22:59 16.11.2019
4266 Clear 15 1016 26 10000 4.6 350 22:41 16.11.2019
4267 Clear 15 1016 26 10000 4.6 350 22:19 16.11.2019
4268 Clear 16 1016 26 10000 5.1 350 21:56 16.11.2019
4269 Clear 16 1016 26 10000 5.1 350 21:38 16.11.2019
4270 Clear 16 1016 26 10000 5.1 350 21:19 16.11.2019
4271 Clear 17 1016 25 10000 4.6 360 20:43 16.11.2019
4272 Clear 17 1016 25 10000 4.6 360 20:21 16.11.2019
4273 Clear 18 1016 22 10000 4.6 360 19:59 16.11.2019
4274 Clear 18 1016 22 10000 4.6 360 19:40 16.11.2019
4275 Clear 18 1016 22 10000 4.6 360 19:21 16.11.2019
4276 Clear 19 1015 20 10000 4.1 360 18:47 16.11.2019
4277 Clear 19 1015 20 10000 4.1 360 18:29 16.11.2019
4278 Clear 20 1015 20 10000 4.6 360 17:58 16.11.2019
4279 Clear 20 1015 20 10000 4.6 360 17:39 16.11.2019
4280 Clear 20 1015 20 10000 4.6 360 17:20 16.11.2019
4281 Clear 20 1015 22 10000 3.6 350 16:55 16.11.2019
4282 Clear 20 1015 22 10000 3.6 350 16:37 16.11.2019
4283 Clear 20 1015 22 10000 3.6 350 16:18 16.11.2019
4284 Clear 23 1014 17 10000 4.1 350 15:41 16.11.2019
4285 Clear 23 1014 17 10000 4.1 350 15:21 16.11.2019
4286 Clear 26 1014 16 10000 4.6 10 14:58 16.11.2019
4287 Clear 26 1014 16 10000 4.6 10 14:39 16.11.2019
4288 Clear 26 1014 16 10000 4.6 10 14:21 16.11.2019
4289 Clear 26 1014 19 10000 4.6 10 13:56 16.11.2019
4290 Clear 26 1014 19 10000 4.6 10 13:38 16.11.2019
4291 Clear 26 1014 19 10000 4.6 10 13:18 16.11.2019
4292 Clear 26 1014 24 10000 4.6 10 12:54 16.11.2019
4293 Clear 26 1014 24 10000 4.6 10 12:36 16.11.2019
4294 Clear 26 1014 24 10000 4.6 10 12:18 16.11.2019
4295 Clear 26 1015 24 10000 4.1 20 11:41 16.11.2019
4296 Clear 26 1015 24 10000 4.1 20 11:23 16.11.2019
4297 Clear 24 1015 29 10000 3.6 360 10:55 16.11.2019
4298 Clear 24 1015 29 10000 3.6 360 10:37 16.11.2019
4299 Clear 24 1015 29 10000 3.6 360 10:18 16.11.2019
4300 Clear 23 1016 31 10000 3.6 20 09:40 16.11.2019
4301 Clear 23 1016 31 10000 3.6 20 09:20 16.11.2019
4302 Clear 21 1016 32 10000 3.6 20 08:56 16.11.2019
4303 Clear 21 1016 32 10000 3.6 20 08:36 16.11.2019
4304 Clear 21 1016 32 10000 3.6 20 08:18 16.11.2019
4305 Clear 19 1016 37 7000 2.6 10 07:41 16.11.2019
4306 Clear 19 1016 37 7000 2.6 10 07:19 16.11.2019
4307 Clear 14 1016 58 9000 0.5 0 06:43 16.11.2019
4308 Clear 14 1016 58 9000 0.5 0 06:23 16.11.2019
4309 Clear 10 1015 61 9000 1 270 04:47 16.11.2019
4310 Clear 11 1015 62 10000 1.5 300 03:26 16.11.2019
4311 Clear 12 1015 58 10000 1.5 310 02:54 16.11.2019
4312 Clear 11 1015 62 10000 2.6 330 01:43 16.11.2019
4313 Clear 11 1015 66 10000 2.6 330 00:59 16.11.2019
4314 Clear 11 1015 66 10000 2.6 330 00:37 16.11.2019
4315 Clear 11 1015 66 10000 2.6 330 00:18 16.11.2019
4316 Clear 12 1015 62 10000 2.6 330 23:39 15.11.2019
4317 Clear 12 1015 62 10000 2.6 330 23:20 15.11.2019
4318 Clear 12 1015 62 10000 2.6 330 23:20 15.11.2019
4319 Clear 13 1014 66 10000 2.1 280 22:43 15.11.2019
4320 Clear 13 1014 66 10000 2.1 280 22:20 15.11.2019
4321 Clear 14 1015 58 10000 1 0 22:00 15.11.2019
4322 Clear 14 1015 58 10000 1 0 21:40 15.11.2019
4323 Clear 14 1015 58 10000 1 0 21:20 15.11.2019
4324 Clear 15 1015 54 10000 2.1 260 20:58 15.11.2019
4325 Clear 15 1015 54 10000 2.1 260 20:39 15.11.2019
4326 Clouds 15 1015 54 10000 2.1 260 20:21 15.11.2019
4327 Clouds 19 1015 42 9000 2.6 290 19:58 15.11.2019
4328 -273 0 0 0 0 0 19:39 15.11.2019
4329 Clouds 19 1015 42 9000 2.6 290 19:20 15.11.2019
4330 Clouds 18 1015 48 10000 1.5 320 18:58 15.11.2019
4331 Clouds 18 1015 48 10000 1.5 320 18:39 15.11.2019
4332 Clouds 18 1015 48 10000 1.5 320 18:21 15.11.2019
4333 Clouds 19 1015 45 10000 2.1 320 17:43 15.11.2019
4334 Clouds 19 1015 45 10000 2.1 320 17:25 15.11.2019
4335 Clouds 19 1015 45 10000 2.1 320 17:24 15.11.2019
4336 Clouds 22 1015 35 10000 1.5 310 16:57 15.11.2019
4337 Clouds 22 1015 35 10000 1.5 310 16:38 15.11.2019
4338 Clouds 22 1015 35 10000 1.5 310 16:19 15.11.2019
4339 Clouds 24 1015 33 10000 2.6 340 15:39 15.11.2019
4340 Clouds 24 1015 33 10000 2.6 340 15:20 15.11.2019
4341 Clouds 26 1015 29 10000 4.1 330 14:57 15.11.2019
4342 Clouds 26 1015 29 10000 4.1 330 14:38 15.11.2019
4343 Clouds 26 1015 29 10000 4.1 330 14:20 15.11.2019
4344 Clouds 27 1015 30 10000 3.6 330 13:58 15.11.2019
4345 Clouds 27 1015 30 10000 3.6 330 13:39 15.11.2019
4346 Clouds 27 1015 30 10000 3.6 330 13:21 15.11.2019
4347 Clouds 27 1015 28 10000 3.6 330 12:59 15.11.2019
4348 Clouds 27 1015 28 10000 3.6 330 12:40 15.11.2019
4349 Clouds 27 1015 28 10000 3.6 330 12:20 15.11.2019
4350 Clouds 28 1016 23 10000 3.1 340 11:58 15.11.2019
4351 Clouds 28 1016 23 10000 3.1 340 11:39 15.11.2019
4352 Clouds 28 1016 23 10000 3.1 340 11:20 15.11.2019
4353 Clouds 26 1017 29 10000 2.1 350 10:56 15.11.2019
4354 Clouds 26 1017 29 10000 2.1 350 10:38 15.11.2019
4355 Clouds 26 1017 29 10000 2.1 350 10:18 15.11.2019
4356 Clouds 25 1018 33 10000 3.1 340 09:41 15.11.2019
4357 Clouds 25 1018 33 10000 3.1 340 09:20 15.11.2019
4358 Clouds 23 1018 43 9000 3.1 340 08:45 15.11.2019
4359 Clouds 23 1018 43 9000 3.1 340 08:23 15.11.2019
4360 Clouds 21 1018 52 9000 2.6 350 07:49 15.11.2019
4361 Clouds 21 1018 52 9000 2.6 350 07:29 15.11.2019
4362 Clouds 17 1018 67 7000 1.5 310 06:59 15.11.2019
4363 Clouds 17 1018 67 7000 1.5 310 06:34 15.11.2019
4364 Clouds 16 1018 67 6000 1.5 290 05:50 15.11.2019
4365 Clouds 16 1018 67 6000 1.5 290 05:28 15.11.2019
4366 Clouds 16 1017 67 8000 1.5 340 04:40 15.11.2019
4367 Clouds 16 1017 67 7000 1.5 350 03:32 15.11.2019
4368 Clouds 15 1017 72 6000 2.6 350 02:23 15.11.2019
4369 Clear 16 1017 63 7000 1.5 230 01:46 15.11.2019
4370 Clear 16 1017 63 7000 1.5 230 01:24 15.11.2019
4371 Clear 17 1017 59 8000 1.5 20 00:35 15.11.2019
4372 Clear 16 1017 67 8000 0.5 0 23:58 14.11.2019
4373 Clear 16 1017 67 8000 0.5 0 23:39 14.11.2019
4374 Clear 16 1017 67 8000 0.5 0 23:21 14.11.2019
4375 Clear 18 1017 55 9000 0.5 20 22:41 14.11.2019
4376 Clear 18 1017 55 9000 0.5 20 22:22 14.11.2019
4377 Clear 19 1017 55 7000 2.6 40 21:57 14.11.2019
4378 Clear 19 1017 55 7000 2.6 40 21:39 14.11.2019
4379 Clear 19 1017 55 7000 2.6 40 21:39 14.11.2019
4380 Clear 19 1017 55 7000 2.6 40 21:21 14.11.2019
4381 Clear 19 1017 48 6000 1 40 20:54 14.11.2019
4382 Clear 19 1017 48 6000 1 40 20:36 14.11.2019
4383 Clouds 19 1017 48 6000 1 40 20:18 14.11.2019
4384 Clouds 19 1017 52 7000 1 20 19:54 14.11.2019
4385 Clouds 19 1017 52 7000 1 20 19:36 14.11.2019
4386 Clouds 19 1017 52 7000 1 20 19:18 14.11.2019
4387 Clouds 22 1017 36 0 1.44 165 18:41 14.11.2019
4388 Clouds 21 1017 43 8000 2.1 50 18:22 14.11.2019
4389 Clouds 21 1017 43 8000 2.1 50 17:57 14.11.2019
4390 Clouds 21 1017 43 8000 2.1 50 17:37 14.11.2019
4391 Clouds 21 1017 43 8000 2.1 50 17:19 14.11.2019
4392 Clouds 23 1017 35 10000 3.01 139 16:57 14.11.2019
4393 Clouds 23 1017 35 10000 3.01 139 16:57 14.11.2019
4394 Clouds 23 1017 35 10000 3.01 139 16:37 14.11.2019
4395 Clouds 23 1017 35 10000 3.01 139 16:19 14.11.2019
4396 Clouds 23 1017 35 10000 3.01 139 16:19 14.11.2019
4397 Clouds 25 1017 31 10000 1.5 110 15:57 14.11.2019
4398 Clouds 25 1017 31 10000 1.5 110 15:38 14.11.2019
4399 Clouds 25 1017 31 10000 1.5 110 15:19 14.11.2019
4400 Clouds 25 1017 31 10000 1.5 110 15:19 14.11.2019
4401 Clouds 27 1017 28 10000 2.6 110 14:46 14.11.2019
4402 Clouds 27 1017 28 10000 2.6 110 14:23 14.11.2019
4403 Clouds 28 1017 28 10000 2.1 90 13:57 14.11.2019
4404 Clouds 28 1017 28 10000 2.1 90 13:39 14.11.2019
4405 Clouds 28 1017 28 10000 2.1 90 13:20 14.11.2019
4406 Clouds 27 1017 30 10000 1.5 40 12:56 14.11.2019
4407 Clouds 27 1017 30 10000 1.5 40 12:37 14.11.2019
4408 Clouds 27 1017 30 10000 1.5 40 12:19 14.11.2019
4409 Clouds 27 1017 28 10000 2.1 60 11:39 14.11.2019
4410 Clouds 27 1017 28 10000 2.1 60 11:21 14.11.2019
4411 Clouds 26 1018 34 10000 2.1 140 10:59 14.11.2019
4412 Clouds 26 1018 34 10000 2.1 140 10:41 14.11.2019
4413 Clouds 26 1018 34 10000 2.1 140 10:20 14.11.2019
4414 Clouds 25 1018 33 9000 1.5 210 09:57 14.11.2019
4415 Clouds 27 1018 28 0 3.1 167 09:39 14.11.2019
4416 Clouds 24 1019 38 10000 1.5 200 09:21 14.11.2019
4417 Clouds 24 1019 38 10000 1.5 200 08:47 14.11.2019
4418 Clouds 24 1019 38 10000 1.5 200 08:26 14.11.2019
4419 Clouds 22 1019 43 9000 1 0 07:57 14.11.2019
4420 Clouds 22 1019 43 9000 1 0 07:38 14.11.2019
4421 Clouds 22 1019 43 9000 1 0 07:19 14.11.2019
4422 Clouds 19 1019 52 6000 2.1 200 06:43 14.11.2019
4423 Clouds 19 1019 52 6000 2.1 200 06:19 14.11.2019
4424 Clouds 16 1018 67 10000 2.1 170 04:48 14.11.2019
4425 Clouds 16 1017 77 10000 1.25 14 04:26 14.11.2019
4426 Clouds 19 1017 59 10000 1.25 14 02:49 14.11.2019
4427 Clouds 19 1017 59 10000 1.25 14 02:28 14.11.2019
4428 Clouds 19 1017 55 10000 1 10 01:34 14.11.2019
4429 Rain 19 1017 63 10000 1.5 40 00:55 14.11.2019
4430 Rain 19 1017 63 10000 1.5 40 00:34 14.11.2019
4431 Rain 20 1017 49 10000 1 0 23:58 13.11.2019
4432 Rain 20 1017 49 10000 1 0 23:37 13.11.2019
4433 Clouds 20 1017 49 10000 1 0 23:18 13.11.2019
4434 Clouds 19 1017 52 10000 1 130 22:41 13.11.2019
4435 Clouds 19 1017 52 10000 1 130 22:22 13.11.2019
4436 Clouds 18 1018 48 10000 1 0 21:57 13.11.2019
4437 Clouds 18 1018 48 10000 1 0 21:39 13.11.2019
4438 Clouds 18 1018 48 10000 1 0 21:20 13.11.2019
4439 Clouds 17 1018 51 10000 0.5 0 20:57 13.11.2019
4440 Clouds 17 1018 51 10000 0.5 0 20:38 13.11.2019
4441 Clouds 17 1018 51 10000 0.5 0 20:19 13.11.2019
4442 Clouds 18 1017 48 10000 0.5 0 19:58 13.11.2019
4443 Clouds 18 1017 48 10000 0.5 0 19:40 13.11.2019
4444 Clouds 18 1017 48 10000 0.5 0 19:18 13.11.2019
4445 Clouds 21 1017 40 10000 2.74 315 18:55 13.11.2019
4446 Clouds 21 1017 40 10000 2.74 315 18:36 13.11.2019
4447 Clouds 21 1017 40 10000 2.74 315 18:18 13.11.2019
4448 Clouds 21 1017 40 10000 0.5 0 17:56 13.11.2019
4449 Clouds 21 1017 40 10000 0.5 0 17:36 13.11.2019
4450 Clouds 21 1017 40 10000 0.5 0 17:18 13.11.2019
4451 Clouds 23 1017 31 10000 2.1 230 16:56 13.11.2019
4452 Clouds 23 1017 31 10000 2.1 230 16:37 13.11.2019
4453 Clouds 23 1017 31 10000 2.1 230 16:18 13.11.2019
4454 Clouds 26 1016 26 10000 1 260 15:55 13.11.2019
4455 Clouds 26 1016 26 10000 1 260 15:36 13.11.2019
4456 Clouds 26 1016 26 10000 1 260 15:18 13.11.2019
4457 Clouds 27 1016 24 10000 2.6 260 14:39 13.11.2019
4458 Clouds 27 1016 24 10000 2.6 260 14:20 13.11.2019
4459 Clouds 27 1016 26 10000 3.1 290 13:38 13.11.2019
4460 Clouds 27 1016 26 10000 3.1 290 13:19 13.11.2019
4461 Clouds 25 1016 29 10000 2.6 260 12:58 13.11.2019
4462 Clouds 25 1016 29 10000 2.6 260 12:40 13.11.2019
4463 Clouds 25 1016 29 10000 2.6 260 12:21 13.11.2019
4464 Clouds 27 1017 26 10000 4.1 270 11:55 13.11.2019
4465 Clouds 27 1017 26 10000 4.1 270 11:36 13.11.2019
4466 Clouds 27 1017 26 10000 4.1 270 11:18 13.11.2019
4467 Clouds 25 1017 33 10000 3.1 260 10:54 13.11.2019
4468 Clouds 25 1017 33 10000 3.1 260 10:36 13.11.2019
4469 Clouds 25 1017 33 10000 3.1 260 10:18 13.11.2019
4470 Clouds 24 1018 36 10000 4.1 290 09:41 13.11.2019
4471 Clouds 24 1018 36 10000 4.1 290 09:20 13.11.2019
4472 Clouds 24 1018 36 10000 4.1 290 09:20 13.11.2019
4473 Clouds 22 1018 40 10000 3.1 280 08:41 13.11.2019
4474 Clouds 22 1018 40 10000 3.1 280 08:22 13.11.2019
4475 Clouds 19 1018 52 9000 3.1 300 07:58 13.11.2019
4476 Clouds 19 1018 52 9000 3.1 300 07:39 13.11.2019
4477 Clouds 19 1018 52 9000 3.1 300 07:18 13.11.2019
4478 Clouds 24 1018 14 0 2.97 312 06:41 13.11.2019
4479 Clouds 14 1017 58 8000 1 280 06:18 13.11.2019
4480 Clouds 14 1017 58 8000 1 280 05:47 13.11.2019
4481 Clouds 13 1017 58 9000 1.5 270 04:59 13.11.2019
4482 Clouds 13 1017 62 9000 0.5 320 03:56 13.11.2019
4483 Clouds 13 1017 62 9000 0.5 320 03:56 13.11.2019
4484 Clouds 14 1017 50 9000 0.5 260 01:51 13.11.2019
4485 Clouds 14 1017 50 9000 0.5 260 01:27 13.11.2019
4486 Clouds 14 1017 50 9000 0.5 260 01:27 13.11.2019
4487 Clouds 14 1017 50 9000 0.5 260 00:43 13.11.2019
4488 Clouds 15 1017 51 9000 1.5 260 23:56 12.11.2019
4489 Clouds 15 1017 51 9000 1.5 260 23:37 12.11.2019
4490 Clouds 15 1017 51 9000 1.5 260 23:18 12.11.2019
4491 Clouds 16 1017 51 10000 1 0 22:42 12.11.2019
4492 Clouds 16 1017 51 10000 1 0 22:19 12.11.2019
4493 Clouds 17 1017 45 9000 1 240 21:56 12.11.2019
4494 Clouds 17 1017 45 9000 1 240 21:38 12.11.2019
4495 Clouds 17 1017 45 9000 1 240 21:19 12.11.2019
4496 Clouds 18 1017 42 9000 0.5 0 20:55 12.11.2019
4497 Clouds 18 1017 42 9000 0.5 0 20:36 12.11.2019
4498 Clouds 18 1017 42 9000 0.5 0 20:18 12.11.2019
4499 Clouds 22 1016 16 0 2.61 6 19:55 12.11.2019
4500 Clouds 22 1016 16 0 2.61 6 19:55 12.11.2019
4501 Clouds 22 1016 16 0 2.61 6 19:37 12.11.2019
4502 Clouds 20 1017 37 9000 1.5 280 19:18 12.11.2019
4503 Clouds 20 1017 37 9000 1.5 280 18:55 12.11.2019
4504 Clouds 20 1017 37 9000 1.5 280 18:36 12.11.2019
4505 Clouds 20 1017 37 9000 1.5 280 18:18 12.11.2019
4506 Clouds 22 1017 35 9000 2.6 270 17:55 12.11.2019
4507 Clouds 22 1017 35 9000 2.6 270 17:36 12.11.2019
4508 Clouds 22 1017 35 9000 2.6 270 17:36 12.11.2019
4509 Clouds 22 1017 35 9000 2.6 270 17:36 12.11.2019
4510 Clouds 22 1017 35 9000 2.6 270 17:36 12.11.2019
4511 Clouds 22 1017 35 9000 2.6 270 17:18 12.11.2019
4512 Clear 23 1017 35 10000 2.6 260 16:43 12.11.2019
4513 Clear 23 1017 35 10000 2.6 260 16:24 12.11.2019
4514 Clear 25 1017 31 9000 2.6 240 15:57 12.11.2019
4515 Clear 25 1017 31 9000 2.6 240 15:37 12.11.2019
4516 Clear 25 1017 31 9000 2.6 240 15:18 12.11.2019
4517 Clear 27 1017 24 10000 3.1 280 14:42 12.11.2019
4518 Clear 27 1017 24 10000 3.1 280 14:21 12.11.2019
4519 Clear 27 1017 26 10000 3.1 260 13:59 12.11.2019
4520 Clear 27 1017 26 10000 3.1 260 13:40 12.11.2019
4521 Clear 27 1017 26 10000 3.1 260 13:20 12.11.2019
4522 Clear 27 1017 24 10000 3.1 240 12:59 12.11.2019
4523 Clear 27 1017 24 10000 3.1 240 12:39 12.11.2019
4524 Clear 27 1017 24 10000 3.1 240 12:18 12.11.2019
4525 Clear 27 1017 22 10000 1.5 0 11:54 12.11.2019
4526 Clear 27 1017 22 10000 1.5 0 11:36 12.11.2019
4527 Clear 27 1017 22 10000 1.5 0 11:18 12.11.2019
4528 Clear 26 1018 27 9000 2.6 250 10:55 12.11.2019
4529 Clear 26 1018 27 9000 2.6 250 10:36 12.11.2019
4530 Clear 26 1018 27 9000 2.6 250 10:36 12.11.2019
4531 Clear 26 1018 27 9000 2.6 250 10:18 12.11.2019
4532 Clear 26 1018 26 9000 2.1 250 09:39 12.11.2019
4533 Clear 26 1018 26 9000 2.1 250 09:19 12.11.2019
4534 Clear 24 1019 29 8000 1 0 08:49 12.11.2019
4535 Haze 21 1019 40 3600 1 0 08:29 12.11.2019
4536 Haze 21 1019 40 3600 1 0 07:42 12.11.2019
4537 Haze 21 1019 40 3600 1 0 07:24 12.11.2019
4538 Mist 16 1018 55 2600 1 320 06:53 12.11.2019
4539 Mist 16 1018 55 2600 1 320 06:26 12.11.2019
4540 Clear 12 1018 66 3200 1 290 05:53 12.11.2019
4541 Clear 12 1018 62 5000 2.1 300 04:56 12.11.2019
4542 Clear 12 1018 62 5000 2.1 300 04:20 12.11.2019
4543 Clear 14 1017 54 10000 1 330 02:39 12.11.2019
4544 Clear 13 1017 54 10000 1.5 260 01:27 12.11.2019
4545 Clear 15 1017 47 10000 0.5 0 00:56 12.11.2019
4546 Clear 15 1017 47 10000 0.5 0 00:37 12.11.2019
4547 Clear 14 1017 47 10000 0.5 200 23:56 11.11.2019
4548 Clear 14 1017 47 10000 0.5 200 23:38 11.11.2019
4549 Clear 14 1017 47 10000 0.5 200 23:18 11.11.2019
4550 Clear 16 1017 59 10000 0.5 0 22:39 11.11.2019
4551 Clear 16 1017 59 10000 0.5 0 22:20 11.11.2019
4552 Clear 16 1017 51 10000 0.5 70 21:58 11.11.2019
4553 Clear 16 1017 51 10000 0.5 70 21:39 11.11.2019
4554 Clear 16 1017 51 10000 0.5 70 21:20 11.11.2019
4555 Clear 16 1017 51 10000 0.5 70 21:20 11.11.2019
4556 Clear 17 1017 42 10000 2.8 43 20:56 11.11.2019
4557 Clear 17 1017 42 10000 2.8 43 20:38 11.11.2019
4558 Clouds 17 1017 42 10000 2.34 10 20:19 11.11.2019
4559 Clouds 17 1017 39 10000 2.34 10 19:55 11.11.2019
4560 Clouds 17 1017 39 10000 2.34 10 19:37 11.11.2019
4561 Clouds 17 1017 39 10000 2.34 10 19:18 11.11.2019
4562 Clouds 20 1017 34 10000 1.5 150 18:41 11.11.2019
4563 Clouds 20 1017 34 10000 1.5 150 18:21 11.11.2019
4564 Clouds 21 1017 32 10000 1.5 180 17:46 11.11.2019
4565 Clouds 21 1017 32 10000 1.5 180 17:28 11.11.2019
4566 Clear 21 1016 35 10000 1 120 16:58 11.11.2019
4567 Clear 21 1016 35 10000 1 120 16:38 11.11.2019
4568 Clear 21 1016 35 10000 1 120 16:20 11.11.2019
4569 Clear 25 1016 27 10000 1.5 130 15:41 11.11.2019
4570 Clear 25 1016 27 10000 1.5 130 15:20 11.11.2019
4571 Clear 27 1016 21 10000 2.1 190 14:56 11.11.2019
4572 Clear 27 1016 21 10000 2.1 190 14:38 11.11.2019
4573 Clear 27 1016 21 10000 2.1 190 14:20 11.11.2019
4574 Clear 27 1017 21 10000 2.1 230 13:56 11.11.2019
4575 Clear 27 1017 21 10000 2.1 230 13:56 11.11.2019
4576 Clear 27 1017 21 10000 2.1 230 13:36 11.11.2019
4577 Clear 27 1017 21 10000 2.1 230 13:36 11.11.2019
4578 Clear 27 1017 21 10000 2.1 230 13:18 11.11.2019
4579 Clear 27 1017 21 10000 2.1 230 12:55 11.11.2019
4580 Clear 27 1017 21 10000 2.1 230 12:37 11.11.2019
4581 Clear 27 1017 21 10000 2.1 230 12:19 11.11.2019
4582 Clear 27 1017 24 10000 2.6 210 11:41 11.11.2019
4583 Clear 27 1017 24 10000 2.6 210 11:21 11.11.2019
4584 Clear 26 1018 26 10000 3.1 170 10:44 11.11.2019
4585 Clear 26 1018 26 10000 3.1 170 10:20 11.11.2019
4586 Clear 25 1019 33 9000 2.1 180 09:59 11.11.2019
4587 Clear 25 1019 33 9000 2.1 180 09:41 11.11.2019
4588 Clear 25 1019 33 9000 2.1 180 09:20 11.11.2019
4589 Clear 23 1019 35 7000 1.5 170 08:43 11.11.2019
4590 Clear 23 1019 35 7000 1.5 170 08:23 11.11.2019
4591 Clear 19 1020 45 6000 1.5 160 07:57 11.11.2019
4592 Clear 19 1020 45 6000 1.5 160 07:57 11.11.2019
4593 Clear 19 1020 45 6000 1.5 160 07:38 11.11.2019
4594 Clear 19 1020 45 6000 1.5 160 07:19 11.11.2019
4595 Clear 14 1019 58 4100 1 130 06:56 11.11.2019
4596 Clear 14 1019 58 4100 1 130 06:37 11.11.2019
4597 Clear 14 1019 58 4100 1 130 06:19 11.11.2019
4598 Clouds 12 1019 62 5000 2.1 130 05:43 11.11.2019
4599 Clouds 12 1018 71 8000 1.5 120 03:27 11.11.2019
4600 Clouds 11 1018 71 8000 2.6 46 02:33 11.11.2019
4601 Clear 12 1018 66 8000 1 290 01:58 11.11.2019
4602 Clear 12 1018 66 8000 1 290 01:36 11.11.2019
4603 Clear 13 1018 58 8000 2.1 170 00:55 11.11.2019
4604 Clear 13 1018 58 8000 2.1 170 00:33 11.11.2019
4605 Clear 15 1018 54 10000 1 90 23:58 10.11.2019
4606 Clear 15 1018 54 10000 1 90 23:37 10.11.2019
4607 Clear 15 1018 54 10000 1 90 23:19 10.11.2019
4608 Clear 14 1017 62 10000 1 360 22:56 10.11.2019
4609 Clear 14 1017 62 10000 1 360 22:37 10.11.2019
4610 Clear 14 1017 62 10000 1 360 22:19 10.11.2019
4611 Clear 14 1018 54 9000 0.85 60 21:55 10.11.2019
4612 Clear 14 1018 54 9000 0.85 60 21:36 10.11.2019
4613 Clear 14 1018 54 9000 0.85 60 21:18 10.11.2019
4614 Clear 16 1018 51 10000 0.5 0 20:41 10.11.2019
4615 Clear 16 1018 51 10000 0.5 0 20:22 10.11.2019
4616 Clear 16 1018 51 10000 0.5 0 20:22 10.11.2019
4617 Clear 18 1017 48 10000 1 160 19:56 10.11.2019
4618 Clear 18 1017 48 10000 1 160 19:56 10.11.2019
4619 Clear 18 1017 48 10000 1 160 19:37 10.11.2019
4620 Clear 18 1017 48 10000 1 160 19:37 10.11.2019
4621 Clear 18 1017 48 10000 1 160 19:18 10.11.2019
4622 Clear 19 1017 45 9000 2.6 200 18:58 10.11.2019
4623 Clear 19 1017 45 9000 2.6 200 18:58 10.11.2019
4624 Clear 19 1017 45 9000 2.6 200 18:58 10.11.2019
4625 Clear 19 1017 45 9000 2.6 200 18:39 10.11.2019
4626 Clear 19 1017 45 9000 2.6 200 18:19 10.11.2019
4627 Clear 19 1017 45 9000 2.6 200 18:19 10.11.2019
4628 Clear 21 1017 40 10000 2.1 250 17:56 10.11.2019
4629 Clear 21 1017 40 10000 2.1 250 17:38 10.11.2019
4630 Clear 21 1017 40 10000 2.1 250 17:19 10.11.2019
4631 Clear 23 1016 33 10000 1 0 16:57 10.11.2019
4632 Clear 23 1016 33 10000 1 0 16:38 10.11.2019
4633 Clear 23 1016 33 10000 1 0 16:20 10.11.2019
4634 Clear 25 1016 31 10000 2.1 330 15:55 10.11.2019
4635 Clear 25 1016 31 10000 2.1 330 15:36 10.11.2019
4636 Clear 25 1016 31 10000 2.1 330 15:36 10.11.2019
4637 Clear 25 1016 31 10000 2.1 330 15:18 10.11.2019
4638 Clear 28 1016 26 10000 2.6 340 14:41 10.11.2019
4639 Clear 28 1016 26 10000 2.6 340 14:23 10.11.2019
4640 Clear 28 1016 26 10000 3.1 330 13:58 10.11.2019
4641 Clear 28 1016 26 10000 3.1 330 13:40 10.11.2019
4642 Clear 28 1016 26 10000 3.1 330 13:20 10.11.2019
4643 Clear 29 1016 23 10000 1.5 0 12:44 10.11.2019
4644 Clear 29 1016 23 10000 1.5 0 12:21 10.11.2019
4645 Clear 28 1017 24 10000 2.6 360 11:57 10.11.2019
4646 Clear 28 1017 24 10000 2.6 360 11:57 10.11.2019
4647 Clear 28 1017 24 10000 2.6 360 11:39 10.11.2019
4648 Clear 28 1017 24 10000 2.6 360 11:21 10.11.2019
4649 Clear 27 1017 32 6000 2.6 290 10:59 10.11.2019
4650 Clear 27 1017 32 6000 2.6 290 10:40 10.11.2019
4651 Clear 27 1017 32 6000 2.6 290 10:20 10.11.2019
4652 Clear 26 1018 31 6000 1.5 320 09:43 10.11.2019
4653 Clear 26 1018 31 6000 1.5 320 09:24 10.11.2019
4654 Clear 23 1018 35 6000 1 0 08:56 10.11.2019
4655 Clear 23 1018 35 6000 1 0 08:36 10.11.2019
4656 Clear 23 1018 35 6000 1 0 08:18 10.11.2019
4657 Haze 19 1018 45 5000 1 0 07:42 10.11.2019
4658 Haze 19 1018 45 5000 1 0 07:23 10.11.2019
4659 Haze 16 1018 55 4600 1 0 06:33 10.11.2019
4660 Haze 10 1017 71 4600 1.5 320 05:33 10.11.2019
4661 Clear 10 1016 71 7000 1 300 03:22 10.11.2019
4662 Clear 12 1016 66 6000 2.1 310 01:53 10.11.2019
4663 Clear 12 1016 66 6000 2.1 310 01:19 10.11.2019
4664 Clear 13 1016 62 7000 1.5 300 00:41 10.11.2019
4665 Clear 13 1016 62 7000 1.5 300 00:41 10.11.2019
4666 Clear 14 1016 54 6000 2.1 260 23:56 09.11.2019
4667 Clear 14 1016 54 6000 2.1 260 23:37 09.11.2019
4668 Clear 14 1016 54 6000 2.1 260 23:18 09.11.2019
4669 Clear 13 1016 62 6000 1.5 290 22:41 09.11.2019
4670 Clear 13 1016 62 6000 1.5 290 22:21 09.11.2019
4671 Clear 15 1016 54 6000 1.5 300 21:56 09.11.2019
4672 Clear 15 1016 54 6000 1.5 300 21:56 09.11.2019
4673 Clear 15 1016 54 6000 1.5 300 21:37 09.11.2019
4674 Clear 15 1016 54 6000 1.5 300 21:19 09.11.2019
4675 Clear 17 1016 48 8000 1 290 20:43 09.11.2019
4676 Clear 17 1016 48 8000 1 290 20:22 09.11.2019
4677 Clear 18 1016 45 9000 1 0 19:58 09.11.2019
4678 Clear 18 1016 45 9000 1 0 19:39 09.11.2019
4679 Clear 18 1016 45 9000 1 0 19:21 09.11.2019
4680 Clear 18 1016 45 10000 2.05 5 18:56 09.11.2019
4681 Clear 18 1016 45 10000 2.05 5 18:38 09.11.2019
4682 Clear 18 1016 45 10000 2.05 5 18:18 09.11.2019
4683 Clear 20 1015 40 10000 0.5 300 17:41 09.11.2019
4684 Clear 20 1015 40 10000 0.5 300 17:22 09.11.2019
4685 Clear 22 1015 37 10000 1 310 16:56 09.11.2019
4686 Clear 22 1015 37 10000 1 310 16:37 09.11.2019
4687 Clear 22 1015 37 10000 1 310 16:18 09.11.2019
4688 Clear 26 1015 27 10000 2.1 260 15:41 09.11.2019
4689 Clear 26 1015 27 10000 2.1 260 15:23 09.11.2019
4690 Clear 28 1015 24 10000 1.5 270 14:46 09.11.2019
4691 Clear 28 1015 24 10000 1.5 270 14:23 09.11.2019
4692 Clear 29 1015 23 10000 1.5 260 13:58 09.11.2019
4693 Clear 29 1015 23 10000 1.5 260 13:40 09.11.2019
4694 Clear 29 1015 23 10000 1.5 260 13:21 09.11.2019
4695 Clear 29 1015 23 10000 1.5 230 12:58 09.11.2019
4696 Clear 29 1015 23 10000 1.5 230 12:40 09.11.2019
4697 Clear 29 1015 23 10000 1.5 230 12:21 09.11.2019
4698 Clear 28 1015 26 10000 2.1 260 11:48 09.11.2019
4699 Clear 28 1015 26 10000 2.1 260 11:22 09.11.2019
4700 Clear 26 1016 29 9000 2.1 0 10:58 09.11.2019
4701 Clear 26 1016 29 9000 2.1 0 10:39 09.11.2019
4702 Clear 26 1016 29 9000 2.1 0 10:19 09.11.2019
4703 Clear 24 1016 31 10000 1.5 280 09:44 09.11.2019
4704 Clear 24 1016 31 10000 1.5 280 09:21 09.11.2019
4705 Clear 20 1017 37 10000 2.1 280 08:57 09.11.2019
4706 Clear 20 1017 37 10000 2.1 280 08:38 09.11.2019
4707 Clear 20 1017 37 10000 2.1 280 08:19 09.11.2019
4708 Clear 17 1017 45 10000 1.5 330 07:43 09.11.2019
4709 Clear 17 1017 45 10000 1.5 330 07:22 09.11.2019
4710 Clear 14 1017 47 10000 2.6 320 06:48 09.11.2019
4711 Clear 14 1017 47 10000 2.6 320 06:30 09.11.2019
4712 Clear 11 1016 57 10000 2.6 320 05:42 09.11.2019
4713 Clear 10 1016 57 10000 2.1 310 04:51 09.11.2019
4714 Clear 12 1015 54 10000 2.6 310 03:35 09.11.2019
4715 Clear 11 1015 57 10000 3.1 320 02:41 09.11.2019
4716 Clear 13 1015 62 10000 2.1 280 01:54 09.11.2019
4717 Clear 15 1015 54 10000 2.1 260 00:49 09.11.2019
4718 Clear 15 1015 54 10000 2.1 260 00:31 09.11.2019
4719 Clear 15 1015 51 10000 2.1 260 23:57 08.11.2019
4720 Clear 15 1015 51 10000 2.1 260 23:38 08.11.2019
4721 Clear 15 1015 51 10000 2.1 260 23:19 08.11.2019
4722 Clear 16 1015 44 10000 1.5 310 22:42 08.11.2019
4723 Clear 16 1015 44 10000 1.5 310 22:21 08.11.2019
4724 Clear 18 1015 36 10000 2.1 270 21:56 08.11.2019
4725 Clear 18 1015 36 10000 2.1 270 21:37 08.11.2019
4726 Clear 18 1015 36 10000 2.1 270 21:18 08.11.2019
4727 Clear 19 1015 37 10000 2.1 270 20:41 08.11.2019
4728 Clear 19 1015 37 10000 2.1 270 20:21 08.11.2019
4729 Clear 19 1015 37 10000 2.1 280 19:58 08.11.2019
4730 Clear 19 1015 37 10000 2.1 280 19:58 08.11.2019
4731 Clear 19 1015 37 10000 2.1 280 19:38 08.11.2019
4732 Clear 19 1015 37 10000 2.1 280 19:38 08.11.2019
4733 Clear 19 1015 37 10000 2.1 280 19:18 08.11.2019
4734 Clear 19 1015 37 10000 2.1 280 19:18 08.11.2019
4735 Clear 19 1015 37 10000 2.1 280 19:18 08.11.2019
4736 Clear 21 1015 37 10000 2.6 260 18:55 08.11.2019
4737 Clear 21 1015 37 10000 2.6 260 18:37 08.11.2019
4738 Clear 21 1015 37 10000 2.6 260 18:19 08.11.2019
4739 Clear 21 1015 40 10000 2.6 260 17:55 08.11.2019
4740 Clear 21 1015 40 10000 2.6 260 17:37 08.11.2019
4741 Clear 21 1015 40 10000 2.6 260 17:18 08.11.2019
4742 Clear 22 1014 35 10000 2.1 270 16:57 08.11.2019
4743 Clear 22 1014 35 10000 2.1 270 16:39 08.11.2019
4744 Clear 22 1014 35 10000 2.1 270 16:19 08.11.2019
4745 Clear 25 1014 31 10000 2.6 330 15:56 08.11.2019
4746 Clear 25 1014 31 10000 2.6 330 15:38 08.11.2019
4747 Clear 25 1014 31 10000 2.6 330 15:19 08.11.2019
4748 Clear 28 1014 24 10000 3.6 330 14:55 08.11.2019
4749 Clear 28 1014 24 10000 3.6 330 14:36 08.11.2019
4750 Clear 28 1014 24 10000 3.6 330 14:36 08.11.2019
4751 Clear 28 1014 24 10000 3.6 330 14:18 08.11.2019
4752 Clear 28 1014 23 10000 3.6 310 13:43 08.11.2019
4753 Clear 28 1014 23 10000 3.6 310 13:22 08.11.2019
4754 Clear 28 1014 24 10000 3.6 280 12:58 08.11.2019
4755 Clear 28 1014 24 10000 3.6 280 12:39 08.11.2019
4756 Clear 28 1014 24 10000 3.6 280 12:21 08.11.2019
4757 Clear 27 1015 30 10000 4.1 270 11:55 08.11.2019
4758 Clear 27 1015 30 10000 4.1 270 11:37 08.11.2019
4759 Clear 27 1015 30 10000 4.1 270 11:19 08.11.2019
4760 Clear 26 1016 34 10000 3.6 280 10:43 08.11.2019
4761 Clear 26 1016 34 10000 3.6 280 10:22 08.11.2019
4762 Clear 24 1016 33 10000 4.1 260 09:59 08.11.2019
4763 Clear 24 1016 33 10000 4.1 260 09:41 08.11.2019
4764 Clear 24 1016 33 10000 4.1 260 09:20 08.11.2019
4765 Clear 22 1017 37 10000 3.1 270 08:47 08.11.2019
4766 Clear 22 1017 37 10000 3.1 270 08:29 08.11.2019
4767 Clear 18 1017 48 10000 3.1 250 07:57 08.11.2019
4768 Clear 18 1017 48 10000 3.1 250 07:39 08.11.2019
4769 Clear 18 1017 48 10000 3.1 250 07:20 08.11.2019
4770 Clear 17 1017 45 10000 2.6 270 06:40 08.11.2019
4771 Clear 17 1017 45 10000 2.6 270 06:20 08.11.2019
4772 Clear 13 1016 50 10000 2.1 280 05:39 08.11.2019
4773 Clear 15 1015 47 10000 2.1 280 04:43 08.11.2019
4774 Clear 13 1015 54 10000 2.6 310 03:43 08.11.2019
4775 Clear 13 1015 54 10000 2.6 310 03:20 08.11.2019
4776 Clear 14 1015 54 10000 2.1 320 02:26 08.11.2019
4777 Clear 13 1015 58 10000 2.6 310 01:46 08.11.2019
4778 Clear 13 1015 58 10000 2.6 310 01:18 08.11.2019
4779 Clear 16 1015 48 10000 2.6 280 00:24 08.11.2019
4780 Clear 14 1015 54 10000 1.5 290 23:57 07.11.2019
4781 Clear 14 1015 54 10000 1.5 290 23:39 07.11.2019
4782 Clear 14 1015 54 10000 1.5 290 23:20 07.11.2019
4783 Clear 17 1015 48 10000 2.6 250 22:42 07.11.2019
4784 Clear 17 1015 48 10000 2.6 250 22:21 07.11.2019
4785 Clear 17 1015 48 10000 2.1 220 21:55 07.11.2019
4786 Clear 17 1015 48 10000 2.1 220 21:37 07.11.2019
4787 Clear 16 1015 48 10000 2.1 220 21:19 07.11.2019
4788 Clear 16 1016 45 10000 1.5 250 20:55 07.11.2019
4789 Clear 16 1016 45 10000 1.5 250 20:37 07.11.2019
4790 Clear 16 1016 45 10000 1.5 250 20:19 07.11.2019
4791 Clear 18 1015 42 10000 2.1 300 19:42 07.11.2019
4792 Clear 18 1015 42 10000 2.1 300 19:23 07.11.2019
4793 Clear 20 1015 37 10000 2.6 290 18:59 07.11.2019
4794 Clear 20 1015 37 10000 2.6 290 18:40 07.11.2019
4795 Clear 20 1015 37 10000 2.6 290 18:20 07.11.2019
4796 Clear 20 1015 37 10000 2.6 290 18:20 07.11.2019
4797 Clear 22 1015 35 10000 3.1 310 17:59 07.11.2019
4798 Clear 22 1015 35 10000 3.1 310 17:39 07.11.2019
4799 Clear 22 1015 35 10000 3.1 310 17:20 07.11.2019
4800 Clear 23 1015 28 10000 1.5 290 16:58 07.11.2019
4801 Clear 23 1015 28 10000 1.5 290 16:39 07.11.2019
4802 Clear 23 1015 28 10000 1.5 290 16:19 07.11.2019
4803 Clear 26 1014 24 10000 1.5 310 15:54 07.11.2019
4804 Clear 26 1014 24 10000 1.5 310 15:36 07.11.2019
4805 Clear 26 1014 24 10000 1.5 310 15:18 07.11.2019
4806 Clear 29 1014 21 10000 3.1 340 14:43 07.11.2019
4807 Clear 29 1014 21 10000 3.1 340 14:25 07.11.2019
4808 Clear 29 1014 20 10000 3.6 340 13:56 07.11.2019
4809 Clear 29 1014 20 10000 3.6 340 13:38 07.11.2019
4810 Clear 29 1014 20 10000 3.6 340 13:20 07.11.2019
4811 Clear 28 1014 24 10000 4.1 350 12:58 07.11.2019
4812 Clear 28 1014 24 10000 4.1 350 12:39 07.11.2019
4813 Clear 28 1014 24 10000 4.1 350 12:20 07.11.2019
4814 Clear 28 1014 24 10000 4.1 350 12:20 07.11.2019
4815 Clear 27 1015 21 10000 3.6 300 11:44 07.11.2019
4816 Clear 27 1015 21 10000 3.6 300 11:24 07.11.2019
4817 Clear 26 1015 27 10000 5.1 320 10:59 07.11.2019
4818 Clear 26 1015 27 10000 5.1 320 10:40 07.11.2019
4819 Clear 26 1015 27 10000 5.1 320 10:18 07.11.2019
4820 Clear 24 1016 33 10000 3.1 260 09:43 07.11.2019
4821 Clear 24 1016 33 10000 3.1 260 09:22 07.11.2019
4822 Clear 21 1017 35 10000 4.6 290 08:57 07.11.2019
4823 Clear 21 1017 35 10000 4.6 290 08:56 07.11.2019
4824 Clear 21 1017 35 10000 4.6 290 08:55 07.11.2019
4825 Clear 21 1017 35 10000 4.6 290 08:55 07.11.2019
4826 Clear 21 1017 35 10000 4.6 290 08:37 07.11.2019
4827 Clear 21 1017 35 10000 4.6 290 08:18 07.11.2019
4828 Clear 19 1017 42 10000 4.6 300 07:41 07.11.2019
4829 Clear 19 1017 42 10000 4.6 300 07:21 07.11.2019
4830 Clear 19 1017 42 10000 4.6 300 07:21 07.11.2019
4831 Clear 15 1017 59 10000 2.6 280 06:48 07.11.2019
4832 Clear 15 1017 59 10000 2.6 280 06:48 07.11.2019
4833 Clear 15 1017 59 10000 2.6 280 06:28 07.11.2019
4834 Clear 13 1016 62 10000 1.5 270 05:57 07.11.2019
4835 Clear 13 1016 62 10000 1.5 270 05:38 07.11.2019
4836 Clear 13 1016 62 10000 1.5 270 05:19 07.11.2019
4837 Clear 13 1016 62 10000 1.5 270 05:19 07.11.2019
4838 Haze 9 1016 66 6000 2.1 310 04:41 07.11.2019
4839 -273 0 0 0 0 0 02:58 07.11.2019
4840 Clear 14 1015 67 10000 3.1 310 02:57 07.11.2019
4841 Clear 15 1015 62 10000 1.5 300 00:47 07.11.2019
4842 Clear 15 1015 62 10000 1.5 300 00:20 07.11.2019
4843 Clear 17 1015 59 10000 1 320 23:47 06.11.2019
4844 Clear 17 1015 59 10000 1 320 23:22 06.11.2019
4845 Clouds 18 1016 52 10000 1.5 320 22:56 06.11.2019
4846 Clouds 18 1016 52 10000 1.5 320 22:38 06.11.2019
4847 Clouds 18 1016 52 10000 1.5 320 22:18 06.11.2019
4848 Clouds 18 1016 55 10000 2.1 320 21:42 06.11.2019
4849 Clouds 18 1016 55 10000 2.1 320 21:21 06.11.2019
4850 Clear 18 1016 52 10000 1 260 20:59 06.11.2019
4851 Clear 18 1016 52 10000 1 260 20:40 06.11.2019
4852 Clear 18 1016 52 10000 1 260 20:22 06.11.2019
4853 Clear 21 1016 45 10000 2.1 260 19:59 06.11.2019
4854 Clear 21 1016 45 10000 2.1 260 19:40 06.11.2019
4855 Clear 21 1016 45 10000 2.1 260 19:21 06.11.2019
4856 Clear 21 1016 45 10000 2.1 260 19:21 06.11.2019
4857 Clear 20 1016 45 10000 2.1 280 18:58 06.11.2019
4858 Clear 20 1016 45 10000 2.1 280 18:39 06.11.2019
4859 Clear 20 1016 45 10000 2.1 280 18:19 06.11.2019
4860 Clear 21 1015 43 10000 2.1 320 17:58 06.11.2019
4861 Clear 21 1015 43 10000 2.1 320 17:40 06.11.2019
4862 Clear 21 1015 43 10000 2.1 320 17:21 06.11.2019
4863 Clear 21 1015 43 10000 2.1 320 17:21 06.11.2019
4864 Clear 21 1015 43 10000 2.6 300 16:56 06.11.2019
4865 Clear 21 1015 43 10000 2.6 300 16:55 06.11.2019
4866 Clear 21 1015 43 10000 2.6 300 16:37 06.11.2019
4867 Clear 21 1015 43 10000 2.6 300 16:18 06.11.2019
4868 Clear 25 1015 34 10000 4.1 290 15:56 06.11.2019
4869 Clear 25 1015 34 10000 4.1 290 15:37 06.11.2019
4870 Clear 25 1015 34 10000 4.1 290 15:18 06.11.2019
4871 Clear 27 1015 30 10000 4.6 290 14:56 06.11.2019
4872 Clear 27 1015 30 10000 4.6 290 14:38 06.11.2019
4873 Clear 28 1015 30 10000 4.6 290 14:20 06.11.2019
4874 Clear 28 1015 30 10000 6.2 290 13:41 06.11.2019
4875 Clear 28 1015 30 10000 6.2 290 13:41 06.11.2019
4876 Clear 28 1015 30 10000 6.2 290 13:22 06.11.2019
4877 Clear 28 1016 30 10000 6.7 300 12:58 06.11.2019
4878 Clear 28 1016 30 10000 6.7 300 12:40 06.11.2019
4879 Clear 28 1016 30 10000 6.7 300 12:21 06.11.2019
4880 Clear 28 1016 30 10000 6.7 300 12:21 06.11.2019
4881 Clear 28 1016 30 10000 6.7 320 11:58 06.11.2019
4882 Clear 28 1016 30 10000 6.7 320 11:38 06.11.2019
4883 Clear 28 1016 30 10000 6.7 320 11:19 06.11.2019
4884 Clear 26 1017 32 10000 6.7 320 10:57 06.11.2019
4885 Clear 26 1017 32 10000 6.7 320 10:39 06.11.2019
4886 Clear 26 1017 32 10000 6.7 320 10:20 06.11.2019
4887 Clear 26 1017 32 10000 6.7 320 10:20 06.11.2019
4888 Clear 26 1017 32 10000 6.7 320 10:20 06.11.2019
4889 Clear 25 1017 36 10000 6.7 310 09:56 06.11.2019
4890 Clear 25 1017 36 10000 6.7 310 09:36 06.11.2019
4891 Clear 25 1017 36 10000 6.7 310 09:18 06.11.2019
4892 Clear 23 1018 38 10000 6.2 300 08:54 06.11.2019
4893 Clear 23 1018 38 10000 6.2 300 08:36 06.11.2019
4894 Clear 23 1018 38 10000 6.2 300 08:36 06.11.2019
4895 Clear 23 1018 38 10000 6.2 300 08:18 06.11.2019
4896 Clear 23 1018 38 10000 6.2 300 08:18 06.11.2019
4897 Clear 20 1018 46 10000 4.6 300 07:41 06.11.2019
4898 Clear 20 1018 46 10000 4.6 300 07:22 06.11.2019
4899 Clear 17 1018 52 10000 3.1 300 06:47 06.11.2019
4900 Clear 17 1018 52 10000 3.1 300 06:28 06.11.2019
4901 Clear 15 1017 63 10000 3.1 280 04:53 06.11.2019
4902 Clear 13 1017 58 10000 3.1 300 02:28 06.11.2019
4903 Clear 16 1017 51 10000 3.1 320 01:40 06.11.2019
4904 Clear 15 1017 51 10000 3.6 300 00:46 06.11.2019
4905 Clear 18 1017 45 10000 3.6 290 23:58 05.11.2019
4906 Clear 18 1017 45 10000 3.6 290 23:39 05.11.2019
4907 Clear 18 1017 45 10000 3.6 290 23:21 05.11.2019
4908 Clear 16 1017 55 10000 2.6 310 22:55 05.11.2019
4909 Clear 16 1017 55 10000 2.6 310 22:36 05.11.2019
4910 Clear 16 1017 55 10000 2.6 310 22:18 05.11.2019
4911 Clear 20 1017 30 0 4.59 325 21:42 05.11.2019
4912 Clear 17 1018 48 10000 2.6 300 21:21 05.11.2019
4913 Clear 17 1018 48 10000 2.6 300 20:59 05.11.2019
4914 Clear 17 1018 48 10000 2.6 300 20:39 05.11.2019
4915 Clear 17 1018 48 10000 2.6 300 20:20 05.11.2019
4916 Clear 19 1018 42 10000 3.6 300 19:58 05.11.2019
4917 Clear 19 1018 42 10000 3.6 300 19:38 05.11.2019
4918 Clear 19 1018 42 10000 3.6 300 19:20 05.11.2019
4919 Clear 19 1018 43 10000 3.1 290 18:57 05.11.2019
4920 Clear 19 1018 43 10000 3.1 290 18:39 05.11.2019
4921 Clear 19 1018 43 10000 3.1 290 18:20 05.11.2019
4922 Clear 19 1018 43 10000 3.1 290 18:20 05.11.2019
4923 Clear 20 1018 43 10000 2.6 290 17:58 05.11.2019
4924 Clear 20 1018 43 10000 2.6 290 17:38 05.11.2019
4925 Clear 20 1018 43 10000 2.6 290 17:18 05.11.2019
4926 Clear 22 1018 38 10000 3.1 290 16:55 05.11.2019
4927 Clear 22 1018 38 10000 3.1 290 16:37 05.11.2019
4928 Clear 22 1018 38 10000 3.1 290 16:18 05.11.2019
4929 Clear 26 1017 31 10000 3.6 330 15:37 05.11.2019
4930 Clear 28 1017 31 10000 3.6 330 15:19 05.11.2019
4931 Clear 28 1017 26 10000 5.7 340 14:58 05.11.2019
4932 Clear 28 1017 26 10000 5.7 340 14:38 05.11.2019
4933 Clear 28 1017 26 10000 5.7 340 14:20 05.11.2019
4934 Clear 28 1018 25 10000 6.2 320 13:44 05.11.2019
4935 Clear 28 1018 25 10000 6.2 320 13:25 05.11.2019
4936 Clear 28 1018 25 10000 7.2 320 12:59 05.11.2019
4937 Clear 28 1018 25 10000 7.2 320 12:39 05.11.2019
4938 Clear 28 1018 25 10000 7.2 320 12:39 05.11.2019
4939 Clear 28 1018 25 10000 7.2 320 12:20 05.11.2019
4940 Clear 28 1019 28 10000 5.7 330 11:55 05.11.2019
4941 Clear 28 1019 28 10000 5.7 330 11:36 05.11.2019
4942 Clear 28 1019 28 10000 5.7 330 11:36 05.11.2019
4943 Clear 28 1019 28 10000 5.7 330 11:18 05.11.2019
4944 Clear 28 1020 28 10000 6.2 340 10:42 05.11.2019
4945 Clear 28 1020 28 10000 6.2 340 10:42 05.11.2019
4946 Clear 27 1020 28 10000 6.2 340 10:23 05.11.2019
4947 Clear 25 1020 31 10000 6.2 330 09:58 05.11.2019
4948 Clear 25 1020 31 10000 6.2 330 09:39 05.11.2019
4949 Clear 25 1020 31 10000 6.2 330 09:19 05.11.2019
4950 Clear 23 1021 33 10000 5.1 340 08:55 05.11.2019
4951 Clear 23 1021 33 10000 5.1 340 08:36 05.11.2019
4952 Clear 23 1021 33 10000 5.1 340 08:18 05.11.2019
4953 Clear 20 1021 45 10000 4.1 340 07:42 05.11.2019
4954 Clear 20 1021 45 10000 4.1 340 07:23 05.11.2019
4955 Clear 17 1021 51 10000 3.6 310 06:51 05.11.2019
4956 Clear 14 1021 55 10000 2.6 290 05:54 05.11.2019
4957 Clear 14 1021 55 10000 2.6 290 05:36 05.11.2019
4958 Clear 13 1021 62 10000 2.6 300 05:18 05.11.2019
4959 Clear 13 1020 66 10000 3.1 320 04:18 05.11.2019
4960 Clear 12 1020 66 10000 3.1 320 03:24 05.11.2019
4961 Clear 13 1019 67 10000 2.6 320 02:41 05.11.2019
4962 Clear 16 1019 59 10000 2.6 290 01:48 05.11.2019
4963 Clear 16 1019 63 10000 2.1 300 00:41 05.11.2019
4964 Clear 16 1019 63 10000 2.1 300 00:23 05.11.2019
4965 Clear 16 1020 63 10000 2.6 310 23:41 04.11.2019
4966 Clear 16 1020 63 10000 2.6 310 23:19 04.11.2019
4967 Clear 16 1020 63 10000 2.6 310 23:19 04.11.2019
4968 Clear 17 1020 59 10000 3.1 320 22:55 04.11.2019
4969 Clear 17 1020 59 10000 3.1 320 22:37 04.11.2019
4970 Clear 17 1020 59 10000 3.1 320 22:37 04.11.2019
4971 Clear 17 1020 59 10000 3.1 320 22:19 04.11.2019
4972 Clear 19 1020 55 10000 3.6 330 21:54 04.11.2019
4973 Clear 19 1020 55 10000 3.6 330 21:36 04.11.2019
4974 Clear 19 1020 55 10000 3.6 330 21:18 04.11.2019
4975 Clear 19 1020 52 10000 3.6 330 20:55 04.11.2019
4976 Clear 19 1020 52 10000 3.6 330 20:36 04.11.2019
4977 Clear 19 1020 52 10000 3.6 330 20:36 04.11.2019
4978 Clear 19 1020 52 10000 3.6 330 20:18 04.11.2019
4979 Clear 21 1020 49 10000 3.6 330 19:42 04.11.2019
4980 Clear 21 1020 49 10000 3.6 330 19:23 04.11.2019
4981 Clear 20 1020 49 10000 3.6 320 18:59 04.11.2019
4982 Clear 20 1020 49 10000 3.6 320 18:40 04.11.2019
4983 Clear 20 1020 49 10000 3.6 320 18:21 04.11.2019
4984 Clear 22 1019 49 10000 4.1 320 17:59 04.11.2019
4985 Clear 22 1019 49 10000 4.1 320 17:37 04.11.2019
4986 Clear 22 1019 46 10000 4.1 310 17:19 04.11.2019
4987 Clear 24 1018 43 10000 3.1 330 16:44 04.11.2019
4988 Clear 24 1018 43 10000 3.1 330 16:25 04.11.2019
4989 Clear 27 1018 32 10000 3.1 330 15:59 04.11.2019
4990 Clear 27 1018 32 10000 3.1 330 15:41 04.11.2019
4991 Clear 27 1018 32 10000 3.1 330 15:21 04.11.2019
4992 Clear 29 1018 30 10000 4.6 340 14:58 04.11.2019
4993 Clear 29 1018 30 10000 4.6 340 14:40 04.11.2019
4994 Clear 29 1018 30 10000 4.6 340 14:20 04.11.2019
4995 Clear 29 1018 28 10000 6.2 340 13:58 04.11.2019
4996 Clear 29 1018 28 10000 6.2 340 13:40 04.11.2019
4997 Clear 29 1018 28 10000 6.2 340 13:21 04.11.2019
4998 Clear 29 1018 30 10000 5.7 340 12:56 04.11.2019
4999 Clear 29 1018 30 10000 5.7 340 12:38 04.11.2019
5000 Clear 29 1018 30 10000 5.7 340 12:18 04.11.2019
5001 Clear 29 1019 30 10000 6.2 340 11:42 04.11.2019
5002 Clear 29 1019 30 10000 6.2 340 11:23 04.11.2019
5003 Clear 28 1020 32 10000 5.1 350 10:58 04.11.2019
5004 Clear 28 1020 32 10000 5.1 350 10:58 04.11.2019
5005 Clear 28 1020 32 10000 5.1 350 10:39 04.11.2019
5006 Clear 28 1020 32 10000 5.1 350 10:20 04.11.2019
5007 Clear 26 1020 34 10000 5.7 350 09:45 04.11.2019
5008 Clear 26 1020 34 10000 5.7 350 09:27 04.11.2019
5009 Clear 24 1020 38 10000 5.1 350 08:57 04.11.2019
5010 Clear 24 1020 38 10000 5.1 350 08:38 04.11.2019
5011 Clouds 24 1020 38 10000 5.1 350 08:18 04.11.2019
5012 Clouds 22 1021 46 10000 5.1 340 07:43 04.11.2019
5013 Clouds 22 1021 46 10000 5.1 340 07:21 04.11.2019
5014 Clouds 20 1020 60 10000 1.5 340 06:56 04.11.2019
5015 Clouds 20 1020 60 10000 1.5 340 06:18 04.11.2019
5016 Clouds 19 1020 63 10000 1 0 05:46 04.11.2019
5017 Clouds 19 1019 68 10000 3.1 290 04:43 04.11.2019
5018 Clouds 19 1019 68 10000 3.1 290 04:21 04.11.2019
5019 Clouds 20 1019 55 10000 4.1 340 02:32 04.11.2019
5020 Clouds 19 1018 63 10000 5.1 310 01:21 04.11.2019
5021 Clouds 18 1018 63 10000 3.6 320 00:41 04.11.2019
5022 Clouds 17 1018 63 10000 3.6 320 00:20 04.11.2019
5023 Clouds 19 1018 55 10000 2.1 340 23:43 03.11.2019
5024 Clouds 19 1018 55 10000 2.1 340 23:21 03.11.2019
5025 Clouds 19 1018 59 10000 3.1 350 22:59 03.11.2019
5026 Clouds 19 1018 59 10000 3.1 350 22:41 03.11.2019
5027 Clouds 19 1018 59 10000 3.1 350 22:20 03.11.2019
5028 Clouds 19 1018 59 8000 2.6 340 21:58 03.11.2019
5029 Clouds 19 1018 59 8000 2.6 340 21:39 03.11.2019
5030 Clouds 21 1018 59 8000 2.6 340 21:20 03.11.2019
5031 Clear 22 1018 56 7000 1.5 360 20:55 03.11.2019
5032 Clear 22 1018 56 7000 1.5 360 20:36 03.11.2019
5033 Clouds 22 1018 56 7000 1.5 360 20:18 03.11.2019
5034 Clouds 21 1018 59 8000 2.6 340 19:55 03.11.2019
5035 Clouds 21 1018 59 8000 2.6 340 19:37 03.11.2019
5036 Clouds 21 1018 59 8000 2.6 340 19:19 03.11.2019
5037 Clouds 23 1018 49 9000 1.5 10 18:39 03.11.2019
5038 Clouds 24 1018 49 9000 1.5 10 18:19 03.11.2019
5039 Clouds 24 1017 46 9000 2.1 360 17:58 03.11.2019
5040 Clouds 24 1017 46 9000 2.1 360 17:40 03.11.2019
5041 Clouds 24 1017 46 9000 2.1 360 17:19 03.11.2019
5042 Clouds 25 1017 44 10000 2.6 360 16:55 03.11.2019
5043 Clouds 25 1017 44 10000 2.6 360 16:55 03.11.2019
5044 Clouds 25 1017 44 10000 2.6 360 16:55 03.11.2019
5045 Clouds 25 1017 44 10000 2.6 360 16:37 03.11.2019
5046 Clouds 25 1017 44 10000 2.6 360 16:18 03.11.2019
5047 Clouds 27 1016 39 10000 3.1 10 15:54 03.11.2019
5048 Clouds 27 1016 39 10000 3.1 10 15:36 03.11.2019
5049 Clouds 28 1016 39 10000 3.1 10 15:18 03.11.2019
5050 Clouds 28 1016 32 10000 3.6 20 14:40 03.11.2019
5051 Clouds 28 1016 32 10000 3.6 20 14:19 03.11.2019
5052 Clouds 28 1016 32 10000 3.6 20 14:19 03.11.2019
5053 Clouds 28 1016 32 10000 3.6 20 14:19 03.11.2019
5054 Clouds 28 1017 30 10000 3.6 10 13:55 03.11.2019
5055 Clouds 28 1017 30 10000 3.6 10 13:36 03.11.2019
5056 Clouds 28 1017 30 10000 3.6 10 13:18 03.11.2019
5057 Clouds 28 1017 30 10000 3.6 20 12:38 03.11.2019
5058 Clouds 28 1017 30 10000 3.6 20 12:19 03.11.2019
5059 Clear 28 1017 28 10000 2.1 10 11:56 03.11.2019
5060 Clear 28 1017 28 10000 2.1 10 11:37 03.11.2019
5061 Clear 28 1017 28 10000 2.1 10 11:19 03.11.2019
5062 Clear 27 1018 32 10000 2.6 50 10:40 03.11.2019
5063 Clear 27 1018 32 10000 2.6 50 10:22 03.11.2019
5064 Clouds 27 1018 34 9000 1.5 70 09:58 03.11.2019
5065 Clouds 27 1018 34 9000 1.5 70 09:40 03.11.2019
5066 Clouds 27 1018 34 9000 1.5 70 09:21 03.11.2019
5067 Clouds 25 1019 38 9000 2.1 70 08:43 03.11.2019
5068 Clouds 25 1019 38 9000 2.1 70 08:24 03.11.2019
5069 Clouds 25 1019 38 9000 2.1 70 08:24 03.11.2019
5070 Haze 22 1019 46 3100 2.1 40 07:47 03.11.2019
5071 Haze 22 1019 46 3100 2.1 40 07:28 03.11.2019
5072 Haze 20 1018 52 2100 1.5 20 06:53 03.11.2019
5073 Haze 20 1018 52 2100 1.5 20 06:34 03.11.2019
5074 Haze 18 1018 59 2100 1 70 05:40 03.11.2019
5075 Clouds 18 1018 63 6000 2.1 60 04:58 03.11.2019
5076 Clouds 18 1018 63 6000 2.1 60 04:58 03.11.2019
5077 Clouds 18 1018 63 6000 2.1 60 04:38 03.11.2019
5078 Clouds 18 1017 67 8000 1 30 03:39 03.11.2019
5079 Clouds 18 1017 63 6000 0.5 0 02:45 03.11.2019
5080 Clouds 18 1017 63 6000 0.5 0 02:20 03.11.2019
5081 Clouds 18 1017 63 6000 0.5 0 02:20 03.11.2019
5082 Clouds 18 1017 59 7000 1 70 01:43 03.11.2019
5083 Clouds 18 1017 59 7000 1 70 01:21 03.11.2019
5084 Clouds 16 1016 67 8000 2.6 320 00:46 03.11.2019
5085 Clouds 16 1016 67 8000 2.6 320 00:27 03.11.2019
5086 Clouds 18 1016 59 10000 1 310 23:58 02.11.2019
5087 Clouds 18 1016 59 10000 1 310 23:38 02.11.2019
5088 Clouds 18 1016 59 10000 1 310 23:19 02.11.2019
5089 Clouds 17 1016 63 10000 2.1 310 22:56 02.11.2019
5090 Clouds 17 1016 63 10000 2.1 310 22:37 02.11.2019
5091 Clouds 17 1016 63 10000 2.1 310 22:19 02.11.2019
5092 Clouds 18 1016 59 7000 2.6 300 21:56 02.11.2019
5093 Clouds 18 1016 59 7000 2.6 300 21:38 02.11.2019
5094 Clouds 20 1016 59 7000 2.6 300 21:18 02.11.2019
5095 Clouds 20 1016 52 7000 2.1 310 20:59 02.11.2019
5096 Clouds 20 1016 52 7000 2.1 310 20:39 02.11.2019
5097 Clouds 20 1016 52 7000 2.1 310 20:20 02.11.2019
5098 Clouds 22 1015 52 9000 1.5 80 19:55 02.11.2019
5099 Clouds 22 1015 52 9000 1.5 80 19:36 02.11.2019
5100 Clouds 22 1015 52 9000 1.5 80 19:18 02.11.2019
5101 Clear 21 1015 46 10000 2.1 100 18:42 02.11.2019
5102 Clear 21 1015 46 10000 2.1 100 18:24 02.11.2019
5103 Clear 22 1015 43 10000 2.6 120 17:59 02.11.2019
5104 Clear 22 1015 43 10000 2.6 120 17:39 02.11.2019
5105 Clear 24 1015 43 10000 2.6 120 17:21 02.11.2019
5106 Clouds 24 1014 38 10000 2.1 140 16:57 02.11.2019
5107 Clouds 24 1014 38 10000 2.1 140 16:37 02.11.2019
5108 Clouds 24 1014 38 10000 2.1 140 16:18 02.11.2019
5109 Clouds 26 1014 30 10000 3.1 140 15:42 02.11.2019
5110 Clouds 26 1014 30 10000 3.1 140 15:20 02.11.2019
5111 Clouds 27 1013 28 10000 3.1 150 14:43 02.11.2019
5112 Clouds 27 1013 28 10000 3.1 150 14:24 02.11.2019
5113 Clouds 28 1014 28 10000 2.6 180 13:58 02.11.2019
5114 Clouds 28 1014 28 10000 2.6 180 13:39 02.11.2019
5115 Clouds 28 1014 28 10000 2.6 180 13:20 02.11.2019
5116 Clouds 27 1014 28 10000 3.6 220 12:56 02.11.2019
5117 Clouds 27 1014 28 10000 3.6 220 12:37 02.11.2019
5118 Clouds 27 1014 28 10000 3.6 220 12:18 02.11.2019
5119 Clouds 27 1014 30 10000 3.6 220 11:41 02.11.2019
5120 Clouds 27 1014 30 10000 3.6 220 11:23 02.11.2019
5121 Clear 26 1015 36 10000 3.6 210 10:56 02.11.2019
5122 Clear 26 1015 36 10000 3.6 210 10:38 02.11.2019
5123 Clear 24 1015 36 10000 3.6 210 10:18 02.11.2019
5124 Clouds 24 1015 41 10000 3.6 220 09:40 02.11.2019
5125 Clouds 24 1015 41 10000 3.6 220 09:21 02.11.2019
5126 Clouds 23 1016 49 10000 4.1 250 08:50 02.11.2019
5127 Clouds 23 1016 49 10000 4.1 250 08:24 02.11.2019
5128 Clouds 23 1016 49 10000 4.1 250 08:24 02.11.2019
5129 Clouds 20 1016 52 10000 2.6 200 07:57 02.11.2019
5130 Clouds 20 1016 52 10000 2.6 200 07:39 02.11.2019
5131 Clouds 20 1016 52 10000 2.6 200 07:20 02.11.2019
5132 Clear 17 1015 63 8000 1 220 06:46 02.11.2019
5133 Clear 17 1015 63 8000 1 220 06:21 02.11.2019
5134 Clear 15 1014 67 10000 2.6 130 05:41 02.11.2019
5135 Clear 14 1014 71 10000 2.1 100 04:24 02.11.2019
5136 Clear 15 1013 71 10000 1.5 100 03:51 02.11.2019
5137 Clear 15 1013 71 10000 1.5 100 03:28 02.11.2019
5138 Clear 16 1013 71 10000 1 150 02:19 02.11.2019
5139 Clear 16 1013 67 10000 2.1 150 01:29 02.11.2019
5140 Clear 16 1013 63 10000 2.1 110 00:56 02.11.2019
5141 Clear 16 1013 63 10000 2.1 110 00:30 02.11.2019
5142 Clear 16 1014 67 10000 2.1 140 23:56 01.11.2019
5143 Clear 16 1014 67 10000 2.1 140 23:37 01.11.2019
5144 Clear 16 1014 67 10000 2.1 140 23:19 01.11.2019
5145 Clear 16 1014 67 10000 1.5 130 22:42 01.11.2019
5146 Clear 16 1014 67 10000 1.5 130 22:20 01.11.2019
5147 Clear 18 1014 59 10000 1 130 21:43 01.11.2019
5148 Clear 18 1014 59 10000 1 130 21:43 01.11.2019
5149 Clear 19 1014 59 10000 1 130 21:24 01.11.2019
5150 Clear 19 1014 55 10000 1 0 20:59 01.11.2019
5151 Clear 19 1014 55 10000 1 0 20:41 01.11.2019
5152 Clear 19 1014 55 10000 1 0 20:22 01.11.2019
5153 Clear 19 1014 55 10000 1 210 19:59 01.11.2019
5154 Clear 19 1014 55 10000 1 210 19:40 01.11.2019
5155 Clear 19 1014 55 10000 1 210 19:21 01.11.2019
5156 Clear 20 1014 46 10000 1.5 230 18:41 01.11.2019
5157 Clear 20 1014 46 10000 1.5 230 18:21 01.11.2019
5158 Clear 20 1014 46 10000 1.5 250 17:58 01.11.2019
5159 Clear 20 1014 46 10000 1.5 250 17:40 01.11.2019
5160 Clear 20 1014 46 10000 1.5 250 17:22 01.11.2019
5161 Clear 22 1014 46 10000 2.1 320 16:40 01.11.2019
5162 Clear 22 1014 46 10000 2.1 320 16:20 01.11.2019
5163 Clear 24 1013 38 10000 2.6 330 15:58 01.11.2019
5164 Clear 24 1013 38 10000 2.6 330 15:40 01.11.2019
5165 Clear 24 1013 38 10000 2.6 330 15:22 01.11.2019
5166 Clear 27 1014 34 10000 3.6 300 14:44 01.11.2019
5167 Clear 27 1014 34 10000 3.6 300 14:25 01.11.2019
5168 Clear 27 1014 30 10000 3.6 300 13:59 01.11.2019
5169 Clear 27 1014 30 10000 3.6 300 13:40 01.11.2019
5170 Clear 27 1014 30 10000 3.6 300 13:21 01.11.2019
5171 Clear 27 1014 30 10000 3.6 300 13:21 01.11.2019
5172 Clouds 27 1014 34 10000 4.6 280 12:55 01.11.2019
5173 Clouds 27 1014 34 10000 4.6 280 12:55 01.11.2019
5174 Clouds 27 1014 34 10000 4.6 280 12:37 01.11.2019
5175 Clouds 27 1014 34 10000 4.6 280 12:19 01.11.2019
5176 Clouds 26 1014 36 10000 3.6 290 11:42 01.11.2019
5177 Clouds 26 1014 36 10000 3.6 290 11:23 01.11.2019
5178 Clear 25 1015 36 10000 4.6 300 10:44 01.11.2019
5179 Clear 25 1015 36 10000 4.6 300 10:25 01.11.2019
5180 Clear 24 1015 38 10000 4.6 310 09:59 01.11.2019
5181 Clear 24 1015 38 10000 4.6 310 09:41 01.11.2019
5182 Clear 24 1015 38 10000 4.6 310 09:21 01.11.2019
5183 Clear 22 1016 49 10000 3.6 300 08:54 01.11.2019
5184 Clear 22 1016 49 10000 3.6 300 08:36 01.11.2019
5185 Clear 22 1016 49 10000 3.6 300 08:18 01.11.2019
5186 Clear 20 1016 60 10000 3.6 300 07:44 01.11.2019
5187 Clear 20 1016 60 10000 3.6 300 07:22 01.11.2019
5188 Clear 16 1016 72 8000 3.1 280 06:54 01.11.2019
5189 Clear 16 1016 72 8000 3.1 280 06:23 01.11.2019
5190 Clear 13 1015 87 7000 1.5 270 05:44 01.11.2019
5191 Clear 13 1015 93 10000 1.5 280 04:55 01.11.2019
5192 Clear 14 1015 77 10000 2.1 260 03:32 01.11.2019
5193 Clear 16 1015 77 10000 1.5 290 01:48 01.11.2019
5194 Clear 15 1015 87 9000 1.5 330 00:58 01.11.2019
5195 Clear 15 1015 87 9000 1.5 330 00:20 01.11.2019
5196 Clear 16 1015 77 10000 2.1 300 23:44 31.10.2019
5197 Clear 16 1015 77 10000 2.1 300 23:24 31.10.2019
5198 Clear 18 1015 68 10000 1.5 280 22:58 31.10.2019
5199 Clear 18 1015 68 10000 1.5 280 22:40 31.10.2019
5200 Clear 18 1015 68 10000 1.5 280 22:22 31.10.2019
5201 Clear 19 1015 63 10000 2.1 270 21:45 31.10.2019
5202 Clear 17 1015 63 10000 2.1 270 21:23 31.10.2019
5203 Clear 17 1015 63 10000 2.1 270 21:23 31.10.2019
5204 Clear 17 1015 68 10000 0.5 0 20:59 31.10.2019
5205 Clear 17 1015 68 10000 0.5 0 20:40 31.10.2019
5206 Clear 17 1015 68 10000 0.5 0 20:22 31.10.2019
5207 Clear 18 1015 63 10000 1.5 260 19:46 31.10.2019
5208 Clear 18 1015 63 10000 1.5 260 19:27 31.10.2019
5209 Clear 19 1015 60 10000 1.5 230 18:59 31.10.2019
5210 Clear 19 1015 60 10000 1.5 230 18:41 31.10.2019
5211 Clear 19 1015 60 10000 1.5 230 18:22 31.10.2019
5212 Clear 20 1015 56 10000 2.1 250 17:56 31.10.2019
5213 Clear 20 1015 56 10000 2.1 250 17:37 31.10.2019
5214 Clear 20 1015 56 10000 2.1 250 17:18 31.10.2019
5215 Clear 21 1014 53 10000 2.6 270 16:41 31.10.2019
5216 Clear 21 1014 53 10000 2.6 270 16:20 31.10.2019
5217 Clouds 24 1014 47 10000 4.1 290 15:59 31.10.2019
5218 Clouds 24 1014 47 10000 4.1 290 15:40 31.10.2019
5219 Clouds 24 1014 47 10000 4.1 290 15:20 31.10.2019
5220 Clouds 25 1014 50 10000 6.2 300 14:57 31.10.2019
5221 Clouds 25 1014 50 10000 6.2 300 14:39 31.10.2019
5222 Clouds 25 1014 50 10000 6.2 300 14:39 31.10.2019
5223 Clouds 25 1014 50 10000 6.2 300 14:21 31.10.2019
5224 Clouds 25 1014 50 10000 5.1 310 13:59 31.10.2019
5225 Clouds 25 1014 50 10000 5.1 310 13:38 31.10.2019
5226 Clouds 25 1014 50 10000 5.1 310 13:19 31.10.2019
5227 Clouds 26 1014 50 10000 5.7 300 12:55 31.10.2019
5228 Clouds 26 1014 50 10000 5.7 300 12:55 31.10.2019
5229 Clouds 26 1014 50 10000 5.7 300 12:37 31.10.2019
5230 Clouds 26 1014 50 10000 5.7 300 12:18 31.10.2019
5231 Clouds 25 1014 50 10000 4.1 290 11:44 31.10.2019
5232 Clouds 25 1014 50 10000 4.1 290 11:20 31.10.2019
5233 Clouds 24 1015 56 10000 5.7 280 10:57 31.10.2019
5234 Clouds 24 1015 56 10000 5.7 280 10:57 31.10.2019
5235 Clouds 24 1015 56 10000 5.7 280 10:38 31.10.2019
5236 Clouds 24 1015 56 10000 5.7 280 10:20 31.10.2019
5237 Clouds 23 1016 60 10000 5.1 300 09:45 31.10.2019
5238 Clouds 23 1016 60 10000 5.1 300 09:20 31.10.2019
5239 Clear 21 1017 64 10000 4.1 290 08:57 31.10.2019
5240 Clear 21 1017 64 10000 4.1 290 08:39 31.10.2019
5241 Clear 21 1017 64 10000 4.1 290 08:20 31.10.2019
5242 Clear 19 1017 77 8000 3.6 300 07:45 31.10.2019
5243 Clear 19 1017 77 8000 3.6 300 07:24 31.10.2019
5244 Mist 16 1016 82 4600 3.1 280 06:52 31.10.2019
5245 Mist 16 1016 82 4600 3.1 280 06:31 31.10.2019
5246 Mist 15 1016 87 4700 2.1 290 05:20 31.10.2019
5247 Clear 15 1016 93 8000 3.6 310 02:50 31.10.2019
5248 Clear 15 1016 93 8000 3.6 310 02:25 31.10.2019
5249 Clear 16 1015 93 8000 3.1 310 01:20 31.10.2019
5250 Clear 16 1015 87 9000 2.1 310 00:26 31.10.2019
5251 Clear 18 1015 77 10000 3.1 300 23:49 30.10.2019
5252 Clear 18 1015 77 10000 3.1 300 23:25 30.10.2019
5253 Clear 19 1015 72 10000 3.1 290 22:42 30.10.2019
5254 Clear 19 1015 72 10000 3.1 290 22:20 30.10.2019
5255 Clear 19 1015 77 10000 3.6 270 21:55 30.10.2019
5256 Clear 19 1015 77 10000 3.6 270 21:37 30.10.2019
5257 Clear 18 1015 77 10000 3.6 270 21:18 30.10.2019
5258 Clear 19 1016 72 10000 3.6 270 20:58 30.10.2019
5259 Clear 19 1016 72 10000 3.6 270 20:39 30.10.2019
5260 Clear 19 1016 72 10000 3.6 270 20:21 30.10.2019
5261 Clear 19 1015 72 10000 3.1 260 19:54 30.10.2019
5262 Clear 19 1015 72 10000 3.1 260 19:36 30.10.2019
5263 Clear 19 1015 72 10000 3.1 260 19:18 30.10.2019
5264 Clear 20 1015 68 10000 3.6 280 18:39 30.10.2019
5265 Clear 20 1015 68 10000 3.6 280 18:19 30.10.2019
5266 Clear 20 1015 68 10000 3.6 280 18:19 30.10.2019
5267 Clear 21 1015 64 10000 4.6 290 17:57 30.10.2019
5268 Clear 21 1015 64 10000 4.6 290 17:38 30.10.2019
5269 Clear 21 1015 64 10000 4.6 290 17:18 30.10.2019
5270 Clear 21 1014 68 10000 4.1 300 16:55 30.10.2019
5271 Clear 21 1014 68 10000 4.1 300 16:55 30.10.2019
5272 Clear 21 1014 68 10000 4.1 300 16:37 30.10.2019
5273 Clear 21 1014 68 10000 4.1 300 16:18 30.10.2019
5274 Clear 23 1014 60 10000 5.1 300 15:54 30.10.2019
5275 Clear 23 1014 60 10000 5.1 300 15:36 30.10.2019
5276 Clear 23 1014 60 10000 5.1 300 15:18 30.10.2019
5277 Clouds 25 1014 57 10000 5.7 290 14:41 30.10.2019
5278 Clouds 25 1014 57 10000 5.7 290 14:22 30.10.2019
5279 Clouds 25 1013 54 10000 4.6 300 13:58 30.10.2019
5280 Clouds 25 1013 54 10000 4.6 300 13:40 30.10.2019
5281 Clouds 25 1013 54 10000 4.6 300 13:20 30.10.2019
5282 Clouds 25 1013 61 10000 4.1 280 12:56 30.10.2019
5283 Clouds 25 1013 61 10000 4.1 280 12:37 30.10.2019
5284 Clouds 25 1013 61 10000 4.1 280 12:19 30.10.2019
5285 Clouds 25 1014 61 10000 4.6 260 11:41 30.10.2019
5286 Clouds 25 1014 61 10000 4.6 260 11:22 30.10.2019
5287 Clouds 24 1014 65 10000 3.6 290 10:45 30.10.2019
5288 Clouds 24 1014 65 10000 3.6 290 10:45 30.10.2019
5289 Clouds 24 1014 65 10000 3.6 290 10:26 30.10.2019
5290 Clouds 23 1015 73 10000 3.6 280 09:58 30.10.2019
5291 Clouds 23 1015 73 10000 3.6 280 09:58 30.10.2019
5292 Clouds 23 1015 73 10000 3.6 280 09:39 30.10.2019
5293 Clouds 23 1015 73 10000 3.6 280 09:19 30.10.2019
5294 Clouds 22 1015 78 8000 2.6 300 08:41 30.10.2019
5295 Clouds 22 1015 78 8000 2.6 300 08:22 30.10.2019
5296 Clouds 20 1015 77 8000 3.6 300 07:51 30.10.2019
5297 Clouds 20 1015 77 8000 3.6 300 07:33 30.10.2019
5298 Clouds 18 1014 88 10000 3.1 330 06:43 30.10.2019
5299 Clouds 18 1014 88 10000 3.1 330 06:25 30.10.2019
5300 Clouds 19 1014 82 9000 5.1 300 05:54 30.10.2019
5301 Clouds 19 1014 82 9000 5.1 300 05:54 30.10.2019
5302 Clouds 19 1014 82 9000 5.1 300 05:35 30.10.2019
5303 Thunderstorm 19 1013 77 10000 3.6 10 03:48 30.10.2019
5304 Thunderstorm 19 1014 94 5000 6.2 270 03:21 30.10.2019
5305 Thunderstorm 19 1012 94 6000 2.6 10 02:39 30.10.2019
5306 Thunderstorm 19 1013 82 8000 4.1 30 01:42 30.10.2019
5307 Thunderstorm 20 1014 73 8000 1.5 360 00:36 30.10.2019
5308 Thunderstorm 21 1013 60 10000 3.6 350 00:18 30.10.2019
5309 Thunderstorm 20 1012 64 10000 2.6 10 23:38 29.10.2019
5310 Thunderstorm 20 1012 64 10000 2.1 30 23:18 29.10.2019
5311 Thunderstorm 21 1012 60 10000 1.5 60 22:41 29.10.2019
5312 Clouds 21 1012 60 10000 1 0 22:19 29.10.2019
5313 Clouds 22 1013 60 10000 3.1 360 21:55 29.10.2019
5314 Clouds 22 1013 60 10000 3.1 360 21:36 29.10.2019
5315 Clouds 22 1013 60 10000 3.1 360 21:18 29.10.2019
5316 Thunderstorm 21 1013 60 10000 1.5 360 20:42 29.10.2019
5317 Thunderstorm 21 1013 60 10000 1.5 360 20:22 29.10.2019
5318 Thunderstorm 22 1012 57 10000 2.6 110 19:58 29.10.2019
5319 Thunderstorm 22 1012 57 10000 2.6 110 19:39 29.10.2019
5320 Clouds 22 1013 57 10000 2.6 40 19:20 29.10.2019
5321 Clouds 23 1012 53 10000 2.6 80 18:58 29.10.2019
5322 Clouds 23 1012 53 10000 2.6 80 18:39 29.10.2019
5323 Clouds 23 1012 53 10000 2.6 80 18:20 29.10.2019
5324 Thunderstorm 23 1012 50 10000 3.1 120 17:57 29.10.2019
5325 Thunderstorm 23 1012 50 10000 3.1 120 17:38 29.10.2019
5326 Thunderstorm 23 1012 50 10000 3.1 120 17:20 29.10.2019
5327 Clouds 24 1012 47 10000 3.1 120 16:41 29.10.2019
5328 Clouds 24 1012 47 10000 3.1 120 16:22 29.10.2019
5329 Clouds 25 1011 42 10000 4.6 150 15:59 29.10.2019
5330 Clouds 25 1011 42 10000 4.6 150 15:41 29.10.2019
5331 Clouds 25 1011 42 10000 4.6 150 15:21 29.10.2019
5332 Clouds 25 1012 39 10000 3.1 170 14:57 29.10.2019
5333 Clouds 25 1012 39 10000 3.1 170 14:39 29.10.2019
5334 Clouds 26 1012 39 10000 3.1 170 14:21 29.10.2019
5335 Clouds 26 1012 37 10000 2.1 210 13:57 29.10.2019
5336 Clouds 26 1012 37 10000 2.1 210 13:36 29.10.2019
5337 Clouds 27 1012 37 10000 2.1 210 13:18 29.10.2019
5338 Clouds 29 1012 42 10000 2.6 230 12:42 29.10.2019
5339 Clouds 29 1012 42 10000 2.6 230 12:24 29.10.2019
5340 Clouds 28 1013 48 10000 2.6 230 11:54 29.10.2019
5341 Clouds 28 1013 48 10000 2.6 230 11:36 29.10.2019
5342 Clouds 28 1013 48 10000 2.6 230 11:18 29.10.2019
5343 Clouds 27 1013 51 10000 4.1 210 10:55 29.10.2019
5344 Clouds 27 1013 51 10000 4.1 210 10:36 29.10.2019
5345 Clouds 27 1013 51 10000 4.1 210 10:18 29.10.2019
5346 Clear 27 1014 51 10000 2.6 200 09:41 29.10.2019
5347 Clear 27 1014 51 10000 2.6 200 09:41 29.10.2019
5348 Clear 27 1014 51 10000 2.6 200 09:23 29.10.2019
5349 Clear 27 1014 51 10000 2.6 200 09:23 29.10.2019
5350 Clear 25 1014 54 10000 3.1 150 08:55 29.10.2019
5351 Clear 25 1014 54 10000 3.1 150 08:36 29.10.2019
5352 Clear 25 1014 54 10000 3.1 150 08:18 29.10.2019
5353 Clear 23 1014 64 10000 4.1 130 07:47 29.10.2019
5354 Clear 23 1014 64 10000 4.1 130 07:19 29.10.2019
5355 Clear 19 1014 77 8000 2.1 120 06:47 29.10.2019
5356 Clear 19 1014 77 8000 2.1 120 06:28 29.10.2019
5357 Clear 17 1013 82 6000 1 100 05:52 29.10.2019
5358 Clear 17 1013 82 6000 1 100 05:34 29.10.2019
5359 Clear 16 1012 82 9000 1.5 90 04:33 29.10.2019
5360 Clear 18 1012 77 10000 2.6 130 02:34 29.10.2019
5361 Clear 19 1012 77 10000 2.6 120 01:54 29.10.2019
5362 Clear 19 1012 77 10000 2.6 120 01:33 29.10.2019
5363 Clear 19 1012 77 10000 3.1 110 00:51 29.10.2019
5364 Clear 19 1012 77 10000 2.6 110 23:58 28.10.2019
5365 Clear 19 1012 77 10000 2.6 110 23:36 28.10.2019
5366 Clear 18 1012 77 10000 2.6 110 23:18 28.10.2019
5367 Clear 20 1012 72 10000 3.1 110 22:39 28.10.2019
5368 Clear 20 1012 72 10000 3.1 110 22:19 28.10.2019
5369 Clear 20 1013 72 10000 3.1 100 21:56 28.10.2019
5370 Clear 20 1013 72 10000 3.1 100 21:38 28.10.2019
5371 Clear 20 1013 72 10000 3.1 100 21:20 28.10.2019
5372 Clear 22 1013 68 10000 3.1 110 20:57 28.10.2019
5373 Clear 22 1013 68 10000 3.1 110 20:39 28.10.2019
5374 Clear 22 1013 68 10000 3.1 110 20:20 28.10.2019
5375 Clear 22 1013 64 10000 2.6 130 19:54 28.10.2019
5376 Clear 22 1013 64 10000 2.6 130 19:54 28.10.2019
5377 Clear 22 1013 64 10000 2.6 130 19:36 28.10.2019
5378 Clear 22 1013 64 10000 2.6 130 19:18 28.10.2019
5379 Clear 22 1013 64 10000 2.6 130 19:18 28.10.2019
5380 Clear 23 1012 64 10000 2.1 120 18:54 28.10.2019
5381 Clear 23 1012 64 10000 2.1 120 18:36 28.10.2019
5382 Clear 23 1012 64 10000 2.1 120 18:18 28.10.2019
5383 Clear 24 1012 64 10000 2.1 120 17:54 28.10.2019
5384 Clear 24 1012 64 10000 2.1 120 17:36 28.10.2019
5385 Clear 24 1012 64 10000 2.1 120 17:18 28.10.2019
5386 Clear 25 1011 60 10000 2.1 120 16:43 28.10.2019
5387 Clear 25 1011 60 10000 2.1 120 16:24 28.10.2019
5388 Clouds 26 1011 57 10000 2.1 120 15:59 28.10.2019
5389 Clouds 26 1011 57 10000 2.1 120 15:40 28.10.2019
5390 Clouds 26 1011 57 10000 2.1 120 15:21 28.10.2019
5391 Clouds 27 1011 51 10000 3.6 130 14:58 28.10.2019
5392 Clouds 27 1011 51 10000 3.6 130 14:40 28.10.2019
5393 Clouds 27 1011 51 10000 3.6 130 14:19 28.10.2019
5394 Clouds 27 1011 48 10000 2.1 130 13:58 28.10.2019
5395 Clouds 27 1011 48 10000 2.1 130 13:40 28.10.2019
5396 Clouds 27 1011 48 10000 2.1 130 13:18 28.10.2019
5397 Clouds 28 1012 48 10000 3.1 110 12:43 28.10.2019
5398 Clouds 27 1012 48 10000 3.1 110 12:21 28.10.2019
5399 Clouds 27 1012 51 10000 3.1 120 11:57 28.10.2019
5400 Clouds 27 1012 51 10000 3.1 120 11:37 28.10.2019
5401 Clouds 27 1012 51 10000 3.1 120 11:18 28.10.2019
5402 Clear 26 1013 51 10000 2.6 130 10:40 28.10.2019
5403 Clear 26 1013 51 10000 2.6 130 10:21 28.10.2019
5404 Clear 25 1013 57 10000 3.6 130 09:57 28.10.2019
5405 Clear 25 1013 57 10000 3.6 130 09:39 28.10.2019
5406 Clear 25 1013 57 10000 3.6 130 09:19 28.10.2019
5407 Clear 23 1014 60 10000 4.1 140 08:57 28.10.2019
5408 Clear 23 1014 60 10000 4.1 140 08:38 28.10.2019
5409 Clear 23 1014 60 10000 4.1 140 08:19 28.10.2019
5410 Clear 23 1014 60 10000 4.1 140 08:19 28.10.2019
5411 Clear 22 1014 64 10000 3.1 130 07:56 28.10.2019
5412 Clear 22 1014 64 10000 3.1 130 07:56 28.10.2019
5413 Clear 22 1014 64 10000 3.1 130 07:36 28.10.2019
5414 Clear 22 1014 64 10000 3.1 130 07:18 28.10.2019
5415 Clear 20 1013 73 10000 2.1 120 06:40 28.10.2019
5416 Clear 19 1012 72 10000 2.1 110 05:41 28.10.2019
5417 Clear 19 1012 68 10000 2.1 90 03:48 28.10.2019
5418 Clouds 19 1012 68 10000 1 0 02:46 28.10.2019
5419 Clouds 19 1012 68 10000 1 0 02:27 28.10.2019
5420 Clouds 20 1012 56 10000 3.1 90 00:57 28.10.2019
5421 Clouds 20 1012 56 10000 3.1 90 00:33 28.10.2019
5422 Rain 20 1012 64 10000 0.5 0 23:47 27.10.2019
5423 Rain 20 1012 64 10000 0.5 0 23:24 27.10.2019
5424 Clouds 21 1012 64 10000 1.5 130 22:58 27.10.2019
5425 Clouds 21 1012 64 10000 1.5 130 22:40 27.10.2019
5426 Clouds 21 1012 64 10000 1.5 130 22:21 27.10.2019
5427 Clouds 21 1012 64 10000 1.5 130 22:21 27.10.2019
5428 Clouds 21 1012 60 10000 1.5 200 21:57 27.10.2019
5429 Clouds 21 1012 60 10000 1.5 200 21:39 27.10.2019
5430 Clouds 21 1012 60 10000 1.5 200 21:39 27.10.2019
5431 Clouds 21 1012 60 10000 1.5 200 21:21 27.10.2019
5432 Rain 22 1012 56 10000 2.1 70 20:57 27.10.2019
5433 Rain 22 1012 56 10000 2.1 70 20:38 27.10.2019
5434 Rain 22 1012 56 10000 2.1 70 20:20 27.10.2019
5435 Clouds 24 1012 53 10000 3.1 60 19:55 27.10.2019
5436 Clouds 24 1012 53 10000 3.1 60 19:36 27.10.2019
5437 Clouds 24 1012 53 10000 3.1 60 19:18 27.10.2019
5438 Clouds 24 1011 53 10000 1.5 20 18:55 27.10.2019
5439 Clouds 24 1011 53 10000 1.5 20 18:36 27.10.2019
5440 Clouds 24 1011 53 10000 1.5 20 18:18 27.10.2019
5441 Clouds 24 1011 50 10000 1 30 17:40 27.10.2019
5442 Clouds 24 1011 50 10000 1 30 17:40 27.10.2019
5443 Clouds 26 1011 50 10000 1 30 17:20 27.10.2019
5444 Clouds 26 1011 47 10000 2.1 340 16:58 27.10.2019
5445 Clouds 26 1011 47 10000 2.1 340 16:40 27.10.2019
5446 Clouds 26 1011 47 10000 2.1 340 16:22 27.10.2019
5447 Clouds 27 1010 42 10000 2.6 320 15:56 27.10.2019
5448 Clouds 27 1010 42 10000 2.6 320 15:56 27.10.2019
5449 Clouds 27 1010 42 10000 2.6 320 15:38 27.10.2019
5450 Clouds 27 1010 42 10000 2.6 320 15:20 27.10.2019
5451 Clouds 29 1010 37 10000 2.6 320 14:43 27.10.2019
5452 Clouds 29 1010 37 10000 2.6 320 14:23 27.10.2019
5453 Clouds 29 1011 35 10000 2.6 310 13:58 27.10.2019
5454 Clouds 29 1011 35 10000 2.6 310 13:39 27.10.2019
5455 Clouds 29 1011 35 10000 2.6 310 13:21 27.10.2019
5456 Clouds 29 1011 39 10000 3.1 330 12:59 27.10.2019
5457 Clouds 29 1011 39 10000 3.1 330 12:40 27.10.2019
5458 Clouds 29 1011 39 10000 3.1 330 12:22 27.10.2019
5459 Clouds 28 1011 39 10000 3.6 330 11:41 27.10.2019
5460 Clouds 28 1011 39 10000 3.6 330 11:23 27.10.2019
5461 Clouds 27 1012 44 10000 2.6 330 10:45 27.10.2019
5462 Clouds 27 1012 44 10000 2.6 330 10:26 27.10.2019
5463 Clouds 27 1012 47 10000 2.1 330 09:58 27.10.2019
5464 Clouds 27 1012 47 10000 2.1 330 09:39 27.10.2019
5465 Clouds 27 1012 47 10000 2.1 330 09:19 27.10.2019
5466 Clouds 24 1012 53 10000 1.5 330 08:56 27.10.2019
5467 Clouds 24 1012 53 10000 1.5 330 08:37 27.10.2019
5468 Clouds 24 1012 53 10000 1.5 330 08:37 27.10.2019
5469 Clouds 24 1012 53 10000 1.5 330 08:37 27.10.2019
5470 Clouds 24 1012 53 10000 1.5 330 08:18 27.10.2019
5471 Clouds 21 1012 60 10000 2.1 340 07:45 27.10.2019
5472 Clouds 21 1012 60 10000 2.1 340 07:25 27.10.2019
5473 Clouds 20 1012 64 10000 2.1 300 06:52 27.10.2019
5474 Clouds 20 1012 64 10000 2.1 300 06:29 27.10.2019
5475 Clouds 19 1012 68 10000 2.1 310 05:54 27.10.2019
5476 Clouds 19 1012 68 10000 2.1 310 05:34 27.10.2019
5477 Clouds 18 1011 63 10000 2.6 290 03:34 27.10.2019
5478 Clouds 18 1012 63 10000 2.6 290 02:25 27.10.2019
5479 Clouds 18 1012 72 10000 2.6 310 01:24 27.10.2019
5480 Clouds 20 1012 63 10000 2.1 290 00:52 27.10.2019
5481 Clouds 20 1012 63 10000 2.1 290 00:33 27.10.2019
5482 Rain 19 1012 68 10000 2.1 300 23:57 26.10.2019
5483 Rain 19 1012 68 10000 2.1 300 23:39 26.10.2019
5484 Rain 19 1012 68 10000 2.1 300 23:21 26.10.2019
5485 Rain 20 1012 68 10000 2.6 320 22:57 26.10.2019
5486 Rain 20 1012 68 10000 2.6 320 22:38 26.10.2019
5487 Rain 20 1012 68 10000 2.6 320 22:19 26.10.2019
5488 Mist 21 1012 60 10000 2.1 320 21:55 26.10.2019
5489 Mist 21 1012 60 10000 2.1 320 21:36 26.10.2019
5490 Mist 21 1012 60 10000 2.1 320 21:18 26.10.2019
5491 Clouds 21 1012 68 9000 1.5 320 20:42 26.10.2019
5492 Clouds 21 1012 68 9000 1.5 320 20:19 26.10.2019
5493 Clouds 22 1012 56 10000 2.6 260 19:43 26.10.2019
5494 Clouds 22 1012 56 10000 2.6 260 19:21 26.10.2019
5495 Clouds 23 1012 53 10000 2.6 330 18:58 26.10.2019
5496 Clouds 23 1012 53 10000 2.6 330 18:40 26.10.2019
5497 Clouds 25 1012 53 10000 2.6 330 18:20 26.10.2019
5498 Clouds 25 1012 53 10000 2.6 330 18:20 26.10.2019
5499 Clouds 24 1012 47 10000 2.1 280 17:58 26.10.2019
5500 Clouds 24 1012 47 10000 2.1 280 17:39 26.10.2019
5501 Clouds 24 1012 47 10000 2.1 280 17:20 26.10.2019
5502 Clouds 27 1012 44 10000 1.5 320 16:46 26.10.2019
5503 Clouds 27 1012 44 10000 1.5 320 16:25 26.10.2019
5504 Clear 28 1011 39 10000 3.6 350 15:59 26.10.2019
5505 Clear 28 1011 39 10000 3.6 350 15:40 26.10.2019
5506 Clouds 28 1011 39 10000 3.6 350 15:18 26.10.2019
5507 Clouds 28 1012 42 10000 3.1 360 14:40 26.10.2019
5508 Clouds 28 1012 42 10000 3.1 360 14:20 26.10.2019
5509 Clouds 30 1011 31 0 1.75 64 13:59 26.10.2019
5510 Clouds 30 1011 31 0 1.75 64 13:39 26.10.2019
5511 Clouds 28 1013 42 10000 2.6 360 13:20 26.10.2019
5512 Clouds 30 1011 31 0 1.75 64 12:44 26.10.2019
5513 Clouds 27 1015 47 10000 1.5 160 12:21 26.10.2019
5514 Clouds 27 1015 47 10000 1.5 160 11:48 26.10.2019
5515 Clouds 27 1015 47 10000 1.5 160 11:26 26.10.2019
5516 Clouds 27 1015 47 10000 1.5 160 11:26 26.10.2019
5517 Clouds 26 1015 53 10000 1.5 0 10:47 26.10.2019
5518 Clouds 26 1015 53 10000 1.5 0 10:27 26.10.2019
5519 Clouds 26 1015 53 10000 1.5 0 10:27 26.10.2019
5520 Clouds 25 1015 57 10000 1 0 09:50 26.10.2019
5521 Clouds 25 1015 57 10000 1 0 09:30 26.10.2019
5522 Clouds 23 1016 64 9000 1 0 08:57 26.10.2019
5523 Clouds 23 1016 64 9000 1 0 08:39 26.10.2019
5524 Clouds 23 1016 64 9000 1 0 08:21 26.10.2019
5525 Clouds 19 1015 88 9000 0.5 0 07:43 26.10.2019
5526 Clouds 19 1015 88 9000 0.5 0 07:23 26.10.2019
5527 Clouds 16 1015 93 9000 0.5 0 06:41 26.10.2019
5528 Clear 16 1015 93 10000 2.1 10 05:59 26.10.2019
5529 Clear 16 1015 93 10000 2.1 10 05:19 26.10.2019
5530 Mist 16 1014 93 5000 1.5 320 04:23 26.10.2019
5531 Rain 16 1014 93 10000 0.5 290 02:37 26.10.2019
5532 Rain 16 1014 93 10000 1 170 01:48 26.10.2019
5533 Rain 16 1014 100 10000 0.5 0 00:58 26.10.2019
5534 Clouds 16 1014 100 10000 0.5 0 00:18 26.10.2019
5535 Clouds 16 1014 93 9000 0.5 20 23:40 25.10.2019
5536 Clouds 16 1014 93 9000 0.5 20 23:19 25.10.2019
5537 Clouds 17 1014 87 10000 0.5 0 22:40 25.10.2019
5538 Clouds 17 1014 87 10000 0.5 0 22:22 25.10.2019
5539 Clouds 18 1014 88 10000 1 0 21:57 25.10.2019
5540 Clouds 18 1014 88 10000 1 0 21:39 25.10.2019
5541 Clouds 18 1014 88 10000 1 0 21:19 25.10.2019
5542 Clouds 19 1014 82 10000 1 0 20:45 25.10.2019
5543 Clouds 19 1014 82 10000 1 0 20:20 25.10.2019
5544 Clouds 19 1014 82 10000 1 0 20:20 25.10.2019
5545 Clouds 20 1013 82 10000 2.6 210 19:59 25.10.2019
5546 Clouds 20 1013 82 10000 2.6 210 19:40 25.10.2019
5547 Clouds 20 1013 82 10000 2.6 210 19:22 25.10.2019
5548 Clouds 19 1013 82 10000 1.5 230 18:43 25.10.2019
5549 Clear 21 1013 82 10000 1.5 230 18:21 25.10.2019
5550 Clouds 21 1012 82 10000 0.5 0 17:41 25.10.2019
5551 Clouds 21 1012 82 10000 0.5 0 17:21 25.10.2019
5552 Clouds 21 1012 73 10000 1.5 250 16:54 25.10.2019
5553 Clouds 21 1012 73 10000 1.5 250 16:36 25.10.2019
5554 Clouds 25 1012 73 10000 1.5 250 16:18 25.10.2019
5555 Clouds 24 1012 77 10000 2.6 170 15:40 25.10.2019
5556 Clouds 23 1012 77 10000 2.6 170 15:21 25.10.2019
5557 Rain 25 1012 77 10000 3.6 150 14:57 25.10.2019
5558 Rain 24 1012 77 10000 3.6 150 14:38 25.10.2019
5559 Thunderstorm 24 1013 72 9000 4.6 160 14:20 25.10.2019
5560 Thunderstorm 25 1014 68 10000 10.8 210 13:41 25.10.2019
5561 Thunderstorm 27 1012 44 10000 4.1 300 13:22 25.10.2019
5562 Clouds 28 1012 37 10000 7.2 290 12:55 25.10.2019
5563 Clouds 28 1012 37 10000 7.2 290 12:37 25.10.2019
5564 Clouds 28 1012 37 10000 7.2 290 12:18 25.10.2019
5565 Clouds 28 1012 39 10000 5.7 300 11:40 25.10.2019
5566 Clouds 28 1012 39 10000 5.7 300 11:22 25.10.2019
5567 Clouds 27 1013 44 10000 5.1 320 10:57 25.10.2019
5568 Clouds 27 1013 44 10000 5.1 320 10:38 25.10.2019
5569 Clouds 27 1013 44 10000 5.1 320 10:19 25.10.2019
5570 Clouds 24 1014 60 10000 5.1 320 09:42 25.10.2019
5571 Clouds 24 1014 60 10000 5.1 320 09:21 25.10.2019
5572 Clouds 21 1015 64 10000 4.6 300 08:59 25.10.2019
5573 Clouds 21 1015 64 10000 4.6 300 08:41 25.10.2019
5574 Clouds 21 1015 64 10000 4.6 300 08:22 25.10.2019
5575 Clouds 19 1014 77 10000 3.1 300 07:47 25.10.2019
5576 Clouds 19 1014 77 10000 3.1 300 07:28 25.10.2019
5577 Clouds 16 1013 93 9000 2.1 300 06:38 25.10.2019
5578 Clear 15 1012 87 10000 3.6 310 05:49 25.10.2019
5579 Clear 15 1012 87 10000 3.6 310 05:30 25.10.2019
5580 Clear 15 1012 87 10000 3.6 310 04:36 25.10.2019
5581 Clear 18 1012 93 10000 2.6 320 02:42 25.10.2019
5582 Clouds 18 1012 82 10000 1.5 340 01:53 25.10.2019
5583 Clouds 19 1012 82 10000 2.1 330 00:36 25.10.2019
5584 Clouds 19 1013 82 10000 4.1 300 23:56 24.10.2019
5585 Clouds 19 1013 82 10000 4.1 300 23:37 24.10.2019
5586 Clouds 19 1013 82 10000 4.1 300 23:19 24.10.2019
5587 Clouds 20 1013 82 10000 1.5 350 22:39 24.10.2019
5588 Clouds 20 1013 82 10000 1.5 350 22:19 24.10.2019
5589 Clouds 20 1013 82 10000 2.6 340 21:58 24.10.2019
5590 Clouds 20 1013 82 10000 2.6 340 21:40 24.10.2019
5591 Clouds 20 1013 82 10000 2.6 340 21:20 24.10.2019
5592 Clouds 21 1013 77 10000 3.1 320 20:59 24.10.2019
5593 Clouds 21 1013 77 10000 3.1 320 20:40 24.10.2019
5594 Clouds 21 1013 77 10000 3.1 320 20:40 24.10.2019
5595 Clouds 21 1013 77 10000 3.1 320 20:22 24.10.2019
5596 Clouds 23 1014 56 10000 3.6 0 19:58 24.10.2019
5597 Clouds 23 1014 56 10000 3.6 0 19:40 24.10.2019
5598 Clouds 22 1014 56 10000 3.6 0 19:22 24.10.2019
5599 Clouds 22 1013 77 10000 4.1 100 18:57 24.10.2019
5600 Clouds 22 1013 77 10000 4.1 100 18:38 24.10.2019
5601 Clouds 22 1013 77 10000 4.1 100 18:20 24.10.2019
5602 Clouds 23 1014 68 10000 2.6 250 17:42 24.10.2019
5603 Clouds 23 1014 68 10000 2.6 250 17:21 24.10.2019
5604 Clouds 25 1015 69 10000 2.1 240 16:58 24.10.2019
5605 Clouds 25 1015 69 10000 2.1 240 16:40 24.10.2019
5606 Clouds 25 1015 69 10000 2.1 240 16:22 24.10.2019
5607 Clouds 23 1015 64 10000 1.5 250 15:59 24.10.2019
5608 Clouds 23 1015 64 10000 1.5 250 15:40 24.10.2019
5609 Rain 26 1015 64 10000 1.5 250 15:22 24.10.2019
5610 Clouds 25 1014 68 10000 3.6 20 14:59 24.10.2019
5611 Clouds 25 1014 68 10000 3.6 20 14:40 24.10.2019
5612 Clouds 25 1014 68 10000 3.6 20 14:20 24.10.2019
5613 Clouds 27 1014 47 10000 5.7 350 13:42 24.10.2019
5614 Clouds 26 1014 47 10000 5.7 350 13:20 24.10.2019
5615 Clouds 26 1013 44 10000 6.7 10 12:58 24.10.2019
5616 Clouds 26 1013 44 10000 6.7 10 12:40 24.10.2019
5617 Clouds 26 1013 44 10000 6.7 10 12:20 24.10.2019
5618 Clouds 24 1013 60 10000 6.7 10 11:57 24.10.2019
5619 Clouds 24 1013 60 10000 6.7 10 11:39 24.10.2019
5620 Clouds 24 1013 60 10000 6.7 10 11:20 24.10.2019
5621 Clouds 22 1014 69 9000 4.6 320 10:59 24.10.2019
5622 Clouds 22 1014 69 9000 4.6 320 10:41 24.10.2019
5623 Clouds 22 1014 69 9000 4.6 320 10:41 24.10.2019
5624 Clouds 22 1014 69 9000 4.6 320 10:22 24.10.2019
5625 Rain 20 1018 77 8000 3.1 290 09:39 24.10.2019
5626 Rain 20 1018 77 8000 3.1 290 09:39 24.10.2019
5627 Rain 20 1018 77 8000 3.1 290 09:19 24.10.2019
5628 Rain 20 1018 68 9000 6.7 270 08:55 24.10.2019
5629 Rain 20 1018 68 9000 6.7 270 08:37 24.10.2019
5630 Rain 20 1018 68 9000 6.7 270 08:18 24.10.2019
5631 Rain 21 1016 68 7000 8.7 280 07:45 24.10.2019
5632 Rain 22 1015 60 9000 3.6 260 07:22 24.10.2019
5633 Clouds 22 1013 64 10000 1 360 06:47 24.10.2019
5634 Clouds 22 1013 64 10000 1 360 06:24 24.10.2019
5635 Clouds 21 1012 56 10000 3.1 350 05:50 24.10.2019
5636 Clouds 21 1012 56 10000 3.1 350 05:29 24.10.2019
5637 Clouds 22 1014 49 10000 6.7 300 03:38 24.10.2019
5638 Clouds 22 1014 49 10000 6.7 300 03:18 24.10.2019
5639 Clouds 22 1013 53 10000 3.1 280 02:26 24.10.2019
5640 Clouds 21 1013 53 10000 2.1 300 01:52 24.10.2019
5641 Clouds 21 1013 53 10000 2.1 300 01:28 24.10.2019
5642 Clouds 23 1012 47 10000 2.1 20 00:44 24.10.2019
5643 Clouds 23 1012 47 10000 2.1 20 00:44 24.10.2019
5644 Clouds 23 1012 47 10000 2.6 340 00:23 24.10.2019
5645 Clouds 23 1013 53 8000 2.6 340 23:43 23.10.2019
5646 Clouds 23 1013 53 8000 2.6 340 23:43 23.10.2019
5647 Clouds 23 1013 53 8000 2.6 340 23:23 23.10.2019
5648 Clouds 23 1013 53 8000 2.6 340 23:23 23.10.2019
5649 Rain 24 1012 50 8000 2.6 360 22:57 23.10.2019
5650 Rain 24 1012 50 8000 2.6 360 22:38 23.10.2019
5651 Rain 24 1012 50 8000 2.6 360 22:19 23.10.2019
5652 Rain 24 1013 56 10000 3.1 340 21:57 23.10.2019
5653 Clouds 24 1013 56 10000 3.1 340 21:38 23.10.2019
5654 Clear 24 1013 56 10000 3.1 340 21:20 23.10.2019
5655 Clear 24 1012 53 10000 1.5 360 20:58 23.10.2019
5656 Clear 24 1012 53 10000 1.5 360 20:39 23.10.2019
5657 Clear 24 1012 53 10000 1.5 360 20:20 23.10.2019
5658 Clouds 25 1013 41 10000 2.6 150 19:57 23.10.2019
5659 Clouds 25 1013 41 10000 2.6 150 19:38 23.10.2019
5660 Clouds 25 1013 41 10000 2.6 150 19:18 23.10.2019
5661 Clouds 25 1012 41 10000 3.1 330 18:55 23.10.2019
5662 Clouds 25 1012 41 10000 3.1 330 18:36 23.10.2019
5663 Clouds 25 1012 41 10000 3.1 330 18:18 23.10.2019
5664 Clouds 28 1013 35 10000 3.1 270 17:43 23.10.2019
5665 Clouds 28 1013 35 10000 3.1 270 17:20 23.10.2019
5666 Clouds 31 1011 30 10000 4.1 350 16:56 23.10.2019
5667 Clouds 31 1011 30 10000 4.1 350 16:38 23.10.2019
5668 Clouds 31 1011 30 10000 4.1 350 16:19 23.10.2019
5669 Clouds 31 1011 29 10000 3.1 360 15:42 23.10.2019
5670 Clouds 31 1011 29 10000 3.1 360 15:22 23.10.2019
5671 Clouds 31 1012 31 10000 4.1 340 14:58 23.10.2019
5672 Clouds 31 1012 31 10000 4.1 340 14:38 23.10.2019
5673 Clouds 31 1012 31 10000 4.1 340 14:20 23.10.2019
5674 Clouds 31 1012 35 10000 2.6 330 13:58 23.10.2019
5675 Clouds 31 1012 35 10000 2.6 330 13:40 23.10.2019
5676 Clouds 31 1012 35 10000 2.6 330 13:22 23.10.2019
5677 Clouds 30 1013 33 10000 3.6 340 12:56 23.10.2019
5678 Clouds 30 1013 33 10000 3.6 340 12:37 23.10.2019
5679 Clouds 30 1013 33 10000 3.6 340 12:18 23.10.2019
5680 Clouds 29 1013 33 10000 2.6 340 11:56 23.10.2019
5681 Clouds 29 1013 33 10000 2.6 340 11:37 23.10.2019
5682 Clouds 29 1013 35 10000 3.6 340 11:19 23.10.2019
5683 Clouds 28 1013 37 10000 3.1 10 10:45 23.10.2019
5684 Clouds 28 1013 37 10000 3.1 10 10:25 23.10.2019
5685 Clouds 26 1014 42 10000 3.6 340 09:56 23.10.2019
5686 Clear 26 1014 42 10000 3.6 340 09:37 23.10.2019
5687 Clouds 26 1014 42 10000 3.6 340 09:19 23.10.2019
5688 Clouds 23 1014 50 10000 4.6 330 08:42 23.10.2019
5689 Clouds 23 1014 50 10000 4.6 330 08:24 23.10.2019
5690 Clouds 20 1014 56 10000 3.6 330 07:46 23.10.2019
5691 Clouds 20 1014 56 10000 3.6 330 07:23 23.10.2019
5692 Clouds 18 1014 63 10000 3.6 320 06:47 23.10.2019
5693 Clouds 18 1014 63 10000 3.6 320 06:22 23.10.2019
5694 Clouds 18 1013 59 10000 3.6 310 05:47 23.10.2019
5695 Clouds 17 1012 63 10000 3.1 320 04:59 23.10.2019
5696 Clouds 18 1013 63 10000 3.1 300 03:35 23.10.2019
5697 Clouds 19 1012 56 10000 3.6 290 02:41 23.10.2019
5698 Clouds 20 1012 63 10000 3.1 310 01:33 23.10.2019
5699 Clouds 20 1012 64 10000 3.6 320 00:56 23.10.2019
5700 Clouds 20 1012 64 10000 3.6 320 00:29 23.10.2019
5701 Clouds 20 1012 64 10000 1.5 310 23:41 22.10.2019
5702 Clouds 20 1012 64 10000 1.5 310 23:19 22.10.2019
5703 Clouds 22 1012 60 10000 2.6 290 22:57 22.10.2019
5704 Clouds 22 1012 60 10000 2.6 290 22:39 22.10.2019
5705 Clouds 22 1012 60 10000 2.6 290 22:21 22.10.2019
5706 Clouds 21 1013 64 10000 2.6 290 21:56 22.10.2019
5707 Clouds 21 1013 64 10000 2.6 290 21:37 22.10.2019
5708 Clouds 23 1013 64 10000 2.6 290 21:18 22.10.2019
5709 Clouds 23 1013 50 10000 3.1 270 20:57 22.10.2019
5710 Clouds 23 1013 50 10000 3.1 270 20:38 22.10.2019
5711 Clouds 23 1013 50 10000 3.1 270 20:20 22.10.2019
5712 Clouds 22 1012 53 10000 3.1 310 19:55 22.10.2019
5713 Clouds 22 1012 53 10000 3.1 310 19:37 22.10.2019
5714 Clouds 22 1012 53 10000 3.1 310 19:19 22.10.2019
5715 Clouds 24 1012 50 10000 2.6 340 18:41 22.10.2019
5716 Clear 24 1012 50 10000 2.6 340 18:22 22.10.2019
5717 Clear 25 1011 47 10000 3.6 340 17:59 22.10.2019
5718 Clear 25 1011 47 10000 3.6 340 17:39 22.10.2019
5719 Clear 25 1011 47 10000 3.6 340 17:39 22.10.2019
5720 Clear 25 1011 47 10000 3.6 340 17:20 22.10.2019
5721 Clear 28 1010 37 10000 5.1 310 16:57 22.10.2019
5722 Clear 28 1010 37 10000 5.1 310 16:38 22.10.2019
5723 Clear 28 1010 37 10000 5.1 310 16:19 22.10.2019
5724 Clear 28 1010 37 10000 5.1 310 16:19 22.10.2019
5725 Clear 29 1010 35 10000 6.2 320 15:58 22.10.2019
5726 Clear 29 1010 35 10000 6.2 320 15:39 22.10.2019
5727 Clouds 29 1010 35 10000 6.2 320 15:18 22.10.2019
5728 Clouds 29 1011 42 10000 5.7 320 14:43 22.10.2019
5729 Clouds 29 1010 37 10000 6.2 320 14:20 22.10.2019
5730 Clouds 29 1010 37 10000 6.2 320 13:43 22.10.2019
5731 Clouds 29 1010 37 10000 6.2 320 13:22 22.10.2019
5732 Clouds 29 1010 37 10000 6.2 320 13:22 22.10.2019
5733 Clouds 29 1010 37 10000 6.7 310 12:59 22.10.2019
5734 Clouds 29 1010 37 10000 6.7 310 12:40 22.10.2019
5735 Clouds 29 1010 37 10000 6.7 310 12:21 22.10.2019
5736 Clouds 28 1011 39 10000 7.2 310 11:56 22.10.2019
5737 Clouds 28 1011 39 10000 7.2 310 11:38 22.10.2019
5738 Clouds 28 1011 39 10000 7.2 310 11:20 22.10.2019
5739 Clouds 26 1011 47 10000 6.2 310 10:56 22.10.2019
5740 Clouds 26 1011 47 10000 6.2 310 10:37 22.10.2019
5741 Clouds 26 1011 47 10000 6.2 310 10:18 22.10.2019
5742 Clouds 24 1011 50 10000 6.2 310 09:54 22.10.2019
5743 Rain 24 1011 50 10000 6.2 310 09:36 22.10.2019
5744 Clouds 24 1011 50 10000 6.2 310 09:18 22.10.2019
5745 Clouds 24 1011 42 10000 4.6 320 08:42 22.10.2019
5746 Clouds 24 1011 42 10000 4.6 320 08:20 22.10.2019
5747 Clouds 23 1011 44 10000 3.6 10 07:45 22.10.2019
5748 Clouds 23 1011 44 10000 3.6 10 07:26 22.10.2019
5749 Clouds 21 1011 53 10000 4.1 20 06:48 22.10.2019
5750 Clouds 21 1011 53 10000 4.1 20 06:30 22.10.2019
5751 Clouds 21 1011 53 10000 6.2 20 05:50 22.10.2019
5752 Clouds 21 1011 53 10000 6.2 20 05:19 22.10.2019
5753 Clouds 21 1011 56 10000 7.2 10 02:47 22.10.2019
5754 Clouds 21 1011 56 10000 7.2 10 02:28 22.10.2019
5755 Clouds 21 1011 56 10000 8.2 20 01:27 22.10.2019
5756 Clouds 21 1011 53 10000 9.8 10 00:57 22.10.2019
5757 Clouds 21 1011 53 10000 9.8 10 00:39 22.10.2019
5758 Rain 21 1011 53 10000 9.8 10 00:20 22.10.2019
5759 Clouds 21 1011 53 10000 10.3 10 23:54 21.10.2019
5760 Clouds 21 1011 53 10000 10.3 10 23:36 21.10.2019
5761 Clouds 21 1011 53 10000 10.3 10 23:36 21.10.2019
5762 Clouds 21 1011 53 10000 10.3 10 23:18 21.10.2019
5763 Thunderstorm 22 1011 56 10000 9.8 10 22:54 21.10.2019
5764 Thunderstorm 22 1011 56 10000 9.8 10 22:54 21.10.2019
5765 Thunderstorm 22 1011 56 10000 9.8 10 22:36 21.10.2019
5766 Thunderstorm 22 1011 56 10000 9.8 10 22:18 21.10.2019
5767 Thunderstorm 24 1011 47 10000 6.2 10 21:41 21.10.2019
5768 Thunderstorm 24 1011 47 10000 6.2 10 21:23 21.10.2019
5769 Clouds 25 1010 44 10000 5.1 60 20:58 21.10.2019
5770 Clouds 25 1010 44 10000 5.1 60 20:40 21.10.2019
5771 Clouds 25 1010 44 10000 5.1 60 20:21 21.10.2019
5772 Rain 26 1010 44 10000 6.2 60 19:59 21.10.2019
5773 Rain 26 1010 44 10000 6.2 60 19:40 21.10.2019
5774 Rain 27 1010 44 10000 6.2 60 19:22 21.10.2019
5775 Rain 27 1010 39 10000 6.2 70 18:56 21.10.2019
5776 Rain 27 1010 39 10000 6.2 70 18:37 21.10.2019
5777 Clouds 27 1010 39 10000 6.2 70 18:19 21.10.2019
5778 Clouds 28 1010 37 10000 6.2 70 17:56 21.10.2019
5779 Clouds 28 1010 37 10000 6.2 70 17:37 21.10.2019
5780 Clouds 28 1010 37 10000 6.2 70 17:18 21.10.2019
5781 Clouds 29 1010 35 10000 6.2 80 16:56 21.10.2019
5782 Clouds 29 1010 35 10000 6.2 80 16:38 21.10.2019
5783 Clouds 29 1010 35 10000 6.2 80 16:19 21.10.2019
5784 Clouds 31 1010 31 10000 3.6 80 15:45 21.10.2019
5785 Clouds 31 1010 31 10000 3.6 80 15:25 21.10.2019
5786 Clouds 32 1011 31 10000 6.2 160 14:58 21.10.2019
5787 Clouds 32 1011 31 10000 6.2 160 14:38 21.10.2019
5788 Clouds 32 1011 31 10000 6.2 160 14:19 21.10.2019
5789 Thunderstorm 32 1011 29 10000 3.6 100 13:56 21.10.2019
5790 Thunderstorm 32 1011 29 10000 3.6 100 13:38 21.10.2019
5791 Clouds 32 1011 29 10000 3.6 80 13:19 21.10.2019
5792 Clouds 32 1011 29 10000 3.6 80 12:41 21.10.2019
5793 Haze 32 1011 29 10000 3.6 80 12:22 21.10.2019
5794 Haze 32 1012 27 10000 3.6 150 11:57 21.10.2019
5795 Haze 32 1012 27 10000 3.6 150 11:38 21.10.2019
5796 Haze 32 1012 27 10000 3.6 150 11:20 21.10.2019
5797 Haze 31 1012 27 10000 5.7 120 10:56 21.10.2019
5798 Haze 31 1012 27 10000 5.7 120 10:56 21.10.2019
5799 Haze 31 1012 27 10000 5.7 120 10:38 21.10.2019
5800 Haze 31 1012 27 10000 5.7 120 10:19 21.10.2019
5801 Haze 30 1013 33 10000 5.1 130 09:44 21.10.2019
5802 Clouds 30 1013 33 10000 5.1 130 09:26 21.10.2019
5803 Clouds 28 1014 37 10000 4.6 130 08:57 21.10.2019
5804 Clouds 28 1014 37 10000 4.6 130 08:37 21.10.2019
5805 Clouds 28 1014 37 10000 4.6 130 08:19 21.10.2019
5806 Clouds 24 1013 47 10000 3.6 120 07:39 21.10.2019
5807 Clouds 24 1013 47 10000 3.6 120 07:21 21.10.2019
5808 Clouds 22 1013 53 10000 3.1 120 06:56 21.10.2019
5809 Clouds 22 1013 53 10000 3.1 120 06:36 21.10.2019
5810 Clear 22 1013 53 10000 3.1 100 05:56 21.10.2019
5811 Clear 22 1013 53 10000 3.1 100 05:56 21.10.2019
5812 Clear 22 1013 49 10000 3.1 110 04:45 21.10.2019
5813 Clear 23 1012 50 10000 1.5 70 03:37 21.10.2019
5814 Rain 23 1013 56 9000 1.5 60 02:24 21.10.2019
5815 Clear 23 1013 53 10000 2.97 81.733 01:59 21.10.2019
5816 Clear 23 1013 53 10000 3.08 73.31 01:23 21.10.2019
5817 Clear 25 1013 47 10000 1.5 120 00:48 21.10.2019
5818 Clear 25 1013 47 10000 1.5 120 00:25 21.10.2019
5819 Haze 25 1013 50 8000 2.1 80 23:42 20.10.2019
5820 Haze 25 1013 50 8000 2.1 80 23:22 20.10.2019
5821 Haze 25 1013 50 8000 2.1 80 23:22 20.10.2019
5822 Haze 24 1013 50 10000 2.1 110 22:57 20.10.2019
5823 Haze 24 1013 50 10000 2.1 110 22:38 20.10.2019
5824 Haze 24 1013 50 10000 2.1 110 22:18 20.10.2019
5825 Clear 26 1013 44 10000 0.5 30 21:57 20.10.2019
5826 Clear 26 1013 44 10000 0.5 30 21:39 20.10.2019
5827 Clear 26 1013 44 10000 0.5 30 21:21 20.10.2019
5828 Clouds 27 1013 47 10000 1.5 70 20:42 20.10.2019
5829 Clouds 27 1013 47 10000 1.5 70 20:19 20.10.2019
5830 Clear 28 1012 37 10000 2.1 210 19:57 20.10.2019
5831 Clear 28 1012 37 10000 2.1 210 19:39 20.10.2019
5832 Clear 28 1012 37 10000 2.1 210 19:39 20.10.2019
5833 Clear 28 1012 37 10000 2.1 210 19:20 20.10.2019
5834 Clear 28 1012 37 10000 2.1 210 19:20 20.10.2019
5835 Clear 28 1012 37 10000 2.1 200 18:56 20.10.2019
5836 Clear 28 1012 37 10000 2.1 200 18:56 20.10.2019
5837 Clear 28 1012 37 10000 2.1 200 18:38 20.10.2019
5838 Clear 28 1012 37 10000 2.1 200 18:38 20.10.2019
5839 Clear 30 1012 37 10000 2.1 200 18:19 20.10.2019
5840 Clear 30 1012 33 10000 2.1 180 17:54 20.10.2019
5841 Clear 30 1012 33 10000 2.1 180 17:36 20.10.2019
5842 Clear 33 1012 33 10000 2.1 180 17:18 20.10.2019
5843 Clear 33 1012 27 10000 1.5 180 16:41 20.10.2019
5844 Clear 34 1012 27 10000 1.5 180 16:23 20.10.2019
5845 Clear 34 1012 26 10000 3.1 140 15:57 20.10.2019
5846 Clear 34 1012 26 10000 3.1 140 15:38 20.10.2019
5847 Clear 34 1012 26 10000 3.1 140 15:19 20.10.2019
5848 Clouds 35 1012 23 10000 3.1 130 14:57 20.10.2019
5849 Clouds 35 1012 23 10000 3.1 130 14:37 20.10.2019
5850 Clouds 35 1012 23 10000 3.1 130 14:19 20.10.2019
5851 Clouds 35 1013 24 10000 3.1 160 13:55 20.10.2019
5852 Clouds 35 1013 24 10000 3.1 160 13:36 20.10.2019
5853 Clouds 35 1013 24 10000 3.1 160 13:18 20.10.2019
5854 Clouds 34 1013 24 10000 2.6 160 12:55 20.10.2019
5855 Clouds 34 1013 24 10000 2.6 160 12:37 20.10.2019
5856 Clouds 34 1013 24 10000 2.6 160 12:19 20.10.2019
5857 Clear 33 1014 26 10000 1 0 11:42 20.10.2019
5858 Clear 33 1014 26 10000 1 0 11:23 20.10.2019
5859 Haze 32 1014 27 10000 1 0 10:59 20.10.2019
5860 Haze 32 1014 27 10000 1 0 10:40 20.10.2019
5861 Haze 32 1014 27 10000 1 0 10:22 20.10.2019
5862 Haze 31 1015 31 10000 2.1 330 09:57 20.10.2019
5863 Haze 31 1015 31 10000 2.1 330 09:39 20.10.2019
5864 Haze 31 1015 31 10000 2.1 330 09:20 20.10.2019
5865 Haze 29 1015 35 10000 1 0 08:45 20.10.2019
5866 Haze 29 1015 35 10000 1 0 08:22 20.10.2019
5867 Haze 26 1015 44 9000 1 0 07:50 20.10.2019
5868 Haze 26 1015 44 9000 1 0 07:30 20.10.2019
5869 Haze 26 1015 44 9000 1 0 07:30 20.10.2019
5870 Haze 22 1014 56 10000 1 0 06:34 20.10.2019
5871 Haze 21 1014 53 10000 3.1 310 05:58 20.10.2019
5872 Haze 22 1013 56 10000 3.1 330 04:25 20.10.2019
5873 Haze 24 1012 53 10000 1 360 03:41 20.10.2019
5874 Haze 24 1012 53 10000 1 360 03:20 20.10.2019
5875 Haze 24 1012 50 10000 2.1 330 02:36 20.10.2019
5876 Haze 24 1013 44 10000 2.1 270 01:58 20.10.2019
5877 Haze 24 1013 44 10000 2.1 270 01:23 20.10.2019
5878 Clouds 27 1012 39 10000 4.1 150 00:55 20.10.2019
5879 Clouds 27 1012 39 10000 4.1 150 00:22 20.10.2019
5880 Clouds 28 1012 39 10000 3.6 120 23:59 19.10.2019
5881 Clouds 28 1012 39 10000 3.6 120 23:40 19.10.2019
5882 Clouds 28 1012 39 10000 3.6 120 23:21 19.10.2019
5883 Rain 29 1014 33 10000 4.6 210 22:55 19.10.2019
5884 Rain 29 1014 33 10000 4.6 210 22:37 19.10.2019
5885 Rain 29 1014 33 10000 4.6 210 22:18 19.10.2019
5886 Rain 31 1014 27 10000 6.7 290 21:45 19.10.2019
5887 Rain 31 1014 27 10000 6.7 290 21:21 19.10.2019
5888 Rain 31 1013 33 10000 1.5 270 20:45 19.10.2019
5889 Clouds 31 1013 33 10000 1.5 270 20:22 19.10.2019
5890 Clouds 30 1012 37 10000 1.5 340 19:57 19.10.2019
5891 Clouds 30 1012 37 10000 1.5 340 19:39 19.10.2019
5892 Clouds 30 1012 37 10000 1.5 340 19:20 19.10.2019
5893 Clouds 31 1012 33 10000 1.5 200 18:41 19.10.2019
5894 Clouds 31 1012 33 10000 1.5 200 18:23 19.10.2019
5895 Clouds 32 1011 31 10000 3.1 140 17:55 19.10.2019
5896 Clouds 32 1011 31 10000 3.1 140 17:36 19.10.2019
5897 Clouds 32 1011 31 10000 3.1 140 17:18 19.10.2019
5898 Smoke 32 1011 27 10000 5.7 170 16:39 19.10.2019
5899 Smoke 32 1011 27 10000 5.7 170 16:20 19.10.2019
5900 Clouds 34 1011 24 10000 3.6 120 15:44 19.10.2019
5901 Clouds 34 1011 24 10000 3.6 120 15:44 19.10.2019
5902 Clouds 34 1011 24 10000 3.6 120 15:26 19.10.2019
5903 Clouds 34 1011 24 10000 6.2 130 14:55 19.10.2019
5904 Clouds 34 1011 24 10000 6.2 130 14:37 19.10.2019
5905 Clouds 34 1011 24 10000 6.2 130 14:19 19.10.2019
5906 Clouds 34 1011 24 10000 6.2 130 14:19 19.10.2019
5907 Haze 35 1012 24 10000 4.1 180 13:54 19.10.2019
5908 Haze 35 1012 24 10000 4.1 180 13:36 19.10.2019
5909 Haze 35 1012 24 10000 4.1 180 13:36 19.10.2019
5910 Haze 35 1012 24 10000 4.1 180 13:18 19.10.2019
5911 Haze 35 1012 24 10000 4.1 180 13:18 19.10.2019
5912 Haze 35 1013 30 10000 3.1 200 12:39 19.10.2019
5913 Haze 35 1013 30 10000 3.1 200 12:21 19.10.2019
5914 Haze 34 1014 29 10000 3.1 170 11:56 19.10.2019
5915 Haze 34 1014 29 10000 3.1 170 11:36 19.10.2019
5916 Haze 34 1014 29 10000 3.1 170 11:18 19.10.2019
5917 Haze 33 1014 27 10000 1.5 160 10:41 19.10.2019
5918 Haze 33 1014 27 10000 1.5 160 10:23 19.10.2019
5919 Haze 31 1015 31 10000 1 0 09:58 19.10.2019
5920 Haze 31 1015 31 10000 1 0 09:39 19.10.2019
5921 Haze 31 1015 31 10000 1 0 09:21 19.10.2019
5922 Haze 28 1015 35 10000 1.5 190 08:41 19.10.2019
5923 Haze 28 1015 35 10000 1.5 190 08:23 19.10.2019
5924 Haze 27 1015 37 10000 3.1 220 07:59 19.10.2019
5925 Haze 27 1015 37 10000 3.1 220 07:41 19.10.2019
5926 Haze 26 1014 41 9000 1 0 07:23 19.10.2019
5927 Clear 22 1014 52 10000 0.5 0 06:35 19.10.2019
5928 Clouds 22 1013 49 10000 1.5 190 05:36 19.10.2019
5929 Clouds 24 1013 31 10000 1.5 70 04:26 19.10.2019
5930 Clouds 24 1013 31 10000 1.5 70 04:26 19.10.2019
5931 Clouds 24 1012 53 10000 0.5 0 03:18 19.10.2019
5932 Clear 22 1012 56 10000 1 30 02:20 19.10.2019
5933 Haze 22 1012 49 10000 0.5 0 01:48 19.10.2019
5934 Clear 26 1012 41 10000 1 0 00:52 19.10.2019
5935 Clear 26 1012 41 10000 1 0 00:29 19.10.2019
5936 Clear 25 1013 50 10000 0.32 86.446 23:57 18.10.2019
5937 Clear 25 1013 50 10000 0.32 86.446 23:38 18.10.2019
5938 Clear 25 1013 50 10000 0.32 86.446 23:20 18.10.2019
5939 Clear 26 1013 39 10000 1.5 200 22:54 18.10.2019
5940 Clear 26 1013 39 10000 1.5 200 22:36 18.10.2019
5941 Clear 26 1013 39 10000 1.5 200 22:18 18.10.2019
5942 Clear 26 1013 39 10000 1.5 200 22:18 18.10.2019
5943 Clear 26 1013 41 10000 0.5 90 21:55 18.10.2019
5944 Clear 26 1013 41 10000 0.5 90 21:36 18.10.2019
5945 Clear 26 1013 41 10000 0.5 90 21:18 18.10.2019
5946 Clear 26 1013 41 10000 0.5 90 21:18 18.10.2019
5947 Clear 27 1013 34 10000 2.07 33.929 20:43 18.10.2019
5948 Clear 27 1013 34 10000 2.07 33.929 20:23 18.10.2019
5949 Haze 27 1013 39 10000 1 30 19:58 18.10.2019
5950 Haze 27 1013 39 10000 1 30 19:40 18.10.2019
5951 Haze 27 1013 39 10000 1 30 19:22 18.10.2019
5952 Haze 30 1013 42 10000 2.07 33.929 18:59 18.10.2019
5953 Haze 30 1013 42 10000 2.07 33.929 18:59 18.10.2019
5954 Haze 30 1013 42 10000 2.07 33.929 18:41 18.10.2019
5955 Haze 30 1013 42 10000 2.14 329.339 18:22 18.10.2019
5956 Clear 34 1013 27 10000 1.5 230 17:56 18.10.2019
5957 Clear 34 1013 27 10000 1.5 230 17:37 18.10.2019
5958 Clear 34 1013 27 10000 1.5 230 17:19 18.10.2019
5959 Clear 35 1012 21 10000 2.6 280 16:40 18.10.2019
5960 Clear 36 1012 21 10000 2.6 280 16:21 18.10.2019
5961 Clear 36 1012 22 10000 3.1 270 15:57 18.10.2019
5962 Clear 36 1012 22 10000 3.1 270 15:38 18.10.2019
5963 Clear 36 1012 22 10000 3.1 270 15:20 18.10.2019
5964 Clear 36 1013 23 10000 3.1 270 14:57 18.10.2019
5965 Clear 36 1013 23 10000 3.1 270 14:38 18.10.2019
5966 Clear 36 1013 23 10000 3.1 270 14:19 18.10.2019
5967 Clear 36 1013 23 10000 3.1 270 13:55 18.10.2019
5968 Clear 36 1013 23 10000 3.1 270 13:36 18.10.2019
5969 Clear 36 1013 23 10000 3.1 270 13:18 18.10.2019
5970 Haze 36 1014 23 10000 2.6 250 12:55 18.10.2019
5971 Haze 36 1014 23 10000 2.6 250 12:37 18.10.2019
5972 Haze 36 1014 23 10000 2.6 250 12:18 18.10.2019
5973 Haze 35 1015 26 10000 3.1 260 11:41 18.10.2019
5974 Haze 35 1015 26 10000 3.1 260 11:20 18.10.2019
5975 Haze 34 1015 31 10000 3.1 260 10:58 18.10.2019
5976 Haze 34 1015 31 10000 3.1 260 10:40 18.10.2019
5977 Haze 34 1015 31 10000 3.1 260 10:20 18.10.2019
5978 Haze 33 1016 27 10000 1.5 0 09:57 18.10.2019
5979 Haze 33 1016 27 10000 1.5 0 09:39 18.10.2019
5980 Haze 33 1016 27 10000 1.5 0 09:19 18.10.2019
5981 Clear 31 1016 35 10000 2.1 350 08:45 18.10.2019
5982 Clear 31 1016 35 10000 2.1 350 08:25 18.10.2019
5983 Clear 31 1016 35 10000 2.1 350 08:25 18.10.2019
5984 Smoke 27 1016 39 10000 0.5 0 07:57 18.10.2019
5985 Smoke 27 1016 39 10000 0.5 0 07:38 18.10.2019
5986 Smoke 22 1015 49 10000 1.5 320 06:56 18.10.2019
5987 Smoke 22 1015 49 10000 1.5 320 06:36 18.10.2019
5988 Smoke 22 1015 49 10000 1.5 320 06:18 18.10.2019
5989 Clouds 23 1015 44 10000 1.5 200 05:52 18.10.2019
5990 Clouds 23 1015 44 10000 1.5 200 05:19 18.10.2019
5991 Clouds 25 1015 41 10000 1.5 330 03:41 18.10.2019
5992 Haze 26 1015 34 10000 1.5 250 02:56 18.10.2019
5993 Haze 26 1015 34 10000 1.5 250 02:56 18.10.2019
5994 Haze 26 1015 34 10000 1.5 250 02:32 18.10.2019
5995 Haze 27 1015 34 10000 4.1 250 01:42 18.10.2019
5996 Haze 27 1015 34 10000 4.1 250 01:23 18.10.2019
5997 Clouds 26 1015 39 10000 2.1 260 00:43 18.10.2019
5998 Clouds 26 1015 39 10000 2.1 260 00:20 18.10.2019
5999 Rain 26 1015 39 9000 2.6 230 23:40 17.10.2019
6000 Rain 26 1015 39 9000 2.6 230 23:21 17.10.2019
6001 Clouds 26 1015 47 9000 2.1 330 22:58 17.10.2019
6002 Clouds 26 1015 47 9000 2.1 330 22:58 17.10.2019
6003 Clouds 26 1015 47 9000 2.1 330 22:39 17.10.2019
6004 Clouds 26 1015 47 9000 2.1 330 22:19 17.10.2019
6005 Rain 26 1016 44 9000 1 10 21:58 17.10.2019
6006 Rain 26 1016 44 9000 1 10 21:39 17.10.2019
6007 Rain 26 1016 44 9000 1 10 21:20 17.10.2019
6008 Rain 28 1016 42 9000 1 0 20:58 17.10.2019
6009 Rain 28 1016 42 9000 1 0 20:58 17.10.2019
6010 Rain 28 1016 42 9000 1 0 20:39 17.10.2019
6011 Rain 28 1016 42 9000 1 0 20:19 17.10.2019
6012 Rain 28 1016 42 9000 1 0 20:19 17.10.2019
6013 Clouds 29 1016 37 8000 1.5 290 19:59 17.10.2019
6014 Clouds 29 1016 37 8000 1.5 290 19:39 17.10.2019
6015 Clouds 29 1016 37 8000 1.5 290 19:19 17.10.2019
6016 Haze 29 1016 42 10000 1 300 18:58 17.10.2019
6017 Haze 29 1016 42 10000 1 300 18:38 17.10.2019
6018 Haze 29 1016 42 10000 1 300 18:19 17.10.2019
6019 Clouds 30 1015 38 10000 1.5 290 17:42 17.10.2019
6020 Clouds 30 1015 38 10000 1.5 290 17:23 17.10.2019
6021 Clouds 32 1016 31 10000 3.1 240 16:57 17.10.2019
6022 Clouds 32 1016 31 10000 3.1 240 16:38 17.10.2019
6023 Clouds 32 1016 31 10000 3.1 240 16:18 17.10.2019
6024 Clouds 33 1016 24 10000 2.6 250 15:55 17.10.2019
6025 Clouds 33 1016 24 10000 2.6 250 15:37 17.10.2019
6026 Clouds 33 1016 24 10000 2.6 250 15:19 17.10.2019
6027 Clouds 33 1016 23 10000 3.6 270 14:43 17.10.2019
6028 Clouds 33 1016 23 10000 3.6 270 14:24 17.10.2019
6029 Clouds 33 1016 23 10000 3.6 270 14:24 17.10.2019
6030 Clouds 33 1016 23 10000 3.6 270 14:24 17.10.2019
6031 Clouds 34 1016 20 10000 4.1 300 13:57 17.10.2019
6032 Clouds 34 1016 20 10000 4.1 300 13:39 17.10.2019
6033 Clouds 34 1016 20 10000 4.1 300 13:19 17.10.2019
6034 Clouds 34 1016 20 10000 3.1 310 12:43 17.10.2019
6035 Clear 34 1016 20 10000 3.1 310 12:21 17.10.2019
6036 Clear 34 1017 24 10000 2.6 280 11:59 17.10.2019
6037 Clear 34 1017 24 10000 2.6 280 11:41 17.10.2019
6038 Clear 34 1017 24 10000 2.6 280 11:41 17.10.2019
6039 Clear 34 1017 24 10000 2.6 280 11:20 17.10.2019
6040 Clear 33 1017 26 10000 2.6 270 10:57 17.10.2019
6041 Clear 33 1017 26 10000 2.6 270 10:39 17.10.2019
6042 Clear 33 1017 26 10000 2.6 270 10:19 17.10.2019
6043 Clear 32 1018 22 10000 3.1 270 09:55 17.10.2019
6044 Clouds 32 1018 22 10000 3.1 270 09:36 17.10.2019
6045 Clear 32 1018 22 10000 3.1 270 09:18 17.10.2019
6046 Clear 32 1018 22 10000 3.1 270 09:18 17.10.2019
6047 Clear 28 1017 28 9000 3.1 280 08:46 17.10.2019
6048 Clear 28 1017 28 9000 3.1 280 08:26 17.10.2019
6049 Clouds 26 1017 32 10000 1.5 280 07:56 17.10.2019
6050 Clouds 26 1017 32 10000 1.5 280 07:38 17.10.2019
6051 Clouds 26 1017 32 10000 1.5 280 07:19 17.10.2019
6052 Clear 23 1016 41 10000 2.1 260 06:40 17.10.2019
6053 Clear 23 1016 41 10000 2.1 260 06:21 17.10.2019
6054 Clear 21 1016 46 10000 1 300 05:58 17.10.2019
6055 Clear 21 1016 46 10000 1 300 05:32 17.10.2019
6056 Clear 21 1016 43 10000 1 280 04:57 17.10.2019
6057 Clear 22 1015 38 10000 2.565 326 03:55 17.10.2019
6058 Clouds 22 1015 40 10000 2.6 10 02:53 17.10.2019
6059 Clouds 24 1015 40 10000 1.5 40 01:55 17.10.2019
6060 Clouds 26 1015 36 10000 1 0 00:41 17.10.2019
6061 Clouds 26 1015 36 10000 1 0 00:20 17.10.2019
6062 Clouds 26 1015 36 10000 1 0 00:20 17.10.2019
6063 Clouds 25 1015 31 10000 2.1 260 23:42 16.10.2019
6064 Clouds 25 1015 31 10000 2.1 260 23:21 16.10.2019
6065 Clouds 24 1015 29 10000 1.5 290 22:57 16.10.2019
6066 Clouds 24 1015 29 10000 1.5 290 22:38 16.10.2019
6067 Clouds 24 1015 29 10000 1.5 290 22:19 16.10.2019
6068 Clouds 24 1015 29 10000 1.5 290 22:19 16.10.2019
6069 Clouds 27 1015 26 10000 2.1 300 21:58 16.10.2019
6070 Clouds 27 1015 26 10000 2.1 300 21:38 16.10.2019
6071 Clouds 27 1015 26 10000 2.1 300 21:20 16.10.2019
6072 Clouds 27 1014 26 10000 2.6 10 20:58 16.10.2019
6073 Clouds 27 1014 26 10000 2.6 10 20:40 16.10.2019
6074 Clouds 27 1014 26 10000 2.6 10 20:21 16.10.2019
6075 Haze 26 1015 24 9000 2.6 270 19:59 16.10.2019
6076 Haze 26 1015 24 9000 2.6 270 19:39 16.10.2019
6077 Haze 26 1015 24 9000 2.6 270 19:39 16.10.2019
6078 Haze 27 1015 24 9000 2.6 270 19:21 16.10.2019
6079 Clouds 27 1015 24 10000 2.6 320 18:55 16.10.2019
6080 Clouds 27 1015 24 10000 2.6 320 18:36 16.10.2019
6081 Clouds 27 1015 24 10000 2.6 320 18:18 16.10.2019
6082 Clouds 29 1014 30 10000 2.1 340 17:54 16.10.2019
6083 -273 0 0 0 0 0 17:54 16.10.2019
6084 Clouds 29 1014 30 10000 2.1 340 17:36 16.10.2019
6085 Clouds 29 1014 30 10000 2.1 340 17:18 16.10.2019
6086 Clouds 32 1015 22 10000 2.6 250 16:43 16.10.2019
6087 Clouds 32 1015 22 10000 2.6 250 16:21 16.10.2019
6088 Clouds 33 1015 24 10000 3.1 260 15:58 16.10.2019
6089 Clouds 33 1015 24 10000 3.1 260 15:39 16.10.2019
6090 Clouds 34 1015 24 10000 4.1 290 15:19 16.10.2019
6091 Clouds 34 1015 24 10000 4.1 290 14:58 16.10.2019
6092 Clouds 34 1015 24 10000 4.1 290 14:39 16.10.2019
6093 Clouds 34 1015 24 10000 4.1 290 14:19 16.10.2019
6094 Clouds 34 1015 24 10000 5.1 300 13:57 16.10.2019
6095 Clouds 34 1015 24 10000 5.1 300 13:38 16.10.2019
6096 Clouds 36 1015 24 10000 5.1 300 13:20 16.10.2019
6097 Clouds 35 1015 29 10000 4.1 280 12:42 16.10.2019
6098 Clouds 35 1015 29 10000 4.1 280 12:19 16.10.2019
6099 Clear 34 1016 28 10000 2.6 270 11:45 16.10.2019
6100 Clear 34 1016 28 10000 2.6 270 11:45 16.10.2019
6101 Clear 34 1016 28 10000 2.6 270 11:19 16.10.2019
6102 Clear 31 1016 29 10000 4.1 270 10:55 16.10.2019
6103 Clear 31 1016 29 10000 4.1 270 10:36 16.10.2019
6104 Clear 31 1016 29 10000 4.1 270 10:18 16.10.2019
6105 Clear 30 1016 20 10000 4.1 290 09:40 16.10.2019
6106 Clear 30 1016 20 10000 4.1 290 09:21 16.10.2019
6107 Clear 27 1016 21 10000 3.6 290 08:46 16.10.2019
6108 Clear 27 1016 21 10000 3.6 290 08:26 16.10.2019
6109 Haze 25 1016 24 8000 1.5 0 07:59 16.10.2019
6110 Clear 23 1016 31 10000 2.6 270 07:41 16.10.2019
6111 Clear 23 1016 31 10000 2.6 270 07:22 16.10.2019
6112 Clear 20 1015 35 9000 2.1 290 06:46 16.10.2019
6113 Clear 20 1015 35 9000 2.1 290 06:27 16.10.2019
6114 Clear 21 1014 30 10000 2.1 290 04:24 16.10.2019
6115 Clear 20 1014 37 10000 2.6 320 02:50 16.10.2019
6116 Clear 20 1014 35 10000 2.6 360 01:20 16.10.2019
6117 Clear 21 1015 32 10000 3.6 330 00:58 16.10.2019
6118 Clear 21 1015 25 10000 2.1 290 00:39 16.10.2019
6119 Clear 24 1014 25 10000 2.1 330 23:58 15.10.2019
6120 Clear 24 1014 25 10000 2.1 330 23:38 15.10.2019
6121 Clear 24 1014 25 10000 2.1 330 23:19 15.10.2019
6122 Clear 23 1014 23 10000 3.1 320 22:55 15.10.2019
6123 Clear 23 1014 23 10000 3.1 320 22:37 15.10.2019
6124 Clear 23 1014 23 10000 3.1 320 22:18 15.10.2019
6125 Clear 23 1014 23 10000 3.1 320 22:18 15.10.2019
6126 Clear 24 1014 22 10000 1.5 290 21:54 15.10.2019
6127 Clear 24 1014 22 10000 1.5 290 21:36 15.10.2019
6128 Clear 24 1014 22 10000 1.5 290 21:18 15.10.2019
6129 Clear 26 1014 20 10000 3.6 270 20:54 15.10.2019
6130 Clear 26 1014 20 10000 3.6 270 20:54 15.10.2019
6131 Clear 26 1014 20 10000 3.6 270 20:54 15.10.2019
6132 Clear 26 1014 20 10000 3.6 270 20:36 15.10.2019
6133 Clear 26 1014 20 10000 3.6 270 20:18 15.10.2019
6134 Clear 27 1014 20 10000 3.1 250 19:41 15.10.2019
6135 Clear 27 1014 20 10000 3.1 250 19:20 15.10.2019
6136 Clear 27 1014 20 10000 3.1 250 19:20 15.10.2019
6137 Clear 27 1014 20 10000 3.1 250 18:57 15.10.2019
6138 Clear 29 1014 16 10000 2.1 260 18:39 15.10.2019
6139 Clear 29 1014 16 10000 2.1 260 18:20 15.10.2019
6140 Clear 30 1014 18 10000 2.6 260 17:43 15.10.2019
6141 Clear 30 1014 18 10000 2.6 260 17:43 15.10.2019
6142 Clear 30 1014 18 10000 2.6 260 17:21 15.10.2019
6143 Clear 33 1014 17 10000 2.6 260 16:59 15.10.2019
6144 Clear 34 1014 14 10000 4.6 250 16:41 15.10.2019
6145 Clear 34 1014 14 10000 4.6 250 16:21 15.10.2019
6146 Clear 36 1014 14 10000 2.6 350 15:56 15.10.2019
6147 Clear 36 1014 14 10000 2.6 350 15:38 15.10.2019
6148 Clouds 36 1014 14 10000 2.6 350 15:19 15.10.2019
6149 -273 0 0 0 0 0 14:55 15.10.2019
6150 Clouds 37 1014 14 10000 3.6 360 14:36 15.10.2019
6151 Clouds 37 1014 14 10000 3.6 360 14:18 15.10.2019
6152 Clouds 37 1015 13 10000 5.1 310 13:43 15.10.2019
6153 Clouds 37 1015 13 10000 5.1 310 13:20 15.10.2019
6154 Clouds 35 1015 15 10000 4.6 310 12:56 15.10.2019
6155 Clouds 35 1015 15 10000 4.6 310 12:37 15.10.2019
6156 Clouds 35 1015 15 10000 4.6 310 12:18 15.10.2019
6157 Clouds 35 1016 17 10000 4.6 340 11:42 15.10.2019
6158 Clouds 35 1016 17 10000 4.6 340 11:42 15.10.2019
6159 Clouds 35 1016 17 10000 4.6 340 11:20 15.10.2019
6160 Clouds 34 1016 16 10000 4.1 330 10:55 15.10.2019
6161 Clear 33 1016 19 10000 4.1 310 10:37 15.10.2019
6162 Clear 33 1016 19 10000 4.1 310 10:18 15.10.2019
6163 Clear 29 1017 23 10000 3.6 300 09:40 15.10.2019
6164 Clear 29 1017 23 10000 3.6 300 09:40 15.10.2019
6165 Clear 29 1017 23 10000 3.6 300 09:21 15.10.2019
6166 Clear 29 1017 23 10000 3.6 300 08:58 15.10.2019
6167 Clear 29 1017 23 10000 3.6 300 08:58 15.10.2019
6168 Clear 27 1017 24 10000 4.1 310 08:40 15.10.2019
6169 Clear 27 1017 24 10000 4.1 310 08:20 15.10.2019
6170 Clear 27 1017 24 10000 4.1 310 08:19 15.10.2019
6171 Clear 24 1017 25 10000 3.6 280 07:43 15.10.2019
6172 Clear 24 1017 25 10000 3.6 280 07:22 15.10.2019
6173 Clear 20 1016 30 10000 3.6 310 06:57 15.10.2019
6174 Clear 20 1016 30 10000 3.6 310 06:39 15.10.2019
6175 Clouds 21 1016 30 10000 3.1 320 05:56 15.10.2019
6176 Clear 19 1015 28 10000 3.6 290 05:36 15.10.2019
6177 Clear 19 1015 30 10000 3.6 310 04:48 15.10.2019
6178 Clear 19 1015 30 10000 3.6 310 04:19 15.10.2019
6179 Clear 19 1015 32 10000 3.1 320 03:35 15.10.2019
6180 Clear 19 1015 32 10000 3.1 320 03:35 15.10.2019
6181 Clear 22 1015 36 10000 4.1 290 01:57 15.10.2019
6182 Clear 22 1015 36 10000 4.1 290 01:39 15.10.2019
6183 Clear 23 1015 38 10000 3.6 270 00:59 15.10.2019
6184 Clear 23 1015 38 10000 3.6 270 00:25 15.10.2019
6185 Clear 25 1015 31 10000 3.6 270 23:59 14.10.2019
6186 Clear 25 1015 31 10000 3.6 270 23:37 14.10.2019
6187 Clear 25 1015 31 10000 3.6 270 23:37 14.10.2019
6188 Clear 25 1015 31 10000 3.6 270 23:18 14.10.2019
6189 Clear 26 1016 27 10000 1 0 22:39 14.10.2019
6190 Clear 26 1016 27 10000 1 0 22:21 14.10.2019
6191 Clear 25 1016 27 10000 2.1 270 21:58 14.10.2019
6192 Clear 25 1016 27 10000 2.1 270 21:40 14.10.2019
6193 Clear 25 1016 27 10000 2.1 270 21:21 14.10.2019
6194 Clear 27 1016 24 10000 3.6 270 20:58 14.10.2019
6195 Clear 27 1016 24 10000 3.6 270 20:38 14.10.2019
6196 Clear 27 1016 24 10000 3.6 270 20:38 14.10.2019
6197 Clear 27 1016 24 10000 3.6 270 20:19 14.10.2019
6198 -273 0 0 0 0 0 19:55 14.10.2019
6199 -273 0 0 0 0 0 19:54 14.10.2019
6200 Clear 27 1015 24 10000 2.6 270 19:36 14.10.2019
6201 Clear 27 1015 24 10000 2.6 270 19:18 14.10.2019
6202 Clear 29 1015 22 10000 3.1 270 18:54 14.10.2019
6203 Clear 29 1015 22 10000 3.1 270 18:36 14.10.2019
6204 Clear 29 1015 22 10000 3.1 270 18:18 14.10.2019
6205 Haze 31 1015 20 10000 2.1 270 17:41 14.10.2019
6206 Haze 31 1015 20 10000 2.1 270 17:22 14.10.2019
6207 Clear 34 1015 17 10000 4.6 240 16:54 14.10.2019
6208 Clear 34 1015 17 10000 4.6 240 16:36 14.10.2019
6209 Clear 34 1015 17 10000 4.6 240 16:18 14.10.2019
6210 Clear 37 1015 13 10000 5.1 270 15:40 14.10.2019
6211 Clear 37 1015 13 10000 5.1 270 15:21 14.10.2019
6212 Clear 37 1015 17 10000 5.1 260 14:44 14.10.2019
6213 Clear 37 1015 17 10000 5.1 260 14:44 14.10.2019
6214 Clear 37 1015 17 10000 5.1 260 14:25 14.10.2019
6215 Clear 37 1015 17 10000 4.6 260 13:58 14.10.2019
6216 -273 0 0 0 0 0 13:40 14.10.2019
6217 Clear 37 1015 17 10000 4.6 260 13:21 14.10.2019
6218 Clear 36 1016 19 10000 3.6 270 12:42 14.10.2019
6219 Clear 36 1016 19 10000 3.6 270 12:21 14.10.2019
6220 Clear 36 1016 23 10000 4.6 300 11:55 14.10.2019
6221 Clear 36 1016 23 10000 4.6 300 11:54 14.10.2019
6222 Clear 36 1016 23 10000 4.6 300 11:36 14.10.2019
6223 Clear 36 1016 23 10000 4.6 300 11:18 14.10.2019
6224 Clear 34 1017 27 10000 3.1 300 10:43 14.10.2019
6225 Clear 34 1017 27 10000 3.1 300 10:21 14.10.2019
6226 Clear 31 1017 33 10000 2.6 330 09:59 14.10.2019
6227 Clear 31 1017 33 10000 2.6 330 09:38 14.10.2019
6228 Clear 31 1017 33 10000 2.6 330 09:19 14.10.2019
6229 Clear 28 1017 34 10000 3.1 330 08:47 14.10.2019
6230 Clear 28 1017 34 10000 3.1 330 08:23 14.10.2019
6231 Clear 24 1016 38 10000 3.6 320 07:44 14.10.2019
6232 Clear 24 1016 38 10000 3.6 320 07:21 14.10.2019
6233 Clear 21 1016 43 10000 3.6 310 06:55 14.10.2019
6234 Clear 21 1016 43 10000 3.6 310 06:27 14.10.2019
6235 Clear 20 1015 49 10000 4.1 310 05:52 14.10.2019
6236 Clear 21 1015 46 10000 3.1 300 04:53 14.10.2019
6237 Clear 21 1015 49 10000 3.6 310 03:49 14.10.2019
6238 Clear 21 1015 49 10000 3.6 310 03:22 14.10.2019
6239 Clear 23 1015 44 10000 2.6 310 01:52 14.10.2019
6240 Clear 23 1015 44 10000 2.6 310 01:18 14.10.2019
6241 Clear 25 1015 44 10000 2.1 300 00:40 14.10.2019
6242 Clear 25 1015 44 10000 2.1 300 00:18 14.10.2019
6243 Clear 23 1014 44 10000 2.1 300 23:40 13.10.2019
6244 Clear 23 1014 44 10000 2.1 300 23:19 13.10.2019
6245 Clear 26 1014 41 10000 2.6 320 22:55 13.10.2019
6246 Clear 26 1014 41 10000 2.6 320 22:37 13.10.2019
6247 Clear 26 1014 41 10000 2.6 320 22:19 13.10.2019
6248 Clear 28 1014 39 10000 3.6 310 21:55 13.10.2019
6249 Clear 28 1014 39 10000 3.6 310 21:36 13.10.2019
6250 Clear 28 1014 39 10000 3.6 310 21:18 13.10.2019
6251 Clear 28 1014 39 10000 3.6 310 21:18 13.10.2019
6252 Clear 28 1014 39 10000 3.6 310 21:18 13.10.2019
6253 Clear 29 1014 35 10000 3.6 300 20:55 13.10.2019
6254 Clear 29 1014 35 10000 3.6 300 20:37 13.10.2019
6255 Clear 29 1014 35 10000 3.6 300 20:18 13.10.2019
6256 -273 0 0 0 0 0 19:54 13.10.2019
6257 Clear 29 1014 32 10000 3.1 310 19:36 13.10.2019
6258 Clear 29 1014 32 10000 3.1 310 19:18 13.10.2019
6259 Clear 32 1013 29 10000 2.6 320 18:39 13.10.2019
6260 Clear 34 1013 29 10000 2.6 320 18:20 13.10.2019
6261 Clear 34 1013 29 10000 2.6 320 18:20 13.10.2019
6262 Clear 34 1013 29 10000 2.1 320 17:59 13.10.2019
6263 Clear 34 1013 29 10000 2.1 320 17:41 13.10.2019
6264 Clear 34 1013 29 10000 2.1 320 17:22 13.10.2019
6265 Clear 37 1012 23 10000 3.1 310 16:43 13.10.2019
6266 Clear 37 1012 23 10000 3.1 310 16:19 13.10.2019
6267 Clear 38 1012 19 10000 3.6 340 15:57 13.10.2019
6268 Clear 38 1012 19 10000 3.6 340 15:57 13.10.2019
6269 Clear 38 1012 19 10000 3.6 340 15:39 13.10.2019
6270 Clear 39 1012 19 10000 3.6 340 15:20 13.10.2019
6271 Clear 39 1012 21 10000 3.6 350 14:58 13.10.2019
6272 Clear 39 1012 21 10000 3.6 350 14:39 13.10.2019
6273 Clear 39 1012 21 10000 3.6 350 14:20 13.10.2019
6274 Clear 38 1012 23 10000 3.6 340 13:55 13.10.2019
6275 Clear 38 1012 23 10000 3.6 340 13:37 13.10.2019
6276 Clear 38 1012 23 10000 3.6 340 13:18 13.10.2019
6277 Clouds 37 1012 23 10000 3.1 340 12:55 13.10.2019
6278 Clouds 37 1012 23 10000 3.1 340 12:55 13.10.2019
6279 Clouds 37 1012 23 10000 3.1 340 12:36 13.10.2019
6280 -273 0 0 0 0 0 12:18 13.10.2019
6281 Clouds 37 1013 25 10000 3.6 0 11:55 13.10.2019
6282 Clouds 37 1013 25 10000 3.6 0 11:36 13.10.2019
6283 Clouds 37 1013 25 10000 3.6 0 11:18 13.10.2019
6284 Haze 35 1013 28 10000 2.6 340 10:41 13.10.2019
6285 Haze 35 1013 28 10000 2.6 340 10:22 13.10.2019
6286 Dust 33 1014 24 9000 7.2 50 09:40 13.10.2019
6287 Dust 32 1014 24 9000 7.2 50 09:21 13.10.2019
6288 Clouds 31 1013 29 10000 3.1 20 08:57 13.10.2019
6289 Clouds 31 1013 29 10000 3.1 20 08:38 13.10.2019
6290 Clouds 31 1013 29 10000 3.1 20 08:19 13.10.2019
6291 Rain 27 1012 39 10000 3.1 20 07:46 13.10.2019
6292 Rain 25 1012 56 10000 2.6 330 06:59 13.10.2019
6293 Rain 25 1012 56 10000 2.6 330 06:40 13.10.2019
6294 Rain 25 1012 56 10000 4.1 310 05:34 13.10.2019
6295 Clouds 24 1011 53 10000 4.1 310 04:46 13.10.2019
6296 Clear 24 1010 47 10000 3.1 310 03:40 13.10.2019
6297 Clear 24 1010 53 10000 3.1 320 02:39 13.10.2019
6298 Clear 23 1010 47 10000 3.1 330 01:53 13.10.2019
6299 Clear 23 1010 47 10000 3.1 330 01:26 13.10.2019
6300 Clear 23 1010 47 10000 3.1 330 01:26 13.10.2019
6301 Clear 23 1010 50 10000 3.1 320 00:46 13.10.2019
6302 Clear 23 1010 50 10000 3.1 320 00:21 13.10.2019
6303 Clear 25 1010 44 10000 2.1 360 23:55 12.10.2019
6304 Clear 25 1010 44 10000 2.1 360 23:36 12.10.2019
6305 Clear 25 1010 44 10000 2.1 360 23:18 12.10.2019
6306 Clear 28 1010 42 10000 1.5 30 22:56 12.10.2019
6307 Clear 28 1010 42 10000 1.5 30 22:37 12.10.2019
6308 Clear 28 1010 42 10000 1.5 30 22:19 12.10.2019
6309 Clear 28 1010 39 10000 3.6 10 21:42 12.10.2019
6310 Clear 28 1010 39 10000 3.6 10 21:24 12.10.2019
6311 Clear 29 1010 35 10000 2.1 100 20:58 12.10.2019
6312 Clear 29 1010 35 10000 2.1 100 20:39 12.10.2019
6313 Clear 29 1010 35 10000 2.1 100 20:21 12.10.2019
6314 Clouds 30 1009 29 10000 4.6 150 19:37 12.10.2019
6315 Clouds 30 1009 29 10000 4.6 150 19:19 12.10.2019
6316 Thunderstorm 31 1009 31 10000 5.1 80 18:56 12.10.2019
6317 Thunderstorm 31 1009 31 10000 5.1 80 18:37 12.10.2019
6318 Thunderstorm 31 1009 31 10000 5.1 80 18:19 12.10.2019
6319 Rain 33 1010 26 6000 5.1 40 17:42 12.10.2019
6320 Rain 33 1010 26 6000 5.1 40 17:19 12.10.2019
6321 Dust 33 1010 26 5000 9.8 10 16:54 12.10.2019
6322 Dust 33 1010 26 5000 9.8 10 16:36 12.10.2019
6323 Dust 33 1010 26 5000 9.8 10 16:18 12.10.2019
6324 Rain 34 1010 24 8000 9.3 360 15:43 12.10.2019
6325 Dust 34 1010 24 8000 9.3 360 15:23 12.10.2019
6326 Dust 35 1010 23 9000 7.7 10 14:43 12.10.2019
6327 Dust 35 1010 23 9000 7.7 10 14:22 12.10.2019
6328 Dust 36 1010 20 10000 5.7 340 13:58 12.10.2019
6329 Dust 36 1010 20 10000 5.7 340 13:40 12.10.2019
6330 Dust 36 1010 20 10000 5.7 340 13:21 12.10.2019
6331 Dust 37 1010 18 10000 4.1 350 12:39 12.10.2019
6332 Dust 37 1010 18 10000 4.1 350 12:21 12.10.2019
6333 Haze 37 1010 21 10000 4.6 350 11:58 12.10.2019
6334 Haze 37 1010 21 10000 4.6 350 11:39 12.10.2019
6335 Haze 37 1010 21 10000 4.6 350 11:39 12.10.2019
6336 Haze 37 1010 21 10000 4.6 350 11:20 12.10.2019
6337 Haze 36 1011 23 10000 4.1 330 10:43 12.10.2019
6338 Haze 36 1011 23 10000 4.1 330 10:23 12.10.2019
6339 Haze 34 1011 23 10000 3.1 340 09:58 12.10.2019
6340 Haze 34 1011 23 10000 3.1 340 09:39 12.10.2019
6341 Haze 34 1011 23 10000 3.1 340 09:21 12.10.2019
6342 Haze 32 1011 29 8000 1.5 30 08:57 12.10.2019
6343 Haze 32 1011 29 8000 1.5 30 08:38 12.10.2019
6344 Haze 32 1011 29 8000 1.5 30 08:19 12.10.2019
6345 Haze 28 1010 39 8000 1 0 07:34 12.10.2019
6346 Haze 26 1010 41 10000 1.5 250 06:56 12.10.2019
6347 Haze 23 1010 44 10000 2.1 290 05:47 12.10.2019
6348 Haze 23 1010 44 10000 2.1 290 05:23 12.10.2019
6349 Clear 25 1009 47 10000 2.1 150 04:24 12.10.2019
6350 Clear 24 1009 50 10000 1.08 341.599 03:31 12.10.2019
6351 Clouds 25 1008 47 6000 1 0 01:45 12.10.2019
6352 Clouds 25 1008 47 6000 1 0 01:21 12.10.2019
6353 Clouds 26 1008 41 9000 0.5 0 00:42 12.10.2019
6354 Clouds 28 1009 34 9000 1.5 160 23:59 11.10.2019
6355 Clouds 28 1009 34 9000 1.5 160 23:40 11.10.2019
6356 Clouds 28 1009 34 9000 1.5 160 23:20 11.10.2019
6357 Clouds 30 1009 30 9000 2.6 210 22:41 11.10.2019
6358 Clouds 29 1009 30 9000 2.6 210 22:21 11.10.2019
6359 Smoke 29 1009 35 5000 1.5 150 21:57 11.10.2019
6360 Smoke 29 1009 35 5000 1.5 150 21:39 11.10.2019
6361 Smoke 29 1009 51 5000 2.1 80 21:20 11.10.2019
6362 Clear 30 1009 31 6000 1.5 120 20:44 11.10.2019
6363 Clear 30 1009 31 6000 1.5 120 20:26 11.10.2019
6364 Clear 31 1009 27 10000 1.5 140 19:58 11.10.2019
6365 Clear 31 1009 27 10000 1.5 140 19:39 11.10.2019
6366 Clear 31 1009 27 10000 1.5 140 19:39 11.10.2019
6367 Clear 31 1009 27 10000 1.5 140 19:18 11.10.2019
6368 Clear 33 1009 29 10000 1.5 20 18:59 11.10.2019
6369 Clear 33 1009 29 10000 1.5 20 18:38 11.10.2019
6370 Clear 33 1009 29 10000 1.5 20 18:19 11.10.2019
6371 Clear 33 1009 29 10000 1.5 20 18:19 11.10.2019
6372 Clear 33 1009 29 10000 1.5 20 18:19 11.10.2019
6373 Clear 35 1009 24 10000 1 340 17:58 11.10.2019
6374 Clear 35 1009 24 10000 1 340 17:38 11.10.2019
6375 Clear 35 1009 24 10000 1 340 17:19 11.10.2019
6376 Clear 38 1009 18 10000 1.5 340 16:58 11.10.2019
6377 Clear 38 1009 18 10000 1.5 340 16:39 11.10.2019
6378 Clear 38 1009 18 10000 1.5 340 16:19 11.10.2019
6379 Clear 40 1010 17 10000 2.6 350 15:41 11.10.2019
6380 Clear 40 1010 17 10000 2.6 350 15:21 11.10.2019
6381 Clear 40 1010 16 10000 2.1 330 14:58 11.10.2019
6382 Clear 40 1010 16 10000 2.1 330 14:39 11.10.2019
6383 Clear 40 1010 16 10000 2.1 330 14:20 11.10.2019
6384 Clear 41 1010 14 10000 2.6 320 13:45 11.10.2019
6385 Clear 41 1010 14 10000 2.6 320 13:45 11.10.2019
6386 Clear 41 1010 14 10000 2.6 320 13:25 11.10.2019
6387 Clear 40 1011 15 10000 2.6 320 12:57 11.10.2019
6388 Clear 40 1011 15 10000 2.6 320 12:39 11.10.2019
6389 Clear 40 1011 15 10000 2.6 320 12:20 11.10.2019
6390 Haze 39 1012 14 10000 3.1 330 11:58 11.10.2019
6391 Haze 39 1012 14 10000 3.1 330 11:38 11.10.2019
6392 Haze 39 1012 14 10000 3.1 330 11:38 11.10.2019
6393 Haze 39 1012 14 10000 3.1 330 11:20 11.10.2019
6394 Haze 37 1012 18 10000 2.1 320 10:55 11.10.2019
6395 Haze 37 1012 18 10000 2.1 320 10:36 11.10.2019
6396 Haze 37 1012 18 10000 2.1 320 10:18 11.10.2019
6397 Haze 37 1012 18 10000 2.1 320 10:18 11.10.2019
6398 Haze 35 1012 23 10000 2.1 350 09:41 11.10.2019
6399 Haze 35 1012 23 10000 2.1 350 09:21 11.10.2019
6400 Haze 31 1013 25 9000 2.6 270 08:57 11.10.2019
6401 Haze 31 1013 25 9000 2.6 270 08:38 11.10.2019
6402 Haze 31 1013 25 9000 2.6 270 08:20 11.10.2019
6403 Haze 27 1013 28 10000 2.6 310 07:52 11.10.2019
6404 Haze 27 1013 28 10000 2.6 310 07:33 11.10.2019
6405 Haze 25 1012 38 10000 2.6 300 06:50 11.10.2019
6406 Haze 25 1012 38 10000 2.6 300 06:25 11.10.2019
6407 Haze 23 1011 38 10000 3.1 280 05:47 11.10.2019
6408 Haze 23 1011 38 10000 3.1 280 05:29 11.10.2019
6409 Haze 24 1011 41 10000 2.6 320 04:58 11.10.2019
6410 Haze 23 1011 43 10000 2.6 320 03:27 11.10.2019
6411 Clear 26 1011 39 10000 2.6 320 01:18 11.10.2019
6412 Clear 25 1011 44 10000 1.5 310 00:31 11.10.2019
6413 Clear 25 1011 41 10000 2.1 300 23:58 10.10.2019
6414 Clear 25 1011 41 10000 2.1 300 23:40 10.10.2019
6415 Clear 25 1011 41 10000 2.1 300 23:19 10.10.2019
6416 Clear 28 1011 39 10000 1.5 330 22:56 10.10.2019
6417 Clear 28 1011 39 10000 1.5 330 22:36 10.10.2019
6418 Haze 29 1011 39 10000 1.5 330 22:18 10.10.2019
6419 Haze 29 1011 37 10000 3.1 320 21:42 10.10.2019
6420 Haze 29 1011 37 10000 3.1 320 21:22 10.10.2019
6421 Haze 29 1011 39 8000 2.6 310 20:58 10.10.2019
6422 Haze 29 1011 39 8000 2.6 310 20:40 10.10.2019
6423 Haze 29 1011 39 8000 2.6 310 20:20 10.10.2019
6424 Haze 33 1011 35 10000 1.5 300 19:57 10.10.2019
6425 Haze 33 1011 35 10000 1.5 300 19:39 10.10.2019
6426 Haze 33 1011 35 10000 1.5 300 19:19 10.10.2019
6427 Haze 33 1011 32 10000 1.5 340 18:42 10.10.2019
6428 Haze 33 1011 32 10000 1.5 340 18:21 10.10.2019
6429 Haze 34 1011 30 10000 2.1 360 17:59 10.10.2019
6430 Haze 34 1011 30 10000 2.1 360 17:40 10.10.2019
6431 Haze 34 1011 30 10000 2.1 360 17:19 10.10.2019
6432 Clear 38 1010 27 10000 3.1 350 16:57 10.10.2019
6433 Clear 38 1010 27 10000 3.1 350 16:38 10.10.2019
6434 Haze 40 1010 27 10000 3.1 350 16:20 10.10.2019
6435 Haze 40 1011 22 10000 2.6 350 15:43 10.10.2019
6436 Haze 40 1011 22 10000 2.6 350 15:23 10.10.2019
6437 Haze 40 1011 23 10000 3.6 310 14:59 10.10.2019
6438 Haze 40 1011 23 10000 3.6 310 14:37 10.10.2019
6439 Haze 40 1011 23 10000 3.6 310 14:19 10.10.2019
6440 Haze 40 1011 21 10000 3.6 330 13:58 10.10.2019
6441 Haze 40 1011 21 10000 3.6 330 13:39 10.10.2019
6442 Haze 40 1011 21 10000 3.6 330 13:18 10.10.2019
6443 Clear 39 1012 26 10000 2.6 350 12:43 10.10.2019
6444 Clear 39 1012 26 10000 2.6 350 12:21 10.10.2019
6445 Clear 39 1013 24 10000 3.1 330 11:58 10.10.2019
6446 Clear 39 1013 24 10000 3.1 330 11:40 10.10.2019
6447 Clear 39 1013 24 10000 3.1 330 11:20 10.10.2019
6448 Clear 38 1013 29 9000 3.1 340 10:58 10.10.2019
6449 Clear 38 1013 29 9000 3.1 340 10:40 10.10.2019
6450 Clear 38 1013 29 9000 3.1 340 10:21 10.10.2019
6451 Clear 37 1014 32 9000 3.6 330 09:41 10.10.2019
6452 Clear 37 1014 32 9000 3.6 330 09:41 10.10.2019
6453 Clear 37 1014 32 9000 3.6 330 09:23 10.10.2019
6454 Clear 34 1014 43 8000 2.1 340 08:59 10.10.2019
6455 Clear 34 1014 43 8000 2.1 340 08:40 10.10.2019
6456 Clear 34 1014 43 8000 2.1 340 08:21 10.10.2019
6457 Clear 31 1014 48 9000 2.1 340 07:57 10.10.2019
6458 Clear 31 1014 48 9000 2.1 340 07:36 10.10.2019
6459 Clear 31 1014 48 9000 2.1 340 07:18 10.10.2019
6460 Clear 26 1013 61 10000 2.1 340 06:39 10.10.2019
6461 Haze 26 1013 64 10000 2.1 340 05:56 10.10.2019
6462 Haze 26 1013 64 10000 2.1 340 05:21 10.10.2019
6463 Haze 27 1012 54 10000 1.5 280 04:36 10.10.2019
6464 Clear 26 1012 54 10000 1.5 300 02:42 10.10.2019
6465 Clear 28 1013 51 10000 3.1 240 01:38 10.10.2019
6466 Clear 28 1013 51 10000 3.1 240 01:19 10.10.2019
6467 Clear 28 1013 51 10000 1.5 190 00:41 10.10.2019
6468 Clear 29 1013 48 10000 4.1 210 23:57 09.10.2019
6469 Clear 29 1013 48 10000 4.1 210 23:36 09.10.2019
6470 Clear 29 1013 48 10000 4.1 210 23:18 09.10.2019
6471 Clear 31 1013 45 10000 1.5 200 22:41 09.10.2019
6472 Haze 31 1013 45 10000 1.5 200 22:22 09.10.2019
6473 Haze 31 1013 43 10000 1.5 190 21:58 09.10.2019
6474 Haze 31 1013 43 10000 1.5 190 21:39 09.10.2019
6475 Haze 31 1013 43 10000 1.5 190 21:39 09.10.2019
6476 Haze 31 1013 43 10000 1.5 190 21:19 09.10.2019
6477 Haze 30 1013 45 10000 1.5 30 20:55 09.10.2019
6478 Haze 30 1013 45 10000 1.5 30 20:37 09.10.2019
6479 Haze 33 1013 45 10000 1.5 30 20:18 09.10.2019
6480 Clear 31 1013 43 10000 1 160 19:45 09.10.2019
6481 Clear 31 1013 43 10000 2.6 40 19:23 09.10.2019
6482 Clear 33 1012 41 10000 1 40 18:56 09.10.2019
6483 Clear 33 1012 41 10000 1 40 18:37 09.10.2019
6484 Haze 34 1012 41 10000 1 40 18:18 09.10.2019
6485 Haze 34 1012 36 10000 2.6 140 17:54 09.10.2019
6486 Haze 34 1012 36 10000 2.6 140 17:36 09.10.2019
6487 Haze 34 1012 36 10000 2.6 140 17:18 09.10.2019
6488 Haze 37 1012 30 10000 2.1 130 16:40 09.10.2019
6489 Haze 37 1012 30 10000 2.1 130 16:21 09.10.2019
6490 Haze 37 1012 30 10000 2.1 130 16:21 09.10.2019
6491 Haze 38 1012 29 10000 3.1 100 15:57 09.10.2019
6492 Haze 38 1012 29 10000 3.1 100 15:57 09.10.2019
6493 Haze 38 1012 29 10000 3.1 100 15:39 09.10.2019
6494 Haze 38 1012 29 10000 3.1 100 15:19 09.10.2019
6495 Clouds 41 1012 15 0 3.97 274.764 14:56 09.10.2019
6496 Clouds 41 1012 15 0 3.97 274.764 14:37 09.10.2019
6497 Haze 40 1013 28 10000 2.6 160 14:18 09.10.2019
6498 Haze 40 1013 28 10000 2.6 160 13:39 09.10.2019
6499 Haze 40 1013 28 10000 2.6 160 13:20 09.10.2019
6500 Haze 39 1014 27 10000 3.1 110 12:57 09.10.2019
6501 Haze 39 1014 27 10000 3.1 110 12:38 09.10.2019
6502 Haze 39 1014 27 10000 3.1 110 12:20 09.10.2019
6503 Haze 38 1014 29 10000 2.6 90 11:55 09.10.2019
6504 Haze 38 1014 29 10000 2.6 90 11:36 09.10.2019
6505 Haze 38 1014 29 10000 2.6 90 11:18 09.10.2019
6506 Clear 37 1015 32 10000 2.6 60 10:43 09.10.2019
6507 Clear 37 1015 32 10000 2.6 60 10:21 09.10.2019
6508 Clear 35 1016 36 10000 1.5 0 09:57 09.10.2019
6509 Clear 35 1016 36 10000 1.5 0 09:38 09.10.2019
6510 Clear 35 1016 36 10000 1.5 0 09:18 09.10.2019
6511 Clear 32 1016 38 10000 1 0 08:40 09.10.2019
6512 Clear 32 1016 38 10000 1 0 08:21 09.10.2019
6513 Smoke 30 1016 40 7000 0.5 0 07:54 09.10.2019
6514 Clouds 30 1016 40 7000 0.5 0 07:36 09.10.2019
6515 Clouds 30 1016 40 7000 0.5 0 07:18 09.10.2019
6516 Smoke 26 1016 47 9000 0.5 0 06:47 09.10.2019
6517 Haze 23 1015 56 9000 1.5 350 05:55 09.10.2019
6518 Haze 23 1015 56 9000 1.5 350 05:19 09.10.2019
6519 Clear 26 1014 50 10000 1.5 80 03:54 09.10.2019
6520 Clear 25 1014 50 10000 2.1 90 02:45 09.10.2019
6521 Clear 26 1014 44 10000 2.6 100 01:42 09.10.2019
6522 Clear 26 1014 44 10000 2.6 100 01:19 09.10.2019
6523 Clear 26 1014 44 10000 2.6 100 01:19 09.10.2019
6524 Clear 26 1014 41 10000 1 80 00:56 09.10.2019
6525 Clear 26 1014 41 10000 1 80 00:38 09.10.2019
6526 Clear 26 1014 41 10000 1 80 00:38 09.10.2019
6527 Clear 26 1014 41 10000 1 80 00:19 09.10.2019
6528 Clear 28 1015 42 10000 2.1 110 23:39 08.10.2019
6529 Clear 28 1015 42 10000 2.1 110 23:18 08.10.2019
6530 Clear 28 1014 42 9000 3.6 110 22:56 08.10.2019
6531 Clear 28 1014 42 9000 3.6 110 22:38 08.10.2019
6532 Clear 30 1014 42 9000 3.6 110 22:19 08.10.2019
6533 Clear 30 1015 45 8000 1.5 60 21:57 08.10.2019
6534 Clear 30 1015 45 8000 1.5 60 21:38 08.10.2019
6535 Clear 30 1015 45 8000 1.5 60 21:18 08.10.2019
6536 Haze 30 1015 42 10000 1.5 110 20:55 08.10.2019
6537 Haze 30 1015 42 10000 1.5 110 20:37 08.10.2019
6538 Haze 30 1015 42 10000 1.5 110 20:37 08.10.2019
6539 Haze 30 1015 42 10000 1.5 110 20:18 08.10.2019
6540 Haze 31 1014 45 10000 1.5 100 19:56 08.10.2019
6541 Haze 31 1014 45 10000 1.5 100 19:36 08.10.2019
6542 Haze 31 1014 45 10000 1.5 100 19:18 08.10.2019
6543 Haze 33 1014 33 10000 2.1 140 18:45 08.10.2019
6544 Haze 33 1014 33 10000 2.1 140 18:25 08.10.2019
6545 Clear 35 1013 30 10000 1.5 130 17:58 08.10.2019
6546 Clear 35 1013 30 10000 1.5 130 17:39 08.10.2019
6547 Clear 35 1013 30 10000 1.5 130 17:20 08.10.2019
6548 Clear 38 1013 24 10000 2.1 180 16:56 08.10.2019
6549 Clear 38 1013 24 10000 2.1 180 16:56 08.10.2019
6550 Clear 38 1013 24 10000 2.1 180 16:56 08.10.2019
6551 Clear 38 1013 24 10000 2.1 180 16:37 08.10.2019
6552 Clear 38 1013 24 10000 2.1 180 16:18 08.10.2019
6553 Clouds 39 1013 22 10000 1 0 15:39 08.10.2019
6554 Clouds 39 1013 22 10000 1 0 15:39 08.10.2019
6555 Clouds 39 1013 22 10000 1 0 15:20 08.10.2019
6556 Clouds 39 1013 22 10000 1 0 15:20 08.10.2019
6557 Clear 38 1013 24 10000 3.1 150 14:56 08.10.2019
6558 Clear 38 1013 24 10000 3.1 150 14:38 08.10.2019
6559 Clear 38 1013 24 10000 3.1 150 14:19 08.10.2019
6560 -273 0 0 0 0 0 13:55 08.10.2019
6561 Clear 39 1013 22 10000 3.6 140 13:37 08.10.2019
6562 Clear 39 1013 22 10000 3.6 140 13:18 08.10.2019
6563 Clear 39 1013 22 10000 3.6 140 13:18 08.10.2019
6564 Clear 38 1014 22 10000 3.6 140 12:41 08.10.2019
6565 Clear 38 1014 22 10000 3.6 140 12:20 08.10.2019
6566 Clear 38 1014 22 10000 3.6 140 12:20 08.10.2019
6567 Clear 37 1014 27 10000 2.6 140 11:58 08.10.2019
6568 Clear 37 1014 27 10000 2.6 140 11:39 08.10.2019
6569 Clear 37 1014 27 10000 2.6 140 11:21 08.10.2019
6570 Clear 35 1015 30 10000 2.6 120 10:42 08.10.2019
6571 Clear 33 1015 30 10000 2.6 120 10:23 08.10.2019
6572 Clear 33 1015 33 10000 2.6 110 09:59 08.10.2019
6573 Clear 33 1015 33 10000 2.6 110 09:40 08.10.2019
6574 Clear 33 1015 33 10000 2.6 110 09:22 08.10.2019
6575 Clouds 31 1016 35 10000 3.6 110 08:45 08.10.2019
6576 Clouds 31 1016 35 10000 3.6 110 08:25 08.10.2019
6577 Clear 28 1015 37 10000 3.1 90 07:57 08.10.2019
6578 Clear 28 1015 37 10000 3.1 90 07:38 08.10.2019
6579 Clear 28 1015 37 10000 3.1 90 07:19 08.10.2019
6580 Haze 25 1015 38 4000 2.6 60 06:45 08.10.2019
6581 Haze 26 1015 38 4000 2.6 60 06:21 08.10.2019
6582 Haze 24 1015 41 6000 2.6 50 05:43 08.10.2019
6583 Haze 24 1015 41 6000 2.6 50 05:43 08.10.2019
6584 Haze 24 1015 41 6000 2.6 50 05:19 08.10.2019
6585 Haze 25 1014 36 9000 2.6 80 03:31 08.10.2019
6586 Clouds 24 1012 21 0 2.69 47.623 02:43 08.10.2019
6587 Clouds 24 1012 21 0 2.69 47.623 02:25 08.10.2019
6588 Clouds 24 1012 21 0 2.69 47.623 01:41 08.10.2019
6589 Clouds 24 1013 44 6000 1 330 00:56 08.10.2019
6590 Clouds 24 1013 44 6000 1 330 00:25 08.10.2019
6591 Clouds 27 1013 36 8000 0.5 0 23:56 07.10.2019
6592 Clouds 27 1013 36 8000 0.5 0 23:37 07.10.2019
6593 Clouds 27 1013 36 8000 0.5 0 23:19 07.10.2019
6594 Clouds 27 1013 42 9000 0.5 10 22:54 07.10.2019
6595 Clouds 27 1013 42 9000 0.5 10 22:54 07.10.2019
6596 Clouds 27 1013 42 9000 0.5 10 22:36 07.10.2019
6597 Clouds 29 1013 42 9000 0.5 10 22:18 07.10.2019
6598 Clouds 29 1012 34 8000 1 90 21:54 07.10.2019
6599 Clouds 29 1012 34 8000 1 90 21:36 07.10.2019
6600 Clear 29 1012 34 8000 1 90 21:18 07.10.2019
6601 Clear 29 1012 34 8000 1 90 21:18 07.10.2019
6602 Clear 29 1012 32 10000 1.5 20 20:54 07.10.2019
6603 Clear 29 1012 32 10000 1.5 20 20:36 07.10.2019
6604 Clear 29 1012 32 10000 1.5 20 20:18 07.10.2019
6605 Haze 31 1012 30 10000 1 0 19:41 07.10.2019
6606 Haze 31 1012 30 10000 1 0 19:21 07.10.2019
6607 Haze 31 1011 30 10000 1.5 340 18:59 07.10.2019
6608 Haze 31 1011 30 10000 1.5 340 18:59 07.10.2019
6609 Haze 31 1011 30 10000 1.5 340 18:40 07.10.2019
6610 Haze 31 1011 30 10000 1.5 340 18:19 07.10.2019
6611 Haze 34 1011 26 10000 1 0 17:56 07.10.2019
6612 Haze 34 1011 26 10000 1 0 17:38 07.10.2019
6613 Haze 34 1011 26 10000 1 0 17:18 07.10.2019
6614 Haze 36 1010 20 10000 2.6 0 16:44 07.10.2019
6615 Haze 36 1010 20 10000 2.6 0 16:25 07.10.2019
6616 Clear 37 1010 18 10000 2.1 290 15:57 07.10.2019
6617 Clear 37 1010 18 10000 2.1 290 15:38 07.10.2019
6618 Clear 37 1010 18 10000 2.1 290 15:20 07.10.2019
6619 Haze 37 1010 17 10000 3.1 230 14:41 07.10.2019
6620 Haze 37 1010 17 10000 3.1 230 14:23 07.10.2019
6621 Haze 37 1010 19 10000 4.6 210 13:45 07.10.2019
6622 Haze 37 1010 19 10000 4.6 210 13:21 07.10.2019
6623 Clear 36 1010 22 10000 5.1 200 12:58 07.10.2019
6624 Clear 36 1010 22 10000 5.1 200 12:39 07.10.2019
6625 Clear 36 1010 22 10000 5.1 200 12:20 07.10.2019
6626 Haze 35 1011 23 10000 2.6 190 11:59 07.10.2019
6627 Haze 35 1011 23 10000 2.6 190 11:40 07.10.2019
6628 Haze 35 1011 23 10000 2.6 190 11:40 07.10.2019
6629 Haze 35 1011 23 10000 2.6 190 11:21 07.10.2019
6630 Haze 34 1011 24 10000 3.1 170 10:56 07.10.2019
6631 Haze 34 1011 24 10000 3.1 170 10:37 07.10.2019
6632 Haze 34 1011 24 10000 3.1 170 10:19 07.10.2019
6633 Haze 33 1011 19 10000 3.6 130 09:38 07.10.2019
6634 Haze 33 1011 19 10000 3.6 130 09:20 07.10.2019
6635 Haze 30 1011 25 10000 2.6 130 08:44 07.10.2019
6636 Haze 30 1011 25 10000 2.6 130 08:21 07.10.2019
6637 Haze 27 1010 35 6000 1.5 70 07:55 07.10.2019
6638 Haze 27 1010 35 6000 1.5 70 07:36 07.10.2019
6639 Haze 27 1010 35 6000 1.5 70 07:18 07.10.2019
6640 Clear 22 1010 49 10000 1.5 50 06:43 07.10.2019
6641 Clear 22 1010 49 10000 1.5 50 06:20 07.10.2019
6642 Haze 21 1009 49 10000 1.5 50 05:27 07.10.2019
6643 Clear 22 1009 46 10000 0.95 111.251 04:54 07.10.2019
6644 Clear 24 1008 39 10000 2.1 220 03:48 07.10.2019
6645 Clear 24 1008 39 10000 2.1 220 03:30 07.10.2019
6646 Clear 23 1008 49 10000 0.5 0 02:39 07.10.2019
6647 Clear 23 1008 49 10000 0.5 0 02:19 07.10.2019
6648 Clear 26 1008 36 10000 1.5 200 01:24 07.10.2019
6649 Clear 24 1007 44 10000 0.5 220 00:53 07.10.2019
6650 Clear 24 1007 44 10000 0.5 220 00:26 07.10.2019
6651 Clear 26 1008 39 10000 1 130 23:59 06.10.2019
6652 Clear 26 1008 39 10000 1 130 23:40 06.10.2019
6653 Clear 26 1008 39 10000 1 130 23:20 06.10.2019
6654 Clear 26 1008 34 10000 2.05 316.784 22:57 06.10.2019
6655 Clear 26 1008 34 10000 2.05 316.784 22:39 06.10.2019
6656 Haze 27 1008 34 10000 2.05 316.784 22:20 06.10.2019
6657 Haze 27 1008 34 10000 2.05 316.784 22:20 06.10.2019
6658 Haze 27 1008 32 10000 3.1 150 21:55 06.10.2019
6659 Haze 27 1008 32 10000 3.1 150 21:37 06.10.2019
6660 Haze 27 1008 32 10000 3.1 150 21:19 06.10.2019
6661 Haze 29 1007 32 10000 1.5 310 20:56 06.10.2019
6662 Haze 29 1007 32 10000 1.5 310 20:38 06.10.2019
6663 Haze 29 1007 32 10000 1.5 310 20:19 06.10.2019
6664 Haze 29 1007 25 10000 2.1 280 19:56 06.10.2019
6665 Haze 29 1007 25 10000 2.1 280 19:37 06.10.2019
6666 Haze 29 1007 25 10000 2.1 280 19:18 06.10.2019
6667 Clear 30 1007 25 10000 2.1 230 18:56 06.10.2019
6668 Clear 30 1007 25 10000 2.1 230 18:56 06.10.2019
6669 Clear 30 1007 25 10000 2.1 230 18:37 06.10.2019
6670 Clear 30 1007 25 10000 2.1 230 18:18 06.10.2019
6671 Haze 32 1007 24 10000 2.6 210 17:43 06.10.2019
6672 Haze 32 1007 24 10000 2.6 210 17:20 06.10.2019
6673 Haze 35 1007 23 10000 2.1 270 16:56 06.10.2019
6674 Haze 35 1007 23 10000 2.1 270 16:38 06.10.2019
6675 Rain 35 1007 17 9000 1 0 16:19 06.10.2019
6676 Rain 35 1007 19 10000 5.7 290 15:44 06.10.2019
6677 Rain 35 1007 19 10000 5.7 290 15:44 06.10.2019
6678 Rain 35 1007 19 10000 5.7 290 15:22 06.10.2019
6679 Haze 36 1007 17 10000 3.6 280 14:58 06.10.2019
6680 Haze 36 1007 17 10000 3.6 280 14:40 06.10.2019
6681 Haze 36 1007 17 10000 3.6 280 14:21 06.10.2019
6682 Haze 36 1007 18 10000 3.1 300 13:54 06.10.2019
6683 Haze 36 1007 18 10000 3.1 300 13:36 06.10.2019
6684 Haze 36 1007 18 10000 3.1 300 13:18 06.10.2019
6685 Haze 36 1007 19 10000 1.5 0 12:55 06.10.2019
6686 Haze 36 1007 19 10000 1.5 0 12:55 06.10.2019
6687 Haze 36 1007 19 10000 1.5 0 12:37 06.10.2019
6688 Haze 36 1007 19 10000 1.5 0 12:19 06.10.2019
6689 Haze 35 1008 19 10000 2.6 0 11:42 06.10.2019
6690 Haze 35 1008 19 10000 2.6 0 11:24 06.10.2019
6691 Haze 35 1008 19 10000 2.6 0 11:24 06.10.2019
6692 Haze 34 1009 21 10000 2.1 260 10:56 06.10.2019
6693 Haze 34 1009 21 10000 2.1 260 10:56 06.10.2019
6694 Haze 34 1009 21 10000 2.1 260 10:38 06.10.2019
6695 Haze 34 1009 21 10000 2.1 260 10:19 06.10.2019
6696 Haze 31 1009 25 10000 2.1 290 09:41 06.10.2019
6697 Haze 31 1009 25 10000 2.1 290 09:20 06.10.2019
6698 Haze 29 1009 30 10000 2.6 290 08:50 06.10.2019
6699 Haze 29 1009 30 10000 2.6 290 08:30 06.10.2019
6700 Haze 25 1009 39 10000 2.1 250 07:59 06.10.2019
6701 Haze 25 1009 39 10000 2.1 250 07:59 06.10.2019
6702 Haze 25 1009 39 10000 2.1 250 07:40 06.10.2019
6703 Haze 21 1008 46 10000 2.6 260 06:59 06.10.2019
6704</